<?xml version="1.0" encoding="UTF-8" standalone="no" ?>
<gpx xmlns="http://www.topografix.com/GPX/1/1" xmlns:xsi="http://www.w3.org/2001/XMLSchema-instance" xsi:schemaLocation="http://www.topografix.com/GPX/1/1 http://www.topografix.com/GPX/1/1/gpx.xsd" version="1.1" creator="VisuGPX - https://www.visugpx.com">
  <metadata>
    <name>Rando VTT Les Monts d'Ambazac 2023</name>
    <desc><![CDATA[Top rando!]]></desc>
  </metadata>
  <trk>
    <name><![CDATA[Rando VTT Les Monts d'Ambazac 2023_1]]></name>
    <trkseg>
      <trkpt lat="45.95853" lon="1.39717">
        <ele>383.4</ele>
        <time>2023-11-19T07:26:07Z</time>
      </trkpt>
      <trkpt lat="45.95848" lon="1.39728">
        <ele>383.4</ele>
        <time>2023-11-19T07:26:15Z</time>
      </trkpt>
      <trkpt lat="45.95851" lon="1.39731">
        <ele>383.4</ele>
        <time>2023-11-19T07:26:18Z</time>
      </trkpt>
      <trkpt lat="45.9585" lon="1.39732">
        <ele>383.4</ele>
        <time>2023-11-19T07:26:20Z</time>
      </trkpt>
      <trkpt lat="45.95849" lon="1.39742">
        <ele>383.4</ele>
        <time>2023-11-19T07:26:27Z</time>
      </trkpt>
      <trkpt lat="45.95845" lon="1.39756">
        <ele>383.4</ele>
        <time>2023-11-19T07:26:37Z</time>
      </trkpt>
      <trkpt lat="45.95847" lon="1.39763">
        <ele>383.4</ele>
        <time>2023-11-19T07:26:40Z</time>
      </trkpt>
      <trkpt lat="45.95851" lon="1.39767">
        <ele>383.4</ele>
        <time>2023-11-19T07:26:42Z</time>
      </trkpt>
      <trkpt lat="45.95863" lon="1.39771">
        <ele>382.8</ele>
        <time>2023-11-19T07:26:47Z</time>
      </trkpt>
      <trkpt lat="45.95871" lon="1.39775">
        <ele>382.4</ele>
        <time>2023-11-19T07:26:51Z</time>
      </trkpt>
      <trkpt lat="45.95873" lon="1.39775">
        <ele>382.2</ele>
        <time>2023-11-19T07:26:52Z</time>
      </trkpt>
      <trkpt lat="45.95875" lon="1.39775">
        <ele>382.2</ele>
        <time>2023-11-19T07:26:53Z</time>
      </trkpt>
      <trkpt lat="45.95877" lon="1.3977">
        <ele>382.2</ele>
        <time>2023-11-19T07:26:56Z</time>
      </trkpt>
      <trkpt lat="45.95877" lon="1.39751">
        <ele>382.6</ele>
        <time>2023-11-19T07:27:02Z</time>
      </trkpt>
      <trkpt lat="45.9588" lon="1.39732">
        <ele>383</ele>
        <time>2023-11-19T07:27:08Z</time>
      </trkpt>
      <trkpt lat="45.9588" lon="1.39709">
        <ele>383.4</ele>
        <time>2023-11-19T07:27:15Z</time>
      </trkpt>
      <trkpt lat="45.95878" lon="1.39687">
        <ele>383.8</ele>
        <time>2023-11-19T07:27:21Z</time>
      </trkpt>
      <trkpt lat="45.95865" lon="1.3966">
        <ele>384.2</ele>
        <time>2023-11-19T07:27:28Z</time>
      </trkpt>
      <trkpt lat="45.95861" lon="1.3965">
        <ele>384.6</ele>
        <time>2023-11-19T07:27:31Z</time>
      </trkpt>
      <trkpt lat="45.95859" lon="1.39639">
        <ele>385.4</ele>
        <time>2023-11-19T07:27:34Z</time>
      </trkpt>
      <trkpt lat="45.95859" lon="1.39632">
        <ele>386</ele>
        <time>2023-11-19T07:27:36Z</time>
      </trkpt>
      <trkpt lat="45.95859" lon="1.39616">
        <ele>386.4</ele>
        <time>2023-11-19T07:27:40Z</time>
      </trkpt>
      <trkpt lat="45.95859" lon="1.39605">
        <ele>387</ele>
        <time>2023-11-19T07:27:43Z</time>
      </trkpt>
      <trkpt lat="45.95859" lon="1.3959">
        <ele>387.6</ele>
        <time>2023-11-19T07:27:47Z</time>
      </trkpt>
      <trkpt lat="45.95864" lon="1.39577">
        <ele>388</ele>
        <time>2023-11-19T07:27:51Z</time>
      </trkpt>
      <trkpt lat="45.95867" lon="1.3957">
        <ele>388.2</ele>
        <time>2023-11-19T07:27:53Z</time>
      </trkpt>
      <trkpt lat="45.95876" lon="1.3954">
        <ele>388.4</ele>
        <time>2023-11-19T07:28:01Z</time>
      </trkpt>
      <trkpt lat="45.9588" lon="1.39515">
        <ele>388.6</ele>
        <time>2023-11-19T07:28:09Z</time>
      </trkpt>
      <trkpt lat="45.95877" lon="1.39501">
        <ele>389</ele>
        <time>2023-11-19T07:28:14Z</time>
      </trkpt>
      <trkpt lat="45.95876" lon="1.39499">
        <ele>389.6</ele>
        <time>2023-11-19T07:28:15Z</time>
      </trkpt>
      <trkpt lat="45.95876" lon="1.39498">
        <ele>389.8</ele>
        <time>2023-11-19T07:28:16Z</time>
      </trkpt>
      <trkpt lat="45.95875" lon="1.39493">
        <ele>390</ele>
        <time>2023-11-19T07:28:20Z</time>
      </trkpt>
      <trkpt lat="45.95874" lon="1.39491">
        <ele>390.2</ele>
        <time>2023-11-19T07:28:22Z</time>
      </trkpt>
      <trkpt lat="45.95872" lon="1.39487">
        <ele>391.6</ele>
        <time>2023-11-19T07:28:25Z</time>
      </trkpt>
      <trkpt lat="45.95871" lon="1.39483">
        <ele>392.6</ele>
        <time>2023-11-19T07:28:29Z</time>
      </trkpt>
      <trkpt lat="45.95871" lon="1.39479">
        <ele>393</ele>
        <time>2023-11-19T07:28:32Z</time>
      </trkpt>
      <trkpt lat="45.95871" lon="1.39477">
        <ele>393</ele>
        <time>2023-11-19T07:28:33Z</time>
      </trkpt>
      <trkpt lat="45.95873" lon="1.39472">
        <ele>393.6</ele>
        <time>2023-11-19T07:28:35Z</time>
      </trkpt>
      <trkpt lat="45.95879" lon="1.39466">
        <ele>395</ele>
        <time>2023-11-19T07:28:39Z</time>
      </trkpt>
      <trkpt lat="45.95885" lon="1.39458">
        <ele>396.2</ele>
        <time>2023-11-19T07:28:43Z</time>
      </trkpt>
      <trkpt lat="45.95889" lon="1.39453">
        <ele>397.4</ele>
        <time>2023-11-19T07:28:46Z</time>
      </trkpt>
      <trkpt lat="45.95895" lon="1.39443">
        <ele>398.6</ele>
        <time>2023-11-19T07:28:51Z</time>
      </trkpt>
      <trkpt lat="45.95897" lon="1.39434">
        <ele>399.2</ele>
        <time>2023-11-19T07:28:55Z</time>
      </trkpt>
      <trkpt lat="45.95896" lon="1.39425">
        <ele>399.6</ele>
        <time>2023-11-19T07:28:59Z</time>
      </trkpt>
      <trkpt lat="45.95897" lon="1.39423">
        <ele>399.8</ele>
        <time>2023-11-19T07:29:00Z</time>
      </trkpt>
      <trkpt lat="45.95898" lon="1.39421">
        <ele>400.2</ele>
        <time>2023-11-19T07:29:01Z</time>
      </trkpt>
      <trkpt lat="45.95905" lon="1.39411">
        <ele>400.8</ele>
        <time>2023-11-19T07:29:05Z</time>
      </trkpt>
      <trkpt lat="45.9591" lon="1.39404">
        <ele>401.4</ele>
        <time>2023-11-19T07:29:08Z</time>
      </trkpt>
      <trkpt lat="45.95915" lon="1.39397">
        <ele>402</ele>
        <time>2023-11-19T07:29:11Z</time>
      </trkpt>
      <trkpt lat="45.95924" lon="1.39384">
        <ele>402.8</ele>
        <time>2023-11-19T07:29:16Z</time>
      </trkpt>
      <trkpt lat="45.95928" lon="1.39379">
        <ele>403.2</ele>
        <time>2023-11-19T07:29:18Z</time>
      </trkpt>
      <trkpt lat="45.95935" lon="1.39368">
        <ele>404</ele>
        <time>2023-11-19T07:29:22Z</time>
      </trkpt>
      <trkpt lat="45.95939" lon="1.39363">
        <ele>404.4</ele>
        <time>2023-11-19T07:29:24Z</time>
      </trkpt>
      <trkpt lat="45.95948" lon="1.39354">
        <ele>405.4</ele>
        <time>2023-11-19T07:29:29Z</time>
      </trkpt>
      <trkpt lat="45.95965" lon="1.39336">
        <ele>406.6</ele>
        <time>2023-11-19T07:29:37Z</time>
      </trkpt>
      <trkpt lat="45.95966" lon="1.39331">
        <ele>407.8</ele>
        <time>2023-11-19T07:29:39Z</time>
      </trkpt>
      <trkpt lat="45.95965" lon="1.39327">
        <ele>408.2</ele>
        <time>2023-11-19T07:29:41Z</time>
      </trkpt>
      <trkpt lat="45.9596" lon="1.39323">
        <ele>408.6</ele>
        <time>2023-11-19T07:29:44Z</time>
      </trkpt>
      <trkpt lat="45.95958" lon="1.39322">
        <ele>408.8</ele>
        <time>2023-11-19T07:29:45Z</time>
      </trkpt>
      <trkpt lat="45.95953" lon="1.39322">
        <ele>409</ele>
        <time>2023-11-19T07:29:47Z</time>
      </trkpt>
      <trkpt lat="45.95931" lon="1.39326">
        <ele>409</ele>
        <time>2023-11-19T07:29:54Z</time>
      </trkpt>
      <trkpt lat="45.95907" lon="1.39342">
        <ele>408.8</ele>
        <time>2023-11-19T07:30:01Z</time>
      </trkpt>
      <trkpt lat="45.9588" lon="1.39359">
        <ele>408</ele>
        <time>2023-11-19T07:30:08Z</time>
      </trkpt>
      <trkpt lat="45.95871" lon="1.39362">
        <ele>408</ele>
        <time>2023-11-19T07:30:10Z</time>
      </trkpt>
      <trkpt lat="45.95862" lon="1.39363">
        <ele>408</ele>
        <time>2023-11-19T07:30:12Z</time>
      </trkpt>
      <trkpt lat="45.95857" lon="1.39362">
        <ele>408.2</ele>
        <time>2023-11-19T07:30:13Z</time>
      </trkpt>
      <trkpt lat="45.95853" lon="1.3936">
        <ele>408.2</ele>
        <time>2023-11-19T07:30:14Z</time>
      </trkpt>
      <trkpt lat="45.95845" lon="1.39353">
        <ele>408</ele>
        <time>2023-11-19T07:30:16Z</time>
      </trkpt>
      <trkpt lat="45.95842" lon="1.39349">
        <ele>407.8</ele>
        <time>2023-11-19T07:30:17Z</time>
      </trkpt>
      <trkpt lat="45.95838" lon="1.39345">
        <ele>407.8</ele>
        <time>2023-11-19T07:30:18Z</time>
      </trkpt>
      <trkpt lat="45.95835" lon="1.39341">
        <ele>407.6</ele>
        <time>2023-11-19T07:30:19Z</time>
      </trkpt>
      <trkpt lat="45.95831" lon="1.3933">
        <ele>407.4</ele>
        <time>2023-11-19T07:30:21Z</time>
      </trkpt>
      <trkpt lat="45.9583" lon="1.39324">
        <ele>407.2</ele>
        <time>2023-11-19T07:30:22Z</time>
      </trkpt>
      <trkpt lat="45.9583" lon="1.39317">
        <ele>407.2</ele>
        <time>2023-11-19T07:30:23Z</time>
      </trkpt>
      <trkpt lat="45.95832" lon="1.39305">
        <ele>406.8</ele>
        <time>2023-11-19T07:30:25Z</time>
      </trkpt>
      <trkpt lat="45.95833" lon="1.39299">
        <ele>406.8</ele>
        <time>2023-11-19T07:30:26Z</time>
      </trkpt>
      <trkpt lat="45.95836" lon="1.39287">
        <ele>407</ele>
        <time>2023-11-19T07:30:28Z</time>
      </trkpt>
      <trkpt lat="45.95846" lon="1.39265">
        <ele>407.2</ele>
        <time>2023-11-19T07:30:32Z</time>
      </trkpt>
      <trkpt lat="45.95854" lon="1.39247">
        <ele>406.8</ele>
        <time>2023-11-19T07:30:35Z</time>
      </trkpt>
      <trkpt lat="45.95865" lon="1.39224">
        <ele>405.8</ele>
        <time>2023-11-19T07:30:38Z</time>
      </trkpt>
      <trkpt lat="45.95869" lon="1.39216">
        <ele>405.4</ele>
        <time>2023-11-19T07:30:39Z</time>
      </trkpt>
      <trkpt lat="45.95878" lon="1.39192">
        <ele>404.4</ele>
        <time>2023-11-19T07:30:42Z</time>
      </trkpt>
      <trkpt lat="45.9588" lon="1.39185">
        <ele>403.2</ele>
        <time>2023-11-19T07:30:43Z</time>
      </trkpt>
      <trkpt lat="45.95882" lon="1.39176">
        <ele>401.2</ele>
        <time>2023-11-19T07:30:45Z</time>
      </trkpt>
      <trkpt lat="45.95884" lon="1.39171">
        <ele>400.2</ele>
        <time>2023-11-19T07:30:47Z</time>
      </trkpt>
      <trkpt lat="45.95884" lon="1.39164">
        <ele>399.4</ele>
        <time>2023-11-19T07:30:53Z</time>
      </trkpt>
      <trkpt lat="45.95884" lon="1.39163">
        <ele>399.4</ele>
        <time>2023-11-19T07:30:54Z</time>
      </trkpt>
      <trkpt lat="45.95882" lon="1.39161">
        <ele>399.4</ele>
        <time>2023-11-19T07:30:55Z</time>
      </trkpt>
      <trkpt lat="45.95874" lon="1.39161">
        <ele>399.4</ele>
        <time>2023-11-19T07:30:58Z</time>
      </trkpt>
      <trkpt lat="45.95861" lon="1.3917">
        <ele>399.2</ele>
        <time>2023-11-19T07:31:03Z</time>
      </trkpt>
      <trkpt lat="45.9586" lon="1.39168">
        <ele>399</ele>
        <time>2023-11-19T07:31:04Z</time>
      </trkpt>
      <trkpt lat="45.95862" lon="1.39162">
        <ele>398.8</ele>
        <time>2023-11-19T07:31:06Z</time>
      </trkpt>
      <trkpt lat="45.95875" lon="1.39146">
        <ele>398</ele>
        <time>2023-11-19T07:31:11Z</time>
      </trkpt>
      <trkpt lat="45.95879" lon="1.39136">
        <ele>397.8</ele>
        <time>2023-11-19T07:31:13Z</time>
      </trkpt>
      <trkpt lat="45.95879" lon="1.39124">
        <ele>397.8</ele>
        <time>2023-11-19T07:31:15Z</time>
      </trkpt>
      <trkpt lat="45.95876" lon="1.39113">
        <ele>397.8</ele>
        <time>2023-11-19T07:31:17Z</time>
      </trkpt>
      <trkpt lat="45.9587" lon="1.39095">
        <ele>398</ele>
        <time>2023-11-19T07:31:20Z</time>
      </trkpt>
      <trkpt lat="45.95854" lon="1.39051">
        <ele>398.6</ele>
        <time>2023-11-19T07:31:28Z</time>
      </trkpt>
      <trkpt lat="45.95852" lon="1.39046">
        <ele>399</ele>
        <time>2023-11-19T07:31:29Z</time>
      </trkpt>
      <trkpt lat="45.95848" lon="1.39032">
        <ele>400.2</ele>
        <time>2023-11-19T07:31:32Z</time>
      </trkpt>
      <trkpt lat="45.95846" lon="1.39022">
        <ele>401.4</ele>
        <time>2023-11-19T07:31:35Z</time>
      </trkpt>
      <trkpt lat="45.95847" lon="1.39011">
        <ele>403</ele>
        <time>2023-11-19T07:31:38Z</time>
      </trkpt>
      <trkpt lat="45.95848" lon="1.39004">
        <ele>404</ele>
        <time>2023-11-19T07:31:40Z</time>
      </trkpt>
      <trkpt lat="45.95849" lon="1.39">
        <ele>404.4</ele>
        <time>2023-11-19T07:31:41Z</time>
      </trkpt>
      <trkpt lat="45.95851" lon="1.38993">
        <ele>405.4</ele>
        <time>2023-11-19T07:31:43Z</time>
      </trkpt>
      <trkpt lat="45.95854" lon="1.38983">
        <ele>406.6</ele>
        <time>2023-11-19T07:31:46Z</time>
      </trkpt>
      <trkpt lat="45.9586" lon="1.38969">
        <ele>408</ele>
        <time>2023-11-19T07:31:50Z</time>
      </trkpt>
      <trkpt lat="45.95865" lon="1.38961">
        <ele>409</ele>
        <time>2023-11-19T07:31:53Z</time>
      </trkpt>
      <trkpt lat="45.95867" lon="1.38958">
        <ele>409.4</ele>
        <time>2023-11-19T07:31:54Z</time>
      </trkpt>
      <trkpt lat="45.95872" lon="1.38951">
        <ele>410.2</ele>
        <time>2023-11-19T07:31:57Z</time>
      </trkpt>
      <trkpt lat="45.95877" lon="1.3894">
        <ele>411.2</ele>
        <time>2023-11-19T07:32:01Z</time>
      </trkpt>
      <trkpt lat="45.95879" lon="1.38938">
        <ele>411.6</ele>
        <time>2023-11-19T07:32:02Z</time>
      </trkpt>
      <trkpt lat="45.95884" lon="1.38931">
        <ele>412.4</ele>
        <time>2023-11-19T07:32:05Z</time>
      </trkpt>
      <trkpt lat="45.9589" lon="1.38922">
        <ele>413.6</ele>
        <time>2023-11-19T07:32:09Z</time>
      </trkpt>
      <trkpt lat="45.95893" lon="1.38918">
        <ele>414</ele>
        <time>2023-11-19T07:32:11Z</time>
      </trkpt>
      <trkpt lat="45.95898" lon="1.38909">
        <ele>414.6</ele>
        <time>2023-11-19T07:32:14Z</time>
      </trkpt>
      <trkpt lat="45.95905" lon="1.389">
        <ele>415.4</ele>
        <time>2023-11-19T07:32:18Z</time>
      </trkpt>
      <trkpt lat="45.95907" lon="1.38898">
        <ele>415.6</ele>
        <time>2023-11-19T07:32:19Z</time>
      </trkpt>
      <trkpt lat="45.95914" lon="1.38889">
        <ele>416.8</ele>
        <time>2023-11-19T07:32:23Z</time>
      </trkpt>
      <trkpt lat="45.95917" lon="1.38884">
        <ele>417.2</ele>
        <time>2023-11-19T07:32:25Z</time>
      </trkpt>
      <trkpt lat="45.95921" lon="1.38879">
        <ele>417.8</ele>
        <time>2023-11-19T07:32:27Z</time>
      </trkpt>
      <trkpt lat="45.95929" lon="1.38868">
        <ele>418.8</ele>
        <time>2023-11-19T07:32:32Z</time>
      </trkpt>
      <trkpt lat="45.9593" lon="1.38867">
        <ele>418.8</ele>
        <time>2023-11-19T07:32:33Z</time>
      </trkpt>
      <trkpt lat="45.95933" lon="1.38858">
        <ele>420.2</ele>
        <time>2023-11-19T07:32:37Z</time>
      </trkpt>
      <trkpt lat="45.95935" lon="1.38851">
        <ele>421</ele>
        <time>2023-11-19T07:32:40Z</time>
      </trkpt>
      <trkpt lat="45.95936" lon="1.38849">
        <ele>421.2</ele>
        <time>2023-11-19T07:32:41Z</time>
      </trkpt>
      <trkpt lat="45.95943" lon="1.38837">
        <ele>422</ele>
        <time>2023-11-19T07:32:47Z</time>
      </trkpt>
      <trkpt lat="45.95948" lon="1.38829">
        <ele>422.8</ele>
        <time>2023-11-19T07:32:51Z</time>
      </trkpt>
      <trkpt lat="45.95952" lon="1.38821">
        <ele>423.6</ele>
        <time>2023-11-19T07:32:54Z</time>
      </trkpt>
      <trkpt lat="45.95956" lon="1.38814">
        <ele>423.8</ele>
        <time>2023-11-19T07:32:56Z</time>
      </trkpt>
      <trkpt lat="45.95962" lon="1.38797">
        <ele>424.6</ele>
        <time>2023-11-19T07:33:01Z</time>
      </trkpt>
      <trkpt lat="45.95968" lon="1.3878">
        <ele>424.8</ele>
        <time>2023-11-19T07:33:06Z</time>
      </trkpt>
      <trkpt lat="45.95972" lon="1.38771">
        <ele>425</ele>
        <time>2023-11-19T07:33:08Z</time>
      </trkpt>
      <trkpt lat="45.95979" lon="1.3874">
        <ele>425.8</ele>
        <time>2023-11-19T07:33:15Z</time>
      </trkpt>
      <trkpt lat="45.95981" lon="1.38736">
        <ele>426</ele>
        <time>2023-11-19T07:33:16Z</time>
      </trkpt>
      <trkpt lat="45.95992" lon="1.38715">
        <ele>426.6</ele>
        <time>2023-11-19T07:33:21Z</time>
      </trkpt>
      <trkpt lat="45.96" lon="1.38698">
        <ele>427</ele>
        <time>2023-11-19T07:33:25Z</time>
      </trkpt>
      <trkpt lat="45.96007" lon="1.38683">
        <ele>428</ele>
        <time>2023-11-19T07:33:29Z</time>
      </trkpt>
      <trkpt lat="45.96014" lon="1.38668">
        <ele>429.2</ele>
        <time>2023-11-19T07:33:34Z</time>
      </trkpt>
      <trkpt lat="45.96016" lon="1.38664">
        <ele>430</ele>
        <time>2023-11-19T07:33:35Z</time>
      </trkpt>
      <trkpt lat="45.96017" lon="1.38661">
        <ele>430.6</ele>
        <time>2023-11-19T07:33:36Z</time>
      </trkpt>
      <trkpt lat="45.96024" lon="1.38644">
        <ele>431.6</ele>
        <time>2023-11-19T07:33:40Z</time>
      </trkpt>
      <trkpt lat="45.9603" lon="1.38633">
        <ele>431.8</ele>
        <time>2023-11-19T07:33:43Z</time>
      </trkpt>
      <trkpt lat="45.9604" lon="1.38608">
        <ele>432.2</ele>
        <time>2023-11-19T07:33:49Z</time>
      </trkpt>
      <trkpt lat="45.96033" lon="1.38606">
        <ele>432.4</ele>
        <time>2023-11-19T07:33:52Z</time>
      </trkpt>
      <trkpt lat="45.96013" lon="1.38607">
        <ele>432.8</ele>
        <time>2023-11-19T07:33:58Z</time>
      </trkpt>
      <trkpt lat="45.95988" lon="1.38618">
        <ele>433</ele>
        <time>2023-11-19T07:34:05Z</time>
      </trkpt>
      <trkpt lat="45.95982" lon="1.38623">
        <ele>433</ele>
        <time>2023-11-19T07:34:08Z</time>
      </trkpt>
      <trkpt lat="45.95981" lon="1.38626">
        <ele>433</ele>
        <time>2023-11-19T07:34:09Z</time>
      </trkpt>
      <trkpt lat="45.95979" lon="1.38631">
        <ele>433</ele>
        <time>2023-11-19T07:34:11Z</time>
      </trkpt>
      <trkpt lat="45.95972" lon="1.38642">
        <ele>433.4</ele>
        <time>2023-11-19T07:34:16Z</time>
      </trkpt>
      <trkpt lat="45.95969" lon="1.38645">
        <ele>433.8</ele>
        <time>2023-11-19T07:34:18Z</time>
      </trkpt>
      <trkpt lat="45.95962" lon="1.38654">
        <ele>434.6</ele>
        <time>2023-11-19T07:34:23Z</time>
      </trkpt>
      <trkpt lat="45.95958" lon="1.38659">
        <ele>434.8</ele>
        <time>2023-11-19T07:34:25Z</time>
      </trkpt>
      <trkpt lat="45.95955" lon="1.38662">
        <ele>434.8</ele>
        <time>2023-11-19T07:34:26Z</time>
      </trkpt>
      <trkpt lat="45.9595" lon="1.3867">
        <ele>434.8</ele>
        <time>2023-11-19T07:34:29Z</time>
      </trkpt>
      <trkpt lat="45.95938" lon="1.38689">
        <ele>433.8</ele>
        <time>2023-11-19T07:34:36Z</time>
      </trkpt>
      <trkpt lat="45.95934" lon="1.38694">
        <ele>433.8</ele>
        <time>2023-11-19T07:34:38Z</time>
      </trkpt>
      <trkpt lat="45.95926" lon="1.38704">
        <ele>433.6</ele>
        <time>2023-11-19T07:34:41Z</time>
      </trkpt>
      <trkpt lat="45.95919" lon="1.38713">
        <ele>433.4</ele>
        <time>2023-11-19T07:34:42Z</time>
      </trkpt>
      <trkpt lat="45.95891" lon="1.38746">
        <ele>432.6</ele>
        <time>2023-11-19T07:34:49Z</time>
      </trkpt>
      <trkpt lat="45.95872" lon="1.3877">
        <ele>432</ele>
        <time>2023-11-19T07:34:55Z</time>
      </trkpt>
      <trkpt lat="45.95861" lon="1.38782">
        <ele>431.8</ele>
        <time>2023-11-19T07:34:58Z</time>
      </trkpt>
      <trkpt lat="45.95858" lon="1.38785">
        <ele>431.6</ele>
        <time>2023-11-19T07:34:59Z</time>
      </trkpt>
      <trkpt lat="45.95856" lon="1.38789">
        <ele>431.6</ele>
        <time>2023-11-19T07:35:00Z</time>
      </trkpt>
      <trkpt lat="45.95848" lon="1.38805">
        <ele>430.4</ele>
        <time>2023-11-19T07:35:04Z</time>
      </trkpt>
      <trkpt lat="45.95842" lon="1.38813">
        <ele>429.2</ele>
        <time>2023-11-19T07:35:06Z</time>
      </trkpt>
      <trkpt lat="45.9584" lon="1.38817">
        <ele>428.6</ele>
        <time>2023-11-19T07:35:07Z</time>
      </trkpt>
      <trkpt lat="45.95838" lon="1.38823">
        <ele>428.2</ele>
        <time>2023-11-19T07:35:08Z</time>
      </trkpt>
      <trkpt lat="45.95834" lon="1.38829">
        <ele>427.4</ele>
        <time>2023-11-19T07:35:10Z</time>
      </trkpt>
      <trkpt lat="45.95829" lon="1.38833">
        <ele>427.2</ele>
        <time>2023-11-19T07:35:12Z</time>
      </trkpt>
      <trkpt lat="45.95827" lon="1.38836">
        <ele>427.2</ele>
        <time>2023-11-19T07:35:13Z</time>
      </trkpt>
      <trkpt lat="45.958" lon="1.38861">
        <ele>426.4</ele>
        <time>2023-11-19T07:35:17Z</time>
      </trkpt>
      <trkpt lat="45.9575" lon="1.38891">
        <ele>426</ele>
        <time>2023-11-19T07:35:22Z</time>
      </trkpt>
      <trkpt lat="45.95743" lon="1.38895">
        <ele>426</ele>
        <time>2023-11-19T07:35:23Z</time>
      </trkpt>
      <trkpt lat="45.95711" lon="1.38915">
        <ele>425.6</ele>
        <time>2023-11-19T07:35:29Z</time>
      </trkpt>
      <trkpt lat="45.95689" lon="1.38934">
        <ele>425</ele>
        <time>2023-11-19T07:35:35Z</time>
      </trkpt>
      <trkpt lat="45.95686" lon="1.38937">
        <ele>425</ele>
        <time>2023-11-19T07:35:37Z</time>
      </trkpt>
      <trkpt lat="45.95677" lon="1.38942">
        <ele>426.2</ele>
        <time>2023-11-19T07:35:42Z</time>
      </trkpt>
      <trkpt lat="45.95668" lon="1.38948">
        <ele>427</ele>
        <time>2023-11-19T07:35:47Z</time>
      </trkpt>
      <trkpt lat="45.95667" lon="1.38949">
        <ele>427.4</ele>
        <time>2023-11-19T07:35:48Z</time>
      </trkpt>
      <trkpt lat="45.95664" lon="1.38951">
        <ele>427.8</ele>
        <time>2023-11-19T07:35:50Z</time>
      </trkpt>
      <trkpt lat="45.9565" lon="1.38965">
        <ele>428.6</ele>
        <time>2023-11-19T07:35:57Z</time>
      </trkpt>
      <trkpt lat="45.95649" lon="1.38967">
        <ele>428.6</ele>
        <time>2023-11-19T07:35:58Z</time>
      </trkpt>
      <trkpt lat="45.95628" lon="1.38984">
        <ele>428</ele>
        <time>2023-11-19T07:36:06Z</time>
      </trkpt>
      <trkpt lat="45.95619" lon="1.3899">
        <ele>427.4</ele>
        <time>2023-11-19T07:36:09Z</time>
      </trkpt>
      <trkpt lat="45.95612" lon="1.38996">
        <ele>426.8</ele>
        <time>2023-11-19T07:36:12Z</time>
      </trkpt>
      <trkpt lat="45.95607" lon="1.38998">
        <ele>426.2</ele>
        <time>2023-11-19T07:36:14Z</time>
      </trkpt>
      <trkpt lat="45.95594" lon="1.39009">
        <ele>425.2</ele>
        <time>2023-11-19T07:36:18Z</time>
      </trkpt>
      <trkpt lat="45.95588" lon="1.39013">
        <ele>424.8</ele>
        <time>2023-11-19T07:36:20Z</time>
      </trkpt>
      <trkpt lat="45.9558" lon="1.3902">
        <ele>424.2</ele>
        <time>2023-11-19T07:36:23Z</time>
      </trkpt>
      <trkpt lat="45.95578" lon="1.39023">
        <ele>423.8</ele>
        <time>2023-11-19T07:36:24Z</time>
      </trkpt>
      <trkpt lat="45.95574" lon="1.39028">
        <ele>423</ele>
        <time>2023-11-19T07:36:26Z</time>
      </trkpt>
      <trkpt lat="45.95572" lon="1.39031">
        <ele>422.8</ele>
        <time>2023-11-19T07:36:27Z</time>
      </trkpt>
      <trkpt lat="45.95569" lon="1.39034">
        <ele>422.6</ele>
        <time>2023-11-19T07:36:28Z</time>
      </trkpt>
      <trkpt lat="45.95554" lon="1.3905">
        <ele>422.6</ele>
        <time>2023-11-19T07:36:35Z</time>
      </trkpt>
      <trkpt lat="45.9554" lon="1.39066">
        <ele>422</ele>
        <time>2023-11-19T07:36:40Z</time>
      </trkpt>
      <trkpt lat="45.95538" lon="1.39068">
        <ele>421.8</ele>
        <time>2023-11-19T07:36:41Z</time>
      </trkpt>
      <trkpt lat="45.95516" lon="1.39082">
        <ele>421.8</ele>
        <time>2023-11-19T07:36:43Z</time>
      </trkpt>
      <trkpt lat="45.95508" lon="1.39092">
        <ele>421.6</ele>
        <time>2023-11-19T07:36:46Z</time>
      </trkpt>
      <trkpt lat="45.95499" lon="1.39109">
        <ele>422</ele>
        <time>2023-11-19T07:36:50Z</time>
      </trkpt>
      <trkpt lat="45.95486" lon="1.39121">
        <ele>421.8</ele>
        <time>2023-11-19T07:36:54Z</time>
      </trkpt>
      <trkpt lat="45.95442" lon="1.39135">
        <ele>421.4</ele>
        <time>2023-11-19T07:36:58Z</time>
      </trkpt>
      <trkpt lat="45.95423" lon="1.39135">
        <ele>420.8</ele>
        <time>2023-11-19T07:37:00Z</time>
      </trkpt>
      <trkpt lat="45.95417" lon="1.39131">
        <ele>420.6</ele>
        <time>2023-11-19T07:37:01Z</time>
      </trkpt>
      <trkpt lat="45.95413" lon="1.39126">
        <ele>420.4</ele>
        <time>2023-11-19T07:37:02Z</time>
      </trkpt>
      <trkpt lat="45.95393" lon="1.3911">
        <ele>419.4</ele>
        <time>2023-11-19T07:37:05Z</time>
      </trkpt>
      <trkpt lat="45.95385" lon="1.39104">
        <ele>418.4</ele>
        <time>2023-11-19T07:37:06Z</time>
      </trkpt>
      <trkpt lat="45.95378" lon="1.39097">
        <ele>417.2</ele>
        <time>2023-11-19T07:37:07Z</time>
      </trkpt>
      <trkpt lat="45.9537" lon="1.39089">
        <ele>416.4</ele>
        <time>2023-11-19T07:37:08Z</time>
      </trkpt>
      <trkpt lat="45.95363" lon="1.39081">
        <ele>415.4</ele>
        <time>2023-11-19T07:37:09Z</time>
      </trkpt>
      <trkpt lat="45.95341" lon="1.39059">
        <ele>414.4</ele>
        <time>2023-11-19T07:37:12Z</time>
      </trkpt>
      <trkpt lat="45.95334" lon="1.39054">
        <ele>411.6</ele>
        <time>2023-11-19T07:37:13Z</time>
      </trkpt>
      <trkpt lat="45.95328" lon="1.39051">
        <ele>410</ele>
        <time>2023-11-19T07:37:14Z</time>
      </trkpt>
      <trkpt lat="45.95321" lon="1.39052">
        <ele>409.2</ele>
        <time>2023-11-19T07:37:15Z</time>
      </trkpt>
      <trkpt lat="45.95315" lon="1.39054">
        <ele>408.4</ele>
        <time>2023-11-19T07:37:16Z</time>
      </trkpt>
      <trkpt lat="45.95304" lon="1.39061">
        <ele>407.4</ele>
        <time>2023-11-19T07:37:18Z</time>
      </trkpt>
      <trkpt lat="45.95299" lon="1.39064">
        <ele>407</ele>
        <time>2023-11-19T07:37:19Z</time>
      </trkpt>
      <trkpt lat="45.95287" lon="1.39065">
        <ele>406.8</ele>
        <time>2023-11-19T07:37:21Z</time>
      </trkpt>
      <trkpt lat="45.95281" lon="1.39065">
        <ele>406.8</ele>
        <time>2023-11-19T07:37:22Z</time>
      </trkpt>
      <trkpt lat="45.95275" lon="1.39065">
        <ele>406.6</ele>
        <time>2023-11-19T07:37:23Z</time>
      </trkpt>
      <trkpt lat="45.95266" lon="1.39067">
        <ele>406.8</ele>
        <time>2023-11-19T07:37:25Z</time>
      </trkpt>
      <trkpt lat="45.95261" lon="1.39066">
        <ele>406.8</ele>
        <time>2023-11-19T07:37:26Z</time>
      </trkpt>
      <trkpt lat="45.95257" lon="1.39062">
        <ele>406.6</ele>
        <time>2023-11-19T07:37:27Z</time>
      </trkpt>
      <trkpt lat="45.95255" lon="1.39057">
        <ele>405.8</ele>
        <time>2023-11-19T07:37:28Z</time>
      </trkpt>
      <trkpt lat="45.95254" lon="1.39051">
        <ele>405.2</ele>
        <time>2023-11-19T07:37:29Z</time>
      </trkpt>
      <trkpt lat="45.95254" lon="1.39043">
        <ele>404.8</ele>
        <time>2023-11-19T07:37:30Z</time>
      </trkpt>
      <trkpt lat="45.95256" lon="1.39018">
        <ele>403.6</ele>
        <time>2023-11-19T07:37:33Z</time>
      </trkpt>
      <trkpt lat="45.95256" lon="1.39009">
        <ele>403.4</ele>
        <time>2023-11-19T07:37:34Z</time>
      </trkpt>
      <trkpt lat="45.95256" lon="1.3899">
        <ele>402.6</ele>
        <time>2023-11-19T07:37:36Z</time>
      </trkpt>
      <trkpt lat="45.95255" lon="1.3898">
        <ele>402.2</ele>
        <time>2023-11-19T07:37:37Z</time>
      </trkpt>
      <trkpt lat="45.95251" lon="1.38963">
        <ele>401.8</ele>
        <time>2023-11-19T07:37:39Z</time>
      </trkpt>
      <trkpt lat="45.95248" lon="1.38955">
        <ele>401.2</ele>
        <time>2023-11-19T07:37:40Z</time>
      </trkpt>
      <trkpt lat="45.95244" lon="1.38947">
        <ele>401</ele>
        <time>2023-11-19T07:37:41Z</time>
      </trkpt>
      <trkpt lat="45.95229" lon="1.38928">
        <ele>400.2</ele>
        <time>2023-11-19T07:37:44Z</time>
      </trkpt>
      <trkpt lat="45.95192" lon="1.38904">
        <ele>399</ele>
        <time>2023-11-19T07:37:50Z</time>
      </trkpt>
      <trkpt lat="45.95182" lon="1.38897">
        <ele>398.6</ele>
        <time>2023-11-19T07:37:52Z</time>
      </trkpt>
      <trkpt lat="45.95166" lon="1.38882">
        <ele>398.2</ele>
        <time>2023-11-19T07:37:55Z</time>
      </trkpt>
      <trkpt lat="45.95157" lon="1.38872">
        <ele>397.6</ele>
        <time>2023-11-19T07:37:57Z</time>
      </trkpt>
      <trkpt lat="45.95153" lon="1.38867">
        <ele>397.4</ele>
        <time>2023-11-19T07:37:58Z</time>
      </trkpt>
      <trkpt lat="45.95145" lon="1.38854">
        <ele>396.8</ele>
        <time>2023-11-19T07:38:00Z</time>
      </trkpt>
      <trkpt lat="45.95142" lon="1.38846">
        <ele>396.2</ele>
        <time>2023-11-19T07:38:01Z</time>
      </trkpt>
      <trkpt lat="45.95127" lon="1.38805">
        <ele>395</ele>
        <time>2023-11-19T07:38:06Z</time>
      </trkpt>
      <trkpt lat="45.95108" lon="1.38778">
        <ele>394</ele>
        <time>2023-11-19T07:38:10Z</time>
      </trkpt>
      <trkpt lat="45.95086" lon="1.3875">
        <ele>394.2</ele>
        <time>2023-11-19T07:38:16Z</time>
      </trkpt>
      <trkpt lat="45.95069" lon="1.38726">
        <ele>395</ele>
        <time>2023-11-19T07:38:22Z</time>
      </trkpt>
      <trkpt lat="45.95063" lon="1.3872">
        <ele>395.4</ele>
        <time>2023-11-19T07:38:24Z</time>
      </trkpt>
      <trkpt lat="45.95051" lon="1.38708">
        <ele>396.2</ele>
        <time>2023-11-19T07:38:28Z</time>
      </trkpt>
      <trkpt lat="45.95042" lon="1.38697">
        <ele>396.6</ele>
        <time>2023-11-19T07:38:31Z</time>
      </trkpt>
      <trkpt lat="45.95022" lon="1.38675">
        <ele>397.2</ele>
        <time>2023-11-19T07:38:38Z</time>
      </trkpt>
      <trkpt lat="45.95009" lon="1.38654">
        <ele>397.4</ele>
        <time>2023-11-19T07:38:45Z</time>
      </trkpt>
      <trkpt lat="45.95005" lon="1.38647">
        <ele>398.2</ele>
        <time>2023-11-19T07:38:47Z</time>
      </trkpt>
      <trkpt lat="45.9499" lon="1.38625">
        <ele>399</ele>
        <time>2023-11-19T07:38:53Z</time>
      </trkpt>
      <trkpt lat="45.94982" lon="1.38618">
        <ele>399.4</ele>
        <time>2023-11-19T07:38:55Z</time>
      </trkpt>
      <trkpt lat="45.94971" lon="1.38603">
        <ele>399.8</ele>
        <time>2023-11-19T07:38:59Z</time>
      </trkpt>
      <trkpt lat="45.94967" lon="1.38592">
        <ele>400.6</ele>
        <time>2023-11-19T07:39:02Z</time>
      </trkpt>
      <trkpt lat="45.94964" lon="1.38579">
        <ele>401</ele>
        <time>2023-11-19T07:39:05Z</time>
      </trkpt>
      <trkpt lat="45.94964" lon="1.38558">
        <ele>401</ele>
        <time>2023-11-19T07:39:09Z</time>
      </trkpt>
      <trkpt lat="45.94964" lon="1.38546">
        <ele>400.6</ele>
        <time>2023-11-19T07:39:11Z</time>
      </trkpt>
      <trkpt lat="45.94964" lon="1.38503">
        <ele>399.4</ele>
        <time>2023-11-19T07:39:17Z</time>
      </trkpt>
      <trkpt lat="45.94967" lon="1.38474">
        <ele>398.2</ele>
        <time>2023-11-19T07:39:21Z</time>
      </trkpt>
      <trkpt lat="45.9497" lon="1.38454">
        <ele>397.8</ele>
        <time>2023-11-19T07:39:24Z</time>
      </trkpt>
      <trkpt lat="45.94974" lon="1.38416">
        <ele>398.2</ele>
        <time>2023-11-19T07:39:30Z</time>
      </trkpt>
      <trkpt lat="45.94974" lon="1.38409">
        <ele>398.4</ele>
        <time>2023-11-19T07:39:31Z</time>
      </trkpt>
      <trkpt lat="45.94975" lon="1.38397">
        <ele>398.4</ele>
        <time>2023-11-19T07:39:32Z</time>
      </trkpt>
      <trkpt lat="45.94978" lon="1.38372">
        <ele>398.6</ele>
        <time>2023-11-19T07:39:37Z</time>
      </trkpt>
      <trkpt lat="45.9498" lon="1.38339">
        <ele>398.4</ele>
        <time>2023-11-19T07:39:43Z</time>
      </trkpt>
      <trkpt lat="45.94979" lon="1.38332">
        <ele>398.2</ele>
        <time>2023-11-19T07:39:44Z</time>
      </trkpt>
      <trkpt lat="45.94978" lon="1.38321">
        <ele>398</ele>
        <time>2023-11-19T07:39:46Z</time>
      </trkpt>
      <trkpt lat="45.94974" lon="1.38311">
        <ele>397.8</ele>
        <time>2023-11-19T07:39:48Z</time>
      </trkpt>
      <trkpt lat="45.94966" lon="1.38307">
        <ele>397.6</ele>
        <time>2023-11-19T07:39:52Z</time>
      </trkpt>
      <trkpt lat="45.9494" lon="1.38315">
        <ele>397.6</ele>
        <time>2023-11-19T07:39:59Z</time>
      </trkpt>
      <trkpt lat="45.94932" lon="1.3832">
        <ele>397.2</ele>
        <time>2023-11-19T07:40:01Z</time>
      </trkpt>
      <trkpt lat="45.94915" lon="1.38333">
        <ele>398</ele>
        <time>2023-11-19T07:40:06Z</time>
      </trkpt>
      <trkpt lat="45.94907" lon="1.38337">
        <ele>398</ele>
        <time>2023-11-19T07:40:09Z</time>
      </trkpt>
      <trkpt lat="45.94905" lon="1.38337">
        <ele>398</ele>
        <time>2023-11-19T07:40:10Z</time>
      </trkpt>
      <trkpt lat="45.94902" lon="1.38335">
        <ele>398.2</ele>
        <time>2023-11-19T07:40:11Z</time>
      </trkpt>
      <trkpt lat="45.9489" lon="1.3833">
        <ele>398.4</ele>
        <time>2023-11-19T07:40:15Z</time>
      </trkpt>
      <trkpt lat="45.94877" lon="1.38321">
        <ele>399</ele>
        <time>2023-11-19T07:40:21Z</time>
      </trkpt>
      <trkpt lat="45.9487" lon="1.38311">
        <ele>399.4</ele>
        <time>2023-11-19T07:40:25Z</time>
      </trkpt>
      <trkpt lat="45.94863" lon="1.38301">
        <ele>399.8</ele>
        <time>2023-11-19T07:40:28Z</time>
      </trkpt>
      <trkpt lat="45.94854" lon="1.38286">
        <ele>400.6</ele>
        <time>2023-11-19T07:40:32Z</time>
      </trkpt>
      <trkpt lat="45.94853" lon="1.38283">
        <ele>401</ele>
        <time>2023-11-19T07:40:33Z</time>
      </trkpt>
      <trkpt lat="45.94846" lon="1.38272">
        <ele>401.8</ele>
        <time>2023-11-19T07:40:38Z</time>
      </trkpt>
      <trkpt lat="45.94843" lon="1.38264">
        <ele>402.4</ele>
        <time>2023-11-19T07:40:41Z</time>
      </trkpt>
      <trkpt lat="45.94838" lon="1.38249">
        <ele>403</ele>
        <time>2023-11-19T07:40:46Z</time>
      </trkpt>
      <trkpt lat="45.94835" lon="1.38235">
        <ele>403.4</ele>
        <time>2023-11-19T07:40:50Z</time>
      </trkpt>
      <trkpt lat="45.9483" lon="1.38218">
        <ele>404</ele>
        <time>2023-11-19T07:40:55Z</time>
      </trkpt>
      <trkpt lat="45.94826" lon="1.38209">
        <ele>404.4</ele>
        <time>2023-11-19T07:40:57Z</time>
      </trkpt>
      <trkpt lat="45.94822" lon="1.38191">
        <ele>405</ele>
        <time>2023-11-19T07:41:01Z</time>
      </trkpt>
      <trkpt lat="45.94817" lon="1.38179">
        <ele>405.4</ele>
        <time>2023-11-19T07:41:04Z</time>
      </trkpt>
      <trkpt lat="45.94809" lon="1.38164">
        <ele>406.2</ele>
        <time>2023-11-19T07:41:09Z</time>
      </trkpt>
      <trkpt lat="45.94806" lon="1.3816">
        <ele>406.6</ele>
        <time>2023-11-19T07:41:11Z</time>
      </trkpt>
      <trkpt lat="45.94787" lon="1.38137">
        <ele>407.4</ele>
        <time>2023-11-19T07:41:18Z</time>
      </trkpt>
      <trkpt lat="45.94785" lon="1.38136">
        <ele>407.8</ele>
        <time>2023-11-19T07:41:19Z</time>
      </trkpt>
      <trkpt lat="45.94773" lon="1.38121">
        <ele>408.6</ele>
        <time>2023-11-19T07:41:23Z</time>
      </trkpt>
      <trkpt lat="45.94764" lon="1.38109">
        <ele>409.2</ele>
        <time>2023-11-19T07:41:26Z</time>
      </trkpt>
      <trkpt lat="45.94759" lon="1.38101">
        <ele>409.8</ele>
        <time>2023-11-19T07:41:28Z</time>
      </trkpt>
      <trkpt lat="45.9475" lon="1.38093">
        <ele>411</ele>
        <time>2023-11-19T07:41:31Z</time>
      </trkpt>
      <trkpt lat="45.94746" lon="1.38089">
        <ele>411.8</ele>
        <time>2023-11-19T07:41:33Z</time>
      </trkpt>
      <trkpt lat="45.94743" lon="1.38086">
        <ele>412.2</ele>
        <time>2023-11-19T07:41:35Z</time>
      </trkpt>
      <trkpt lat="45.94731" lon="1.38077">
        <ele>413</ele>
        <time>2023-11-19T07:41:39Z</time>
      </trkpt>
      <trkpt lat="45.94723" lon="1.38069">
        <ele>413.2</ele>
        <time>2023-11-19T07:41:42Z</time>
      </trkpt>
      <trkpt lat="45.94715" lon="1.38057">
        <ele>413.8</ele>
        <time>2023-11-19T07:41:46Z</time>
      </trkpt>
      <trkpt lat="45.94701" lon="1.38042">
        <ele>414.2</ele>
        <time>2023-11-19T07:41:52Z</time>
      </trkpt>
      <trkpt lat="45.94697" lon="1.38038">
        <ele>414.2</ele>
        <time>2023-11-19T07:41:54Z</time>
      </trkpt>
      <trkpt lat="45.94689" lon="1.38035">
        <ele>414.2</ele>
        <time>2023-11-19T07:41:57Z</time>
      </trkpt>
      <trkpt lat="45.94679" lon="1.38023">
        <ele>413.8</ele>
        <time>2023-11-19T07:42:02Z</time>
      </trkpt>
      <trkpt lat="45.94671" lon="1.38002">
        <ele>413.4</ele>
        <time>2023-11-19T07:42:09Z</time>
      </trkpt>
      <trkpt lat="45.94659" lon="1.37978">
        <ele>413.4</ele>
        <time>2023-11-19T07:42:16Z</time>
      </trkpt>
      <trkpt lat="45.94646" lon="1.37959">
        <ele>413.6</ele>
        <time>2023-11-19T07:42:22Z</time>
      </trkpt>
      <trkpt lat="45.94637" lon="1.37944">
        <ele>413.2</ele>
        <time>2023-11-19T07:42:26Z</time>
      </trkpt>
      <trkpt lat="45.9463" lon="1.3794">
        <ele>413</ele>
        <time>2023-11-19T07:42:28Z</time>
      </trkpt>
      <trkpt lat="45.94622" lon="1.37934">
        <ele>412.6</ele>
        <time>2023-11-19T07:42:31Z</time>
      </trkpt>
      <trkpt lat="45.94614" lon="1.37933">
        <ele>412.6</ele>
        <time>2023-11-19T07:42:33Z</time>
      </trkpt>
      <trkpt lat="45.94605" lon="1.37926">
        <ele>412.6</ele>
        <time>2023-11-19T07:42:35Z</time>
      </trkpt>
      <trkpt lat="45.94595" lon="1.37927">
        <ele>412.4</ele>
        <time>2023-11-19T07:42:38Z</time>
      </trkpt>
      <trkpt lat="45.94583" lon="1.37931">
        <ele>412.4</ele>
        <time>2023-11-19T07:42:41Z</time>
      </trkpt>
      <trkpt lat="45.94566" lon="1.37935">
        <ele>412.2</ele>
        <time>2023-11-19T07:42:45Z</time>
      </trkpt>
      <trkpt lat="45.94554" lon="1.37935">
        <ele>412</ele>
        <time>2023-11-19T07:42:48Z</time>
      </trkpt>
      <trkpt lat="45.9454" lon="1.37936">
        <ele>411.4</ele>
        <time>2023-11-19T07:42:52Z</time>
      </trkpt>
      <trkpt lat="45.94533" lon="1.37935">
        <ele>411.2</ele>
        <time>2023-11-19T07:42:54Z</time>
      </trkpt>
      <trkpt lat="45.94529" lon="1.37934">
        <ele>410</ele>
        <time>2023-11-19T07:42:55Z</time>
      </trkpt>
      <trkpt lat="45.94496" lon="1.37933">
        <ele>409</ele>
        <time>2023-11-19T07:43:01Z</time>
      </trkpt>
      <trkpt lat="45.94472" lon="1.37932">
        <ele>407.8</ele>
        <time>2023-11-19T07:43:05Z</time>
      </trkpt>
      <trkpt lat="45.94456" lon="1.3793">
        <ele>407.2</ele>
        <time>2023-11-19T07:43:08Z</time>
      </trkpt>
      <trkpt lat="45.94449" lon="1.37929">
        <ele>407</ele>
        <time>2023-11-19T07:43:09Z</time>
      </trkpt>
      <trkpt lat="45.94443" lon="1.37928">
        <ele>403.2</ele>
        <time>2023-11-19T07:43:10Z</time>
      </trkpt>
      <trkpt lat="45.94434" lon="1.37928">
        <ele>400</ele>
        <time>2023-11-19T07:43:11Z</time>
      </trkpt>
      <trkpt lat="45.94427" lon="1.37927">
        <ele>398.2</ele>
        <time>2023-11-19T07:43:12Z</time>
      </trkpt>
      <trkpt lat="45.94417" lon="1.37926">
        <ele>397</ele>
        <time>2023-11-19T07:43:13Z</time>
      </trkpt>
      <trkpt lat="45.94408" lon="1.37925">
        <ele>396</ele>
        <time>2023-11-19T07:43:14Z</time>
      </trkpt>
      <trkpt lat="45.9439" lon="1.37925">
        <ele>394.4</ele>
        <time>2023-11-19T07:43:16Z</time>
      </trkpt>
      <trkpt lat="45.94382" lon="1.37925">
        <ele>394</ele>
        <time>2023-11-19T07:43:17Z</time>
      </trkpt>
      <trkpt lat="45.9437" lon="1.37924">
        <ele>393.4</ele>
        <time>2023-11-19T07:43:19Z</time>
      </trkpt>
      <trkpt lat="45.94363" lon="1.37923">
        <ele>393</ele>
        <time>2023-11-19T07:43:20Z</time>
      </trkpt>
      <trkpt lat="45.94358" lon="1.37921">
        <ele>392.6</ele>
        <time>2023-11-19T07:43:21Z</time>
      </trkpt>
      <trkpt lat="45.94349" lon="1.37914">
        <ele>392.6</ele>
        <time>2023-11-19T07:43:23Z</time>
      </trkpt>
      <trkpt lat="45.94345" lon="1.3791">
        <ele>392.2</ele>
        <time>2023-11-19T07:43:24Z</time>
      </trkpt>
      <trkpt lat="45.94341" lon="1.37906">
        <ele>391.8</ele>
        <time>2023-11-19T07:43:25Z</time>
      </trkpt>
      <trkpt lat="45.94338" lon="1.37899">
        <ele>391.6</ele>
        <time>2023-11-19T07:43:26Z</time>
      </trkpt>
      <trkpt lat="45.94335" lon="1.37893">
        <ele>391.6</ele>
        <time>2023-11-19T07:43:27Z</time>
      </trkpt>
      <trkpt lat="45.94332" lon="1.37886">
        <ele>390.8</ele>
        <time>2023-11-19T07:43:28Z</time>
      </trkpt>
      <trkpt lat="45.94329" lon="1.37872">
        <ele>389.6</ele>
        <time>2023-11-19T07:43:30Z</time>
      </trkpt>
      <trkpt lat="45.94329" lon="1.37864">
        <ele>389</ele>
        <time>2023-11-19T07:43:31Z</time>
      </trkpt>
      <trkpt lat="45.9433" lon="1.37856">
        <ele>388.4</ele>
        <time>2023-11-19T07:43:32Z</time>
      </trkpt>
      <trkpt lat="45.94332" lon="1.37842">
        <ele>387.2</ele>
        <time>2023-11-19T07:43:34Z</time>
      </trkpt>
      <trkpt lat="45.94334" lon="1.37835">
        <ele>387</ele>
        <time>2023-11-19T07:43:35Z</time>
      </trkpt>
      <trkpt lat="45.94346" lon="1.37811">
        <ele>386.4</ele>
        <time>2023-11-19T07:43:40Z</time>
      </trkpt>
      <trkpt lat="45.94349" lon="1.37808">
        <ele>386.2</ele>
        <time>2023-11-19T07:43:41Z</time>
      </trkpt>
      <trkpt lat="45.94352" lon="1.37806">
        <ele>386</ele>
        <time>2023-11-19T07:43:42Z</time>
      </trkpt>
      <trkpt lat="45.94356" lon="1.37799">
        <ele>385.6</ele>
        <time>2023-11-19T07:43:44Z</time>
      </trkpt>
      <trkpt lat="45.94361" lon="1.37785">
        <ele>385</ele>
        <time>2023-11-19T07:43:47Z</time>
      </trkpt>
      <trkpt lat="45.94366" lon="1.37777">
        <ele>385</ele>
        <time>2023-11-19T07:43:49Z</time>
      </trkpt>
      <trkpt lat="45.94374" lon="1.37764">
        <ele>385</ele>
        <time>2023-11-19T07:43:52Z</time>
      </trkpt>
      <trkpt lat="45.94377" lon="1.37753">
        <ele>385.2</ele>
        <time>2023-11-19T07:43:54Z</time>
      </trkpt>
      <trkpt lat="45.94382" lon="1.37742">
        <ele>385.2</ele>
        <time>2023-11-19T07:43:56Z</time>
      </trkpt>
      <trkpt lat="45.94391" lon="1.37706">
        <ele>385.2</ele>
        <time>2023-11-19T07:44:03Z</time>
      </trkpt>
      <trkpt lat="45.94406" lon="1.37674">
        <ele>385.4</ele>
        <time>2023-11-19T07:44:10Z</time>
      </trkpt>
      <trkpt lat="45.94419" lon="1.37658">
        <ele>385.6</ele>
        <time>2023-11-19T07:44:17Z</time>
      </trkpt>
      <trkpt lat="45.94429" lon="1.37643">
        <ele>386</ele>
        <time>2023-11-19T07:44:22Z</time>
      </trkpt>
      <trkpt lat="45.94431" lon="1.3764">
        <ele>386.4</ele>
        <time>2023-11-19T07:44:23Z</time>
      </trkpt>
      <trkpt lat="45.94435" lon="1.37634">
        <ele>386.8</ele>
        <time>2023-11-19T07:44:25Z</time>
      </trkpt>
      <trkpt lat="45.9444" lon="1.37627">
        <ele>387</ele>
        <time>2023-11-19T07:44:27Z</time>
      </trkpt>
      <trkpt lat="45.94448" lon="1.37614">
        <ele>387.6</ele>
        <time>2023-11-19T07:44:31Z</time>
      </trkpt>
      <trkpt lat="45.94452" lon="1.37609">
        <ele>389</ele>
        <time>2023-11-19T07:44:33Z</time>
      </trkpt>
      <trkpt lat="45.94465" lon="1.37585">
        <ele>389</ele>
        <time>2023-11-19T07:44:39Z</time>
      </trkpt>
      <trkpt lat="45.94474" lon="1.37567">
        <ele>390</ele>
        <time>2023-11-19T07:44:43Z</time>
      </trkpt>
      <trkpt lat="45.94479" lon="1.37554">
        <ele>390.2</ele>
        <time>2023-11-19T07:44:46Z</time>
      </trkpt>
      <trkpt lat="45.94489" lon="1.37531">
        <ele>390.2</ele>
        <time>2023-11-19T07:44:51Z</time>
      </trkpt>
      <trkpt lat="45.94494" lon="1.37517">
        <ele>391.2</ele>
        <time>2023-11-19T07:44:54Z</time>
      </trkpt>
      <trkpt lat="45.945" lon="1.37499">
        <ele>391.8</ele>
        <time>2023-11-19T07:44:58Z</time>
      </trkpt>
      <trkpt lat="45.94502" lon="1.37491">
        <ele>392.4</ele>
        <time>2023-11-19T07:45:00Z</time>
      </trkpt>
      <trkpt lat="45.94508" lon="1.37471">
        <ele>393</ele>
        <time>2023-11-19T07:45:04Z</time>
      </trkpt>
      <trkpt lat="45.9451" lon="1.37447">
        <ele>393.6</ele>
        <time>2023-11-19T07:45:09Z</time>
      </trkpt>
      <trkpt lat="45.9451" lon="1.37445">
        <ele>393.8</ele>
        <time>2023-11-19T07:45:10Z</time>
      </trkpt>
      <trkpt lat="45.94516" lon="1.3743">
        <ele>393.8</ele>
        <time>2023-11-19T07:45:17Z</time>
      </trkpt>
      <trkpt lat="45.94517" lon="1.37429">
        <ele>393.8</ele>
        <time>2023-11-19T07:45:18Z</time>
      </trkpt>
      <trkpt lat="45.94521" lon="1.37427">
        <ele>395</ele>
        <time>2023-11-19T07:45:21Z</time>
      </trkpt>
      <trkpt lat="45.94525" lon="1.37424">
        <ele>396.2</ele>
        <time>2023-11-19T07:45:24Z</time>
      </trkpt>
      <trkpt lat="45.94528" lon="1.37422">
        <ele>396.4</ele>
        <time>2023-11-19T07:45:26Z</time>
      </trkpt>
      <trkpt lat="45.94531" lon="1.37421">
        <ele>397.2</ele>
        <time>2023-11-19T07:45:28Z</time>
      </trkpt>
      <trkpt lat="45.94536" lon="1.37417">
        <ele>398</ele>
        <time>2023-11-19T07:45:33Z</time>
      </trkpt>
      <trkpt lat="45.94537" lon="1.37415">
        <ele>398.2</ele>
        <time>2023-11-19T07:45:34Z</time>
      </trkpt>
      <trkpt lat="45.94537" lon="1.37415">
        <ele>398.4</ele>
        <time>2023-11-19T07:45:35Z</time>
      </trkpt>
      <trkpt lat="45.94539" lon="1.37409">
        <ele>399.2</ele>
        <time>2023-11-19T07:45:39Z</time>
      </trkpt>
      <trkpt lat="45.9454" lon="1.37408">
        <ele>399.4</ele>
        <time>2023-11-19T07:45:41Z</time>
      </trkpt>
      <trkpt lat="45.94541" lon="1.37407">
        <ele>399.6</ele>
        <time>2023-11-19T07:45:43Z</time>
      </trkpt>
      <trkpt lat="45.94546" lon="1.37395">
        <ele>400.4</ele>
        <time>2023-11-19T07:45:51Z</time>
      </trkpt>
      <trkpt lat="45.94546" lon="1.37394">
        <ele>400.6</ele>
        <time>2023-11-19T07:45:52Z</time>
      </trkpt>
      <trkpt lat="45.94553" lon="1.37394">
        <ele>400.8</ele>
        <time>2023-11-19T07:46:00Z</time>
      </trkpt>
      <trkpt lat="45.94571" lon="1.37394">
        <ele>401.2</ele>
        <time>2023-11-19T07:46:13Z</time>
      </trkpt>
      <trkpt lat="45.94576" lon="1.37395">
        <ele>401.8</ele>
        <time>2023-11-19T07:46:16Z</time>
      </trkpt>
      <trkpt lat="45.94585" lon="1.37396">
        <ele>403</ele>
        <time>2023-11-19T07:46:21Z</time>
      </trkpt>
      <trkpt lat="45.94598" lon="1.37395">
        <ele>403.4</ele>
        <time>2023-11-19T07:46:26Z</time>
      </trkpt>
      <trkpt lat="45.94609" lon="1.37396">
        <ele>403.6</ele>
        <time>2023-11-19T07:46:30Z</time>
      </trkpt>
      <trkpt lat="45.94613" lon="1.37396">
        <ele>403.2</ele>
        <time>2023-11-19T07:46:32Z</time>
      </trkpt>
      <trkpt lat="45.94615" lon="1.37395">
        <ele>403</ele>
        <time>2023-11-19T07:46:33Z</time>
      </trkpt>
      <trkpt lat="45.94619" lon="1.37397">
        <ele>402.8</ele>
        <time>2023-11-19T07:46:35Z</time>
      </trkpt>
      <trkpt lat="45.94627" lon="1.374">
        <ele>402.2</ele>
        <time>2023-11-19T07:46:38Z</time>
      </trkpt>
      <trkpt lat="45.94634" lon="1.37401">
        <ele>402.2</ele>
        <time>2023-11-19T07:46:40Z</time>
      </trkpt>
      <trkpt lat="45.94642" lon="1.37402">
        <ele>402</ele>
        <time>2023-11-19T07:46:42Z</time>
      </trkpt>
      <trkpt lat="45.94648" lon="1.37404">
        <ele>401.8</ele>
        <time>2023-11-19T07:46:43Z</time>
      </trkpt>
      <trkpt lat="45.9465" lon="1.37404">
        <ele>401.6</ele>
        <time>2023-11-19T07:46:44Z</time>
      </trkpt>
      <trkpt lat="45.9466" lon="1.37405">
        <ele>400.8</ele>
        <time>2023-11-19T07:46:47Z</time>
      </trkpt>
      <trkpt lat="45.94669" lon="1.37404">
        <ele>400.8</ele>
        <time>2023-11-19T07:46:49Z</time>
      </trkpt>
      <trkpt lat="45.9468" lon="1.37405">
        <ele>400.6</ele>
        <time>2023-11-19T07:46:51Z</time>
      </trkpt>
      <trkpt lat="45.94691" lon="1.37404">
        <ele>400.6</ele>
        <time>2023-11-19T07:46:53Z</time>
      </trkpt>
      <trkpt lat="45.94704" lon="1.37411">
        <ele>400.4</ele>
        <time>2023-11-19T07:46:56Z</time>
      </trkpt>
      <trkpt lat="45.94717" lon="1.37419">
        <ele>400</ele>
        <time>2023-11-19T07:46:59Z</time>
      </trkpt>
      <trkpt lat="45.9474" lon="1.37429">
        <ele>401</ele>
        <time>2023-11-19T07:47:02Z</time>
      </trkpt>
      <trkpt lat="45.94745" lon="1.37431">
        <ele>401</ele>
        <time>2023-11-19T07:47:03Z</time>
      </trkpt>
      <trkpt lat="45.94762" lon="1.37438">
        <ele>399.6</ele>
        <time>2023-11-19T07:47:06Z</time>
      </trkpt>
      <trkpt lat="45.94771" lon="1.37436">
        <ele>399</ele>
        <time>2023-11-19T07:47:07Z</time>
      </trkpt>
      <trkpt lat="45.94773" lon="1.37436">
        <ele>398.8</ele>
        <time>2023-11-19T07:47:08Z</time>
      </trkpt>
      <trkpt lat="45.94775" lon="1.37435">
        <ele>398.6</ele>
        <time>2023-11-19T07:47:09Z</time>
      </trkpt>
      <trkpt lat="45.94776" lon="1.37431">
        <ele>398.8</ele>
        <time>2023-11-19T07:47:14Z</time>
      </trkpt>
      <trkpt lat="45.94778" lon="1.37419">
        <ele>398.8</ele>
        <time>2023-11-19T07:47:20Z</time>
      </trkpt>
      <trkpt lat="45.94779" lon="1.37407">
        <ele>398.8</ele>
        <time>2023-11-19T07:47:26Z</time>
      </trkpt>
      <trkpt lat="45.94781" lon="1.37389">
        <ele>399.2</ele>
        <time>2023-11-19T07:47:32Z</time>
      </trkpt>
      <trkpt lat="45.94781" lon="1.37382">
        <ele>399.6</ele>
        <time>2023-11-19T07:47:34Z</time>
      </trkpt>
      <trkpt lat="45.94779" lon="1.37369">
        <ele>400.8</ele>
        <time>2023-11-19T07:47:38Z</time>
      </trkpt>
      <trkpt lat="45.94775" lon="1.3736">
        <ele>402</ele>
        <time>2023-11-19T07:47:41Z</time>
      </trkpt>
      <trkpt lat="45.94771" lon="1.37354">
        <ele>402.8</ele>
        <time>2023-11-19T07:47:44Z</time>
      </trkpt>
      <trkpt lat="45.9477" lon="1.3735">
        <ele>403.4</ele>
        <time>2023-11-19T07:47:46Z</time>
      </trkpt>
      <trkpt lat="45.94768" lon="1.37346">
        <ele>404.4</ele>
        <time>2023-11-19T07:47:49Z</time>
      </trkpt>
      <trkpt lat="45.94767" lon="1.37344">
        <ele>404.8</ele>
        <time>2023-11-19T07:47:51Z</time>
      </trkpt>
      <trkpt lat="45.94763" lon="1.37338">
        <ele>405.6</ele>
        <time>2023-11-19T07:47:54Z</time>
      </trkpt>
      <trkpt lat="45.94758" lon="1.37331">
        <ele>406.6</ele>
        <time>2023-11-19T07:47:57Z</time>
      </trkpt>
      <trkpt lat="45.94757" lon="1.37329">
        <ele>406.8</ele>
        <time>2023-11-19T07:47:58Z</time>
      </trkpt>
      <trkpt lat="45.94749" lon="1.37315">
        <ele>408</ele>
        <time>2023-11-19T07:48:04Z</time>
      </trkpt>
      <trkpt lat="45.94746" lon="1.37312">
        <ele>408.4</ele>
        <time>2023-11-19T07:48:06Z</time>
      </trkpt>
      <trkpt lat="45.94738" lon="1.37303">
        <ele>409.2</ele>
        <time>2023-11-19T07:48:11Z</time>
      </trkpt>
      <trkpt lat="45.94735" lon="1.37299">
        <ele>409.8</ele>
        <time>2023-11-19T07:48:13Z</time>
      </trkpt>
      <trkpt lat="45.94725" lon="1.37288">
        <ele>410.2</ele>
        <time>2023-11-19T07:48:20Z</time>
      </trkpt>
      <trkpt lat="45.94712" lon="1.37276">
        <ele>411.2</ele>
        <time>2023-11-19T07:48:27Z</time>
      </trkpt>
      <trkpt lat="45.9471" lon="1.37273">
        <ele>411.2</ele>
        <time>2023-11-19T07:48:28Z</time>
      </trkpt>
      <trkpt lat="45.9469" lon="1.37244">
        <ele>411</ele>
        <time>2023-11-19T07:48:34Z</time>
      </trkpt>
      <trkpt lat="45.94679" lon="1.37222">
        <ele>410.2</ele>
        <time>2023-11-19T07:48:39Z</time>
      </trkpt>
      <trkpt lat="45.94674" lon="1.37213">
        <ele>410.6</ele>
        <time>2023-11-19T07:48:41Z</time>
      </trkpt>
      <trkpt lat="45.94665" lon="1.3719">
        <ele>411.8</ele>
        <time>2023-11-19T07:48:46Z</time>
      </trkpt>
      <trkpt lat="45.94662" lon="1.37185">
        <ele>412.4</ele>
        <time>2023-11-19T07:48:47Z</time>
      </trkpt>
      <trkpt lat="45.94656" lon="1.37169">
        <ele>413.6</ele>
        <time>2023-11-19T07:48:50Z</time>
      </trkpt>
      <trkpt lat="45.94652" lon="1.37159">
        <ele>413.8</ele>
        <time>2023-11-19T07:48:52Z</time>
      </trkpt>
      <trkpt lat="45.9464" lon="1.37128">
        <ele>412.6</ele>
        <time>2023-11-19T07:48:58Z</time>
      </trkpt>
      <trkpt lat="45.94638" lon="1.37124">
        <ele>411.6</ele>
        <time>2023-11-19T07:48:59Z</time>
      </trkpt>
      <trkpt lat="45.94633" lon="1.37114">
        <ele>410.4</ele>
        <time>2023-11-19T07:49:01Z</time>
      </trkpt>
      <trkpt lat="45.94629" lon="1.37105">
        <ele>408.8</ele>
        <time>2023-11-19T07:49:03Z</time>
      </trkpt>
      <trkpt lat="45.94626" lon="1.37094">
        <ele>407.2</ele>
        <time>2023-11-19T07:49:05Z</time>
      </trkpt>
      <trkpt lat="45.94624" lon="1.37089">
        <ele>406.4</ele>
        <time>2023-11-19T07:49:06Z</time>
      </trkpt>
      <trkpt lat="45.94621" lon="1.37083">
        <ele>406</ele>
        <time>2023-11-19T07:49:07Z</time>
      </trkpt>
      <trkpt lat="45.94618" lon="1.37078">
        <ele>405</ele>
        <time>2023-11-19T07:49:08Z</time>
      </trkpt>
      <trkpt lat="45.94614" lon="1.37068">
        <ele>403.6</ele>
        <time>2023-11-19T07:49:10Z</time>
      </trkpt>
      <trkpt lat="45.94611" lon="1.37061">
        <ele>402.8</ele>
        <time>2023-11-19T07:49:11Z</time>
      </trkpt>
      <trkpt lat="45.94609" lon="1.37053">
        <ele>402.6</ele>
        <time>2023-11-19T07:49:12Z</time>
      </trkpt>
      <trkpt lat="45.94607" lon="1.37045">
        <ele>402.2</ele>
        <time>2023-11-19T07:49:13Z</time>
      </trkpt>
      <trkpt lat="45.94604" lon="1.37033">
        <ele>401.4</ele>
        <time>2023-11-19T07:49:15Z</time>
      </trkpt>
      <trkpt lat="45.94602" lon="1.37022">
        <ele>400.4</ele>
        <time>2023-11-19T07:49:17Z</time>
      </trkpt>
      <trkpt lat="45.94601" lon="1.37017">
        <ele>399.8</ele>
        <time>2023-11-19T07:49:18Z</time>
      </trkpt>
      <trkpt lat="45.94601" lon="1.37009">
        <ele>399.2</ele>
        <time>2023-11-19T07:49:20Z</time>
      </trkpt>
      <trkpt lat="45.94599" lon="1.36991">
        <ele>398.4</ele>
        <time>2023-11-19T07:49:24Z</time>
      </trkpt>
      <trkpt lat="45.94601" lon="1.36989">
        <ele>397.8</ele>
        <time>2023-11-19T07:49:25Z</time>
      </trkpt>
      <trkpt lat="45.94602" lon="1.36986">
        <ele>397</ele>
        <time>2023-11-19T07:49:26Z</time>
      </trkpt>
      <trkpt lat="45.94605" lon="1.36981">
        <ele>395.6</ele>
        <time>2023-11-19T07:49:27Z</time>
      </trkpt>
      <trkpt lat="45.94608" lon="1.3698">
        <ele>395</ele>
        <time>2023-11-19T07:49:29Z</time>
      </trkpt>
      <trkpt lat="45.94609" lon="1.36978">
        <ele>394.4</ele>
        <time>2023-11-19T07:49:30Z</time>
      </trkpt>
      <trkpt lat="45.9461" lon="1.3697">
        <ele>392.8</ele>
        <time>2023-11-19T07:49:32Z</time>
      </trkpt>
      <trkpt lat="45.94613" lon="1.36964">
        <ele>392</ele>
        <time>2023-11-19T07:49:34Z</time>
      </trkpt>
      <trkpt lat="45.94615" lon="1.3696">
        <ele>391.4</ele>
        <time>2023-11-19T07:49:35Z</time>
      </trkpt>
      <trkpt lat="45.94616" lon="1.36954">
        <ele>391</ele>
        <time>2023-11-19T07:49:36Z</time>
      </trkpt>
      <trkpt lat="45.94618" lon="1.36945">
        <ele>389.8</ele>
        <time>2023-11-19T07:49:38Z</time>
      </trkpt>
      <trkpt lat="45.94618" lon="1.36942">
        <ele>388.8</ele>
        <time>2023-11-19T07:49:39Z</time>
      </trkpt>
      <trkpt lat="45.9462" lon="1.36938">
        <ele>387.2</ele>
        <time>2023-11-19T07:49:40Z</time>
      </trkpt>
      <trkpt lat="45.94621" lon="1.36932">
        <ele>385.6</ele>
        <time>2023-11-19T07:49:42Z</time>
      </trkpt>
      <trkpt lat="45.94625" lon="1.36925">
        <ele>383.6</ele>
        <time>2023-11-19T07:49:44Z</time>
      </trkpt>
      <trkpt lat="45.94628" lon="1.36914">
        <ele>382.6</ele>
        <time>2023-11-19T07:49:46Z</time>
      </trkpt>
      <trkpt lat="45.9463" lon="1.36908">
        <ele>381.8</ele>
        <time>2023-11-19T07:49:47Z</time>
      </trkpt>
      <trkpt lat="45.94631" lon="1.36902">
        <ele>381.4</ele>
        <time>2023-11-19T07:49:48Z</time>
      </trkpt>
      <trkpt lat="45.94631" lon="1.36897">
        <ele>381.2</ele>
        <time>2023-11-19T07:49:49Z</time>
      </trkpt>
      <trkpt lat="45.9463" lon="1.36886">
        <ele>381.2</ele>
        <time>2023-11-19T07:49:51Z</time>
      </trkpt>
      <trkpt lat="45.94622" lon="1.36872">
        <ele>380.4</ele>
        <time>2023-11-19T07:49:54Z</time>
      </trkpt>
      <trkpt lat="45.94616" lon="1.36865">
        <ele>378.6</ele>
        <time>2023-11-19T07:49:56Z</time>
      </trkpt>
      <trkpt lat="45.94612" lon="1.36855">
        <ele>377.6</ele>
        <time>2023-11-19T07:49:58Z</time>
      </trkpt>
      <trkpt lat="45.9461" lon="1.3685">
        <ele>376.8</ele>
        <time>2023-11-19T07:49:59Z</time>
      </trkpt>
      <trkpt lat="45.94604" lon="1.36838">
        <ele>375.8</ele>
        <time>2023-11-19T07:50:01Z</time>
      </trkpt>
      <trkpt lat="45.94602" lon="1.36833">
        <ele>375.4</ele>
        <time>2023-11-19T07:50:02Z</time>
      </trkpt>
      <trkpt lat="45.94594" lon="1.36823">
        <ele>374.6</ele>
        <time>2023-11-19T07:50:04Z</time>
      </trkpt>
      <trkpt lat="45.94588" lon="1.36813">
        <ele>373.8</ele>
        <time>2023-11-19T07:50:06Z</time>
      </trkpt>
      <trkpt lat="45.94584" lon="1.36808">
        <ele>372.4</ele>
        <time>2023-11-19T07:50:07Z</time>
      </trkpt>
      <trkpt lat="45.94578" lon="1.36796">
        <ele>371</ele>
        <time>2023-11-19T07:50:09Z</time>
      </trkpt>
      <trkpt lat="45.94566" lon="1.36775">
        <ele>368.8</ele>
        <time>2023-11-19T07:50:13Z</time>
      </trkpt>
      <trkpt lat="45.94561" lon="1.36763">
        <ele>367.4</ele>
        <time>2023-11-19T07:50:15Z</time>
      </trkpt>
      <trkpt lat="45.94556" lon="1.36748">
        <ele>366.6</ele>
        <time>2023-11-19T07:50:17Z</time>
      </trkpt>
      <trkpt lat="45.94556" lon="1.36741">
        <ele>366.2</ele>
        <time>2023-11-19T07:50:18Z</time>
      </trkpt>
      <trkpt lat="45.94556" lon="1.36735">
        <ele>366</ele>
        <time>2023-11-19T07:50:19Z</time>
      </trkpt>
      <trkpt lat="45.94557" lon="1.36713">
        <ele>365.4</ele>
        <time>2023-11-19T07:50:23Z</time>
      </trkpt>
      <trkpt lat="45.94565" lon="1.36679">
        <ele>366.8</ele>
        <time>2023-11-19T07:50:29Z</time>
      </trkpt>
      <trkpt lat="45.94572" lon="1.36659">
        <ele>367.2</ele>
        <time>2023-11-19T07:50:33Z</time>
      </trkpt>
      <trkpt lat="45.94576" lon="1.36647">
        <ele>367</ele>
        <time>2023-11-19T07:50:35Z</time>
      </trkpt>
      <trkpt lat="45.94588" lon="1.3661">
        <ele>366.8</ele>
        <time>2023-11-19T07:50:41Z</time>
      </trkpt>
      <trkpt lat="45.94591" lon="1.36605">
        <ele>366.6</ele>
        <time>2023-11-19T07:50:42Z</time>
      </trkpt>
      <trkpt lat="45.94596" lon="1.36603">
        <ele>366.2</ele>
        <time>2023-11-19T07:50:43Z</time>
      </trkpt>
      <trkpt lat="45.946" lon="1.36599">
        <ele>366</ele>
        <time>2023-11-19T07:50:44Z</time>
      </trkpt>
      <trkpt lat="45.94604" lon="1.36594">
        <ele>365.8</ele>
        <time>2023-11-19T07:50:45Z</time>
      </trkpt>
      <trkpt lat="45.94607" lon="1.36585">
        <ele>365</ele>
        <time>2023-11-19T07:50:46Z</time>
      </trkpt>
      <trkpt lat="45.9461" lon="1.36576">
        <ele>364.4</ele>
        <time>2023-11-19T07:50:47Z</time>
      </trkpt>
      <trkpt lat="45.94613" lon="1.36555">
        <ele>363.4</ele>
        <time>2023-11-19T07:50:49Z</time>
      </trkpt>
      <trkpt lat="45.94613" lon="1.36543">
        <ele>363</ele>
        <time>2023-11-19T07:50:50Z</time>
      </trkpt>
      <trkpt lat="45.94614" lon="1.36522">
        <ele>362.4</ele>
        <time>2023-11-19T07:50:52Z</time>
      </trkpt>
      <trkpt lat="45.94614" lon="1.36512">
        <ele>362.2</ele>
        <time>2023-11-19T07:50:53Z</time>
      </trkpt>
      <trkpt lat="45.94621" lon="1.36465">
        <ele>362</ele>
        <time>2023-11-19T07:50:58Z</time>
      </trkpt>
      <trkpt lat="45.94623" lon="1.36458">
        <ele>362</ele>
        <time>2023-11-19T07:50:59Z</time>
      </trkpt>
      <trkpt lat="45.94625" lon="1.36451">
        <ele>362</ele>
        <time>2023-11-19T07:51:00Z</time>
      </trkpt>
      <trkpt lat="45.94636" lon="1.36416">
        <ele>362.4</ele>
        <time>2023-11-19T07:51:05Z</time>
      </trkpt>
      <trkpt lat="45.94645" lon="1.36368">
        <ele>362.2</ele>
        <time>2023-11-19T07:51:12Z</time>
      </trkpt>
      <trkpt lat="45.94649" lon="1.36345">
        <ele>361.8</ele>
        <time>2023-11-19T07:51:15Z</time>
      </trkpt>
      <trkpt lat="45.94653" lon="1.36323">
        <ele>361.4</ele>
        <time>2023-11-19T07:51:18Z</time>
      </trkpt>
      <trkpt lat="45.94664" lon="1.36278">
        <ele>361.2</ele>
        <time>2023-11-19T07:51:25Z</time>
      </trkpt>
      <trkpt lat="45.94673" lon="1.36229">
        <ele>361.2</ele>
        <time>2023-11-19T07:51:32Z</time>
      </trkpt>
      <trkpt lat="45.94674" lon="1.36221">
        <ele>361.8</ele>
        <time>2023-11-19T07:51:33Z</time>
      </trkpt>
      <trkpt lat="45.94682" lon="1.36198">
        <ele>360.4</ele>
        <time>2023-11-19T07:51:36Z</time>
      </trkpt>
      <trkpt lat="45.94683" lon="1.36192">
        <ele>360</ele>
        <time>2023-11-19T07:51:37Z</time>
      </trkpt>
      <trkpt lat="45.94683" lon="1.36178">
        <ele>359.2</ele>
        <time>2023-11-19T07:51:39Z</time>
      </trkpt>
      <trkpt lat="45.94685" lon="1.36154">
        <ele>358.8</ele>
        <time>2023-11-19T07:51:44Z</time>
      </trkpt>
      <trkpt lat="45.94689" lon="1.36134">
        <ele>358.4</ele>
        <time>2023-11-19T07:51:47Z</time>
      </trkpt>
      <trkpt lat="45.94689" lon="1.36127">
        <ele>358.4</ele>
        <time>2023-11-19T07:51:48Z</time>
      </trkpt>
      <trkpt lat="45.94692" lon="1.36099">
        <ele>358.4</ele>
        <time>2023-11-19T07:51:52Z</time>
      </trkpt>
      <trkpt lat="45.94693" lon="1.36086">
        <ele>358.6</ele>
        <time>2023-11-19T07:51:54Z</time>
      </trkpt>
      <trkpt lat="45.94695" lon="1.3607">
        <ele>358</ele>
        <time>2023-11-19T07:51:57Z</time>
      </trkpt>
      <trkpt lat="45.94697" lon="1.36059">
        <ele>357.4</ele>
        <time>2023-11-19T07:51:59Z</time>
      </trkpt>
      <trkpt lat="45.94701" lon="1.36058">
        <ele>357.2</ele>
        <time>2023-11-19T07:52:00Z</time>
      </trkpt>
      <trkpt lat="45.94703" lon="1.36057">
        <ele>357</ele>
        <time>2023-11-19T07:52:01Z</time>
      </trkpt>
      <trkpt lat="45.94706" lon="1.36057">
        <ele>356.4</ele>
        <time>2023-11-19T07:52:02Z</time>
      </trkpt>
      <trkpt lat="45.94715" lon="1.36059">
        <ele>355.8</ele>
        <time>2023-11-19T07:52:05Z</time>
      </trkpt>
      <trkpt lat="45.94722" lon="1.3606">
        <ele>355.8</ele>
        <time>2023-11-19T07:52:08Z</time>
      </trkpt>
      <trkpt lat="45.94739" lon="1.36068">
        <ele>355.6</ele>
        <time>2023-11-19T07:52:14Z</time>
      </trkpt>
      <trkpt lat="45.94744" lon="1.36071">
        <ele>355.4</ele>
        <time>2023-11-19T07:52:16Z</time>
      </trkpt>
      <trkpt lat="45.94748" lon="1.36071">
        <ele>354.8</ele>
        <time>2023-11-19T07:52:18Z</time>
      </trkpt>
      <trkpt lat="45.9475" lon="1.3607">
        <ele>354.6</ele>
        <time>2023-11-19T07:52:19Z</time>
      </trkpt>
      <trkpt lat="45.94756" lon="1.36063">
        <ele>354.4</ele>
        <time>2023-11-19T07:52:22Z</time>
      </trkpt>
      <trkpt lat="45.94759" lon="1.36056">
        <ele>354.6</ele>
        <time>2023-11-19T07:52:24Z</time>
      </trkpt>
      <trkpt lat="45.94763" lon="1.3605">
        <ele>354.6</ele>
        <time>2023-11-19T07:52:26Z</time>
      </trkpt>
      <trkpt lat="45.94774" lon="1.36033">
        <ele>354.4</ele>
        <time>2023-11-19T07:52:31Z</time>
      </trkpt>
      <trkpt lat="45.94778" lon="1.36029">
        <ele>354.2</ele>
        <time>2023-11-19T07:52:32Z</time>
      </trkpt>
      <trkpt lat="45.94781" lon="1.36026">
        <ele>354.4</ele>
        <time>2023-11-19T07:52:33Z</time>
      </trkpt>
      <trkpt lat="45.94787" lon="1.36021">
        <ele>354.4</ele>
        <time>2023-11-19T07:52:35Z</time>
      </trkpt>
      <trkpt lat="45.94792" lon="1.36016">
        <ele>354.6</ele>
        <time>2023-11-19T07:52:37Z</time>
      </trkpt>
      <trkpt lat="45.94794" lon="1.36013">
        <ele>354.8</ele>
        <time>2023-11-19T07:52:38Z</time>
      </trkpt>
      <trkpt lat="45.94799" lon="1.36007">
        <ele>354.8</ele>
        <time>2023-11-19T07:52:39Z</time>
      </trkpt>
      <trkpt lat="45.94801" lon="1.36004">
        <ele>354.8</ele>
        <time>2023-11-19T07:52:41Z</time>
      </trkpt>
      <trkpt lat="45.94807" lon="1.35997">
        <ele>355.2</ele>
        <time>2023-11-19T07:52:43Z</time>
      </trkpt>
      <trkpt lat="45.94811" lon="1.35993">
        <ele>355.6</ele>
        <time>2023-11-19T07:52:44Z</time>
      </trkpt>
      <trkpt lat="45.94813" lon="1.3599">
        <ele>355.6</ele>
        <time>2023-11-19T07:52:45Z</time>
      </trkpt>
      <trkpt lat="45.94816" lon="1.35987">
        <ele>355.6</ele>
        <time>2023-11-19T07:52:46Z</time>
      </trkpt>
      <trkpt lat="45.94821" lon="1.35984">
        <ele>355.6</ele>
        <time>2023-11-19T07:52:48Z</time>
      </trkpt>
      <trkpt lat="45.94829" lon="1.35979">
        <ele>355.6</ele>
        <time>2023-11-19T07:52:50Z</time>
      </trkpt>
      <trkpt lat="45.94846" lon="1.35957">
        <ele>356.4</ele>
        <time>2023-11-19T07:52:57Z</time>
      </trkpt>
      <trkpt lat="45.94856" lon="1.35944">
        <ele>356.8</ele>
        <time>2023-11-19T07:53:02Z</time>
      </trkpt>
      <trkpt lat="45.94866" lon="1.3594">
        <ele>357.2</ele>
        <time>2023-11-19T07:53:04Z</time>
      </trkpt>
      <trkpt lat="45.94878" lon="1.35935">
        <ele>358</ele>
        <time>2023-11-19T07:53:07Z</time>
      </trkpt>
      <trkpt lat="45.9489" lon="1.35923">
        <ele>359.2</ele>
        <time>2023-11-19T07:53:11Z</time>
      </trkpt>
      <trkpt lat="45.94893" lon="1.3592">
        <ele>359.2</ele>
        <time>2023-11-19T07:53:12Z</time>
      </trkpt>
      <trkpt lat="45.94916" lon="1.35902">
        <ele>360.4</ele>
        <time>2023-11-19T07:53:19Z</time>
      </trkpt>
      <trkpt lat="45.94919" lon="1.35898">
        <ele>360.6</ele>
        <time>2023-11-19T07:53:20Z</time>
      </trkpt>
      <trkpt lat="45.94935" lon="1.35882">
        <ele>361.4</ele>
        <time>2023-11-19T07:53:26Z</time>
      </trkpt>
      <trkpt lat="45.94937" lon="1.3588">
        <ele>361.6</ele>
        <time>2023-11-19T07:53:27Z</time>
      </trkpt>
      <trkpt lat="45.94948" lon="1.35867">
        <ele>362.4</ele>
        <time>2023-11-19T07:53:31Z</time>
      </trkpt>
      <trkpt lat="45.94955" lon="1.35858">
        <ele>362.8</ele>
        <time>2023-11-19T07:53:34Z</time>
      </trkpt>
      <trkpt lat="45.9497" lon="1.35841">
        <ele>363.6</ele>
        <time>2023-11-19T07:53:41Z</time>
      </trkpt>
      <trkpt lat="45.94987" lon="1.35821">
        <ele>363.8</ele>
        <time>2023-11-19T07:53:48Z</time>
      </trkpt>
      <trkpt lat="45.95" lon="1.35799">
        <ele>364.6</ele>
        <time>2023-11-19T07:53:52Z</time>
      </trkpt>
      <trkpt lat="45.95008" lon="1.35787">
        <ele>364.8</ele>
        <time>2023-11-19T07:53:54Z</time>
      </trkpt>
      <trkpt lat="45.95031" lon="1.35751">
        <ele>365</ele>
        <time>2023-11-19T07:54:02Z</time>
      </trkpt>
      <trkpt lat="45.95053" lon="1.35716">
        <ele>365.2</ele>
        <time>2023-11-19T07:54:11Z</time>
      </trkpt>
      <trkpt lat="45.95067" lon="1.35695">
        <ele>365.6</ele>
        <time>2023-11-19T07:54:17Z</time>
      </trkpt>
      <trkpt lat="45.95078" lon="1.35679">
        <ele>366.2</ele>
        <time>2023-11-19T07:54:22Z</time>
      </trkpt>
      <trkpt lat="45.95087" lon="1.35664">
        <ele>366.8</ele>
        <time>2023-11-19T07:54:27Z</time>
      </trkpt>
      <trkpt lat="45.95093" lon="1.35655">
        <ele>367.2</ele>
        <time>2023-11-19T07:54:30Z</time>
      </trkpt>
      <trkpt lat="45.95104" lon="1.35644">
        <ele>367.8</ele>
        <time>2023-11-19T07:54:35Z</time>
      </trkpt>
      <trkpt lat="45.95112" lon="1.35641">
        <ele>368</ele>
        <time>2023-11-19T07:54:38Z</time>
      </trkpt>
      <trkpt lat="45.95123" lon="1.35636">
        <ele>369</ele>
        <time>2023-11-19T07:54:43Z</time>
      </trkpt>
      <trkpt lat="45.95131" lon="1.35634">
        <ele>369.6</ele>
        <time>2023-11-19T07:54:46Z</time>
      </trkpt>
      <trkpt lat="45.95147" lon="1.3563">
        <ele>369.8</ele>
        <time>2023-11-19T07:54:51Z</time>
      </trkpt>
      <trkpt lat="45.9515" lon="1.35629">
        <ele>369.8</ele>
        <time>2023-11-19T07:54:52Z</time>
      </trkpt>
      <trkpt lat="45.95154" lon="1.35626">
        <ele>369.8</ele>
        <time>2023-11-19T07:54:53Z</time>
      </trkpt>
      <trkpt lat="45.95174" lon="1.35613">
        <ele>368.8</ele>
        <time>2023-11-19T07:54:58Z</time>
      </trkpt>
      <trkpt lat="45.95199" lon="1.356">
        <ele>369.2</ele>
        <time>2023-11-19T07:55:05Z</time>
      </trkpt>
      <trkpt lat="45.95235" lon="1.35597">
        <ele>369.8</ele>
        <time>2023-11-19T07:55:13Z</time>
      </trkpt>
      <trkpt lat="45.95239" lon="1.35596">
        <ele>370</ele>
        <time>2023-11-19T07:55:14Z</time>
      </trkpt>
      <trkpt lat="45.95258" lon="1.35594">
        <ele>371.2</ele>
        <time>2023-11-19T07:55:20Z</time>
      </trkpt>
      <trkpt lat="45.95268" lon="1.35597">
        <ele>372.4</ele>
        <time>2023-11-19T07:55:24Z</time>
      </trkpt>
      <trkpt lat="45.95274" lon="1.35599">
        <ele>373</ele>
        <time>2023-11-19T07:55:27Z</time>
      </trkpt>
      <trkpt lat="45.95283" lon="1.35599">
        <ele>373.8</ele>
        <time>2023-11-19T07:55:31Z</time>
      </trkpt>
      <trkpt lat="45.95292" lon="1.35597">
        <ele>374.2</ele>
        <time>2023-11-19T07:55:34Z</time>
      </trkpt>
      <trkpt lat="45.95315" lon="1.35587">
        <ele>374.4</ele>
        <time>2023-11-19T07:55:40Z</time>
      </trkpt>
      <trkpt lat="45.95351" lon="1.35585">
        <ele>374.2</ele>
        <time>2023-11-19T07:55:48Z</time>
      </trkpt>
      <trkpt lat="45.95376" lon="1.35589">
        <ele>374.8</ele>
        <time>2023-11-19T07:55:54Z</time>
      </trkpt>
      <trkpt lat="45.95384" lon="1.35589">
        <ele>375.2</ele>
        <time>2023-11-19T07:55:56Z</time>
      </trkpt>
      <trkpt lat="45.95404" lon="1.35578">
        <ele>375.2</ele>
        <time>2023-11-19T07:56:02Z</time>
      </trkpt>
      <trkpt lat="45.95427" lon="1.35567">
        <ele>375.4</ele>
        <time>2023-11-19T07:56:09Z</time>
      </trkpt>
      <trkpt lat="45.9544" lon="1.35562">
        <ele>376.2</ele>
        <time>2023-11-19T07:56:12Z</time>
      </trkpt>
      <trkpt lat="45.95455" lon="1.35556">
        <ele>376.6</ele>
        <time>2023-11-19T07:56:16Z</time>
      </trkpt>
      <trkpt lat="45.95472" lon="1.35549">
        <ele>377.2</ele>
        <time>2023-11-19T07:56:22Z</time>
      </trkpt>
      <trkpt lat="45.95477" lon="1.35548">
        <ele>378</ele>
        <time>2023-11-19T07:56:24Z</time>
      </trkpt>
      <trkpt lat="45.95486" lon="1.3554">
        <ele>378.4</ele>
        <time>2023-11-19T07:56:29Z</time>
      </trkpt>
      <trkpt lat="45.95487" lon="1.35538">
        <ele>379</ele>
        <time>2023-11-19T07:56:30Z</time>
      </trkpt>
      <trkpt lat="45.95487" lon="1.35535">
        <ele>379.4</ele>
        <time>2023-11-19T07:56:31Z</time>
      </trkpt>
      <trkpt lat="45.95486" lon="1.35527">
        <ele>379.8</ele>
        <time>2023-11-19T07:56:33Z</time>
      </trkpt>
      <trkpt lat="45.95474" lon="1.35501">
        <ele>380</ele>
        <time>2023-11-19T07:56:39Z</time>
      </trkpt>
      <trkpt lat="45.95458" lon="1.35462">
        <ele>379.8</ele>
        <time>2023-11-19T07:56:46Z</time>
      </trkpt>
      <trkpt lat="45.95437" lon="1.35411">
        <ele>379.6</ele>
        <time>2023-11-19T07:56:55Z</time>
      </trkpt>
      <trkpt lat="45.95422" lon="1.35372">
        <ele>379</ele>
        <time>2023-11-19T07:57:03Z</time>
      </trkpt>
      <trkpt lat="45.95423" lon="1.35353">
        <ele>379</ele>
        <time>2023-11-19T07:57:06Z</time>
      </trkpt>
      <trkpt lat="45.95424" lon="1.35334">
        <ele>379</ele>
        <time>2023-11-19T07:57:09Z</time>
      </trkpt>
      <trkpt lat="45.95424" lon="1.3532">
        <ele>378.2</ele>
        <time>2023-11-19T07:57:11Z</time>
      </trkpt>
      <trkpt lat="45.95425" lon="1.35278">
        <ele>377.2</ele>
        <time>2023-11-19T07:57:17Z</time>
      </trkpt>
      <trkpt lat="45.95425" lon="1.35271">
        <ele>377</ele>
        <time>2023-11-19T07:57:18Z</time>
      </trkpt>
      <trkpt lat="45.95426" lon="1.35234">
        <ele>376.6</ele>
        <time>2023-11-19T07:57:23Z</time>
      </trkpt>
      <trkpt lat="45.95425" lon="1.35222">
        <ele>376</ele>
        <time>2023-11-19T07:57:25Z</time>
      </trkpt>
      <trkpt lat="45.95426" lon="1.35216">
        <ele>375.8</ele>
        <time>2023-11-19T07:57:26Z</time>
      </trkpt>
      <trkpt lat="45.95428" lon="1.35206">
        <ele>375.4</ele>
        <time>2023-11-19T07:57:28Z</time>
      </trkpt>
      <trkpt lat="45.9543" lon="1.35195">
        <ele>375.2</ele>
        <time>2023-11-19T07:57:30Z</time>
      </trkpt>
      <trkpt lat="45.9543" lon="1.35167">
        <ele>375</ele>
        <time>2023-11-19T07:57:34Z</time>
      </trkpt>
      <trkpt lat="45.9543" lon="1.35161">
        <ele>374.6</ele>
        <time>2023-11-19T07:57:35Z</time>
      </trkpt>
      <trkpt lat="45.9543" lon="1.35134">
        <ele>373.4</ele>
        <time>2023-11-19T07:57:39Z</time>
      </trkpt>
      <trkpt lat="45.95431" lon="1.35127">
        <ele>373.4</ele>
        <time>2023-11-19T07:57:40Z</time>
      </trkpt>
      <trkpt lat="45.95431" lon="1.3511">
        <ele>373</ele>
        <time>2023-11-19T07:57:43Z</time>
      </trkpt>
      <trkpt lat="45.95432" lon="1.35101">
        <ele>372.4</ele>
        <time>2023-11-19T07:57:45Z</time>
      </trkpt>
      <trkpt lat="45.95433" lon="1.35094">
        <ele>372.4</ele>
        <time>2023-11-19T07:57:46Z</time>
      </trkpt>
      <trkpt lat="45.95432" lon="1.35071">
        <ele>371.6</ele>
        <time>2023-11-19T07:57:49Z</time>
      </trkpt>
      <trkpt lat="45.95431" lon="1.35063">
        <ele>371.4</ele>
        <time>2023-11-19T07:57:50Z</time>
      </trkpt>
      <trkpt lat="45.95431" lon="1.35056">
        <ele>371.4</ele>
        <time>2023-11-19T07:57:51Z</time>
      </trkpt>
      <trkpt lat="45.95429" lon="1.35045">
        <ele>371.2</ele>
        <time>2023-11-19T07:57:52Z</time>
      </trkpt>
      <trkpt lat="45.95425" lon="1.35024">
        <ele>370.8</ele>
        <time>2023-11-19T07:57:55Z</time>
      </trkpt>
      <trkpt lat="45.95418" lon="1.34986">
        <ele>371.4</ele>
        <time>2023-11-19T07:58:01Z</time>
      </trkpt>
      <trkpt lat="45.95412" lon="1.34949">
        <ele>372.4</ele>
        <time>2023-11-19T07:58:06Z</time>
      </trkpt>
      <trkpt lat="45.95409" lon="1.34926">
        <ele>372.6</ele>
        <time>2023-11-19T07:58:09Z</time>
      </trkpt>
      <trkpt lat="45.95405" lon="1.34871">
        <ele>372.2</ele>
        <time>2023-11-19T07:58:16Z</time>
      </trkpt>
      <trkpt lat="45.95399" lon="1.34824">
        <ele>371.4</ele>
        <time>2023-11-19T07:58:21Z</time>
      </trkpt>
      <trkpt lat="45.95397" lon="1.34815">
        <ele>371.2</ele>
        <time>2023-11-19T07:58:22Z</time>
      </trkpt>
      <trkpt lat="45.95391" lon="1.34776">
        <ele>370.4</ele>
        <time>2023-11-19T07:58:27Z</time>
      </trkpt>
      <trkpt lat="45.95385" lon="1.34739">
        <ele>369.2</ele>
        <time>2023-11-19T07:58:33Z</time>
      </trkpt>
      <trkpt lat="45.9538" lon="1.3469">
        <ele>368.4</ele>
        <time>2023-11-19T07:58:39Z</time>
      </trkpt>
      <trkpt lat="45.9538" lon="1.34681">
        <ele>368.2</ele>
        <time>2023-11-19T07:58:40Z</time>
      </trkpt>
      <trkpt lat="45.95378" lon="1.34632">
        <ele>367.8</ele>
        <time>2023-11-19T07:58:46Z</time>
      </trkpt>
      <trkpt lat="45.95378" lon="1.34603">
        <ele>366.8</ele>
        <time>2023-11-19T07:58:50Z</time>
      </trkpt>
      <trkpt lat="45.95377" lon="1.34582">
        <ele>367.2</ele>
        <time>2023-11-19T07:58:53Z</time>
      </trkpt>
      <trkpt lat="45.95374" lon="1.34552">
        <ele>365.6</ele>
        <time>2023-11-19T07:58:57Z</time>
      </trkpt>
      <trkpt lat="45.95374" lon="1.34543">
        <ele>365.2</ele>
        <time>2023-11-19T07:58:58Z</time>
      </trkpt>
      <trkpt lat="45.95373" lon="1.34525">
        <ele>365</ele>
        <time>2023-11-19T07:59:00Z</time>
      </trkpt>
      <trkpt lat="45.95374" lon="1.34507">
        <ele>364.6</ele>
        <time>2023-11-19T07:59:02Z</time>
      </trkpt>
      <trkpt lat="45.95376" lon="1.34498">
        <ele>364.4</ele>
        <time>2023-11-19T07:59:03Z</time>
      </trkpt>
      <trkpt lat="45.95381" lon="1.34473">
        <ele>363.2</ele>
        <time>2023-11-19T07:59:06Z</time>
      </trkpt>
      <trkpt lat="45.95384" lon="1.34445">
        <ele>362.2</ele>
        <time>2023-11-19T07:59:09Z</time>
      </trkpt>
      <trkpt lat="45.95383" lon="1.34435">
        <ele>361.8</ele>
        <time>2023-11-19T07:59:10Z</time>
      </trkpt>
      <trkpt lat="45.95381" lon="1.34425">
        <ele>361.6</ele>
        <time>2023-11-19T07:59:11Z</time>
      </trkpt>
      <trkpt lat="45.95376" lon="1.34394">
        <ele>361.6</ele>
        <time>2023-11-19T07:59:14Z</time>
      </trkpt>
      <trkpt lat="45.95377" lon="1.34385">
        <ele>361.4</ele>
        <time>2023-11-19T07:59:15Z</time>
      </trkpt>
      <trkpt lat="45.95379" lon="1.34376">
        <ele>361.4</ele>
        <time>2023-11-19T07:59:16Z</time>
      </trkpt>
      <trkpt lat="45.95381" lon="1.34366">
        <ele>361.2</ele>
        <time>2023-11-19T07:59:17Z</time>
      </trkpt>
      <trkpt lat="45.95387" lon="1.34347">
        <ele>360.8</ele>
        <time>2023-11-19T07:59:19Z</time>
      </trkpt>
      <trkpt lat="45.95391" lon="1.34324">
        <ele>360.8</ele>
        <time>2023-11-19T07:59:21Z</time>
      </trkpt>
      <trkpt lat="45.95392" lon="1.34303">
        <ele>360.8</ele>
        <time>2023-11-19T07:59:23Z</time>
      </trkpt>
      <trkpt lat="45.95393" lon="1.34257">
        <ele>360.6</ele>
        <time>2023-11-19T07:59:28Z</time>
      </trkpt>
      <trkpt lat="45.95396" lon="1.34241">
        <ele>360.2</ele>
        <time>2023-11-19T07:59:30Z</time>
      </trkpt>
      <trkpt lat="45.95401" lon="1.34212">
        <ele>359.6</ele>
        <time>2023-11-19T07:59:34Z</time>
      </trkpt>
      <trkpt lat="45.95403" lon="1.34179">
        <ele>359.4</ele>
        <time>2023-11-19T07:59:38Z</time>
      </trkpt>
      <trkpt lat="45.95402" lon="1.34164">
        <ele>359.4</ele>
        <time>2023-11-19T07:59:40Z</time>
      </trkpt>
      <trkpt lat="45.95402" lon="1.34153">
        <ele>358.8</ele>
        <time>2023-11-19T07:59:42Z</time>
      </trkpt>
      <trkpt lat="45.95402" lon="1.34142">
        <ele>357.8</ele>
        <time>2023-11-19T07:59:44Z</time>
      </trkpt>
      <trkpt lat="45.95402" lon="1.34136">
        <ele>357.4</ele>
        <time>2023-11-19T07:59:45Z</time>
      </trkpt>
      <trkpt lat="45.95403" lon="1.34124">
        <ele>356.8</ele>
        <time>2023-11-19T07:59:47Z</time>
      </trkpt>
      <trkpt lat="45.95404" lon="1.34117">
        <ele>356.6</ele>
        <time>2023-11-19T07:59:48Z</time>
      </trkpt>
      <trkpt lat="45.95406" lon="1.34104">
        <ele>355.2</ele>
        <time>2023-11-19T07:59:50Z</time>
      </trkpt>
      <trkpt lat="45.95408" lon="1.34098">
        <ele>354.6</ele>
        <time>2023-11-19T07:59:51Z</time>
      </trkpt>
      <trkpt lat="45.95409" lon="1.34092">
        <ele>354</ele>
        <time>2023-11-19T07:59:52Z</time>
      </trkpt>
      <trkpt lat="45.9541" lon="1.34084">
        <ele>353.6</ele>
        <time>2023-11-19T07:59:53Z</time>
      </trkpt>
      <trkpt lat="45.95413" lon="1.34062">
        <ele>353.4</ele>
        <time>2023-11-19T07:59:56Z</time>
      </trkpt>
      <trkpt lat="45.95418" lon="1.34034">
        <ele>352.8</ele>
        <time>2023-11-19T08:00:00Z</time>
      </trkpt>
      <trkpt lat="45.95423" lon="1.34014">
        <ele>352</ele>
        <time>2023-11-19T08:00:03Z</time>
      </trkpt>
      <trkpt lat="45.95432" lon="1.33984">
        <ele>351.6</ele>
        <time>2023-11-19T08:00:09Z</time>
      </trkpt>
      <trkpt lat="45.95439" lon="1.33959">
        <ele>351.6</ele>
        <time>2023-11-19T08:00:16Z</time>
      </trkpt>
      <trkpt lat="45.95443" lon="1.33934">
        <ele>352</ele>
        <time>2023-11-19T08:00:22Z</time>
      </trkpt>
      <trkpt lat="45.95446" lon="1.33908">
        <ele>352.4</ele>
        <time>2023-11-19T08:00:27Z</time>
      </trkpt>
      <trkpt lat="45.95447" lon="1.33903">
        <ele>352.2</ele>
        <time>2023-11-19T08:00:28Z</time>
      </trkpt>
      <trkpt lat="45.9545" lon="1.3389">
        <ele>352.2</ele>
        <time>2023-11-19T08:00:30Z</time>
      </trkpt>
      <trkpt lat="45.9545" lon="1.33878">
        <ele>351.6</ele>
        <time>2023-11-19T08:00:32Z</time>
      </trkpt>
      <trkpt lat="45.9545" lon="1.33866">
        <ele>351.4</ele>
        <time>2023-11-19T08:00:34Z</time>
      </trkpt>
      <trkpt lat="45.95452" lon="1.33852">
        <ele>351</ele>
        <time>2023-11-19T08:00:36Z</time>
      </trkpt>
      <trkpt lat="45.95453" lon="1.33832">
        <ele>350</ele>
        <time>2023-11-19T08:00:39Z</time>
      </trkpt>
      <trkpt lat="45.95454" lon="1.33825">
        <ele>349.2</ele>
        <time>2023-11-19T08:00:40Z</time>
      </trkpt>
      <trkpt lat="45.95455" lon="1.33817">
        <ele>348.8</ele>
        <time>2023-11-19T08:00:41Z</time>
      </trkpt>
      <trkpt lat="45.95456" lon="1.33795">
        <ele>347.6</ele>
        <time>2023-11-19T08:00:44Z</time>
      </trkpt>
      <trkpt lat="45.95453" lon="1.33786">
        <ele>346.8</ele>
        <time>2023-11-19T08:00:45Z</time>
      </trkpt>
      <trkpt lat="45.95453" lon="1.33779">
        <ele>346.4</ele>
        <time>2023-11-19T08:00:46Z</time>
      </trkpt>
      <trkpt lat="45.95453" lon="1.33768">
        <ele>345.6</ele>
        <time>2023-11-19T08:00:48Z</time>
      </trkpt>
      <trkpt lat="45.95455" lon="1.33764">
        <ele>344.8</ele>
        <time>2023-11-19T08:00:49Z</time>
      </trkpt>
      <trkpt lat="45.95454" lon="1.33756">
        <ele>344.2</ele>
        <time>2023-11-19T08:00:50Z</time>
      </trkpt>
      <trkpt lat="45.95455" lon="1.33747">
        <ele>343.6</ele>
        <time>2023-11-19T08:00:52Z</time>
      </trkpt>
      <trkpt lat="45.95458" lon="1.33732">
        <ele>343</ele>
        <time>2023-11-19T08:00:56Z</time>
      </trkpt>
      <trkpt lat="45.9546" lon="1.33728">
        <ele>343</ele>
        <time>2023-11-19T08:00:58Z</time>
      </trkpt>
      <trkpt lat="45.95463" lon="1.33714">
        <ele>343.2</ele>
        <time>2023-11-19T08:01:01Z</time>
      </trkpt>
      <trkpt lat="45.95466" lon="1.33709">
        <ele>343.2</ele>
        <time>2023-11-19T08:01:03Z</time>
      </trkpt>
      <trkpt lat="45.95471" lon="1.33688">
        <ele>342.8</ele>
        <time>2023-11-19T08:01:10Z</time>
      </trkpt>
      <trkpt lat="45.95473" lon="1.33682">
        <ele>342.4</ele>
        <time>2023-11-19T08:01:12Z</time>
      </trkpt>
      <trkpt lat="45.95479" lon="1.33673">
        <ele>342.2</ele>
        <time>2023-11-19T08:01:17Z</time>
      </trkpt>
      <trkpt lat="45.95485" lon="1.33659">
        <ele>342.2</ele>
        <time>2023-11-19T08:01:27Z</time>
      </trkpt>
      <trkpt lat="45.95492" lon="1.33645">
        <ele>342.2</ele>
        <time>2023-11-19T08:01:42Z</time>
      </trkpt>
      <trkpt lat="45.95497" lon="1.33634">
        <ele>342.6</ele>
        <time>2023-11-19T08:01:50Z</time>
      </trkpt>
      <trkpt lat="45.95498" lon="1.3363">
        <ele>342.6</ele>
        <time>2023-11-19T08:01:53Z</time>
      </trkpt>
      <trkpt lat="45.95502" lon="1.33617">
        <ele>342.6</ele>
        <time>2023-11-19T08:02:05Z</time>
      </trkpt>
      <trkpt lat="45.95504" lon="1.33612">
        <ele>343.4</ele>
        <time>2023-11-19T08:02:08Z</time>
      </trkpt>
      <trkpt lat="45.95505" lon="1.33611">
        <ele>343.6</ele>
        <time>2023-11-19T08:02:09Z</time>
      </trkpt>
      <trkpt lat="45.95508" lon="1.33599">
        <ele>344.4</ele>
        <time>2023-11-19T08:02:15Z</time>
      </trkpt>
      <trkpt lat="45.95509" lon="1.33596">
        <ele>344.8</ele>
        <time>2023-11-19T08:02:16Z</time>
      </trkpt>
      <trkpt lat="45.9551" lon="1.33586">
        <ele>346</ele>
        <time>2023-11-19T08:02:20Z</time>
      </trkpt>
      <trkpt lat="45.95512" lon="1.33569">
        <ele>347.2</ele>
        <time>2023-11-19T08:02:26Z</time>
      </trkpt>
      <trkpt lat="45.95512" lon="1.33557">
        <ele>348.4</ele>
        <time>2023-11-19T08:02:30Z</time>
      </trkpt>
      <trkpt lat="45.95509" lon="1.33541">
        <ele>348.6</ele>
        <time>2023-11-19T08:02:33Z</time>
      </trkpt>
      <trkpt lat="45.95506" lon="1.33517">
        <ele>349.4</ele>
        <time>2023-11-19T08:02:40Z</time>
      </trkpt>
      <trkpt lat="45.95506" lon="1.33513">
        <ele>349.8</ele>
        <time>2023-11-19T08:02:41Z</time>
      </trkpt>
      <trkpt lat="45.95499" lon="1.33484">
        <ele>350.2</ele>
        <time>2023-11-19T08:02:47Z</time>
      </trkpt>
      <trkpt lat="45.95497" lon="1.33467">
        <ele>350.6</ele>
        <time>2023-11-19T08:02:51Z</time>
      </trkpt>
      <trkpt lat="45.95495" lon="1.33457">
        <ele>351.2</ele>
        <time>2023-11-19T08:02:54Z</time>
      </trkpt>
      <trkpt lat="45.95492" lon="1.33438">
        <ele>352</ele>
        <time>2023-11-19T08:02:59Z</time>
      </trkpt>
      <trkpt lat="45.95491" lon="1.33431">
        <ele>352.2</ele>
        <time>2023-11-19T08:03:01Z</time>
      </trkpt>
      <trkpt lat="45.95489" lon="1.33417">
        <ele>353</ele>
        <time>2023-11-19T08:03:05Z</time>
      </trkpt>
      <trkpt lat="45.95487" lon="1.33399">
        <ele>354</ele>
        <time>2023-11-19T08:03:10Z</time>
      </trkpt>
      <trkpt lat="45.95482" lon="1.33374">
        <ele>354.8</ele>
        <time>2023-11-19T08:03:17Z</time>
      </trkpt>
      <trkpt lat="45.95478" lon="1.3336">
        <ele>355.2</ele>
        <time>2023-11-19T08:03:22Z</time>
      </trkpt>
      <trkpt lat="45.95477" lon="1.33355">
        <ele>356.2</ele>
        <time>2023-11-19T08:03:24Z</time>
      </trkpt>
      <trkpt lat="45.95476" lon="1.33353">
        <ele>356.6</ele>
        <time>2023-11-19T08:03:25Z</time>
      </trkpt>
      <trkpt lat="45.95475" lon="1.33349">
        <ele>357.6</ele>
        <time>2023-11-19T08:03:27Z</time>
      </trkpt>
      <trkpt lat="45.95473" lon="1.33343">
        <ele>358.6</ele>
        <time>2023-11-19T08:03:30Z</time>
      </trkpt>
      <trkpt lat="45.95472" lon="1.33339">
        <ele>359.4</ele>
        <time>2023-11-19T08:03:32Z</time>
      </trkpt>
      <trkpt lat="45.95463" lon="1.33322">
        <ele>359.6</ele>
        <time>2023-11-19T08:03:39Z</time>
      </trkpt>
      <trkpt lat="45.95461" lon="1.3332">
        <ele>359.8</ele>
        <time>2023-11-19T08:03:40Z</time>
      </trkpt>
      <trkpt lat="45.95455" lon="1.33313">
        <ele>360.8</ele>
        <time>2023-11-19T08:03:44Z</time>
      </trkpt>
      <trkpt lat="45.95452" lon="1.33309">
        <ele>361</ele>
        <time>2023-11-19T08:03:46Z</time>
      </trkpt>
      <trkpt lat="45.9544" lon="1.33296">
        <ele>361.8</ele>
        <time>2023-11-19T08:03:54Z</time>
      </trkpt>
      <trkpt lat="45.95437" lon="1.33292">
        <ele>362.8</ele>
        <time>2023-11-19T08:03:56Z</time>
      </trkpt>
      <trkpt lat="45.95436" lon="1.3329">
        <ele>363</ele>
        <time>2023-11-19T08:03:57Z</time>
      </trkpt>
      <trkpt lat="45.95427" lon="1.33278">
        <ele>364.2</ele>
        <time>2023-11-19T08:04:03Z</time>
      </trkpt>
      <trkpt lat="45.95421" lon="1.33266">
        <ele>365.2</ele>
        <time>2023-11-19T08:04:09Z</time>
      </trkpt>
      <trkpt lat="45.9542" lon="1.33264">
        <ele>365.4</ele>
        <time>2023-11-19T08:04:10Z</time>
      </trkpt>
      <trkpt lat="45.95417" lon="1.33249">
        <ele>366.2</ele>
        <time>2023-11-19T08:04:16Z</time>
      </trkpt>
      <trkpt lat="45.95418" lon="1.33246">
        <ele>366.4</ele>
        <time>2023-11-19T08:04:17Z</time>
      </trkpt>
      <trkpt lat="45.95418" lon="1.33242">
        <ele>366.8</ele>
        <time>2023-11-19T08:04:18Z</time>
      </trkpt>
      <trkpt lat="45.95422" lon="1.3323">
        <ele>367.2</ele>
        <time>2023-11-19T08:04:21Z</time>
      </trkpt>
      <trkpt lat="45.95422" lon="1.33211">
        <ele>367.4</ele>
        <time>2023-11-19T08:04:25Z</time>
      </trkpt>
      <trkpt lat="45.95416" lon="1.33193">
        <ele>367.4</ele>
        <time>2023-11-19T08:04:30Z</time>
      </trkpt>
      <trkpt lat="45.95413" lon="1.33175">
        <ele>367.8</ele>
        <time>2023-11-19T08:04:36Z</time>
      </trkpt>
      <trkpt lat="45.95404" lon="1.3315">
        <ele>368.4</ele>
        <time>2023-11-19T08:04:45Z</time>
      </trkpt>
      <trkpt lat="45.95398" lon="1.33125">
        <ele>369.6</ele>
        <time>2023-11-19T08:04:53Z</time>
      </trkpt>
      <trkpt lat="45.95402" lon="1.33109">
        <ele>370.8</ele>
        <time>2023-11-19T08:04:58Z</time>
      </trkpt>
      <trkpt lat="45.95404" lon="1.33102">
        <ele>371.4</ele>
        <time>2023-11-19T08:05:00Z</time>
      </trkpt>
      <trkpt lat="45.95406" lon="1.33097">
        <ele>372.2</ele>
        <time>2023-11-19T08:05:02Z</time>
      </trkpt>
      <trkpt lat="45.95414" lon="1.33081">
        <ele>373.4</ele>
        <time>2023-11-19T08:05:08Z</time>
      </trkpt>
      <trkpt lat="45.95417" lon="1.33074">
        <ele>374.6</ele>
        <time>2023-11-19T08:05:11Z</time>
      </trkpt>
      <trkpt lat="45.95424" lon="1.33066">
        <ele>375.6</ele>
        <time>2023-11-19T08:05:16Z</time>
      </trkpt>
      <trkpt lat="45.9543" lon="1.33062">
        <ele>376.6</ele>
        <time>2023-11-19T08:05:20Z</time>
      </trkpt>
      <trkpt lat="45.95434" lon="1.33061">
        <ele>377.2</ele>
        <time>2023-11-19T08:05:23Z</time>
      </trkpt>
      <trkpt lat="45.95436" lon="1.33061">
        <ele>377.8</ele>
        <time>2023-11-19T08:05:25Z</time>
      </trkpt>
      <trkpt lat="45.95442" lon="1.33059">
        <ele>379</ele>
        <time>2023-11-19T08:05:29Z</time>
      </trkpt>
      <trkpt lat="45.95444" lon="1.33058">
        <ele>379</ele>
        <time>2023-11-19T08:05:30Z</time>
      </trkpt>
      <trkpt lat="45.95449" lon="1.33055">
        <ele>380</ele>
        <time>2023-11-19T08:05:33Z</time>
      </trkpt>
      <trkpt lat="45.95454" lon="1.33056">
        <ele>380.8</ele>
        <time>2023-11-19T08:05:37Z</time>
      </trkpt>
      <trkpt lat="45.95456" lon="1.33056">
        <ele>381</ele>
        <time>2023-11-19T08:05:40Z</time>
      </trkpt>
      <trkpt lat="45.9546" lon="1.33056">
        <ele>381.8</ele>
        <time>2023-11-19T08:05:43Z</time>
      </trkpt>
      <trkpt lat="45.95462" lon="1.33056">
        <ele>382.2</ele>
        <time>2023-11-19T08:05:45Z</time>
      </trkpt>
      <trkpt lat="45.9547" lon="1.33057">
        <ele>383.4</ele>
        <time>2023-11-19T08:05:51Z</time>
      </trkpt>
      <trkpt lat="45.95474" lon="1.33059">
        <ele>384.4</ele>
        <time>2023-11-19T08:05:54Z</time>
      </trkpt>
      <trkpt lat="45.95475" lon="1.33059">
        <ele>384.6</ele>
        <time>2023-11-19T08:05:55Z</time>
      </trkpt>
      <trkpt lat="45.95481" lon="1.33058">
        <ele>385.6</ele>
        <time>2023-11-19T08:06:00Z</time>
      </trkpt>
      <trkpt lat="45.95485" lon="1.33056">
        <ele>386.2</ele>
        <time>2023-11-19T08:06:03Z</time>
      </trkpt>
      <trkpt lat="45.95486" lon="1.33056">
        <ele>386.6</ele>
        <time>2023-11-19T08:06:04Z</time>
      </trkpt>
      <trkpt lat="45.95489" lon="1.33055">
        <ele>387</ele>
        <time>2023-11-19T08:06:06Z</time>
      </trkpt>
      <trkpt lat="45.95491" lon="1.33053">
        <ele>387.2</ele>
        <time>2023-11-19T08:06:07Z</time>
      </trkpt>
      <trkpt lat="45.95496" lon="1.3305">
        <ele>388</ele>
        <time>2023-11-19T08:06:10Z</time>
      </trkpt>
      <trkpt lat="45.95499" lon="1.33047">
        <ele>388.4</ele>
        <time>2023-11-19T08:06:12Z</time>
      </trkpt>
      <trkpt lat="45.95505" lon="1.33045">
        <ele>388.8</ele>
        <time>2023-11-19T08:06:16Z</time>
      </trkpt>
      <trkpt lat="45.95507" lon="1.33045">
        <ele>389.2</ele>
        <time>2023-11-19T08:06:18Z</time>
      </trkpt>
      <trkpt lat="45.95509" lon="1.33043">
        <ele>389.6</ele>
        <time>2023-11-19T08:06:20Z</time>
      </trkpt>
      <trkpt lat="45.95514" lon="1.33041">
        <ele>390</ele>
        <time>2023-11-19T08:06:23Z</time>
      </trkpt>
      <trkpt lat="45.95516" lon="1.33039">
        <ele>390.2</ele>
        <time>2023-11-19T08:06:25Z</time>
      </trkpt>
      <trkpt lat="45.9552" lon="1.33038">
        <ele>390.6</ele>
        <time>2023-11-19T08:06:28Z</time>
      </trkpt>
      <trkpt lat="45.95523" lon="1.33036">
        <ele>391.2</ele>
        <time>2023-11-19T08:06:30Z</time>
      </trkpt>
      <trkpt lat="45.95524" lon="1.33035">
        <ele>391.6</ele>
        <time>2023-11-19T08:06:31Z</time>
      </trkpt>
      <trkpt lat="45.95526" lon="1.33034">
        <ele>392.6</ele>
        <time>2023-11-19T08:06:33Z</time>
      </trkpt>
      <trkpt lat="45.95532" lon="1.33032">
        <ele>393</ele>
        <time>2023-11-19T08:06:36Z</time>
      </trkpt>
      <trkpt lat="45.95534" lon="1.3303">
        <ele>393.2</ele>
        <time>2023-11-19T08:06:38Z</time>
      </trkpt>
      <trkpt lat="45.95537" lon="1.33029">
        <ele>393.8</ele>
        <time>2023-11-19T08:06:40Z</time>
      </trkpt>
      <trkpt lat="45.95546" lon="1.33025">
        <ele>394.6</ele>
        <time>2023-11-19T08:06:46Z</time>
      </trkpt>
      <trkpt lat="45.95547" lon="1.33024">
        <ele>394.8</ele>
        <time>2023-11-19T08:06:47Z</time>
      </trkpt>
      <trkpt lat="45.95556" lon="1.33013">
        <ele>395.6</ele>
        <time>2023-11-19T08:06:55Z</time>
      </trkpt>
      <trkpt lat="45.95556" lon="1.33012">
        <ele>395.6</ele>
        <time>2023-11-19T08:06:56Z</time>
      </trkpt>
      <trkpt lat="45.95557" lon="1.33011">
        <ele>395.8</ele>
        <time>2023-11-19T08:06:57Z</time>
      </trkpt>
      <trkpt lat="45.95561" lon="1.33007">
        <ele>396.4</ele>
        <time>2023-11-19T08:07:00Z</time>
      </trkpt>
      <trkpt lat="45.95563" lon="1.33004">
        <ele>396.6</ele>
        <time>2023-11-19T08:07:02Z</time>
      </trkpt>
      <trkpt lat="45.95565" lon="1.33003">
        <ele>396.6</ele>
        <time>2023-11-19T08:07:03Z</time>
      </trkpt>
      <trkpt lat="45.95571" lon="1.32999">
        <ele>397</ele>
        <time>2023-11-19T08:07:07Z</time>
      </trkpt>
      <trkpt lat="45.95574" lon="1.32995">
        <ele>397.6</ele>
        <time>2023-11-19T08:07:10Z</time>
      </trkpt>
      <trkpt lat="45.95575" lon="1.32993">
        <ele>397.8</ele>
        <time>2023-11-19T08:07:11Z</time>
      </trkpt>
      <trkpt lat="45.95579" lon="1.3299">
        <ele>398</ele>
        <time>2023-11-19T08:07:13Z</time>
      </trkpt>
      <trkpt lat="45.95581" lon="1.32988">
        <ele>398</ele>
        <time>2023-11-19T08:07:14Z</time>
      </trkpt>
      <trkpt lat="45.95583" lon="1.32986">
        <ele>398.2</ele>
        <time>2023-11-19T08:07:15Z</time>
      </trkpt>
      <trkpt lat="45.95589" lon="1.32979">
        <ele>399</ele>
        <time>2023-11-19T08:07:19Z</time>
      </trkpt>
      <trkpt lat="45.95593" lon="1.32973">
        <ele>400.2</ele>
        <time>2023-11-19T08:07:23Z</time>
      </trkpt>
      <trkpt lat="45.95601" lon="1.32963">
        <ele>400.6</ele>
        <time>2023-11-19T08:07:27Z</time>
      </trkpt>
      <trkpt lat="45.95619" lon="1.32946">
        <ele>401.6</ele>
        <time>2023-11-19T08:07:34Z</time>
      </trkpt>
      <trkpt lat="45.95629" lon="1.32924">
        <ele>402.4</ele>
        <time>2023-11-19T08:07:43Z</time>
      </trkpt>
      <trkpt lat="45.9563" lon="1.32922">
        <ele>402.8</ele>
        <time>2023-11-19T08:07:44Z</time>
      </trkpt>
      <trkpt lat="45.95635" lon="1.32913">
        <ele>403.8</ele>
        <time>2023-11-19T08:07:48Z</time>
      </trkpt>
      <trkpt lat="45.95637" lon="1.32909">
        <ele>404.4</ele>
        <time>2023-11-19T08:07:50Z</time>
      </trkpt>
      <trkpt lat="45.9564" lon="1.32903">
        <ele>405</ele>
        <time>2023-11-19T08:07:52Z</time>
      </trkpt>
      <trkpt lat="45.95647" lon="1.32896">
        <ele>406</ele>
        <time>2023-11-19T08:07:58Z</time>
      </trkpt>
      <trkpt lat="45.9565" lon="1.32895">
        <ele>406.2</ele>
        <time>2023-11-19T08:07:59Z</time>
      </trkpt>
      <trkpt lat="45.95658" lon="1.32894">
        <ele>407.4</ele>
        <time>2023-11-19T08:08:02Z</time>
      </trkpt>
      <trkpt lat="45.95665" lon="1.32895">
        <ele>408.2</ele>
        <time>2023-11-19T08:08:06Z</time>
      </trkpt>
      <trkpt lat="45.95668" lon="1.32897">
        <ele>408.4</ele>
        <time>2023-11-19T08:08:08Z</time>
      </trkpt>
      <trkpt lat="45.95677" lon="1.32897">
        <ele>409.2</ele>
        <time>2023-11-19T08:08:13Z</time>
      </trkpt>
      <trkpt lat="45.95679" lon="1.32898">
        <ele>409.6</ele>
        <time>2023-11-19T08:08:15Z</time>
      </trkpt>
      <trkpt lat="45.95686" lon="1.32901">
        <ele>410.6</ele>
        <time>2023-11-19T08:08:20Z</time>
      </trkpt>
      <trkpt lat="45.95687" lon="1.329">
        <ele>410.8</ele>
        <time>2023-11-19T08:08:21Z</time>
      </trkpt>
      <trkpt lat="45.95695" lon="1.32899">
        <ele>411.6</ele>
        <time>2023-11-19T08:08:26Z</time>
      </trkpt>
      <trkpt lat="45.95697" lon="1.32898">
        <ele>412</ele>
        <time>2023-11-19T08:08:27Z</time>
      </trkpt>
      <trkpt lat="45.95706" lon="1.32892">
        <ele>412.8</ele>
        <time>2023-11-19T08:08:33Z</time>
      </trkpt>
      <trkpt lat="45.95707" lon="1.32891">
        <ele>413.2</ele>
        <time>2023-11-19T08:08:34Z</time>
      </trkpt>
      <trkpt lat="45.9571" lon="1.32888">
        <ele>414.4</ele>
        <time>2023-11-19T08:08:38Z</time>
      </trkpt>
      <trkpt lat="45.95723" lon="1.3288">
        <ele>415.4</ele>
        <time>2023-11-19T08:08:44Z</time>
      </trkpt>
      <trkpt lat="45.95735" lon="1.32869">
        <ele>416.6</ele>
        <time>2023-11-19T08:08:51Z</time>
      </trkpt>
      <trkpt lat="45.95739" lon="1.32866">
        <ele>417.2</ele>
        <time>2023-11-19T08:08:53Z</time>
      </trkpt>
      <trkpt lat="45.9575" lon="1.32849">
        <ele>418</ele>
        <time>2023-11-19T08:09:01Z</time>
      </trkpt>
      <trkpt lat="45.9575" lon="1.32849">
        <ele>418</ele>
        <time>2023-11-19T08:09:02Z</time>
      </trkpt>
      <trkpt lat="45.9576" lon="1.32828">
        <ele>418.6</ele>
        <time>2023-11-19T08:09:10Z</time>
      </trkpt>
      <trkpt lat="45.9577" lon="1.32815">
        <ele>419</ele>
        <time>2023-11-19T08:09:16Z</time>
      </trkpt>
      <trkpt lat="45.95772" lon="1.3281">
        <ele>419</ele>
        <time>2023-11-19T08:09:18Z</time>
      </trkpt>
      <trkpt lat="45.95784" lon="1.32788">
        <ele>419.8</ele>
        <time>2023-11-19T08:09:26Z</time>
      </trkpt>
      <trkpt lat="45.95788" lon="1.32783">
        <ele>420</ele>
        <time>2023-11-19T08:09:28Z</time>
      </trkpt>
      <trkpt lat="45.95798" lon="1.32765">
        <ele>420</ele>
        <time>2023-11-19T08:09:34Z</time>
      </trkpt>
      <trkpt lat="45.95809" lon="1.32751">
        <ele>421.2</ele>
        <time>2023-11-19T08:09:39Z</time>
      </trkpt>
      <trkpt lat="45.95812" lon="1.32746">
        <ele>421.6</ele>
        <time>2023-11-19T08:09:41Z</time>
      </trkpt>
      <trkpt lat="45.95818" lon="1.32736">
        <ele>422.4</ele>
        <time>2023-11-19T08:09:45Z</time>
      </trkpt>
      <trkpt lat="45.95822" lon="1.32729">
        <ele>423.4</ele>
        <time>2023-11-19T08:09:48Z</time>
      </trkpt>
      <trkpt lat="45.95822" lon="1.32725">
        <ele>423.8</ele>
        <time>2023-11-19T08:09:49Z</time>
      </trkpt>
      <trkpt lat="45.95823" lon="1.32723">
        <ele>424.2</ele>
        <time>2023-11-19T08:09:51Z</time>
      </trkpt>
      <trkpt lat="45.95824" lon="1.32716">
        <ele>425</ele>
        <time>2023-11-19T08:09:54Z</time>
      </trkpt>
      <trkpt lat="45.95824" lon="1.32714">
        <ele>425.2</ele>
        <time>2023-11-19T08:09:55Z</time>
      </trkpt>
      <trkpt lat="45.95827" lon="1.32702">
        <ele>426</ele>
        <time>2023-11-19T08:09:59Z</time>
      </trkpt>
      <trkpt lat="45.95828" lon="1.32695">
        <ele>426.6</ele>
        <time>2023-11-19T08:10:02Z</time>
      </trkpt>
      <trkpt lat="45.95827" lon="1.32689">
        <ele>427</ele>
        <time>2023-11-19T08:10:05Z</time>
      </trkpt>
      <trkpt lat="45.95827" lon="1.32684">
        <ele>428.2</ele>
        <time>2023-11-19T08:10:07Z</time>
      </trkpt>
      <trkpt lat="45.95827" lon="1.3268">
        <ele>429.4</ele>
        <time>2023-11-19T08:10:09Z</time>
      </trkpt>
      <trkpt lat="45.95826" lon="1.32676">
        <ele>430.2</ele>
        <time>2023-11-19T08:10:10Z</time>
      </trkpt>
      <trkpt lat="45.95826" lon="1.32674">
        <ele>431</ele>
        <time>2023-11-19T08:10:11Z</time>
      </trkpt>
      <trkpt lat="45.95826" lon="1.3267">
        <ele>432.4</ele>
        <time>2023-11-19T08:10:13Z</time>
      </trkpt>
      <trkpt lat="45.95825" lon="1.32662">
        <ele>432.8</ele>
        <time>2023-11-19T08:10:17Z</time>
      </trkpt>
      <trkpt lat="45.95825" lon="1.32658">
        <ele>433.4</ele>
        <time>2023-11-19T08:10:19Z</time>
      </trkpt>
      <trkpt lat="45.95825" lon="1.32654">
        <ele>438</ele>
        <time>2023-11-19T08:10:21Z</time>
      </trkpt>
      <trkpt lat="45.95825" lon="1.32651">
        <ele>440.6</ele>
        <time>2023-11-19T08:10:22Z</time>
      </trkpt>
      <trkpt lat="45.95825" lon="1.32647">
        <ele>441.8</ele>
        <time>2023-11-19T08:10:24Z</time>
      </trkpt>
      <trkpt lat="45.95825" lon="1.32645">
        <ele>440.4</ele>
        <time>2023-11-19T08:10:25Z</time>
      </trkpt>
      <trkpt lat="45.95825" lon="1.32643">
        <ele>438.8</ele>
        <time>2023-11-19T08:10:26Z</time>
      </trkpt>
      <trkpt lat="45.95826" lon="1.32641">
        <ele>437.4</ele>
        <time>2023-11-19T08:10:28Z</time>
      </trkpt>
      <trkpt lat="45.95827" lon="1.32638">
        <ele>437.4</ele>
        <time>2023-11-19T08:10:30Z</time>
      </trkpt>
      <trkpt lat="45.95829" lon="1.32636">
        <ele>437.8</ele>
        <time>2023-11-19T08:10:32Z</time>
      </trkpt>
      <trkpt lat="45.95837" lon="1.32635">
        <ele>438.4</ele>
        <time>2023-11-19T08:10:39Z</time>
      </trkpt>
      <trkpt lat="45.95838" lon="1.32635">
        <ele>438.6</ele>
        <time>2023-11-19T08:10:40Z</time>
      </trkpt>
      <trkpt lat="45.95845" lon="1.3264">
        <ele>439.6</ele>
        <time>2023-11-19T08:10:46Z</time>
      </trkpt>
      <trkpt lat="45.95846" lon="1.32641">
        <ele>439.8</ele>
        <time>2023-11-19T08:10:47Z</time>
      </trkpt>
      <trkpt lat="45.95856" lon="1.32645">
        <ele>440.8</ele>
        <time>2023-11-19T08:10:54Z</time>
      </trkpt>
      <trkpt lat="45.95857" lon="1.32645">
        <ele>440.8</ele>
        <time>2023-11-19T08:10:55Z</time>
      </trkpt>
      <trkpt lat="45.95862" lon="1.32647">
        <ele>441.4</ele>
        <time>2023-11-19T08:10:59Z</time>
      </trkpt>
      <trkpt lat="45.95867" lon="1.32648">
        <ele>441.6</ele>
        <time>2023-11-19T08:11:03Z</time>
      </trkpt>
      <trkpt lat="45.95868" lon="1.32648">
        <ele>441.8</ele>
        <time>2023-11-19T08:11:04Z</time>
      </trkpt>
      <trkpt lat="45.95876" lon="1.32647">
        <ele>442.8</ele>
        <time>2023-11-19T08:11:09Z</time>
      </trkpt>
      <trkpt lat="45.9588" lon="1.32646">
        <ele>443.6</ele>
        <time>2023-11-19T08:11:12Z</time>
      </trkpt>
      <trkpt lat="45.95881" lon="1.32646">
        <ele>444</ele>
        <time>2023-11-19T08:11:13Z</time>
      </trkpt>
      <trkpt lat="45.95886" lon="1.32646">
        <ele>444.8</ele>
        <time>2023-11-19T08:11:17Z</time>
      </trkpt>
      <trkpt lat="45.95889" lon="1.32646">
        <ele>445.2</ele>
        <time>2023-11-19T08:11:19Z</time>
      </trkpt>
      <trkpt lat="45.95897" lon="1.32646">
        <ele>444.6</ele>
        <time>2023-11-19T08:11:25Z</time>
      </trkpt>
      <trkpt lat="45.95909" lon="1.32642">
        <ele>445.8</ele>
        <time>2023-11-19T08:11:32Z</time>
      </trkpt>
      <trkpt lat="45.95917" lon="1.32639">
        <ele>446</ele>
        <time>2023-11-19T08:11:39Z</time>
      </trkpt>
      <trkpt lat="45.95918" lon="1.32636">
        <ele>445.6</ele>
        <time>2023-11-19T08:11:42Z</time>
      </trkpt>
      <trkpt lat="45.9592" lon="1.32634">
        <ele>445</ele>
        <time>2023-11-19T08:11:44Z</time>
      </trkpt>
      <trkpt lat="45.95926" lon="1.32631">
        <ele>444.2</ele>
        <time>2023-11-19T08:11:47Z</time>
      </trkpt>
      <trkpt lat="45.95938" lon="1.3262">
        <ele>446.2</ele>
        <time>2023-11-19T08:11:54Z</time>
      </trkpt>
      <trkpt lat="45.95939" lon="1.32619">
        <ele>446.2</ele>
        <time>2023-11-19T08:11:55Z</time>
      </trkpt>
      <trkpt lat="45.95942" lon="1.32617">
        <ele>447.2</ele>
        <time>2023-11-19T08:11:57Z</time>
      </trkpt>
      <trkpt lat="45.95944" lon="1.32614">
        <ele>447.4</ele>
        <time>2023-11-19T08:11:59Z</time>
      </trkpt>
      <trkpt lat="45.95945" lon="1.32613">
        <ele>447.8</ele>
        <time>2023-11-19T08:12:00Z</time>
      </trkpt>
      <trkpt lat="45.95951" lon="1.32603">
        <ele>448.4</ele>
        <time>2023-11-19T08:12:06Z</time>
      </trkpt>
      <trkpt lat="45.95954" lon="1.32601">
        <ele>448.8</ele>
        <time>2023-11-19T08:12:08Z</time>
      </trkpt>
      <trkpt lat="45.95964" lon="1.32583">
        <ele>449</ele>
        <time>2023-11-19T08:12:17Z</time>
      </trkpt>
      <trkpt lat="45.95965" lon="1.32579">
        <ele>449.6</ele>
        <time>2023-11-19T08:12:19Z</time>
      </trkpt>
      <trkpt lat="45.95972" lon="1.3257">
        <ele>450.4</ele>
        <time>2023-11-19T08:12:25Z</time>
      </trkpt>
      <trkpt lat="45.95973" lon="1.32569">
        <ele>450.6</ele>
        <time>2023-11-19T08:12:26Z</time>
      </trkpt>
      <trkpt lat="45.95982" lon="1.3256">
        <ele>451.8</ele>
        <time>2023-11-19T08:12:33Z</time>
      </trkpt>
      <trkpt lat="45.95983" lon="1.32558">
        <ele>452.2</ele>
        <time>2023-11-19T08:12:34Z</time>
      </trkpt>
      <trkpt lat="45.95988" lon="1.3255">
        <ele>452.8</ele>
        <time>2023-11-19T08:12:37Z</time>
      </trkpt>
      <trkpt lat="45.95996" lon="1.32542">
        <ele>454</ele>
        <time>2023-11-19T08:12:41Z</time>
      </trkpt>
      <trkpt lat="45.95997" lon="1.32539">
        <ele>454.2</ele>
        <time>2023-11-19T08:12:42Z</time>
      </trkpt>
      <trkpt lat="45.96001" lon="1.32534">
        <ele>455.2</ele>
        <time>2023-11-19T08:12:45Z</time>
      </trkpt>
      <trkpt lat="45.96002" lon="1.32532">
        <ele>455.6</ele>
        <time>2023-11-19T08:12:46Z</time>
      </trkpt>
      <trkpt lat="45.96006" lon="1.32527">
        <ele>455.4</ele>
        <time>2023-11-19T08:12:48Z</time>
      </trkpt>
      <trkpt lat="45.96018" lon="1.32514">
        <ele>455.6</ele>
        <time>2023-11-19T08:12:54Z</time>
      </trkpt>
      <trkpt lat="45.96021" lon="1.32511">
        <ele>455.6</ele>
        <time>2023-11-19T08:12:55Z</time>
      </trkpt>
      <trkpt lat="45.96032" lon="1.32495">
        <ele>456.6</ele>
        <time>2023-11-19T08:13:02Z</time>
      </trkpt>
      <trkpt lat="45.96034" lon="1.32494">
        <ele>456.6</ele>
        <time>2023-11-19T08:13:03Z</time>
      </trkpt>
      <trkpt lat="45.96044" lon="1.32483">
        <ele>457.4</ele>
        <time>2023-11-19T08:13:10Z</time>
      </trkpt>
      <trkpt lat="45.96047" lon="1.32478">
        <ele>457.8</ele>
        <time>2023-11-19T08:13:13Z</time>
      </trkpt>
      <trkpt lat="45.96053" lon="1.32469">
        <ele>458.4</ele>
        <time>2023-11-19T08:13:17Z</time>
      </trkpt>
      <trkpt lat="45.96056" lon="1.32464">
        <ele>458.8</ele>
        <time>2023-11-19T08:13:19Z</time>
      </trkpt>
      <trkpt lat="45.9606" lon="1.32457">
        <ele>460</ele>
        <time>2023-11-19T08:13:22Z</time>
      </trkpt>
      <trkpt lat="45.96065" lon="1.32452">
        <ele>460.6</ele>
        <time>2023-11-19T08:13:25Z</time>
      </trkpt>
      <trkpt lat="45.96072" lon="1.32442">
        <ele>461</ele>
        <time>2023-11-19T08:13:30Z</time>
      </trkpt>
      <trkpt lat="45.96074" lon="1.32441">
        <ele>461</ele>
        <time>2023-11-19T08:13:31Z</time>
      </trkpt>
      <trkpt lat="45.96081" lon="1.32432">
        <ele>462.2</ele>
        <time>2023-11-19T08:13:37Z</time>
      </trkpt>
      <trkpt lat="45.96084" lon="1.32428">
        <ele>463.4</ele>
        <time>2023-11-19T08:13:40Z</time>
      </trkpt>
      <trkpt lat="45.96089" lon="1.32425">
        <ele>464</ele>
        <time>2023-11-19T08:13:43Z</time>
      </trkpt>
      <trkpt lat="45.96091" lon="1.32423">
        <ele>464</ele>
        <time>2023-11-19T08:13:44Z</time>
      </trkpt>
      <trkpt lat="45.96106" lon="1.3242">
        <ele>463.6</ele>
        <time>2023-11-19T08:13:50Z</time>
      </trkpt>
      <trkpt lat="45.96116" lon="1.32415">
        <ele>463.2</ele>
        <time>2023-11-19T08:13:56Z</time>
      </trkpt>
      <trkpt lat="45.96131" lon="1.3241">
        <ele>464.4</ele>
        <time>2023-11-19T08:14:02Z</time>
      </trkpt>
      <trkpt lat="45.96134" lon="1.3241">
        <ele>464.6</ele>
        <time>2023-11-19T08:14:04Z</time>
      </trkpt>
      <trkpt lat="45.96148" lon="1.32406">
        <ele>464.8</ele>
        <time>2023-11-19T08:14:08Z</time>
      </trkpt>
      <trkpt lat="45.96161" lon="1.32404">
        <ele>465.6</ele>
        <time>2023-11-19T08:14:12Z</time>
      </trkpt>
      <trkpt lat="45.96164" lon="1.32403">
        <ele>465.6</ele>
        <time>2023-11-19T08:14:13Z</time>
      </trkpt>
      <trkpt lat="45.96182" lon="1.32399">
        <ele>466</ele>
        <time>2023-11-19T08:14:20Z</time>
      </trkpt>
      <trkpt lat="45.96198" lon="1.32396">
        <ele>466.6</ele>
        <time>2023-11-19T08:14:27Z</time>
      </trkpt>
      <trkpt lat="45.96213" lon="1.32394">
        <ele>467.6</ele>
        <time>2023-11-19T08:14:32Z</time>
      </trkpt>
      <trkpt lat="45.96216" lon="1.32394">
        <ele>468.2</ele>
        <time>2023-11-19T08:14:33Z</time>
      </trkpt>
      <trkpt lat="45.96227" lon="1.32394">
        <ele>467.8</ele>
        <time>2023-11-19T08:14:35Z</time>
      </trkpt>
      <trkpt lat="45.96228" lon="1.32396">
        <ele>467.6</ele>
        <time>2023-11-19T08:14:37Z</time>
      </trkpt>
      <trkpt lat="45.96227" lon="1.324">
        <ele>469</ele>
        <time>2023-11-19T08:14:40Z</time>
      </trkpt>
      <trkpt lat="45.96226" lon="1.32405">
        <ele>470</ele>
        <time>2023-11-19T08:14:43Z</time>
      </trkpt>
      <trkpt lat="45.96226" lon="1.32415">
        <ele>469.6</ele>
        <time>2023-11-19T08:14:50Z</time>
      </trkpt>
      <trkpt lat="45.96225" lon="1.32418">
        <ele>470.8</ele>
        <time>2023-11-19T08:14:52Z</time>
      </trkpt>
      <trkpt lat="45.96225" lon="1.32428">
        <ele>470.6</ele>
        <time>2023-11-19T08:14:57Z</time>
      </trkpt>
      <trkpt lat="45.96229" lon="1.32444">
        <ele>471.6</ele>
        <time>2023-11-19T08:15:04Z</time>
      </trkpt>
      <trkpt lat="45.96231" lon="1.32447">
        <ele>471.8</ele>
        <time>2023-11-19T08:15:06Z</time>
      </trkpt>
      <trkpt lat="45.96235" lon="1.3246">
        <ele>472.8</ele>
        <time>2023-11-19T08:15:11Z</time>
      </trkpt>
      <trkpt lat="45.96235" lon="1.32462">
        <ele>473.4</ele>
        <time>2023-11-19T08:15:12Z</time>
      </trkpt>
      <trkpt lat="45.9624" lon="1.32476">
        <ele>474.2</ele>
        <time>2023-11-19T08:15:19Z</time>
      </trkpt>
      <trkpt lat="45.96243" lon="1.32481">
        <ele>474.6</ele>
        <time>2023-11-19T08:15:22Z</time>
      </trkpt>
      <trkpt lat="45.96244" lon="1.32483">
        <ele>475.2</ele>
        <time>2023-11-19T08:15:25Z</time>
      </trkpt>
      <trkpt lat="45.96245" lon="1.32484">
        <ele>475.4</ele>
        <time>2023-11-19T08:15:27Z</time>
      </trkpt>
      <trkpt lat="45.96247" lon="1.32487">
        <ele>475.6</ele>
        <time>2023-11-19T08:15:29Z</time>
      </trkpt>
      <trkpt lat="45.96251" lon="1.32492">
        <ele>476.8</ele>
        <time>2023-11-19T08:15:33Z</time>
      </trkpt>
      <trkpt lat="45.96253" lon="1.32497">
        <ele>476.8</ele>
        <time>2023-11-19T08:15:36Z</time>
      </trkpt>
      <trkpt lat="45.96259" lon="1.32503">
        <ele>477.8</ele>
        <time>2023-11-19T08:15:41Z</time>
      </trkpt>
      <trkpt lat="45.96264" lon="1.32507">
        <ele>478.6</ele>
        <time>2023-11-19T08:15:44Z</time>
      </trkpt>
      <trkpt lat="45.96266" lon="1.32509">
        <ele>479</ele>
        <time>2023-11-19T08:15:46Z</time>
      </trkpt>
      <trkpt lat="45.96271" lon="1.32514">
        <ele>480</ele>
        <time>2023-11-19T08:15:50Z</time>
      </trkpt>
      <trkpt lat="45.96274" lon="1.32516">
        <ele>481</ele>
        <time>2023-11-19T08:15:53Z</time>
      </trkpt>
      <trkpt lat="45.96276" lon="1.32516">
        <ele>481.2</ele>
        <time>2023-11-19T08:15:54Z</time>
      </trkpt>
      <trkpt lat="45.96281" lon="1.32518">
        <ele>481.8</ele>
        <time>2023-11-19T08:15:58Z</time>
      </trkpt>
      <trkpt lat="45.96284" lon="1.3252">
        <ele>482.4</ele>
        <time>2023-11-19T08:16:00Z</time>
      </trkpt>
      <trkpt lat="45.96286" lon="1.32522">
        <ele>482.4</ele>
        <time>2023-11-19T08:16:01Z</time>
      </trkpt>
      <trkpt lat="45.96288" lon="1.32524">
        <ele>483.4</ele>
        <time>2023-11-19T08:16:03Z</time>
      </trkpt>
      <trkpt lat="45.96294" lon="1.3253">
        <ele>484.2</ele>
        <time>2023-11-19T08:16:08Z</time>
      </trkpt>
      <trkpt lat="45.96297" lon="1.32533">
        <ele>484.4</ele>
        <time>2023-11-19T08:16:10Z</time>
      </trkpt>
      <trkpt lat="45.96303" lon="1.32541">
        <ele>485.2</ele>
        <time>2023-11-19T08:16:15Z</time>
      </trkpt>
      <trkpt lat="45.96304" lon="1.32543">
        <ele>485.6</ele>
        <time>2023-11-19T08:16:16Z</time>
      </trkpt>
      <trkpt lat="45.96312" lon="1.32554">
        <ele>486.4</ele>
        <time>2023-11-19T08:16:22Z</time>
      </trkpt>
      <trkpt lat="45.96314" lon="1.32556">
        <ele>486.6</ele>
        <time>2023-11-19T08:16:23Z</time>
      </trkpt>
      <trkpt lat="45.9632" lon="1.32566">
        <ele>487.4</ele>
        <time>2023-11-19T08:16:29Z</time>
      </trkpt>
      <trkpt lat="45.96321" lon="1.32568">
        <ele>487.6</ele>
        <time>2023-11-19T08:16:30Z</time>
      </trkpt>
      <trkpt lat="45.96327" lon="1.32582">
        <ele>489</ele>
        <time>2023-11-19T08:16:37Z</time>
      </trkpt>
      <trkpt lat="45.96328" lon="1.32584">
        <ele>489.2</ele>
        <time>2023-11-19T08:16:38Z</time>
      </trkpt>
      <trkpt lat="45.96335" lon="1.32598">
        <ele>490</ele>
        <time>2023-11-19T08:16:45Z</time>
      </trkpt>
      <trkpt lat="45.96337" lon="1.326">
        <ele>490</ele>
        <time>2023-11-19T08:16:46Z</time>
      </trkpt>
      <trkpt lat="45.96346" lon="1.32611">
        <ele>491</ele>
        <time>2023-11-19T08:16:54Z</time>
      </trkpt>
      <trkpt lat="45.96356" lon="1.32623">
        <ele>491.8</ele>
        <time>2023-11-19T08:17:01Z</time>
      </trkpt>
      <trkpt lat="45.96364" lon="1.32641">
        <ele>492</ele>
        <time>2023-11-19T08:17:07Z</time>
      </trkpt>
      <trkpt lat="45.96374" lon="1.3266">
        <ele>491.6</ele>
        <time>2023-11-19T08:17:14Z</time>
      </trkpt>
      <trkpt lat="45.9638" lon="1.32675">
        <ele>492.2</ele>
        <time>2023-11-19T08:17:18Z</time>
      </trkpt>
      <trkpt lat="45.96384" lon="1.32679">
        <ele>492.6</ele>
        <time>2023-11-19T08:17:20Z</time>
      </trkpt>
      <trkpt lat="45.9639" lon="1.32695">
        <ele>493</ele>
        <time>2023-11-19T08:17:26Z</time>
      </trkpt>
      <trkpt lat="45.96395" lon="1.32713">
        <ele>493.2</ele>
        <time>2023-11-19T08:17:32Z</time>
      </trkpt>
      <trkpt lat="45.96399" lon="1.32723">
        <ele>493.4</ele>
        <time>2023-11-19T08:17:35Z</time>
      </trkpt>
      <trkpt lat="45.96401" lon="1.32733">
        <ele>493.6</ele>
        <time>2023-11-19T08:17:37Z</time>
      </trkpt>
      <trkpt lat="45.96405" lon="1.3275">
        <ele>494.4</ele>
        <time>2023-11-19T08:17:40Z</time>
      </trkpt>
      <trkpt lat="45.9641" lon="1.32763">
        <ele>494.6</ele>
        <time>2023-11-19T08:17:43Z</time>
      </trkpt>
      <trkpt lat="45.9642" lon="1.3279">
        <ele>494.8</ele>
        <time>2023-11-19T08:17:50Z</time>
      </trkpt>
      <trkpt lat="45.96433" lon="1.32815">
        <ele>495.8</ele>
        <time>2023-11-19T08:17:56Z</time>
      </trkpt>
      <trkpt lat="45.96437" lon="1.32826">
        <ele>496.8</ele>
        <time>2023-11-19T08:18:00Z</time>
      </trkpt>
      <trkpt lat="45.9644" lon="1.32832">
        <ele>497.2</ele>
        <time>2023-11-19T08:18:03Z</time>
      </trkpt>
      <trkpt lat="45.96451" lon="1.32849">
        <ele>498</ele>
        <time>2023-11-19T08:18:09Z</time>
      </trkpt>
      <trkpt lat="45.96453" lon="1.32851">
        <ele>498.2</ele>
        <time>2023-11-19T08:18:10Z</time>
      </trkpt>
      <trkpt lat="45.96458" lon="1.32856">
        <ele>499.2</ele>
        <time>2023-11-19T08:18:13Z</time>
      </trkpt>
      <trkpt lat="45.96464" lon="1.32863">
        <ele>499.8</ele>
        <time>2023-11-19T08:18:17Z</time>
      </trkpt>
      <trkpt lat="45.96467" lon="1.32865">
        <ele>500.4</ele>
        <time>2023-11-19T08:18:18Z</time>
      </trkpt>
      <trkpt lat="45.9648" lon="1.32873">
        <ele>501.2</ele>
        <time>2023-11-19T08:18:24Z</time>
      </trkpt>
      <trkpt lat="45.96483" lon="1.32874">
        <ele>501.6</ele>
        <time>2023-11-19T08:18:26Z</time>
      </trkpt>
      <trkpt lat="45.96489" lon="1.32874">
        <ele>502.8</ele>
        <time>2023-11-19T08:18:29Z</time>
      </trkpt>
      <trkpt lat="45.96492" lon="1.32875">
        <ele>503.6</ele>
        <time>2023-11-19T08:18:31Z</time>
      </trkpt>
      <trkpt lat="45.96493" lon="1.32875">
        <ele>503.8</ele>
        <time>2023-11-19T08:18:32Z</time>
      </trkpt>
      <trkpt lat="45.96494" lon="1.32875">
        <ele>504.4</ele>
        <time>2023-11-19T08:18:33Z</time>
      </trkpt>
      <trkpt lat="45.96495" lon="1.32876">
        <ele>505</ele>
        <time>2023-11-19T08:18:34Z</time>
      </trkpt>
      <trkpt lat="45.96497" lon="1.32877">
        <ele>505.4</ele>
        <time>2023-11-19T08:18:36Z</time>
      </trkpt>
      <trkpt lat="45.965" lon="1.32879">
        <ele>505.8</ele>
        <time>2023-11-19T08:18:39Z</time>
      </trkpt>
      <trkpt lat="45.96503" lon="1.32881">
        <ele>506.2</ele>
        <time>2023-11-19T08:18:41Z</time>
      </trkpt>
      <trkpt lat="45.96515" lon="1.32889">
        <ele>507.2</ele>
        <time>2023-11-19T08:18:49Z</time>
      </trkpt>
      <trkpt lat="45.96526" lon="1.32893">
        <ele>508</ele>
        <time>2023-11-19T08:18:56Z</time>
      </trkpt>
      <trkpt lat="45.96531" lon="1.32895">
        <ele>508.2</ele>
        <time>2023-11-19T08:18:58Z</time>
      </trkpt>
      <trkpt lat="45.9654" lon="1.32903">
        <ele>508.6</ele>
        <time>2023-11-19T08:19:03Z</time>
      </trkpt>
      <trkpt lat="45.96549" lon="1.32909">
        <ele>509.2</ele>
        <time>2023-11-19T08:19:07Z</time>
      </trkpt>
      <trkpt lat="45.96554" lon="1.32912">
        <ele>509.6</ele>
        <time>2023-11-19T08:19:10Z</time>
      </trkpt>
      <trkpt lat="45.96556" lon="1.32914">
        <ele>509.6</ele>
        <time>2023-11-19T08:19:12Z</time>
      </trkpt>
      <trkpt lat="45.96558" lon="1.32916">
        <ele>509.6</ele>
        <time>2023-11-19T08:19:14Z</time>
      </trkpt>
      <trkpt lat="45.96561" lon="1.32919">
        <ele>509.6</ele>
        <time>2023-11-19T08:19:17Z</time>
      </trkpt>
      <trkpt lat="45.96574" lon="1.32932">
        <ele>509.8</ele>
        <time>2023-11-19T08:19:23Z</time>
      </trkpt>
      <trkpt lat="45.96597" lon="1.32952">
        <ele>509.4</ele>
        <time>2023-11-19T08:19:30Z</time>
      </trkpt>
      <trkpt lat="45.96618" lon="1.32973">
        <ele>509.6</ele>
        <time>2023-11-19T08:19:36Z</time>
      </trkpt>
      <trkpt lat="45.96633" lon="1.32991">
        <ele>509</ele>
        <time>2023-11-19T08:19:43Z</time>
      </trkpt>
      <trkpt lat="45.96638" lon="1.32998">
        <ele>509.2</ele>
        <time>2023-11-19T08:19:47Z</time>
      </trkpt>
      <trkpt lat="45.96641" lon="1.33003">
        <ele>509.4</ele>
        <time>2023-11-19T08:19:50Z</time>
      </trkpt>
      <trkpt lat="45.96645" lon="1.33014">
        <ele>509.4</ele>
        <time>2023-11-19T08:19:53Z</time>
      </trkpt>
      <trkpt lat="45.96646" lon="1.3302">
        <ele>509.2</ele>
        <time>2023-11-19T08:19:55Z</time>
      </trkpt>
      <trkpt lat="45.96655" lon="1.33041">
        <ele>509.6</ele>
        <time>2023-11-19T08:20:02Z</time>
      </trkpt>
      <trkpt lat="45.96663" lon="1.33062">
        <ele>509.4</ele>
        <time>2023-11-19T08:20:09Z</time>
      </trkpt>
      <trkpt lat="45.9667" lon="1.3309">
        <ele>509.8</ele>
        <time>2023-11-19T08:20:17Z</time>
      </trkpt>
      <trkpt lat="45.96673" lon="1.33099">
        <ele>510.2</ele>
        <time>2023-11-19T08:20:20Z</time>
      </trkpt>
      <trkpt lat="45.96676" lon="1.3311">
        <ele>510.4</ele>
        <time>2023-11-19T08:20:23Z</time>
      </trkpt>
      <trkpt lat="45.96684" lon="1.33145">
        <ele>510.6</ele>
        <time>2023-11-19T08:20:29Z</time>
      </trkpt>
      <trkpt lat="45.96692" lon="1.33183">
        <ele>511.4</ele>
        <time>2023-11-19T08:20:36Z</time>
      </trkpt>
      <trkpt lat="45.96702" lon="1.33207">
        <ele>511.6</ele>
        <time>2023-11-19T08:20:42Z</time>
      </trkpt>
      <trkpt lat="45.96705" lon="1.33215">
        <ele>511.6</ele>
        <time>2023-11-19T08:20:45Z</time>
      </trkpt>
      <trkpt lat="45.96706" lon="1.33218">
        <ele>511.6</ele>
        <time>2023-11-19T08:20:46Z</time>
      </trkpt>
      <trkpt lat="45.9671" lon="1.33228">
        <ele>511.8</ele>
        <time>2023-11-19T08:20:58Z</time>
      </trkpt>
      <trkpt lat="45.96717" lon="1.33244">
        <ele>512</ele>
        <time>2023-11-19T08:21:04Z</time>
      </trkpt>
      <trkpt lat="45.96722" lon="1.33253">
        <ele>512.4</ele>
        <time>2023-11-19T08:21:06Z</time>
      </trkpt>
      <trkpt lat="45.96732" lon="1.3327">
        <ele>513</ele>
        <time>2023-11-19T08:21:10Z</time>
      </trkpt>
      <trkpt lat="45.96741" lon="1.33281">
        <ele>513.6</ele>
        <time>2023-11-19T08:21:13Z</time>
      </trkpt>
      <trkpt lat="45.96755" lon="1.33299">
        <ele>515</ele>
        <time>2023-11-19T08:21:18Z</time>
      </trkpt>
      <trkpt lat="45.96773" lon="1.33326">
        <ele>515.6</ele>
        <time>2023-11-19T08:21:25Z</time>
      </trkpt>
      <trkpt lat="45.96781" lon="1.33338">
        <ele>516</ele>
        <time>2023-11-19T08:21:28Z</time>
      </trkpt>
      <trkpt lat="45.96791" lon="1.33354">
        <ele>517</ele>
        <time>2023-11-19T08:21:32Z</time>
      </trkpt>
      <trkpt lat="45.96795" lon="1.33362">
        <ele>517.2</ele>
        <time>2023-11-19T08:21:34Z</time>
      </trkpt>
      <trkpt lat="45.96808" lon="1.33382">
        <ele>518</ele>
        <time>2023-11-19T08:21:40Z</time>
      </trkpt>
      <trkpt lat="45.96813" lon="1.33389">
        <ele>518.6</ele>
        <time>2023-11-19T08:21:42Z</time>
      </trkpt>
      <trkpt lat="45.96818" lon="1.33397">
        <ele>519.4</ele>
        <time>2023-11-19T08:21:44Z</time>
      </trkpt>
      <trkpt lat="45.96827" lon="1.33416">
        <ele>519.8</ele>
        <time>2023-11-19T08:21:49Z</time>
      </trkpt>
      <trkpt lat="45.96835" lon="1.33432">
        <ele>520.4</ele>
        <time>2023-11-19T08:21:53Z</time>
      </trkpt>
      <trkpt lat="45.9684" lon="1.33444">
        <ele>521.2</ele>
        <time>2023-11-19T08:21:56Z</time>
      </trkpt>
      <trkpt lat="45.96843" lon="1.33451">
        <ele>521.4</ele>
        <time>2023-11-19T08:21:58Z</time>
      </trkpt>
      <trkpt lat="45.96852" lon="1.33478">
        <ele>522.6</ele>
        <time>2023-11-19T08:22:04Z</time>
      </trkpt>
      <trkpt lat="45.96853" lon="1.33482">
        <ele>522.4</ele>
        <time>2023-11-19T08:22:05Z</time>
      </trkpt>
      <trkpt lat="45.96861" lon="1.33513">
        <ele>523</ele>
        <time>2023-11-19T08:22:12Z</time>
      </trkpt>
      <trkpt lat="45.96867" lon="1.33542">
        <ele>523.4</ele>
        <time>2023-11-19T08:22:18Z</time>
      </trkpt>
      <trkpt lat="45.96871" lon="1.33565">
        <ele>523.2</ele>
        <time>2023-11-19T08:22:22Z</time>
      </trkpt>
      <trkpt lat="45.96874" lon="1.33578">
        <ele>523</ele>
        <time>2023-11-19T08:22:24Z</time>
      </trkpt>
      <trkpt lat="45.96886" lon="1.33631">
        <ele>522</ele>
        <time>2023-11-19T08:22:31Z</time>
      </trkpt>
      <trkpt lat="45.96892" lon="1.33655">
        <ele>521.6</ele>
        <time>2023-11-19T08:22:34Z</time>
      </trkpt>
      <trkpt lat="45.96896" lon="1.3367">
        <ele>520</ele>
        <time>2023-11-19T08:22:36Z</time>
      </trkpt>
      <trkpt lat="45.969" lon="1.33685">
        <ele>518.8</ele>
        <time>2023-11-19T08:22:38Z</time>
      </trkpt>
      <trkpt lat="45.96909" lon="1.3371">
        <ele>517.8</ele>
        <time>2023-11-19T08:22:41Z</time>
      </trkpt>
      <trkpt lat="45.96912" lon="1.33718">
        <ele>517.2</ele>
        <time>2023-11-19T08:22:42Z</time>
      </trkpt>
      <trkpt lat="45.96916" lon="1.33726">
        <ele>516.8</ele>
        <time>2023-11-19T08:22:43Z</time>
      </trkpt>
      <trkpt lat="45.96921" lon="1.33734">
        <ele>516.4</ele>
        <time>2023-11-19T08:22:44Z</time>
      </trkpt>
      <trkpt lat="45.96926" lon="1.3374">
        <ele>516</ele>
        <time>2023-11-19T08:22:45Z</time>
      </trkpt>
      <trkpt lat="45.96931" lon="1.33746">
        <ele>515.6</ele>
        <time>2023-11-19T08:22:46Z</time>
      </trkpt>
      <trkpt lat="45.96935" lon="1.3375">
        <ele>515.2</ele>
        <time>2023-11-19T08:22:47Z</time>
      </trkpt>
      <trkpt lat="45.96955" lon="1.33764">
        <ele>514</ele>
        <time>2023-11-19T08:22:51Z</time>
      </trkpt>
      <trkpt lat="45.96971" lon="1.33776">
        <ele>513</ele>
        <time>2023-11-19T08:22:54Z</time>
      </trkpt>
      <trkpt lat="45.96977" lon="1.33781">
        <ele>511.8</ele>
        <time>2023-11-19T08:22:55Z</time>
      </trkpt>
      <trkpt lat="45.96988" lon="1.33791">
        <ele>510.4</ele>
        <time>2023-11-19T08:22:57Z</time>
      </trkpt>
      <trkpt lat="45.97001" lon="1.33803">
        <ele>509.2</ele>
        <time>2023-11-19T08:23:00Z</time>
      </trkpt>
      <trkpt lat="45.97008" lon="1.33809">
        <ele>508.6</ele>
        <time>2023-11-19T08:23:02Z</time>
      </trkpt>
      <trkpt lat="45.97011" lon="1.33812">
        <ele>507.8</ele>
        <time>2023-11-19T08:23:03Z</time>
      </trkpt>
      <trkpt lat="45.97014" lon="1.33816">
        <ele>506.6</ele>
        <time>2023-11-19T08:23:04Z</time>
      </trkpt>
      <trkpt lat="45.9702" lon="1.33822">
        <ele>505</ele>
        <time>2023-11-19T08:23:06Z</time>
      </trkpt>
      <trkpt lat="45.97037" lon="1.33838">
        <ele>503.8</ele>
        <time>2023-11-19T08:23:11Z</time>
      </trkpt>
      <trkpt lat="45.97057" lon="1.33855">
        <ele>502.8</ele>
        <time>2023-11-19T08:23:15Z</time>
      </trkpt>
      <trkpt lat="45.97067" lon="1.33861">
        <ele>501.6</ele>
        <time>2023-11-19T08:23:17Z</time>
      </trkpt>
      <trkpt lat="45.97073" lon="1.33866">
        <ele>500.4</ele>
        <time>2023-11-19T08:23:18Z</time>
      </trkpt>
      <trkpt lat="45.97085" lon="1.33875">
        <ele>499.4</ele>
        <time>2023-11-19T08:23:20Z</time>
      </trkpt>
      <trkpt lat="45.97095" lon="1.33888">
        <ele>498.6</ele>
        <time>2023-11-19T08:23:22Z</time>
      </trkpt>
      <trkpt lat="45.971" lon="1.33895">
        <ele>497.8</ele>
        <time>2023-11-19T08:23:23Z</time>
      </trkpt>
      <trkpt lat="45.9711" lon="1.33911">
        <ele>496</ele>
        <time>2023-11-19T08:23:25Z</time>
      </trkpt>
      <trkpt lat="45.97112" lon="1.33921">
        <ele>495.8</ele>
        <time>2023-11-19T08:23:26Z</time>
      </trkpt>
      <trkpt lat="45.97128" lon="1.33941">
        <ele>495.2</ele>
        <time>2023-11-19T08:23:28Z</time>
      </trkpt>
      <trkpt lat="45.97138" lon="1.33983">
        <ele>495</ele>
        <time>2023-11-19T08:23:32Z</time>
      </trkpt>
      <trkpt lat="45.97142" lon="1.34002">
        <ele>494.6</ele>
        <time>2023-11-19T08:23:34Z</time>
      </trkpt>
      <trkpt lat="45.97148" lon="1.3402">
        <ele>493.4</ele>
        <time>2023-11-19T08:23:36Z</time>
      </trkpt>
      <trkpt lat="45.97159" lon="1.34037">
        <ele>492.2</ele>
        <time>2023-11-19T08:23:38Z</time>
      </trkpt>
      <trkpt lat="45.97163" lon="1.34046">
        <ele>491.8</ele>
        <time>2023-11-19T08:23:39Z</time>
      </trkpt>
      <trkpt lat="45.97171" lon="1.34061">
        <ele>491.2</ele>
        <time>2023-11-19T08:23:41Z</time>
      </trkpt>
      <trkpt lat="45.97186" lon="1.34101">
        <ele>490</ele>
        <time>2023-11-19T08:23:45Z</time>
      </trkpt>
      <trkpt lat="45.97194" lon="1.34134">
        <ele>488.8</ele>
        <time>2023-11-19T08:23:48Z</time>
      </trkpt>
      <trkpt lat="45.97195" lon="1.34146">
        <ele>488</ele>
        <time>2023-11-19T08:23:49Z</time>
      </trkpt>
      <trkpt lat="45.97197" lon="1.34157">
        <ele>487.6</ele>
        <time>2023-11-19T08:23:50Z</time>
      </trkpt>
      <trkpt lat="45.97199" lon="1.34178">
        <ele>486.4</ele>
        <time>2023-11-19T08:23:52Z</time>
      </trkpt>
      <trkpt lat="45.97199" lon="1.3419">
        <ele>484.6</ele>
        <time>2023-11-19T08:23:54Z</time>
      </trkpt>
      <trkpt lat="45.972" lon="1.34195">
        <ele>483.2</ele>
        <time>2023-11-19T08:23:55Z</time>
      </trkpt>
      <trkpt lat="45.97198" lon="1.34202">
        <ele>481.8</ele>
        <time>2023-11-19T08:23:57Z</time>
      </trkpt>
      <trkpt lat="45.97197" lon="1.34204">
        <ele>481.4</ele>
        <time>2023-11-19T08:23:58Z</time>
      </trkpt>
      <trkpt lat="45.97195" lon="1.3421">
        <ele>481.2</ele>
        <time>2023-11-19T08:24:00Z</time>
      </trkpt>
      <trkpt lat="45.97195" lon="1.34214">
        <ele>480.8</ele>
        <time>2023-11-19T08:24:04Z</time>
      </trkpt>
      <trkpt lat="45.97195" lon="1.34215">
        <ele>480.8</ele>
        <time>2023-11-19T08:24:05Z</time>
      </trkpt>
      <trkpt lat="45.97197" lon="1.34213">
        <ele>481</ele>
        <time>2023-11-19T08:24:13Z</time>
      </trkpt>
      <trkpt lat="45.97196" lon="1.34211">
        <ele>481</ele>
        <time>2023-11-19T08:24:21Z</time>
      </trkpt>
      <trkpt lat="45.97196" lon="1.34212">
        <ele>480.8</ele>
        <time>2023-11-19T08:24:36Z</time>
      </trkpt>
      <trkpt lat="45.97195" lon="1.34212">
        <ele>480.6</ele>
        <time>2023-11-19T08:24:56Z</time>
      </trkpt>
      <trkpt lat="45.97195" lon="1.34213">
        <ele>480.6</ele>
        <time>2023-11-19T08:25:14Z</time>
      </trkpt>
      <trkpt lat="45.97195" lon="1.34212">
        <ele>480.6</ele>
        <time>2023-11-19T08:25:30Z</time>
      </trkpt>
      <trkpt lat="45.97195" lon="1.34213">
        <ele>480.6</ele>
        <time>2023-11-19T08:25:48Z</time>
      </trkpt>
      <trkpt lat="45.97195" lon="1.34212">
        <ele>480.6</ele>
        <time>2023-11-19T08:26:05Z</time>
      </trkpt>
      <trkpt lat="45.97194" lon="1.34212">
        <ele>480.6</ele>
        <time>2023-11-19T08:26:24Z</time>
      </trkpt>
      <trkpt lat="45.97194" lon="1.34213">
        <ele>480.6</ele>
        <time>2023-11-19T08:26:42Z</time>
      </trkpt>
      <trkpt lat="45.97195" lon="1.34215">
        <ele>480.6</ele>
        <time>2023-11-19T08:27:03Z</time>
      </trkpt>
      <trkpt lat="45.97194" lon="1.34214">
        <ele>480.6</ele>
        <time>2023-11-19T08:27:21Z</time>
      </trkpt>
      <trkpt lat="45.97193" lon="1.34213">
        <ele>480.6</ele>
        <time>2023-11-19T08:27:39Z</time>
      </trkpt>
      <trkpt lat="45.97193" lon="1.34213">
        <ele>480.6</ele>
        <time>2023-11-19T08:27:57Z</time>
      </trkpt>
      <trkpt lat="45.97193" lon="1.34213">
        <ele>480.6</ele>
        <time>2023-11-19T08:28:16Z</time>
      </trkpt>
      <trkpt lat="45.97194" lon="1.34213">
        <ele>480.6</ele>
        <time>2023-11-19T08:28:35Z</time>
      </trkpt>
      <trkpt lat="45.97194" lon="1.34216">
        <ele>480.6</ele>
        <time>2023-11-19T08:28:53Z</time>
      </trkpt>
      <trkpt lat="45.97194" lon="1.34216">
        <ele>480.6</ele>
        <time>2023-11-19T08:29:11Z</time>
      </trkpt>
      <trkpt lat="45.97194" lon="1.34217">
        <ele>480.6</ele>
        <time>2023-11-19T08:29:29Z</time>
      </trkpt>
      <trkpt lat="45.97194" lon="1.34216">
        <ele>480.6</ele>
        <time>2023-11-19T08:29:45Z</time>
      </trkpt>
      <trkpt lat="45.97194" lon="1.34215">
        <ele>480.6</ele>
        <time>2023-11-19T08:30:01Z</time>
      </trkpt>
      <trkpt lat="45.97197" lon="1.34217">
        <ele>480.6</ele>
        <time>2023-11-19T08:30:13Z</time>
      </trkpt>
      <trkpt lat="45.97198" lon="1.34218">
        <ele>480.6</ele>
        <time>2023-11-19T08:30:30Z</time>
      </trkpt>
      <trkpt lat="45.97203" lon="1.34222">
        <ele>480.6</ele>
        <time>2023-11-19T08:30:39Z</time>
      </trkpt>
      <trkpt lat="45.97207" lon="1.3424">
        <ele>480</ele>
        <time>2023-11-19T08:30:46Z</time>
      </trkpt>
      <trkpt lat="45.97214" lon="1.34259">
        <ele>480</ele>
        <time>2023-11-19T08:30:52Z</time>
      </trkpt>
      <trkpt lat="45.97219" lon="1.34277">
        <ele>479.8</ele>
        <time>2023-11-19T08:30:57Z</time>
      </trkpt>
      <trkpt lat="45.97221" lon="1.34284">
        <ele>479.8</ele>
        <time>2023-11-19T08:30:59Z</time>
      </trkpt>
      <trkpt lat="45.97227" lon="1.34314">
        <ele>480.4</ele>
        <time>2023-11-19T08:31:07Z</time>
      </trkpt>
      <trkpt lat="45.97226" lon="1.34338">
        <ele>481</ele>
        <time>2023-11-19T08:31:13Z</time>
      </trkpt>
      <trkpt lat="45.97227" lon="1.34346">
        <ele>481.2</ele>
        <time>2023-11-19T08:31:15Z</time>
      </trkpt>
      <trkpt lat="45.9723" lon="1.34372">
        <ele>482</ele>
        <time>2023-11-19T08:31:21Z</time>
      </trkpt>
      <trkpt lat="45.97232" lon="1.34376">
        <ele>482.2</ele>
        <time>2023-11-19T08:31:22Z</time>
      </trkpt>
      <trkpt lat="45.97244" lon="1.34411">
        <ele>482.8</ele>
        <time>2023-11-19T08:31:30Z</time>
      </trkpt>
      <trkpt lat="45.97258" lon="1.34433">
        <ele>483</ele>
        <time>2023-11-19T08:31:36Z</time>
      </trkpt>
      <trkpt lat="45.97267" lon="1.34445">
        <ele>483.2</ele>
        <time>2023-11-19T08:31:39Z</time>
      </trkpt>
      <trkpt lat="45.97281" lon="1.3446">
        <ele>483.2</ele>
        <time>2023-11-19T08:31:43Z</time>
      </trkpt>
      <trkpt lat="45.97301" lon="1.34486">
        <ele>483.2</ele>
        <time>2023-11-19T08:31:50Z</time>
      </trkpt>
      <trkpt lat="45.97308" lon="1.34493">
        <ele>483.4</ele>
        <time>2023-11-19T08:31:53Z</time>
      </trkpt>
      <trkpt lat="45.97312" lon="1.34493">
        <ele>483.4</ele>
        <time>2023-11-19T08:31:55Z</time>
      </trkpt>
      <trkpt lat="45.97315" lon="1.3449">
        <ele>483.4</ele>
        <time>2023-11-19T08:31:57Z</time>
      </trkpt>
      <trkpt lat="45.97318" lon="1.34485">
        <ele>483.4</ele>
        <time>2023-11-19T08:31:59Z</time>
      </trkpt>
      <trkpt lat="45.97329" lon="1.34467">
        <ele>483.2</ele>
        <time>2023-11-19T08:32:06Z</time>
      </trkpt>
      <trkpt lat="45.97345" lon="1.34454">
        <ele>482</ele>
        <time>2023-11-19T08:32:13Z</time>
      </trkpt>
      <trkpt lat="45.97348" lon="1.34452">
        <ele>481.8</ele>
        <time>2023-11-19T08:32:14Z</time>
      </trkpt>
      <trkpt lat="45.9735" lon="1.34449">
        <ele>481.6</ele>
        <time>2023-11-19T08:32:15Z</time>
      </trkpt>
      <trkpt lat="45.97364" lon="1.34435">
        <ele>482.2</ele>
        <time>2023-11-19T08:32:19Z</time>
      </trkpt>
      <trkpt lat="45.97387" lon="1.34418">
        <ele>482.6</ele>
        <time>2023-11-19T08:32:25Z</time>
      </trkpt>
      <trkpt lat="45.97409" lon="1.34407">
        <ele>482.8</ele>
        <time>2023-11-19T08:32:32Z</time>
      </trkpt>
      <trkpt lat="45.97426" lon="1.34395">
        <ele>483</ele>
        <time>2023-11-19T08:32:37Z</time>
      </trkpt>
      <trkpt lat="45.9743" lon="1.34392">
        <ele>483.2</ele>
        <time>2023-11-19T08:32:38Z</time>
      </trkpt>
      <trkpt lat="45.97437" lon="1.34386">
        <ele>483</ele>
        <time>2023-11-19T08:32:40Z</time>
      </trkpt>
      <trkpt lat="45.97444" lon="1.34377">
        <ele>483</ele>
        <time>2023-11-19T08:32:42Z</time>
      </trkpt>
      <trkpt lat="45.97467" lon="1.34344">
        <ele>482.2</ele>
        <time>2023-11-19T08:32:47Z</time>
      </trkpt>
      <trkpt lat="45.97471" lon="1.34337">
        <ele>481.8</ele>
        <time>2023-11-19T08:32:48Z</time>
      </trkpt>
      <trkpt lat="45.97488" lon="1.34295">
        <ele>481</ele>
        <time>2023-11-19T08:32:54Z</time>
      </trkpt>
      <trkpt lat="45.97491" lon="1.34283">
        <ele>480.2</ele>
        <time>2023-11-19T08:32:56Z</time>
      </trkpt>
      <trkpt lat="45.975" lon="1.34254">
        <ele>479.6</ele>
        <time>2023-11-19T08:33:01Z</time>
      </trkpt>
      <trkpt lat="45.97509" lon="1.34224">
        <ele>479.2</ele>
        <time>2023-11-19T08:33:06Z</time>
      </trkpt>
      <trkpt lat="45.97512" lon="1.34208">
        <ele>479</ele>
        <time>2023-11-19T08:33:09Z</time>
      </trkpt>
      <trkpt lat="45.97512" lon="1.34208">
        <ele>480.2</ele>
        <time>2023-11-19T08:33:13Z</time>
      </trkpt>
      <trkpt lat="45.9752" lon="1.3417">
        <ele>481.4</ele>
        <time>2023-11-19T08:33:17Z</time>
      </trkpt>
      <trkpt lat="45.97529" lon="1.34147">
        <ele>481.6</ele>
        <time>2023-11-19T08:33:22Z</time>
      </trkpt>
      <trkpt lat="45.97538" lon="1.34122">
        <ele>482.6</ele>
        <time>2023-11-19T08:33:27Z</time>
      </trkpt>
      <trkpt lat="45.9754" lon="1.34117">
        <ele>482.2</ele>
        <time>2023-11-19T08:33:28Z</time>
      </trkpt>
      <trkpt lat="45.97541" lon="1.34111">
        <ele>482</ele>
        <time>2023-11-19T08:33:29Z</time>
      </trkpt>
      <trkpt lat="45.97551" lon="1.34087">
        <ele>481.6</ele>
        <time>2023-11-19T08:33:33Z</time>
      </trkpt>
      <trkpt lat="45.97554" lon="1.34082">
        <ele>481.4</ele>
        <time>2023-11-19T08:33:34Z</time>
      </trkpt>
      <trkpt lat="45.97558" lon="1.34077">
        <ele>481</ele>
        <time>2023-11-19T08:33:35Z</time>
      </trkpt>
      <trkpt lat="45.97574" lon="1.34066">
        <ele>480.2</ele>
        <time>2023-11-19T08:33:38Z</time>
      </trkpt>
      <trkpt lat="45.9758" lon="1.34062">
        <ele>480</ele>
        <time>2023-11-19T08:33:39Z</time>
      </trkpt>
      <trkpt lat="45.97605" lon="1.34047">
        <ele>479.4</ele>
        <time>2023-11-19T08:33:43Z</time>
      </trkpt>
      <trkpt lat="45.97613" lon="1.34038">
        <ele>479.2</ele>
        <time>2023-11-19T08:33:45Z</time>
      </trkpt>
      <trkpt lat="45.97626" lon="1.34024">
        <ele>479</ele>
        <time>2023-11-19T08:33:48Z</time>
      </trkpt>
      <trkpt lat="45.97635" lon="1.34003">
        <ele>478.8</ele>
        <time>2023-11-19T08:33:51Z</time>
      </trkpt>
      <trkpt lat="45.97643" lon="1.33985">
        <ele>478.6</ele>
        <time>2023-11-19T08:33:54Z</time>
      </trkpt>
      <trkpt lat="45.97646" lon="1.33974">
        <ele>478.4</ele>
        <time>2023-11-19T08:33:56Z</time>
      </trkpt>
      <trkpt lat="45.97649" lon="1.33956">
        <ele>478.8</ele>
        <time>2023-11-19T08:34:01Z</time>
      </trkpt>
      <trkpt lat="45.97654" lon="1.33928">
        <ele>479.4</ele>
        <time>2023-11-19T08:34:08Z</time>
      </trkpt>
      <trkpt lat="45.97658" lon="1.33899">
        <ele>480.2</ele>
        <time>2023-11-19T08:34:14Z</time>
      </trkpt>
      <trkpt lat="45.97661" lon="1.33873">
        <ele>480.8</ele>
        <time>2023-11-19T08:34:20Z</time>
      </trkpt>
      <trkpt lat="45.97668" lon="1.33847">
        <ele>480.2</ele>
        <time>2023-11-19T08:34:26Z</time>
      </trkpt>
      <trkpt lat="45.97679" lon="1.3383">
        <ele>479.8</ele>
        <time>2023-11-19T08:34:32Z</time>
      </trkpt>
      <trkpt lat="45.97693" lon="1.33817">
        <ele>480.2</ele>
        <time>2023-11-19T08:34:39Z</time>
      </trkpt>
      <trkpt lat="45.97707" lon="1.33805">
        <ele>482</ele>
        <time>2023-11-19T08:34:44Z</time>
      </trkpt>
      <trkpt lat="45.97709" lon="1.33804">
        <ele>482.8</ele>
        <time>2023-11-19T08:34:45Z</time>
      </trkpt>
      <trkpt lat="45.97713" lon="1.33801">
        <ele>483.2</ele>
        <time>2023-11-19T08:34:46Z</time>
      </trkpt>
      <trkpt lat="45.97729" lon="1.3379">
        <ele>484</ele>
        <time>2023-11-19T08:34:50Z</time>
      </trkpt>
      <trkpt lat="45.97733" lon="1.33788">
        <ele>484.2</ele>
        <time>2023-11-19T08:34:51Z</time>
      </trkpt>
      <trkpt lat="45.9776" lon="1.33775">
        <ele>484.2</ele>
        <time>2023-11-19T08:34:58Z</time>
      </trkpt>
      <trkpt lat="45.9779" lon="1.33763">
        <ele>484.4</ele>
        <time>2023-11-19T08:35:05Z</time>
      </trkpt>
      <trkpt lat="45.97821" lon="1.3375">
        <ele>484.2</ele>
        <time>2023-11-19T08:35:13Z</time>
      </trkpt>
      <trkpt lat="45.97835" lon="1.33742">
        <ele>483.6</ele>
        <time>2023-11-19T08:35:16Z</time>
      </trkpt>
      <trkpt lat="45.97844" lon="1.33732">
        <ele>483</ele>
        <time>2023-11-19T08:35:18Z</time>
      </trkpt>
      <trkpt lat="45.97859" lon="1.33716">
        <ele>483.2</ele>
        <time>2023-11-19T08:35:21Z</time>
      </trkpt>
      <trkpt lat="45.9787" lon="1.33707">
        <ele>483.2</ele>
        <time>2023-11-19T08:35:23Z</time>
      </trkpt>
      <trkpt lat="45.97881" lon="1.33698">
        <ele>482</ele>
        <time>2023-11-19T08:35:25Z</time>
      </trkpt>
      <trkpt lat="45.9789" lon="1.33691">
        <ele>479.8</ele>
        <time>2023-11-19T08:35:27Z</time>
      </trkpt>
      <trkpt lat="45.97893" lon="1.33692">
        <ele>479</ele>
        <time>2023-11-19T08:35:28Z</time>
      </trkpt>
      <trkpt lat="45.97896" lon="1.33692">
        <ele>478.4</ele>
        <time>2023-11-19T08:35:29Z</time>
      </trkpt>
      <trkpt lat="45.97902" lon="1.33697">
        <ele>477</ele>
        <time>2023-11-19T08:35:32Z</time>
      </trkpt>
      <trkpt lat="45.97912" lon="1.33706">
        <ele>475</ele>
        <time>2023-11-19T08:35:36Z</time>
      </trkpt>
      <trkpt lat="45.97914" lon="1.33708">
        <ele>474.4</ele>
        <time>2023-11-19T08:35:37Z</time>
      </trkpt>
      <trkpt lat="45.97915" lon="1.33712">
        <ele>473.2</ele>
        <time>2023-11-19T08:35:38Z</time>
      </trkpt>
      <trkpt lat="45.97916" lon="1.33715">
        <ele>472.4</ele>
        <time>2023-11-19T08:35:39Z</time>
      </trkpt>
      <trkpt lat="45.97917" lon="1.33719">
        <ele>472</ele>
        <time>2023-11-19T08:35:40Z</time>
      </trkpt>
      <trkpt lat="45.97919" lon="1.33721">
        <ele>471.8</ele>
        <time>2023-11-19T08:35:41Z</time>
      </trkpt>
      <trkpt lat="45.97923" lon="1.33724">
        <ele>471</ele>
        <time>2023-11-19T08:35:43Z</time>
      </trkpt>
      <trkpt lat="45.97928" lon="1.33725">
        <ele>470.6</ele>
        <time>2023-11-19T08:35:44Z</time>
      </trkpt>
      <trkpt lat="45.97934" lon="1.33726">
        <ele>469.4</ele>
        <time>2023-11-19T08:35:46Z</time>
      </trkpt>
      <trkpt lat="45.97941" lon="1.33726">
        <ele>468.6</ele>
        <time>2023-11-19T08:35:48Z</time>
      </trkpt>
      <trkpt lat="45.97945" lon="1.33726">
        <ele>468.2</ele>
        <time>2023-11-19T08:35:49Z</time>
      </trkpt>
      <trkpt lat="45.9796" lon="1.33731">
        <ele>467</ele>
        <time>2023-11-19T08:35:53Z</time>
      </trkpt>
      <trkpt lat="45.97964" lon="1.33734">
        <ele>466.2</ele>
        <time>2023-11-19T08:35:54Z</time>
      </trkpt>
      <trkpt lat="45.97968" lon="1.33738">
        <ele>465.4</ele>
        <time>2023-11-19T08:35:55Z</time>
      </trkpt>
      <trkpt lat="45.97978" lon="1.33745">
        <ele>464.6</ele>
        <time>2023-11-19T08:35:57Z</time>
      </trkpt>
      <trkpt lat="45.97984" lon="1.3375">
        <ele>464.6</ele>
        <time>2023-11-19T08:35:58Z</time>
      </trkpt>
      <trkpt lat="45.97989" lon="1.33752">
        <ele>463.8</ele>
        <time>2023-11-19T08:35:59Z</time>
      </trkpt>
      <trkpt lat="45.98" lon="1.33751">
        <ele>462.4</ele>
        <time>2023-11-19T08:36:01Z</time>
      </trkpt>
      <trkpt lat="45.98009" lon="1.33746">
        <ele>461.2</ele>
        <time>2023-11-19T08:36:03Z</time>
      </trkpt>
      <trkpt lat="45.98017" lon="1.33739">
        <ele>459.8</ele>
        <time>2023-11-19T08:36:05Z</time>
      </trkpt>
      <trkpt lat="45.9802" lon="1.33736">
        <ele>458.4</ele>
        <time>2023-11-19T08:36:06Z</time>
      </trkpt>
      <trkpt lat="45.98021" lon="1.33732">
        <ele>457.4</ele>
        <time>2023-11-19T08:36:07Z</time>
      </trkpt>
      <trkpt lat="45.98022" lon="1.33723">
        <ele>455.6</ele>
        <time>2023-11-19T08:36:09Z</time>
      </trkpt>
      <trkpt lat="45.98022" lon="1.337">
        <ele>454</ele>
        <time>2023-11-19T08:36:12Z</time>
      </trkpt>
      <trkpt lat="45.98023" lon="1.33692">
        <ele>453.4</ele>
        <time>2023-11-19T08:36:13Z</time>
      </trkpt>
      <trkpt lat="45.98023" lon="1.33681">
        <ele>453</ele>
        <time>2023-11-19T08:36:14Z</time>
      </trkpt>
      <trkpt lat="45.98024" lon="1.33671">
        <ele>452.6</ele>
        <time>2023-11-19T08:36:15Z</time>
      </trkpt>
      <trkpt lat="45.98026" lon="1.33652">
        <ele>451.8</ele>
        <time>2023-11-19T08:36:17Z</time>
      </trkpt>
      <trkpt lat="45.98028" lon="1.33645">
        <ele>451.6</ele>
        <time>2023-11-19T08:36:18Z</time>
      </trkpt>
      <trkpt lat="45.9803" lon="1.33639">
        <ele>451.4</ele>
        <time>2023-11-19T08:36:19Z</time>
      </trkpt>
      <trkpt lat="45.98033" lon="1.33634">
        <ele>450.8</ele>
        <time>2023-11-19T08:36:21Z</time>
      </trkpt>
      <trkpt lat="45.98035" lon="1.33632">
        <ele>450.2</ele>
        <time>2023-11-19T08:36:22Z</time>
      </trkpt>
      <trkpt lat="45.98037" lon="1.33631">
        <ele>449.8</ele>
        <time>2023-11-19T08:36:23Z</time>
      </trkpt>
      <trkpt lat="45.98039" lon="1.3363">
        <ele>449.4</ele>
        <time>2023-11-19T08:36:24Z</time>
      </trkpt>
      <trkpt lat="45.98043" lon="1.33629">
        <ele>449</ele>
        <time>2023-11-19T08:36:25Z</time>
      </trkpt>
      <trkpt lat="45.9805" lon="1.33629">
        <ele>448.6</ele>
        <time>2023-11-19T08:36:26Z</time>
      </trkpt>
      <trkpt lat="45.9806" lon="1.3363">
        <ele>448.6</ele>
        <time>2023-11-19T08:36:27Z</time>
      </trkpt>
      <trkpt lat="45.98076" lon="1.33636">
        <ele>448</ele>
        <time>2023-11-19T08:36:29Z</time>
      </trkpt>
      <trkpt lat="45.98082" lon="1.3364">
        <ele>448</ele>
        <time>2023-11-19T08:36:30Z</time>
      </trkpt>
      <trkpt lat="45.98091" lon="1.33648">
        <ele>447.8</ele>
        <time>2023-11-19T08:36:32Z</time>
      </trkpt>
      <trkpt lat="45.981" lon="1.33655">
        <ele>445.6</ele>
        <time>2023-11-19T08:36:34Z</time>
      </trkpt>
      <trkpt lat="45.98103" lon="1.33659">
        <ele>444.2</ele>
        <time>2023-11-19T08:36:35Z</time>
      </trkpt>
      <trkpt lat="45.98106" lon="1.33663">
        <ele>443.6</ele>
        <time>2023-11-19T08:36:36Z</time>
      </trkpt>
      <trkpt lat="45.98108" lon="1.33666">
        <ele>442.2</ele>
        <time>2023-11-19T08:36:37Z</time>
      </trkpt>
      <trkpt lat="45.9811" lon="1.33669">
        <ele>441.6</ele>
        <time>2023-11-19T08:36:38Z</time>
      </trkpt>
      <trkpt lat="45.98115" lon="1.33675">
        <ele>441</ele>
        <time>2023-11-19T08:36:40Z</time>
      </trkpt>
      <trkpt lat="45.98121" lon="1.3368">
        <ele>440.8</ele>
        <time>2023-11-19T08:36:42Z</time>
      </trkpt>
      <trkpt lat="45.98127" lon="1.33689">
        <ele>440.4</ele>
        <time>2023-11-19T08:36:44Z</time>
      </trkpt>
      <trkpt lat="45.98131" lon="1.33695">
        <ele>440</ele>
        <time>2023-11-19T08:36:46Z</time>
      </trkpt>
      <trkpt lat="45.98133" lon="1.33698">
        <ele>439.6</ele>
        <time>2023-11-19T08:36:47Z</time>
      </trkpt>
      <trkpt lat="45.98135" lon="1.337">
        <ele>438.6</ele>
        <time>2023-11-19T08:36:48Z</time>
      </trkpt>
      <trkpt lat="45.98139" lon="1.33705">
        <ele>437.4</ele>
        <time>2023-11-19T08:36:50Z</time>
      </trkpt>
      <trkpt lat="45.98143" lon="1.33714">
        <ele>436.8</ele>
        <time>2023-11-19T08:36:53Z</time>
      </trkpt>
      <trkpt lat="45.98149" lon="1.33734">
        <ele>436</ele>
        <time>2023-11-19T08:36:59Z</time>
      </trkpt>
      <trkpt lat="45.9815" lon="1.33738">
        <ele>435.2</ele>
        <time>2023-11-19T08:37:00Z</time>
      </trkpt>
      <trkpt lat="45.9815" lon="1.33742">
        <ele>434.4</ele>
        <time>2023-11-19T08:37:01Z</time>
      </trkpt>
      <trkpt lat="45.98151" lon="1.33752">
        <ele>433</ele>
        <time>2023-11-19T08:37:03Z</time>
      </trkpt>
      <trkpt lat="45.98152" lon="1.33761">
        <ele>432.2</ele>
        <time>2023-11-19T08:37:05Z</time>
      </trkpt>
      <trkpt lat="45.98152" lon="1.3377">
        <ele>431.8</ele>
        <time>2023-11-19T08:37:07Z</time>
      </trkpt>
      <trkpt lat="45.98153" lon="1.33782">
        <ele>431.2</ele>
        <time>2023-11-19T08:37:10Z</time>
      </trkpt>
      <trkpt lat="45.98156" lon="1.33791">
        <ele>430.6</ele>
        <time>2023-11-19T08:37:12Z</time>
      </trkpt>
      <trkpt lat="45.9816" lon="1.33806">
        <ele>429.4</ele>
        <time>2023-11-19T08:37:15Z</time>
      </trkpt>
      <trkpt lat="45.98161" lon="1.33811">
        <ele>429.4</ele>
        <time>2023-11-19T08:37:16Z</time>
      </trkpt>
      <trkpt lat="45.98167" lon="1.33826">
        <ele>428</ele>
        <time>2023-11-19T08:37:20Z</time>
      </trkpt>
      <trkpt lat="45.9817" lon="1.33841">
        <ele>427.2</ele>
        <time>2023-11-19T08:37:23Z</time>
      </trkpt>
      <trkpt lat="45.9817" lon="1.33846">
        <ele>427</ele>
        <time>2023-11-19T08:37:24Z</time>
      </trkpt>
      <trkpt lat="45.98173" lon="1.33867">
        <ele>425.6</ele>
        <time>2023-11-19T08:37:28Z</time>
      </trkpt>
      <trkpt lat="45.98174" lon="1.33875">
        <ele>425.2</ele>
        <time>2023-11-19T08:37:30Z</time>
      </trkpt>
      <trkpt lat="45.98177" lon="1.33915">
        <ele>425</ele>
        <time>2023-11-19T08:37:37Z</time>
      </trkpt>
      <trkpt lat="45.9818" lon="1.33933">
        <ele>424.6</ele>
        <time>2023-11-19T08:37:40Z</time>
      </trkpt>
      <trkpt lat="45.98181" lon="1.3394">
        <ele>423.6</ele>
        <time>2023-11-19T08:37:42Z</time>
      </trkpt>
      <trkpt lat="45.98181" lon="1.33947">
        <ele>423.4</ele>
        <time>2023-11-19T08:37:43Z</time>
      </trkpt>
      <trkpt lat="45.98184" lon="1.33964">
        <ele>422.2</ele>
        <time>2023-11-19T08:37:48Z</time>
      </trkpt>
      <trkpt lat="45.98185" lon="1.33967">
        <ele>422.2</ele>
        <time>2023-11-19T08:37:49Z</time>
      </trkpt>
      <trkpt lat="45.9819" lon="1.33992">
        <ele>421.6</ele>
        <time>2023-11-19T08:37:54Z</time>
      </trkpt>
      <trkpt lat="45.98192" lon="1.33997">
        <ele>421.4</ele>
        <time>2023-11-19T08:37:55Z</time>
      </trkpt>
      <trkpt lat="45.98194" lon="1.34004">
        <ele>421</ele>
        <time>2023-11-19T08:37:56Z</time>
      </trkpt>
      <trkpt lat="45.98203" lon="1.34022">
        <ele>420</ele>
        <time>2023-11-19T08:37:59Z</time>
      </trkpt>
      <trkpt lat="45.98208" lon="1.34037">
        <ele>418.6</ele>
        <time>2023-11-19T08:38:01Z</time>
      </trkpt>
      <trkpt lat="45.98218" lon="1.34063">
        <ele>417.4</ele>
        <time>2023-11-19T08:38:05Z</time>
      </trkpt>
      <trkpt lat="45.98222" lon="1.34072">
        <ele>417</ele>
        <time>2023-11-19T08:38:07Z</time>
      </trkpt>
      <trkpt lat="45.98235" lon="1.34091">
        <ele>416.8</ele>
        <time>2023-11-19T08:38:12Z</time>
      </trkpt>
      <trkpt lat="45.98253" lon="1.3412">
        <ele>416.4</ele>
        <time>2023-11-19T08:38:18Z</time>
      </trkpt>
      <trkpt lat="45.98269" lon="1.34134">
        <ele>416.4</ele>
        <time>2023-11-19T08:38:23Z</time>
      </trkpt>
      <trkpt lat="45.9827" lon="1.34137">
        <ele>416.4</ele>
        <time>2023-11-19T08:38:24Z</time>
      </trkpt>
      <trkpt lat="45.98268" lon="1.34143">
        <ele>416.2</ele>
        <time>2023-11-19T08:38:26Z</time>
      </trkpt>
      <trkpt lat="45.98263" lon="1.34148">
        <ele>415.8</ele>
        <time>2023-11-19T08:38:28Z</time>
      </trkpt>
      <trkpt lat="45.98244" lon="1.34168">
        <ele>416</ele>
        <time>2023-11-19T08:38:35Z</time>
      </trkpt>
      <trkpt lat="45.98237" lon="1.34192">
        <ele>416.2</ele>
        <time>2023-11-19T08:38:40Z</time>
      </trkpt>
      <trkpt lat="45.9824" lon="1.34201">
        <ele>416.2</ele>
        <time>2023-11-19T08:38:42Z</time>
      </trkpt>
      <trkpt lat="45.98242" lon="1.34205">
        <ele>416.2</ele>
        <time>2023-11-19T08:38:43Z</time>
      </trkpt>
      <trkpt lat="45.98255" lon="1.34224">
        <ele>415.6</ele>
        <time>2023-11-19T08:38:48Z</time>
      </trkpt>
      <trkpt lat="45.98258" lon="1.34226">
        <ele>415.4</ele>
        <time>2023-11-19T08:38:49Z</time>
      </trkpt>
      <trkpt lat="45.98261" lon="1.34228">
        <ele>415.2</ele>
        <time>2023-11-19T08:38:50Z</time>
      </trkpt>
      <trkpt lat="45.98276" lon="1.34237">
        <ele>415.4</ele>
        <time>2023-11-19T08:38:55Z</time>
      </trkpt>
      <trkpt lat="45.98287" lon="1.34242">
        <ele>416</ele>
        <time>2023-11-19T08:39:01Z</time>
      </trkpt>
      <trkpt lat="45.98297" lon="1.34242">
        <ele>416.2</ele>
        <time>2023-11-19T08:39:04Z</time>
      </trkpt>
      <trkpt lat="45.98302" lon="1.34245">
        <ele>416.6</ele>
        <time>2023-11-19T08:39:06Z</time>
      </trkpt>
      <trkpt lat="45.98304" lon="1.34248">
        <ele>417.2</ele>
        <time>2023-11-19T08:39:08Z</time>
      </trkpt>
      <trkpt lat="45.98305" lon="1.3425">
        <ele>417.4</ele>
        <time>2023-11-19T08:39:09Z</time>
      </trkpt>
      <trkpt lat="45.98305" lon="1.34252">
        <ele>418</ele>
        <time>2023-11-19T08:39:10Z</time>
      </trkpt>
      <trkpt lat="45.98304" lon="1.34254">
        <ele>418.8</ele>
        <time>2023-11-19T08:39:12Z</time>
      </trkpt>
      <trkpt lat="45.98303" lon="1.34257">
        <ele>420</ele>
        <time>2023-11-19T08:39:14Z</time>
      </trkpt>
      <trkpt lat="45.98301" lon="1.34264">
        <ele>420.8</ele>
        <time>2023-11-19T08:39:21Z</time>
      </trkpt>
      <trkpt lat="45.98301" lon="1.34265">
        <ele>421</ele>
        <time>2023-11-19T08:39:22Z</time>
      </trkpt>
      <trkpt lat="45.98299" lon="1.34269">
        <ele>421.8</ele>
        <time>2023-11-19T08:39:25Z</time>
      </trkpt>
      <trkpt lat="45.98297" lon="1.34273">
        <ele>422.4</ele>
        <time>2023-11-19T08:39:27Z</time>
      </trkpt>
      <trkpt lat="45.98297" lon="1.34275">
        <ele>422.6</ele>
        <time>2023-11-19T08:39:28Z</time>
      </trkpt>
      <trkpt lat="45.98293" lon="1.34283">
        <ele>423.4</ele>
        <time>2023-11-19T08:39:32Z</time>
      </trkpt>
      <trkpt lat="45.98288" lon="1.34288">
        <ele>423.4</ele>
        <time>2023-11-19T08:39:35Z</time>
      </trkpt>
      <trkpt lat="45.98274" lon="1.34299">
        <ele>423.8</ele>
        <time>2023-11-19T08:39:42Z</time>
      </trkpt>
      <trkpt lat="45.98269" lon="1.34305">
        <ele>424</ele>
        <time>2023-11-19T08:39:45Z</time>
      </trkpt>
      <trkpt lat="45.98268" lon="1.3431">
        <ele>424.2</ele>
        <time>2023-11-19T08:39:47Z</time>
      </trkpt>
      <trkpt lat="45.98269" lon="1.34316">
        <ele>424.2</ele>
        <time>2023-11-19T08:39:50Z</time>
      </trkpt>
      <trkpt lat="45.98269" lon="1.3432">
        <ele>423.8</ele>
        <time>2023-11-19T08:39:53Z</time>
      </trkpt>
      <trkpt lat="45.98269" lon="1.3432">
        <ele>423.6</ele>
        <time>2023-11-19T08:39:54Z</time>
      </trkpt>
      <trkpt lat="45.9827" lon="1.34325">
        <ele>423.6</ele>
        <time>2023-11-19T08:40:03Z</time>
      </trkpt>
      <trkpt lat="45.98272" lon="1.3433">
        <ele>423.8</ele>
        <time>2023-11-19T08:40:06Z</time>
      </trkpt>
      <trkpt lat="45.98273" lon="1.34331">
        <ele>423.6</ele>
        <time>2023-11-19T08:40:07Z</time>
      </trkpt>
      <trkpt lat="45.98274" lon="1.34333">
        <ele>423.6</ele>
        <time>2023-11-19T08:40:08Z</time>
      </trkpt>
      <trkpt lat="45.98277" lon="1.34346">
        <ele>422.2</ele>
        <time>2023-11-19T08:40:17Z</time>
      </trkpt>
      <trkpt lat="45.98276" lon="1.34348">
        <ele>421.8</ele>
        <time>2023-11-19T08:40:18Z</time>
      </trkpt>
      <trkpt lat="45.98273" lon="1.34356">
        <ele>420.8</ele>
        <time>2023-11-19T08:40:22Z</time>
      </trkpt>
      <trkpt lat="45.98272" lon="1.34368">
        <ele>420.8</ele>
        <time>2023-11-19T08:40:27Z</time>
      </trkpt>
      <trkpt lat="45.98273" lon="1.34381">
        <ele>421.8</ele>
        <time>2023-11-19T08:40:32Z</time>
      </trkpt>
      <trkpt lat="45.98273" lon="1.34397">
        <ele>422.8</ele>
        <time>2023-11-19T08:40:38Z</time>
      </trkpt>
      <trkpt lat="45.98274" lon="1.34409">
        <ele>423.4</ele>
        <time>2023-11-19T08:40:44Z</time>
      </trkpt>
      <trkpt lat="45.98273" lon="1.34414">
        <ele>423.2</ele>
        <time>2023-11-19T08:40:50Z</time>
      </trkpt>
      <trkpt lat="45.98269" lon="1.34419">
        <ele>423.2</ele>
        <time>2023-11-19T08:41:04Z</time>
      </trkpt>
      <trkpt lat="45.98269" lon="1.34416">
        <ele>423.2</ele>
        <time>2023-11-19T08:41:06Z</time>
      </trkpt>
      <trkpt lat="45.98268" lon="1.34408">
        <ele>421.8</ele>
        <time>2023-11-19T08:41:10Z</time>
      </trkpt>
      <trkpt lat="45.98268" lon="1.34406">
        <ele>421.2</ele>
        <time>2023-11-19T08:41:11Z</time>
      </trkpt>
      <trkpt lat="45.98268" lon="1.34399">
        <ele>419.8</ele>
        <time>2023-11-19T08:41:14Z</time>
      </trkpt>
      <trkpt lat="45.98264" lon="1.3438">
        <ele>418.8</ele>
        <time>2023-11-19T08:41:20Z</time>
      </trkpt>
      <trkpt lat="45.98262" lon="1.34377">
        <ele>418.8</ele>
        <time>2023-11-19T08:41:21Z</time>
      </trkpt>
      <trkpt lat="45.98247" lon="1.34351">
        <ele>417.8</ele>
        <time>2023-11-19T08:41:29Z</time>
      </trkpt>
      <trkpt lat="45.98237" lon="1.34345">
        <ele>417.2</ele>
        <time>2023-11-19T08:41:35Z</time>
      </trkpt>
      <trkpt lat="45.98236" lon="1.34345">
        <ele>417.2</ele>
        <time>2023-11-19T08:41:36Z</time>
      </trkpt>
      <trkpt lat="45.98232" lon="1.34351">
        <ele>417.4</ele>
        <time>2023-11-19T08:41:40Z</time>
      </trkpt>
      <trkpt lat="45.98233" lon="1.34364">
        <ele>417.8</ele>
        <time>2023-11-19T08:41:46Z</time>
      </trkpt>
      <trkpt lat="45.98237" lon="1.34384">
        <ele>418.8</ele>
        <time>2023-11-19T08:41:53Z</time>
      </trkpt>
      <trkpt lat="45.98239" lon="1.34394">
        <ele>420.4</ele>
        <time>2023-11-19T08:41:57Z</time>
      </trkpt>
      <trkpt lat="45.9824" lon="1.34402">
        <ele>420.8</ele>
        <time>2023-11-19T08:42:00Z</time>
      </trkpt>
      <trkpt lat="45.98241" lon="1.34417">
        <ele>421.2</ele>
        <time>2023-11-19T08:42:05Z</time>
      </trkpt>
      <trkpt lat="45.98242" lon="1.34424">
        <ele>421.6</ele>
        <time>2023-11-19T08:42:07Z</time>
      </trkpt>
      <trkpt lat="45.98243" lon="1.34436">
        <ele>422.8</ele>
        <time>2023-11-19T08:42:11Z</time>
      </trkpt>
      <trkpt lat="45.98244" lon="1.34448">
        <ele>424</ele>
        <time>2023-11-19T08:42:15Z</time>
      </trkpt>
      <trkpt lat="45.98244" lon="1.34451">
        <ele>424.2</ele>
        <time>2023-11-19T08:42:16Z</time>
      </trkpt>
      <trkpt lat="45.98246" lon="1.34462">
        <ele>425</ele>
        <time>2023-11-19T08:42:20Z</time>
      </trkpt>
      <trkpt lat="45.98246" lon="1.34467">
        <ele>425.8</ele>
        <time>2023-11-19T08:42:23Z</time>
      </trkpt>
      <trkpt lat="45.98246" lon="1.34469">
        <ele>426.2</ele>
        <time>2023-11-19T08:42:24Z</time>
      </trkpt>
      <trkpt lat="45.98248" lon="1.34477">
        <ele>427.4</ele>
        <time>2023-11-19T08:42:28Z</time>
      </trkpt>
      <trkpt lat="45.98248" lon="1.34481">
        <ele>427.8</ele>
        <time>2023-11-19T08:42:30Z</time>
      </trkpt>
      <trkpt lat="45.98249" lon="1.34489">
        <ele>428.6</ele>
        <time>2023-11-19T08:42:34Z</time>
      </trkpt>
      <trkpt lat="45.98249" lon="1.34497">
        <ele>429.2</ele>
        <time>2023-11-19T08:42:37Z</time>
      </trkpt>
      <trkpt lat="45.9825" lon="1.34502">
        <ele>429.8</ele>
        <time>2023-11-19T08:42:39Z</time>
      </trkpt>
      <trkpt lat="45.9825" lon="1.34516">
        <ele>430.2</ele>
        <time>2023-11-19T08:42:44Z</time>
      </trkpt>
      <trkpt lat="45.9825" lon="1.34528">
        <ele>430.8</ele>
        <time>2023-11-19T08:42:48Z</time>
      </trkpt>
      <trkpt lat="45.98249" lon="1.34541">
        <ele>431.4</ele>
        <time>2023-11-19T08:42:52Z</time>
      </trkpt>
      <trkpt lat="45.98248" lon="1.34554">
        <ele>431.8</ele>
        <time>2023-11-19T08:42:56Z</time>
      </trkpt>
      <trkpt lat="45.98247" lon="1.34559">
        <ele>432</ele>
        <time>2023-11-19T08:42:58Z</time>
      </trkpt>
      <trkpt lat="45.98247" lon="1.34565">
        <ele>432.6</ele>
        <time>2023-11-19T08:43:01Z</time>
      </trkpt>
      <trkpt lat="45.98247" lon="1.34567">
        <ele>433</ele>
        <time>2023-11-19T08:43:02Z</time>
      </trkpt>
      <trkpt lat="45.98246" lon="1.34571">
        <ele>433.8</ele>
        <time>2023-11-19T08:43:05Z</time>
      </trkpt>
      <trkpt lat="45.98246" lon="1.34572">
        <ele>434</ele>
        <time>2023-11-19T08:43:06Z</time>
      </trkpt>
      <trkpt lat="45.98246" lon="1.34573">
        <ele>434.2</ele>
        <time>2023-11-19T08:43:07Z</time>
      </trkpt>
      <trkpt lat="45.98246" lon="1.34574">
        <ele>434.4</ele>
        <time>2023-11-19T08:43:08Z</time>
      </trkpt>
      <trkpt lat="45.98248" lon="1.3458">
        <ele>435.2</ele>
        <time>2023-11-19T08:43:11Z</time>
      </trkpt>
      <trkpt lat="45.98248" lon="1.34583">
        <ele>435.4</ele>
        <time>2023-11-19T08:43:12Z</time>
      </trkpt>
      <trkpt lat="45.98251" lon="1.34587">
        <ele>435.8</ele>
        <time>2023-11-19T08:43:16Z</time>
      </trkpt>
      <trkpt lat="45.98251" lon="1.34587">
        <ele>436.2</ele>
        <time>2023-11-19T08:43:17Z</time>
      </trkpt>
      <trkpt lat="45.98254" lon="1.34589">
        <ele>436.6</ele>
        <time>2023-11-19T08:43:19Z</time>
      </trkpt>
      <trkpt lat="45.9826" lon="1.34589">
        <ele>437.4</ele>
        <time>2023-11-19T08:43:25Z</time>
      </trkpt>
      <trkpt lat="45.98261" lon="1.34589">
        <ele>437.6</ele>
        <time>2023-11-19T08:43:26Z</time>
      </trkpt>
      <trkpt lat="45.98262" lon="1.34589">
        <ele>437.6</ele>
        <time>2023-11-19T08:43:27Z</time>
      </trkpt>
      <trkpt lat="45.98266" lon="1.34588">
        <ele>438.6</ele>
        <time>2023-11-19T08:43:31Z</time>
      </trkpt>
      <trkpt lat="45.98267" lon="1.34587">
        <ele>438.8</ele>
        <time>2023-11-19T08:43:32Z</time>
      </trkpt>
      <trkpt lat="45.98279" lon="1.34584">
        <ele>439.6</ele>
        <time>2023-11-19T08:43:39Z</time>
      </trkpt>
      <trkpt lat="45.98282" lon="1.34584">
        <ele>439.8</ele>
        <time>2023-11-19T08:43:41Z</time>
      </trkpt>
      <trkpt lat="45.98288" lon="1.34579">
        <ele>440.8</ele>
        <time>2023-11-19T08:43:45Z</time>
      </trkpt>
      <trkpt lat="45.98289" lon="1.34579">
        <ele>441</ele>
        <time>2023-11-19T08:43:46Z</time>
      </trkpt>
      <trkpt lat="45.98293" lon="1.34578">
        <ele>441.6</ele>
        <time>2023-11-19T08:43:49Z</time>
      </trkpt>
      <trkpt lat="45.98295" lon="1.34578">
        <ele>441.8</ele>
        <time>2023-11-19T08:43:50Z</time>
      </trkpt>
      <trkpt lat="45.98301" lon="1.34574">
        <ele>442.6</ele>
        <time>2023-11-19T08:43:53Z</time>
      </trkpt>
      <trkpt lat="45.98305" lon="1.34571">
        <ele>443.2</ele>
        <time>2023-11-19T08:43:55Z</time>
      </trkpt>
      <trkpt lat="45.98307" lon="1.3457">
        <ele>443.2</ele>
        <time>2023-11-19T08:43:56Z</time>
      </trkpt>
      <trkpt lat="45.98312" lon="1.34569">
        <ele>443.6</ele>
        <time>2023-11-19T08:43:59Z</time>
      </trkpt>
      <trkpt lat="45.98318" lon="1.34568">
        <ele>444</ele>
        <time>2023-11-19T08:44:02Z</time>
      </trkpt>
      <trkpt lat="45.98322" lon="1.34568">
        <ele>444.4</ele>
        <time>2023-11-19T08:44:04Z</time>
      </trkpt>
      <trkpt lat="45.98326" lon="1.34568">
        <ele>444.8</ele>
        <time>2023-11-19T08:44:06Z</time>
      </trkpt>
      <trkpt lat="45.98331" lon="1.34567">
        <ele>445.6</ele>
        <time>2023-11-19T08:44:09Z</time>
      </trkpt>
      <trkpt lat="45.98339" lon="1.34565">
        <ele>446.2</ele>
        <time>2023-11-19T08:44:13Z</time>
      </trkpt>
      <trkpt lat="45.98346" lon="1.34563">
        <ele>446.8</ele>
        <time>2023-11-19T08:44:16Z</time>
      </trkpt>
      <trkpt lat="45.98353" lon="1.34563">
        <ele>447.4</ele>
        <time>2023-11-19T08:44:19Z</time>
      </trkpt>
      <trkpt lat="45.98356" lon="1.34563">
        <ele>447.8</ele>
        <time>2023-11-19T08:44:21Z</time>
      </trkpt>
      <trkpt lat="45.98366" lon="1.34561">
        <ele>448.4</ele>
        <time>2023-11-19T08:44:26Z</time>
      </trkpt>
      <trkpt lat="45.98373" lon="1.34556">
        <ele>449</ele>
        <time>2023-11-19T08:44:30Z</time>
      </trkpt>
      <trkpt lat="45.98376" lon="1.34553">
        <ele>449.2</ele>
        <time>2023-11-19T08:44:32Z</time>
      </trkpt>
      <trkpt lat="45.98388" lon="1.34546">
        <ele>450.2</ele>
        <time>2023-11-19T08:44:39Z</time>
      </trkpt>
      <trkpt lat="45.98389" lon="1.34546">
        <ele>450.6</ele>
        <time>2023-11-19T08:44:40Z</time>
      </trkpt>
      <trkpt lat="45.98394" lon="1.34544">
        <ele>451.4</ele>
        <time>2023-11-19T08:44:43Z</time>
      </trkpt>
      <trkpt lat="45.98402" lon="1.34541">
        <ele>452</ele>
        <time>2023-11-19T08:44:48Z</time>
      </trkpt>
      <trkpt lat="45.98403" lon="1.3454">
        <ele>452.4</ele>
        <time>2023-11-19T08:44:49Z</time>
      </trkpt>
      <trkpt lat="45.9841" lon="1.34537">
        <ele>453.4</ele>
        <time>2023-11-19T08:44:53Z</time>
      </trkpt>
      <trkpt lat="45.98414" lon="1.34536">
        <ele>453.8</ele>
        <time>2023-11-19T08:44:55Z</time>
      </trkpt>
      <trkpt lat="45.98423" lon="1.34531">
        <ele>454.6</ele>
        <time>2023-11-19T08:45:00Z</time>
      </trkpt>
      <trkpt lat="45.9843" lon="1.34528">
        <ele>454.8</ele>
        <time>2023-11-19T08:45:03Z</time>
      </trkpt>
      <trkpt lat="45.98438" lon="1.34523">
        <ele>455.6</ele>
        <time>2023-11-19T08:45:07Z</time>
      </trkpt>
      <trkpt lat="45.98444" lon="1.34518">
        <ele>456.2</ele>
        <time>2023-11-19T08:45:11Z</time>
      </trkpt>
      <trkpt lat="45.98448" lon="1.34517">
        <ele>456.8</ele>
        <time>2023-11-19T08:45:13Z</time>
      </trkpt>
      <trkpt lat="45.98456" lon="1.34513">
        <ele>458.4</ele>
        <time>2023-11-19T08:45:18Z</time>
      </trkpt>
      <trkpt lat="45.98457" lon="1.34512">
        <ele>458.6</ele>
        <time>2023-11-19T08:45:19Z</time>
      </trkpt>
      <trkpt lat="45.98467" lon="1.34509">
        <ele>459.4</ele>
        <time>2023-11-19T08:45:26Z</time>
      </trkpt>
      <trkpt lat="45.98469" lon="1.34509">
        <ele>459.4</ele>
        <time>2023-11-19T08:45:27Z</time>
      </trkpt>
      <trkpt lat="45.9847" lon="1.34509">
        <ele>459.8</ele>
        <time>2023-11-19T08:45:28Z</time>
      </trkpt>
      <trkpt lat="45.98481" lon="1.34515">
        <ele>460.4</ele>
        <time>2023-11-19T08:45:32Z</time>
      </trkpt>
      <trkpt lat="45.98484" lon="1.34519">
        <ele>460.6</ele>
        <time>2023-11-19T08:45:34Z</time>
      </trkpt>
      <trkpt lat="45.98488" lon="1.34524">
        <ele>461.8</ele>
        <time>2023-11-19T08:45:37Z</time>
      </trkpt>
      <trkpt lat="45.98492" lon="1.34532">
        <ele>463</ele>
        <time>2023-11-19T08:45:41Z</time>
      </trkpt>
      <trkpt lat="45.98493" lon="1.34534">
        <ele>463.2</ele>
        <time>2023-11-19T08:45:42Z</time>
      </trkpt>
      <trkpt lat="45.98495" lon="1.34549">
        <ele>463.8</ele>
        <time>2023-11-19T08:45:50Z</time>
      </trkpt>
      <trkpt lat="45.98493" lon="1.34556">
        <ele>464.2</ele>
        <time>2023-11-19T08:45:54Z</time>
      </trkpt>
      <trkpt lat="45.98489" lon="1.34562">
        <ele>465.2</ele>
        <time>2023-11-19T08:45:58Z</time>
      </trkpt>
      <trkpt lat="45.98484" lon="1.34567">
        <ele>466.2</ele>
        <time>2023-11-19T08:46:02Z</time>
      </trkpt>
      <trkpt lat="45.9848" lon="1.34572">
        <ele>466.8</ele>
        <time>2023-11-19T08:46:05Z</time>
      </trkpt>
      <trkpt lat="45.98474" lon="1.3458">
        <ele>467.4</ele>
        <time>2023-11-19T08:46:09Z</time>
      </trkpt>
      <trkpt lat="45.9847" lon="1.34584">
        <ele>467.6</ele>
        <time>2023-11-19T08:46:12Z</time>
      </trkpt>
      <trkpt lat="45.9846" lon="1.34596">
        <ele>468.6</ele>
        <time>2023-11-19T08:46:19Z</time>
      </trkpt>
      <trkpt lat="45.98457" lon="1.34598">
        <ele>468.8</ele>
        <time>2023-11-19T08:46:21Z</time>
      </trkpt>
      <trkpt lat="45.98453" lon="1.34603">
        <ele>469.6</ele>
        <time>2023-11-19T08:46:24Z</time>
      </trkpt>
      <trkpt lat="45.98447" lon="1.34611">
        <ele>470.2</ele>
        <time>2023-11-19T08:46:29Z</time>
      </trkpt>
      <trkpt lat="45.98445" lon="1.34616">
        <ele>470.8</ele>
        <time>2023-11-19T08:46:31Z</time>
      </trkpt>
      <trkpt lat="45.98436" lon="1.34625">
        <ele>471.6</ele>
        <time>2023-11-19T08:46:37Z</time>
      </trkpt>
      <trkpt lat="45.98431" lon="1.34632">
        <ele>471.8</ele>
        <time>2023-11-19T08:46:40Z</time>
      </trkpt>
      <trkpt lat="45.98422" lon="1.34644">
        <ele>472.6</ele>
        <time>2023-11-19T08:46:45Z</time>
      </trkpt>
      <trkpt lat="45.98419" lon="1.34648">
        <ele>473.2</ele>
        <time>2023-11-19T08:46:47Z</time>
      </trkpt>
      <trkpt lat="45.98412" lon="1.34655">
        <ele>473.6</ele>
        <time>2023-11-19T08:46:51Z</time>
      </trkpt>
      <trkpt lat="45.98402" lon="1.34665">
        <ele>474</ele>
        <time>2023-11-19T08:46:58Z</time>
      </trkpt>
      <trkpt lat="45.98401" lon="1.34666">
        <ele>474.2</ele>
        <time>2023-11-19T08:46:59Z</time>
      </trkpt>
      <trkpt lat="45.98397" lon="1.3467">
        <ele>475</ele>
        <time>2023-11-19T08:47:02Z</time>
      </trkpt>
      <trkpt lat="45.98392" lon="1.34673">
        <ele>475.4</ele>
        <time>2023-11-19T08:47:05Z</time>
      </trkpt>
      <trkpt lat="45.98388" lon="1.34677">
        <ele>476.6</ele>
        <time>2023-11-19T08:47:08Z</time>
      </trkpt>
      <trkpt lat="45.98382" lon="1.34681">
        <ele>477.2</ele>
        <time>2023-11-19T08:47:12Z</time>
      </trkpt>
      <trkpt lat="45.9838" lon="1.34684">
        <ele>477.8</ele>
        <time>2023-11-19T08:47:14Z</time>
      </trkpt>
      <trkpt lat="45.98378" lon="1.34691">
        <ele>478.6</ele>
        <time>2023-11-19T08:47:18Z</time>
      </trkpt>
      <trkpt lat="45.98378" lon="1.34693">
        <ele>479</ele>
        <time>2023-11-19T08:47:19Z</time>
      </trkpt>
      <trkpt lat="45.98378" lon="1.34696">
        <ele>479.2</ele>
        <time>2023-11-19T08:47:21Z</time>
      </trkpt>
      <trkpt lat="45.98382" lon="1.347">
        <ele>480</ele>
        <time>2023-11-19T08:47:25Z</time>
      </trkpt>
      <trkpt lat="45.98383" lon="1.34701">
        <ele>480</ele>
        <time>2023-11-19T08:47:26Z</time>
      </trkpt>
      <trkpt lat="45.98388" lon="1.34703">
        <ele>480.6</ele>
        <time>2023-11-19T08:47:32Z</time>
      </trkpt>
      <trkpt lat="45.9839" lon="1.34704">
        <ele>481.2</ele>
        <time>2023-11-19T08:47:34Z</time>
      </trkpt>
      <trkpt lat="45.98393" lon="1.34704">
        <ele>481.6</ele>
        <time>2023-11-19T08:47:37Z</time>
      </trkpt>
      <trkpt lat="45.98396" lon="1.34705">
        <ele>482</ele>
        <time>2023-11-19T08:47:39Z</time>
      </trkpt>
      <trkpt lat="45.98398" lon="1.34705">
        <ele>482.2</ele>
        <time>2023-11-19T08:47:41Z</time>
      </trkpt>
      <trkpt lat="45.98406" lon="1.34705">
        <ele>483.2</ele>
        <time>2023-11-19T08:47:46Z</time>
      </trkpt>
      <trkpt lat="45.98408" lon="1.34705">
        <ele>483.4</ele>
        <time>2023-11-19T08:47:47Z</time>
      </trkpt>
      <trkpt lat="45.98418" lon="1.34706">
        <ele>484.4</ele>
        <time>2023-11-19T08:47:54Z</time>
      </trkpt>
      <trkpt lat="45.98419" lon="1.34707">
        <ele>484.6</ele>
        <time>2023-11-19T08:47:55Z</time>
      </trkpt>
      <trkpt lat="45.98421" lon="1.34708">
        <ele>484.8</ele>
        <time>2023-11-19T08:47:57Z</time>
      </trkpt>
      <trkpt lat="45.98422" lon="1.34707">
        <ele>485.6</ele>
        <time>2023-11-19T08:47:59Z</time>
      </trkpt>
      <trkpt lat="45.98423" lon="1.34707">
        <ele>485.8</ele>
        <time>2023-11-19T08:48:00Z</time>
      </trkpt>
      <trkpt lat="45.98425" lon="1.34707">
        <ele>485.8</ele>
        <time>2023-11-19T08:48:01Z</time>
      </trkpt>
      <trkpt lat="45.98433" lon="1.3471">
        <ele>486.6</ele>
        <time>2023-11-19T08:48:05Z</time>
      </trkpt>
      <trkpt lat="45.98438" lon="1.34712">
        <ele>487.4</ele>
        <time>2023-11-19T08:48:08Z</time>
      </trkpt>
      <trkpt lat="45.98441" lon="1.34712">
        <ele>487.8</ele>
        <time>2023-11-19T08:48:10Z</time>
      </trkpt>
      <trkpt lat="45.98444" lon="1.34713">
        <ele>487.8</ele>
        <time>2023-11-19T08:48:11Z</time>
      </trkpt>
      <trkpt lat="45.98451" lon="1.3472">
        <ele>488.2</ele>
        <time>2023-11-19T08:48:15Z</time>
      </trkpt>
      <trkpt lat="45.98452" lon="1.34722">
        <ele>488.4</ele>
        <time>2023-11-19T08:48:16Z</time>
      </trkpt>
      <trkpt lat="45.98455" lon="1.34729">
        <ele>488.8</ele>
        <time>2023-11-19T08:48:19Z</time>
      </trkpt>
      <trkpt lat="45.98455" lon="1.34732">
        <ele>489.6</ele>
        <time>2023-11-19T08:48:21Z</time>
      </trkpt>
      <trkpt lat="45.98455" lon="1.34734">
        <ele>489.8</ele>
        <time>2023-11-19T08:48:22Z</time>
      </trkpt>
      <trkpt lat="45.98453" lon="1.34746">
        <ele>491</ele>
        <time>2023-11-19T08:48:30Z</time>
      </trkpt>
      <trkpt lat="45.98449" lon="1.34754">
        <ele>492</ele>
        <time>2023-11-19T08:48:35Z</time>
      </trkpt>
      <trkpt lat="45.98445" lon="1.3476">
        <ele>492.4</ele>
        <time>2023-11-19T08:48:39Z</time>
      </trkpt>
      <trkpt lat="45.98439" lon="1.34768">
        <ele>493.2</ele>
        <time>2023-11-19T08:48:44Z</time>
      </trkpt>
      <trkpt lat="45.98437" lon="1.3477">
        <ele>493.6</ele>
        <time>2023-11-19T08:48:46Z</time>
      </trkpt>
      <trkpt lat="45.98435" lon="1.34773">
        <ele>494</ele>
        <time>2023-11-19T08:48:48Z</time>
      </trkpt>
      <trkpt lat="45.98435" lon="1.34775">
        <ele>494.2</ele>
        <time>2023-11-19T08:48:49Z</time>
      </trkpt>
      <trkpt lat="45.98433" lon="1.34779">
        <ele>495</ele>
        <time>2023-11-19T08:48:52Z</time>
      </trkpt>
      <trkpt lat="45.98433" lon="1.3478">
        <ele>495.4</ele>
        <time>2023-11-19T08:48:53Z</time>
      </trkpt>
      <trkpt lat="45.98431" lon="1.34789">
        <ele>496.8</ele>
        <time>2023-11-19T08:48:59Z</time>
      </trkpt>
      <trkpt lat="45.9843" lon="1.3479">
        <ele>497</ele>
        <time>2023-11-19T08:49:00Z</time>
      </trkpt>
      <trkpt lat="45.98428" lon="1.34799">
        <ele>498</ele>
        <time>2023-11-19T08:49:04Z</time>
      </trkpt>
      <trkpt lat="45.98427" lon="1.34804">
        <ele>498.6</ele>
        <time>2023-11-19T08:49:07Z</time>
      </trkpt>
      <trkpt lat="45.98424" lon="1.34816">
        <ele>499</ele>
        <time>2023-11-19T08:49:13Z</time>
      </trkpt>
      <trkpt lat="45.98424" lon="1.34818">
        <ele>499.2</ele>
        <time>2023-11-19T08:49:14Z</time>
      </trkpt>
      <trkpt lat="45.98422" lon="1.34827">
        <ele>500</ele>
        <time>2023-11-19T08:49:18Z</time>
      </trkpt>
      <trkpt lat="45.98422" lon="1.34835">
        <ele>500.8</ele>
        <time>2023-11-19T08:49:21Z</time>
      </trkpt>
      <trkpt lat="45.98423" lon="1.3484">
        <ele>501.2</ele>
        <time>2023-11-19T08:49:23Z</time>
      </trkpt>
      <trkpt lat="45.98423" lon="1.34855">
        <ele>501.4</ele>
        <time>2023-11-19T08:49:29Z</time>
      </trkpt>
      <trkpt lat="45.98427" lon="1.34873">
        <ele>501.8</ele>
        <time>2023-11-19T08:49:37Z</time>
      </trkpt>
      <trkpt lat="45.98428" lon="1.34878">
        <ele>502.4</ele>
        <time>2023-11-19T08:49:39Z</time>
      </trkpt>
      <trkpt lat="45.98431" lon="1.34897">
        <ele>502.8</ele>
        <time>2023-11-19T08:49:44Z</time>
      </trkpt>
      <trkpt lat="45.98436" lon="1.34917">
        <ele>503.8</ele>
        <time>2023-11-19T08:49:51Z</time>
      </trkpt>
      <trkpt lat="45.98437" lon="1.3492">
        <ele>504.2</ele>
        <time>2023-11-19T08:49:52Z</time>
      </trkpt>
      <trkpt lat="45.98438" lon="1.34922">
        <ele>505</ele>
        <time>2023-11-19T08:49:53Z</time>
      </trkpt>
      <trkpt lat="45.9844" lon="1.3493">
        <ele>506.4</ele>
        <time>2023-11-19T08:49:56Z</time>
      </trkpt>
      <trkpt lat="45.98441" lon="1.34935">
        <ele>507.2</ele>
        <time>2023-11-19T08:49:58Z</time>
      </trkpt>
      <trkpt lat="45.98444" lon="1.3494">
        <ele>507.8</ele>
        <time>2023-11-19T08:50:00Z</time>
      </trkpt>
      <trkpt lat="45.98449" lon="1.34956">
        <ele>508.8</ele>
        <time>2023-11-19T08:50:07Z</time>
      </trkpt>
      <trkpt lat="45.98449" lon="1.34961">
        <ele>509</ele>
        <time>2023-11-19T08:50:09Z</time>
      </trkpt>
      <trkpt lat="45.98445" lon="1.34967">
        <ele>509.4</ele>
        <time>2023-11-19T08:50:13Z</time>
      </trkpt>
      <trkpt lat="45.9844" lon="1.34968">
        <ele>510</ele>
        <time>2023-11-19T08:50:17Z</time>
      </trkpt>
      <trkpt lat="45.98436" lon="1.34969">
        <ele>510.6</ele>
        <time>2023-11-19T08:50:20Z</time>
      </trkpt>
      <trkpt lat="45.98433" lon="1.34967">
        <ele>511.2</ele>
        <time>2023-11-19T08:50:23Z</time>
      </trkpt>
      <trkpt lat="45.98425" lon="1.34964">
        <ele>512</ele>
        <time>2023-11-19T08:50:31Z</time>
      </trkpt>
      <trkpt lat="45.98423" lon="1.34964">
        <ele>512.4</ele>
        <time>2023-11-19T08:50:32Z</time>
      </trkpt>
      <trkpt lat="45.98422" lon="1.34962">
        <ele>512.6</ele>
        <time>2023-11-19T08:50:33Z</time>
      </trkpt>
      <trkpt lat="45.98416" lon="1.34957">
        <ele>513.4</ele>
        <time>2023-11-19T08:50:37Z</time>
      </trkpt>
      <trkpt lat="45.98415" lon="1.34956">
        <ele>513.4</ele>
        <time>2023-11-19T08:50:38Z</time>
      </trkpt>
      <trkpt lat="45.98409" lon="1.34951">
        <ele>514</ele>
        <time>2023-11-19T08:50:42Z</time>
      </trkpt>
      <trkpt lat="45.98404" lon="1.34949">
        <ele>514.6</ele>
        <time>2023-11-19T08:50:45Z</time>
      </trkpt>
      <trkpt lat="45.98396" lon="1.34945">
        <ele>515.6</ele>
        <time>2023-11-19T08:50:49Z</time>
      </trkpt>
      <trkpt lat="45.98383" lon="1.34937">
        <ele>516.6</ele>
        <time>2023-11-19T08:50:56Z</time>
      </trkpt>
      <trkpt lat="45.9838" lon="1.34935">
        <ele>516.8</ele>
        <time>2023-11-19T08:50:57Z</time>
      </trkpt>
      <trkpt lat="45.9836" lon="1.34925">
        <ele>517.2</ele>
        <time>2023-11-19T08:51:05Z</time>
      </trkpt>
      <trkpt lat="45.98345" lon="1.34929">
        <ele>517.2</ele>
        <time>2023-11-19T08:51:10Z</time>
      </trkpt>
      <trkpt lat="45.98328" lon="1.34937">
        <ele>517.6</ele>
        <time>2023-11-19T08:51:18Z</time>
      </trkpt>
      <trkpt lat="45.98318" lon="1.34943">
        <ele>517.6</ele>
        <time>2023-11-19T08:51:26Z</time>
      </trkpt>
      <trkpt lat="45.98315" lon="1.34946">
        <ele>517.8</ele>
        <time>2023-11-19T08:51:29Z</time>
      </trkpt>
      <trkpt lat="45.98311" lon="1.34949">
        <ele>517.8</ele>
        <time>2023-11-19T08:51:32Z</time>
      </trkpt>
      <trkpt lat="45.98309" lon="1.34953">
        <ele>519</ele>
        <time>2023-11-19T08:51:34Z</time>
      </trkpt>
      <trkpt lat="45.98308" lon="1.34956">
        <ele>520.2</ele>
        <time>2023-11-19T08:51:36Z</time>
      </trkpt>
      <trkpt lat="45.98306" lon="1.34962">
        <ele>521</ele>
        <time>2023-11-19T08:51:39Z</time>
      </trkpt>
      <trkpt lat="45.98305" lon="1.34964">
        <ele>521.2</ele>
        <time>2023-11-19T08:51:40Z</time>
      </trkpt>
      <trkpt lat="45.98303" lon="1.34967">
        <ele>522.2</ele>
        <time>2023-11-19T08:51:43Z</time>
      </trkpt>
      <trkpt lat="45.98299" lon="1.3497">
        <ele>522.8</ele>
        <time>2023-11-19T08:51:47Z</time>
      </trkpt>
      <trkpt lat="45.98298" lon="1.34971">
        <ele>523.2</ele>
        <time>2023-11-19T08:51:48Z</time>
      </trkpt>
      <trkpt lat="45.98297" lon="1.34972">
        <ele>523.6</ele>
        <time>2023-11-19T08:51:49Z</time>
      </trkpt>
      <trkpt lat="45.98295" lon="1.34973">
        <ele>524</ele>
        <time>2023-11-19T08:51:50Z</time>
      </trkpt>
      <trkpt lat="45.98293" lon="1.34974">
        <ele>524.2</ele>
        <time>2023-11-19T08:51:52Z</time>
      </trkpt>
      <trkpt lat="45.98291" lon="1.34975">
        <ele>524.2</ele>
        <time>2023-11-19T08:51:53Z</time>
      </trkpt>
      <trkpt lat="45.9828" lon="1.34981">
        <ele>524.8</ele>
        <time>2023-11-19T08:51:59Z</time>
      </trkpt>
      <trkpt lat="45.98279" lon="1.34983">
        <ele>524.8</ele>
        <time>2023-11-19T08:52:00Z</time>
      </trkpt>
      <trkpt lat="45.98274" lon="1.34985">
        <ele>525.8</ele>
        <time>2023-11-19T08:52:02Z</time>
      </trkpt>
      <trkpt lat="45.98263" lon="1.34992">
        <ele>526</ele>
        <time>2023-11-19T08:52:07Z</time>
      </trkpt>
      <trkpt lat="45.98249" lon="1.35">
        <ele>525.6</ele>
        <time>2023-11-19T08:52:13Z</time>
      </trkpt>
      <trkpt lat="45.98237" lon="1.35007">
        <ele>524.6</ele>
        <time>2023-11-19T08:52:17Z</time>
      </trkpt>
      <trkpt lat="45.98231" lon="1.35011">
        <ele>523.4</ele>
        <time>2023-11-19T08:52:19Z</time>
      </trkpt>
      <trkpt lat="45.98227" lon="1.35013">
        <ele>523</ele>
        <time>2023-11-19T08:52:20Z</time>
      </trkpt>
      <trkpt lat="45.98221" lon="1.35019">
        <ele>522.2</ele>
        <time>2023-11-19T08:52:22Z</time>
      </trkpt>
      <trkpt lat="45.98219" lon="1.35023">
        <ele>522</ele>
        <time>2023-11-19T08:52:23Z</time>
      </trkpt>
      <trkpt lat="45.98211" lon="1.35037">
        <ele>521.8</ele>
        <time>2023-11-19T08:52:26Z</time>
      </trkpt>
      <trkpt lat="45.98206" lon="1.35044">
        <ele>521</ele>
        <time>2023-11-19T08:52:28Z</time>
      </trkpt>
      <trkpt lat="45.98196" lon="1.35059">
        <ele>520.8</ele>
        <time>2023-11-19T08:52:32Z</time>
      </trkpt>
      <trkpt lat="45.98181" lon="1.35083">
        <ele>521.4</ele>
        <time>2023-11-19T08:52:39Z</time>
      </trkpt>
      <trkpt lat="45.98173" lon="1.35104">
        <ele>521</ele>
        <time>2023-11-19T08:52:45Z</time>
      </trkpt>
      <trkpt lat="45.98157" lon="1.35126">
        <ele>520.8</ele>
        <time>2023-11-19T08:52:51Z</time>
      </trkpt>
      <trkpt lat="45.9815" lon="1.35132">
        <ele>520.8</ele>
        <time>2023-11-19T08:52:54Z</time>
      </trkpt>
      <trkpt lat="45.98144" lon="1.35139">
        <ele>522</ele>
        <time>2023-11-19T08:52:57Z</time>
      </trkpt>
      <trkpt lat="45.98141" lon="1.35144">
        <ele>522.4</ele>
        <time>2023-11-19T08:52:58Z</time>
      </trkpt>
      <trkpt lat="45.98132" lon="1.35156">
        <ele>523.6</ele>
        <time>2023-11-19T08:53:03Z</time>
      </trkpt>
      <trkpt lat="45.98128" lon="1.35163">
        <ele>524.8</ele>
        <time>2023-11-19T08:53:05Z</time>
      </trkpt>
      <trkpt lat="45.9812" lon="1.35176">
        <ele>525.8</ele>
        <time>2023-11-19T08:53:12Z</time>
      </trkpt>
      <trkpt lat="45.98115" lon="1.35187">
        <ele>527</ele>
        <time>2023-11-19T08:53:16Z</time>
      </trkpt>
      <trkpt lat="45.98111" lon="1.35193">
        <ele>527.6</ele>
        <time>2023-11-19T08:53:18Z</time>
      </trkpt>
      <trkpt lat="45.98109" lon="1.35195">
        <ele>527.8</ele>
        <time>2023-11-19T08:53:19Z</time>
      </trkpt>
      <trkpt lat="45.98107" lon="1.35199">
        <ele>528</ele>
        <time>2023-11-19T08:53:21Z</time>
      </trkpt>
      <trkpt lat="45.98103" lon="1.3521">
        <ele>529.2</ele>
        <time>2023-11-19T08:53:25Z</time>
      </trkpt>
      <trkpt lat="45.98101" lon="1.35215">
        <ele>529.2</ele>
        <time>2023-11-19T08:53:27Z</time>
      </trkpt>
      <trkpt lat="45.98088" lon="1.35239">
        <ele>530.4</ele>
        <time>2023-11-19T08:53:34Z</time>
      </trkpt>
      <trkpt lat="45.98086" lon="1.35242">
        <ele>530.6</ele>
        <time>2023-11-19T08:53:35Z</time>
      </trkpt>
      <trkpt lat="45.98084" lon="1.35246">
        <ele>530.6</ele>
        <time>2023-11-19T08:53:36Z</time>
      </trkpt>
      <trkpt lat="45.98084" lon="1.35254">
        <ele>531</ele>
        <time>2023-11-19T08:53:39Z</time>
      </trkpt>
      <trkpt lat="45.98084" lon="1.35258">
        <ele>531.4</ele>
        <time>2023-11-19T08:53:41Z</time>
      </trkpt>
      <trkpt lat="45.9809" lon="1.35267">
        <ele>532.2</ele>
        <time>2023-11-19T08:53:47Z</time>
      </trkpt>
      <trkpt lat="45.98095" lon="1.35272">
        <ele>532.6</ele>
        <time>2023-11-19T08:53:50Z</time>
      </trkpt>
      <trkpt lat="45.98098" lon="1.3528">
        <ele>532.8</ele>
        <time>2023-11-19T08:53:53Z</time>
      </trkpt>
      <trkpt lat="45.98098" lon="1.35283">
        <ele>533.4</ele>
        <time>2023-11-19T08:53:54Z</time>
      </trkpt>
      <trkpt lat="45.98099" lon="1.35285">
        <ele>533.6</ele>
        <time>2023-11-19T08:53:55Z</time>
      </trkpt>
      <trkpt lat="45.98104" lon="1.35297">
        <ele>534.6</ele>
        <time>2023-11-19T08:54:00Z</time>
      </trkpt>
      <trkpt lat="45.98112" lon="1.35312">
        <ele>535.6</ele>
        <time>2023-11-19T08:54:08Z</time>
      </trkpt>
      <trkpt lat="45.98114" lon="1.35314">
        <ele>535.8</ele>
        <time>2023-11-19T08:54:09Z</time>
      </trkpt>
      <trkpt lat="45.98125" lon="1.35327">
        <ele>536.2</ele>
        <time>2023-11-19T08:54:14Z</time>
      </trkpt>
      <trkpt lat="45.98141" lon="1.35341">
        <ele>536.4</ele>
        <time>2023-11-19T08:54:21Z</time>
      </trkpt>
      <trkpt lat="45.98155" lon="1.35348">
        <ele>535.8</ele>
        <time>2023-11-19T08:54:28Z</time>
      </trkpt>
      <trkpt lat="45.98171" lon="1.35346">
        <ele>537</ele>
        <time>2023-11-19T08:54:36Z</time>
      </trkpt>
      <trkpt lat="45.98189" lon="1.35337">
        <ele>537.2</ele>
        <time>2023-11-19T08:54:44Z</time>
      </trkpt>
      <trkpt lat="45.98198" lon="1.35335">
        <ele>538.2</ele>
        <time>2023-11-19T08:54:48Z</time>
      </trkpt>
      <trkpt lat="45.98206" lon="1.35332">
        <ele>538.8</ele>
        <time>2023-11-19T08:54:51Z</time>
      </trkpt>
      <trkpt lat="45.98226" lon="1.35327">
        <ele>537.4</ele>
        <time>2023-11-19T08:54:57Z</time>
      </trkpt>
      <trkpt lat="45.98239" lon="1.35334">
        <ele>537.4</ele>
        <time>2023-11-19T08:55:00Z</time>
      </trkpt>
      <trkpt lat="45.98246" lon="1.3534">
        <ele>537</ele>
        <time>2023-11-19T08:55:02Z</time>
      </trkpt>
      <trkpt lat="45.98253" lon="1.35347">
        <ele>536.6</ele>
        <time>2023-11-19T08:55:04Z</time>
      </trkpt>
      <trkpt lat="45.98265" lon="1.35358">
        <ele>536</ele>
        <time>2023-11-19T08:55:07Z</time>
      </trkpt>
      <trkpt lat="45.98278" lon="1.35373">
        <ele>535.8</ele>
        <time>2023-11-19T08:55:10Z</time>
      </trkpt>
      <trkpt lat="45.98286" lon="1.35381">
        <ele>535.6</ele>
        <time>2023-11-19T08:55:12Z</time>
      </trkpt>
      <trkpt lat="45.98291" lon="1.35388">
        <ele>534.8</ele>
        <time>2023-11-19T08:55:14Z</time>
      </trkpt>
      <trkpt lat="45.98302" lon="1.35393">
        <ele>534.4</ele>
        <time>2023-11-19T08:55:16Z</time>
      </trkpt>
      <trkpt lat="45.98315" lon="1.35398">
        <ele>533.6</ele>
        <time>2023-11-19T08:55:18Z</time>
      </trkpt>
      <trkpt lat="45.98347" lon="1.35415">
        <ele>533</ele>
        <time>2023-11-19T08:55:23Z</time>
      </trkpt>
      <trkpt lat="45.98361" lon="1.35423">
        <ele>532.8</ele>
        <time>2023-11-19T08:55:25Z</time>
      </trkpt>
      <trkpt lat="45.98387" lon="1.35436">
        <ele>532.6</ele>
        <time>2023-11-19T08:55:29Z</time>
      </trkpt>
      <trkpt lat="45.98392" lon="1.35439">
        <ele>532.6</ele>
        <time>2023-11-19T08:55:30Z</time>
      </trkpt>
      <trkpt lat="45.98398" lon="1.35441">
        <ele>532.6</ele>
        <time>2023-11-19T08:55:31Z</time>
      </trkpt>
      <trkpt lat="45.98408" lon="1.35448">
        <ele>533</ele>
        <time>2023-11-19T08:55:33Z</time>
      </trkpt>
      <trkpt lat="45.98418" lon="1.35456">
        <ele>533.2</ele>
        <time>2023-11-19T08:55:35Z</time>
      </trkpt>
      <trkpt lat="45.98428" lon="1.35464">
        <ele>533.8</ele>
        <time>2023-11-19T08:55:37Z</time>
      </trkpt>
      <trkpt lat="45.98449" lon="1.35485">
        <ele>534.6</ele>
        <time>2023-11-19T08:55:42Z</time>
      </trkpt>
      <trkpt lat="45.9846" lon="1.35496">
        <ele>534.8</ele>
        <time>2023-11-19T08:55:45Z</time>
      </trkpt>
      <trkpt lat="45.98469" lon="1.35507">
        <ele>534.8</ele>
        <time>2023-11-19T08:55:48Z</time>
      </trkpt>
      <trkpt lat="45.98487" lon="1.35523">
        <ele>533.4</ele>
        <time>2023-11-19T08:55:53Z</time>
      </trkpt>
      <trkpt lat="45.98503" lon="1.35533">
        <ele>532.2</ele>
        <time>2023-11-19T08:55:56Z</time>
      </trkpt>
      <trkpt lat="45.9851" lon="1.35538">
        <ele>531.4</ele>
        <time>2023-11-19T08:55:58Z</time>
      </trkpt>
      <trkpt lat="45.98512" lon="1.3554">
        <ele>531.2</ele>
        <time>2023-11-19T08:55:59Z</time>
      </trkpt>
      <trkpt lat="45.98522" lon="1.35554">
        <ele>530</ele>
        <time>2023-11-19T08:56:04Z</time>
      </trkpt>
      <trkpt lat="45.98525" lon="1.35557">
        <ele>529.8</ele>
        <time>2023-11-19T08:56:05Z</time>
      </trkpt>
      <trkpt lat="45.98532" lon="1.35564">
        <ele>527.2</ele>
        <time>2023-11-19T08:56:07Z</time>
      </trkpt>
      <trkpt lat="45.98536" lon="1.35568">
        <ele>526</ele>
        <time>2023-11-19T08:56:08Z</time>
      </trkpt>
      <trkpt lat="45.9854" lon="1.35571">
        <ele>525</ele>
        <time>2023-11-19T08:56:09Z</time>
      </trkpt>
      <trkpt lat="45.98543" lon="1.35575">
        <ele>524.4</ele>
        <time>2023-11-19T08:56:10Z</time>
      </trkpt>
      <trkpt lat="45.98546" lon="1.3558">
        <ele>523.8</ele>
        <time>2023-11-19T08:56:11Z</time>
      </trkpt>
      <trkpt lat="45.98547" lon="1.35585">
        <ele>523.4</ele>
        <time>2023-11-19T08:56:12Z</time>
      </trkpt>
      <trkpt lat="45.98547" lon="1.3559">
        <ele>523</ele>
        <time>2023-11-19T08:56:13Z</time>
      </trkpt>
      <trkpt lat="45.98549" lon="1.35599">
        <ele>522.8</ele>
        <time>2023-11-19T08:56:15Z</time>
      </trkpt>
      <trkpt lat="45.98549" lon="1.35606">
        <ele>522</ele>
        <time>2023-11-19T08:56:16Z</time>
      </trkpt>
      <trkpt lat="45.98552" lon="1.35618">
        <ele>521</ele>
        <time>2023-11-19T08:56:19Z</time>
      </trkpt>
      <trkpt lat="45.98554" lon="1.35622">
        <ele>520.6</ele>
        <time>2023-11-19T08:56:20Z</time>
      </trkpt>
      <trkpt lat="45.98557" lon="1.35629">
        <ele>519.8</ele>
        <time>2023-11-19T08:56:22Z</time>
      </trkpt>
      <trkpt lat="45.98562" lon="1.35642">
        <ele>518</ele>
        <time>2023-11-19T08:56:25Z</time>
      </trkpt>
      <trkpt lat="45.98563" lon="1.35647">
        <ele>517.6</ele>
        <time>2023-11-19T08:56:26Z</time>
      </trkpt>
      <trkpt lat="45.98565" lon="1.35652">
        <ele>517</ele>
        <time>2023-11-19T08:56:27Z</time>
      </trkpt>
      <trkpt lat="45.98572" lon="1.35665">
        <ele>515.8</ele>
        <time>2023-11-19T08:56:30Z</time>
      </trkpt>
      <trkpt lat="45.98579" lon="1.35673">
        <ele>515.2</ele>
        <time>2023-11-19T08:56:32Z</time>
      </trkpt>
      <trkpt lat="45.9859" lon="1.35686">
        <ele>514.2</ele>
        <time>2023-11-19T08:56:35Z</time>
      </trkpt>
      <trkpt lat="45.98594" lon="1.3569">
        <ele>513</ele>
        <time>2023-11-19T08:56:36Z</time>
      </trkpt>
      <trkpt lat="45.98599" lon="1.35698">
        <ele>512</ele>
        <time>2023-11-19T08:56:38Z</time>
      </trkpt>
      <trkpt lat="45.98602" lon="1.35701">
        <ele>511.6</ele>
        <time>2023-11-19T08:56:39Z</time>
      </trkpt>
      <trkpt lat="45.98608" lon="1.35704">
        <ele>510.4</ele>
        <time>2023-11-19T08:56:42Z</time>
      </trkpt>
      <trkpt lat="45.9861" lon="1.35704">
        <ele>509.8</ele>
        <time>2023-11-19T08:56:43Z</time>
      </trkpt>
      <trkpt lat="45.98614" lon="1.35701">
        <ele>508.8</ele>
        <time>2023-11-19T08:56:45Z</time>
      </trkpt>
      <trkpt lat="45.98624" lon="1.35691">
        <ele>507.6</ele>
        <time>2023-11-19T08:56:49Z</time>
      </trkpt>
      <trkpt lat="45.98645" lon="1.35681">
        <ele>507.2</ele>
        <time>2023-11-19T08:56:54Z</time>
      </trkpt>
      <trkpt lat="45.9865" lon="1.3568">
        <ele>506.4</ele>
        <time>2023-11-19T08:56:55Z</time>
      </trkpt>
      <trkpt lat="45.9867" lon="1.35676">
        <ele>505.6</ele>
        <time>2023-11-19T08:57:01Z</time>
      </trkpt>
      <trkpt lat="45.98679" lon="1.35682">
        <ele>505.4</ele>
        <time>2023-11-19T08:57:06Z</time>
      </trkpt>
      <trkpt lat="45.98685" lon="1.35683">
        <ele>504.4</ele>
        <time>2023-11-19T08:57:09Z</time>
      </trkpt>
      <trkpt lat="45.98687" lon="1.35682">
        <ele>504.2</ele>
        <time>2023-11-19T08:57:10Z</time>
      </trkpt>
      <trkpt lat="45.98692" lon="1.35679">
        <ele>503.4</ele>
        <time>2023-11-19T08:57:12Z</time>
      </trkpt>
      <trkpt lat="45.98694" lon="1.35677">
        <ele>503.2</ele>
        <time>2023-11-19T08:57:13Z</time>
      </trkpt>
      <trkpt lat="45.98705" lon="1.35656">
        <ele>502.6</ele>
        <time>2023-11-19T08:57:19Z</time>
      </trkpt>
      <trkpt lat="45.98714" lon="1.35634">
        <ele>503.6</ele>
        <time>2023-11-19T08:57:26Z</time>
      </trkpt>
      <trkpt lat="45.98722" lon="1.35613">
        <ele>503.6</ele>
        <time>2023-11-19T08:57:31Z</time>
      </trkpt>
      <trkpt lat="45.98738" lon="1.35595">
        <ele>503</ele>
        <time>2023-11-19T08:57:36Z</time>
      </trkpt>
      <trkpt lat="45.98747" lon="1.35573">
        <ele>502</ele>
        <time>2023-11-19T08:57:41Z</time>
      </trkpt>
      <trkpt lat="45.98749" lon="1.35567">
        <ele>501.8</ele>
        <time>2023-11-19T08:57:42Z</time>
      </trkpt>
      <trkpt lat="45.98749" lon="1.35563">
        <ele>501.6</ele>
        <time>2023-11-19T08:57:43Z</time>
      </trkpt>
      <trkpt lat="45.9875" lon="1.35559">
        <ele>500.6</ele>
        <time>2023-11-19T08:57:44Z</time>
      </trkpt>
      <trkpt lat="45.98747" lon="1.35549">
        <ele>499.8</ele>
        <time>2023-11-19T08:57:46Z</time>
      </trkpt>
      <trkpt lat="45.98745" lon="1.35546">
        <ele>499.4</ele>
        <time>2023-11-19T08:57:47Z</time>
      </trkpt>
      <trkpt lat="45.98742" lon="1.35543">
        <ele>499</ele>
        <time>2023-11-19T08:57:48Z</time>
      </trkpt>
      <trkpt lat="45.98737" lon="1.35538">
        <ele>498.2</ele>
        <time>2023-11-19T08:57:50Z</time>
      </trkpt>
      <trkpt lat="45.98735" lon="1.35536">
        <ele>497.8</ele>
        <time>2023-11-19T08:57:51Z</time>
      </trkpt>
      <trkpt lat="45.98732" lon="1.35529">
        <ele>496.6</ele>
        <time>2023-11-19T08:57:53Z</time>
      </trkpt>
      <trkpt lat="45.98728" lon="1.35519">
        <ele>495.4</ele>
        <time>2023-11-19T08:57:55Z</time>
      </trkpt>
      <trkpt lat="45.98724" lon="1.35509">
        <ele>494.6</ele>
        <time>2023-11-19T08:57:57Z</time>
      </trkpt>
      <trkpt lat="45.9872" lon="1.35493">
        <ele>493.4</ele>
        <time>2023-11-19T08:57:59Z</time>
      </trkpt>
      <trkpt lat="45.98716" lon="1.3548">
        <ele>492.4</ele>
        <time>2023-11-19T08:58:01Z</time>
      </trkpt>
      <trkpt lat="45.98715" lon="1.35473">
        <ele>492.2</ele>
        <time>2023-11-19T08:58:02Z</time>
      </trkpt>
      <trkpt lat="45.98713" lon="1.35461">
        <ele>491.2</ele>
        <time>2023-11-19T08:58:04Z</time>
      </trkpt>
      <trkpt lat="45.98712" lon="1.35454">
        <ele>490.6</ele>
        <time>2023-11-19T08:58:05Z</time>
      </trkpt>
      <trkpt lat="45.98712" lon="1.35431">
        <ele>490</ele>
        <time>2023-11-19T08:58:08Z</time>
      </trkpt>
      <trkpt lat="45.98711" lon="1.35422">
        <ele>489.8</ele>
        <time>2023-11-19T08:58:09Z</time>
      </trkpt>
      <trkpt lat="45.9871" lon="1.35417">
        <ele>489.2</ele>
        <time>2023-11-19T08:58:10Z</time>
      </trkpt>
      <trkpt lat="45.98711" lon="1.35415">
        <ele>488.8</ele>
        <time>2023-11-19T08:58:11Z</time>
      </trkpt>
      <trkpt lat="45.98713" lon="1.35415">
        <ele>488.6</ele>
        <time>2023-11-19T08:58:12Z</time>
      </trkpt>
      <trkpt lat="45.98717" lon="1.35421">
        <ele>487.8</ele>
        <time>2023-11-19T08:58:15Z</time>
      </trkpt>
      <trkpt lat="45.98719" lon="1.35424">
        <ele>487.4</ele>
        <time>2023-11-19T08:58:16Z</time>
      </trkpt>
      <trkpt lat="45.98723" lon="1.35429">
        <ele>487.4</ele>
        <time>2023-11-19T08:58:18Z</time>
      </trkpt>
      <trkpt lat="45.98727" lon="1.35429">
        <ele>487.2</ele>
        <time>2023-11-19T08:58:20Z</time>
      </trkpt>
      <trkpt lat="45.98729" lon="1.35428">
        <ele>487.2</ele>
        <time>2023-11-19T08:58:21Z</time>
      </trkpt>
      <trkpt lat="45.98732" lon="1.35426">
        <ele>487</ele>
        <time>2023-11-19T08:58:22Z</time>
      </trkpt>
      <trkpt lat="45.9874" lon="1.35418">
        <ele>486.2</ele>
        <time>2023-11-19T08:58:24Z</time>
      </trkpt>
      <trkpt lat="45.98744" lon="1.35412">
        <ele>485.4</ele>
        <time>2023-11-19T08:58:25Z</time>
      </trkpt>
      <trkpt lat="45.98748" lon="1.35407">
        <ele>484.8</ele>
        <time>2023-11-19T08:58:26Z</time>
      </trkpt>
      <trkpt lat="45.98759" lon="1.35398">
        <ele>483.8</ele>
        <time>2023-11-19T08:58:28Z</time>
      </trkpt>
      <trkpt lat="45.98777" lon="1.35392">
        <ele>482.6</ele>
        <time>2023-11-19T08:58:31Z</time>
      </trkpt>
      <trkpt lat="45.98785" lon="1.35392">
        <ele>482</ele>
        <time>2023-11-19T08:58:33Z</time>
      </trkpt>
      <trkpt lat="45.9879" lon="1.35396">
        <ele>482</ele>
        <time>2023-11-19T08:58:35Z</time>
      </trkpt>
      <trkpt lat="45.98804" lon="1.35411">
        <ele>482.6</ele>
        <time>2023-11-19T08:58:41Z</time>
      </trkpt>
      <trkpt lat="45.98809" lon="1.35416">
        <ele>482.6</ele>
        <time>2023-11-19T08:58:43Z</time>
      </trkpt>
      <trkpt lat="45.98814" lon="1.35418">
        <ele>482.6</ele>
        <time>2023-11-19T08:58:45Z</time>
      </trkpt>
      <trkpt lat="45.98817" lon="1.35417">
        <ele>482.8</ele>
        <time>2023-11-19T08:58:46Z</time>
      </trkpt>
      <trkpt lat="45.9882" lon="1.35414">
        <ele>482.8</ele>
        <time>2023-11-19T08:58:47Z</time>
      </trkpt>
      <trkpt lat="45.9883" lon="1.35405">
        <ele>483</ele>
        <time>2023-11-19T08:58:49Z</time>
      </trkpt>
      <trkpt lat="45.98835" lon="1.35399">
        <ele>483</ele>
        <time>2023-11-19T08:58:50Z</time>
      </trkpt>
      <trkpt lat="45.98839" lon="1.35393">
        <ele>482.2</ele>
        <time>2023-11-19T08:58:51Z</time>
      </trkpt>
      <trkpt lat="45.98844" lon="1.35381">
        <ele>481.6</ele>
        <time>2023-11-19T08:58:53Z</time>
      </trkpt>
      <trkpt lat="45.98844" lon="1.35376">
        <ele>481.4</ele>
        <time>2023-11-19T08:58:54Z</time>
      </trkpt>
      <trkpt lat="45.98839" lon="1.35348">
        <ele>481.2</ele>
        <time>2023-11-19T08:58:58Z</time>
      </trkpt>
      <trkpt lat="45.98836" lon="1.35332">
        <ele>480.6</ele>
        <time>2023-11-19T08:59:00Z</time>
      </trkpt>
      <trkpt lat="45.98836" lon="1.35318">
        <ele>480.6</ele>
        <time>2023-11-19T08:59:02Z</time>
      </trkpt>
      <trkpt lat="45.98837" lon="1.3531">
        <ele>480.4</ele>
        <time>2023-11-19T08:59:03Z</time>
      </trkpt>
      <trkpt lat="45.98837" lon="1.35303">
        <ele>480</ele>
        <time>2023-11-19T08:59:04Z</time>
      </trkpt>
      <trkpt lat="45.98834" lon="1.35291">
        <ele>479.4</ele>
        <time>2023-11-19T08:59:06Z</time>
      </trkpt>
      <trkpt lat="45.98821" lon="1.35266">
        <ele>479</ele>
        <time>2023-11-19T08:59:11Z</time>
      </trkpt>
      <trkpt lat="45.98819" lon="1.35261">
        <ele>479.2</ele>
        <time>2023-11-19T08:59:12Z</time>
      </trkpt>
      <trkpt lat="45.98816" lon="1.35249">
        <ele>479.6</ele>
        <time>2023-11-19T08:59:14Z</time>
      </trkpt>
      <trkpt lat="45.98814" lon="1.35243">
        <ele>479.8</ele>
        <time>2023-11-19T08:59:15Z</time>
      </trkpt>
      <trkpt lat="45.98814" lon="1.35227">
        <ele>480.6</ele>
        <time>2023-11-19T08:59:18Z</time>
      </trkpt>
      <trkpt lat="45.98814" lon="1.35216">
        <ele>481</ele>
        <time>2023-11-19T08:59:20Z</time>
      </trkpt>
      <trkpt lat="45.98815" lon="1.35212">
        <ele>481.2</ele>
        <time>2023-11-19T08:59:21Z</time>
      </trkpt>
      <trkpt lat="45.98816" lon="1.35204">
        <ele>481.4</ele>
        <time>2023-11-19T08:59:23Z</time>
      </trkpt>
      <trkpt lat="45.98818" lon="1.35191">
        <ele>480.8</ele>
        <time>2023-11-19T08:59:26Z</time>
      </trkpt>
      <trkpt lat="45.98821" lon="1.35177">
        <ele>480.4</ele>
        <time>2023-11-19T08:59:29Z</time>
      </trkpt>
      <trkpt lat="45.98823" lon="1.35157">
        <ele>479.4</ele>
        <time>2023-11-19T08:59:33Z</time>
      </trkpt>
      <trkpt lat="45.9883" lon="1.35127">
        <ele>478.8</ele>
        <time>2023-11-19T08:59:39Z</time>
      </trkpt>
      <trkpt lat="45.98842" lon="1.35083">
        <ele>478.8</ele>
        <time>2023-11-19T08:59:45Z</time>
      </trkpt>
      <trkpt lat="45.9886" lon="1.35041">
        <ele>479.4</ele>
        <time>2023-11-19T08:59:53Z</time>
      </trkpt>
      <trkpt lat="45.98869" lon="1.35021">
        <ele>478.8</ele>
        <time>2023-11-19T08:59:59Z</time>
      </trkpt>
      <trkpt lat="45.98873" lon="1.35001">
        <ele>479</ele>
        <time>2023-11-19T09:00:06Z</time>
      </trkpt>
      <trkpt lat="45.98873" lon="1.34999">
        <ele>479</ele>
        <time>2023-11-19T09:00:07Z</time>
      </trkpt>
      <trkpt lat="45.98871" lon="1.34989">
        <ele>479.6</ele>
        <time>2023-11-19T09:00:13Z</time>
      </trkpt>
      <trkpt lat="45.98869" lon="1.34987">
        <ele>479.6</ele>
        <time>2023-11-19T09:00:14Z</time>
      </trkpt>
      <trkpt lat="45.98866" lon="1.34985">
        <ele>479.8</ele>
        <time>2023-11-19T09:00:17Z</time>
      </trkpt>
      <trkpt lat="45.9886" lon="1.34986">
        <ele>479.6</ele>
        <time>2023-11-19T09:00:21Z</time>
      </trkpt>
      <trkpt lat="45.98848" lon="1.34986">
        <ele>480</ele>
        <time>2023-11-19T09:00:27Z</time>
      </trkpt>
      <trkpt lat="45.9884" lon="1.3498">
        <ele>480.4</ele>
        <time>2023-11-19T09:00:31Z</time>
      </trkpt>
      <trkpt lat="45.98839" lon="1.34978">
        <ele>480.4</ele>
        <time>2023-11-19T09:00:32Z</time>
      </trkpt>
      <trkpt lat="45.98832" lon="1.34958">
        <ele>480.2</ele>
        <time>2023-11-19T09:00:38Z</time>
      </trkpt>
      <trkpt lat="45.98825" lon="1.34935">
        <ele>480.6</ele>
        <time>2023-11-19T09:00:44Z</time>
      </trkpt>
      <trkpt lat="45.98817" lon="1.34915">
        <ele>481.4</ele>
        <time>2023-11-19T09:00:49Z</time>
      </trkpt>
      <trkpt lat="45.98815" lon="1.34909">
        <ele>481.6</ele>
        <time>2023-11-19T09:00:50Z</time>
      </trkpt>
      <trkpt lat="45.98808" lon="1.34883">
        <ele>481.6</ele>
        <time>2023-11-19T09:00:56Z</time>
      </trkpt>
      <trkpt lat="45.98801" lon="1.34853">
        <ele>481</ele>
        <time>2023-11-19T09:01:02Z</time>
      </trkpt>
      <trkpt lat="45.98804" lon="1.34832">
        <ele>481</ele>
        <time>2023-11-19T09:01:07Z</time>
      </trkpt>
      <trkpt lat="45.98808" lon="1.34793">
        <ele>480.2</ele>
        <time>2023-11-19T09:01:14Z</time>
      </trkpt>
      <trkpt lat="45.98809" lon="1.34788">
        <ele>479.2</ele>
        <time>2023-11-19T09:01:15Z</time>
      </trkpt>
      <trkpt lat="45.9881" lon="1.34783">
        <ele>478.4</ele>
        <time>2023-11-19T09:01:16Z</time>
      </trkpt>
      <trkpt lat="45.9881" lon="1.34777">
        <ele>477.6</ele>
        <time>2023-11-19T09:01:17Z</time>
      </trkpt>
      <trkpt lat="45.9881" lon="1.34772">
        <ele>477</ele>
        <time>2023-11-19T09:01:18Z</time>
      </trkpt>
      <trkpt lat="45.98809" lon="1.34768">
        <ele>476.6</ele>
        <time>2023-11-19T09:01:19Z</time>
      </trkpt>
      <trkpt lat="45.98808" lon="1.34761">
        <ele>476</ele>
        <time>2023-11-19T09:01:21Z</time>
      </trkpt>
      <trkpt lat="45.98808" lon="1.34755">
        <ele>475.2</ele>
        <time>2023-11-19T09:01:22Z</time>
      </trkpt>
      <trkpt lat="45.98808" lon="1.34746">
        <ele>474</ele>
        <time>2023-11-19T09:01:24Z</time>
      </trkpt>
      <trkpt lat="45.98806" lon="1.34736">
        <ele>473.4</ele>
        <time>2023-11-19T09:01:26Z</time>
      </trkpt>
      <trkpt lat="45.98806" lon="1.34726">
        <ele>472.8</ele>
        <time>2023-11-19T09:01:28Z</time>
      </trkpt>
      <trkpt lat="45.9881" lon="1.34711">
        <ele>472</ele>
        <time>2023-11-19T09:01:32Z</time>
      </trkpt>
      <trkpt lat="45.98812" lon="1.34709">
        <ele>471.6</ele>
        <time>2023-11-19T09:01:33Z</time>
      </trkpt>
      <trkpt lat="45.98823" lon="1.34694">
        <ele>470.6</ele>
        <time>2023-11-19T09:01:38Z</time>
      </trkpt>
      <trkpt lat="45.98825" lon="1.34691">
        <ele>469</ele>
        <time>2023-11-19T09:01:39Z</time>
      </trkpt>
      <trkpt lat="45.98827" lon="1.34687">
        <ele>467.4</ele>
        <time>2023-11-19T09:01:40Z</time>
      </trkpt>
      <trkpt lat="45.98831" lon="1.3468">
        <ele>466</ele>
        <time>2023-11-19T09:01:42Z</time>
      </trkpt>
      <trkpt lat="45.98835" lon="1.34673">
        <ele>464.6</ele>
        <time>2023-11-19T09:01:44Z</time>
      </trkpt>
      <trkpt lat="45.98837" lon="1.34669">
        <ele>463.8</ele>
        <time>2023-11-19T09:01:45Z</time>
      </trkpt>
      <trkpt lat="45.98839" lon="1.34666">
        <ele>463</ele>
        <time>2023-11-19T09:01:46Z</time>
      </trkpt>
      <trkpt lat="45.98843" lon="1.34657">
        <ele>462</ele>
        <time>2023-11-19T09:01:49Z</time>
      </trkpt>
      <trkpt lat="45.98849" lon="1.34648">
        <ele>460.8</ele>
        <time>2023-11-19T09:01:52Z</time>
      </trkpt>
      <trkpt lat="45.98854" lon="1.34639">
        <ele>459.8</ele>
        <time>2023-11-19T09:01:55Z</time>
      </trkpt>
      <trkpt lat="45.98861" lon="1.34619">
        <ele>459</ele>
        <time>2023-11-19T09:02:00Z</time>
      </trkpt>
      <trkpt lat="45.98864" lon="1.34615">
        <ele>458.2</ele>
        <time>2023-11-19T09:02:01Z</time>
      </trkpt>
      <trkpt lat="45.98871" lon="1.34609">
        <ele>456.8</ele>
        <time>2023-11-19T09:02:04Z</time>
      </trkpt>
      <trkpt lat="45.98873" lon="1.34607">
        <ele>456.2</ele>
        <time>2023-11-19T09:02:05Z</time>
      </trkpt>
      <trkpt lat="45.98875" lon="1.34604">
        <ele>455.6</ele>
        <time>2023-11-19T09:02:06Z</time>
      </trkpt>
      <trkpt lat="45.98881" lon="1.34596">
        <ele>454</ele>
        <time>2023-11-19T09:02:09Z</time>
      </trkpt>
      <trkpt lat="45.98885" lon="1.34591">
        <ele>453</ele>
        <time>2023-11-19T09:02:11Z</time>
      </trkpt>
      <trkpt lat="45.98887" lon="1.34589">
        <ele>452.8</ele>
        <time>2023-11-19T09:02:12Z</time>
      </trkpt>
      <trkpt lat="45.98891" lon="1.34587">
        <ele>452</ele>
        <time>2023-11-19T09:02:14Z</time>
      </trkpt>
      <trkpt lat="45.98897" lon="1.34581">
        <ele>450.4</ele>
        <time>2023-11-19T09:02:17Z</time>
      </trkpt>
      <trkpt lat="45.98902" lon="1.34577">
        <ele>449.8</ele>
        <time>2023-11-19T09:02:19Z</time>
      </trkpt>
      <trkpt lat="45.98908" lon="1.34568">
        <ele>449.2</ele>
        <time>2023-11-19T09:02:22Z</time>
      </trkpt>
      <trkpt lat="45.98917" lon="1.34559">
        <ele>448</ele>
        <time>2023-11-19T09:02:26Z</time>
      </trkpt>
      <trkpt lat="45.98924" lon="1.34549">
        <ele>446.6</ele>
        <time>2023-11-19T09:02:30Z</time>
      </trkpt>
      <trkpt lat="45.98927" lon="1.34545">
        <ele>445.2</ele>
        <time>2023-11-19T09:02:31Z</time>
      </trkpt>
      <trkpt lat="45.98928" lon="1.34542">
        <ele>444.4</ele>
        <time>2023-11-19T09:02:32Z</time>
      </trkpt>
      <trkpt lat="45.9893" lon="1.34539">
        <ele>444</ele>
        <time>2023-11-19T09:02:33Z</time>
      </trkpt>
      <trkpt lat="45.98933" lon="1.34534">
        <ele>443</ele>
        <time>2023-11-19T09:02:35Z</time>
      </trkpt>
      <trkpt lat="45.98938" lon="1.34527">
        <ele>441.8</ele>
        <time>2023-11-19T09:02:38Z</time>
      </trkpt>
      <trkpt lat="45.9894" lon="1.34526">
        <ele>440.8</ele>
        <time>2023-11-19T09:02:39Z</time>
      </trkpt>
      <trkpt lat="45.98942" lon="1.34525">
        <ele>440.2</ele>
        <time>2023-11-19T09:02:40Z</time>
      </trkpt>
      <trkpt lat="45.98946" lon="1.34518">
        <ele>439.6</ele>
        <time>2023-11-19T09:02:42Z</time>
      </trkpt>
      <trkpt lat="45.98947" lon="1.34514">
        <ele>439.4</ele>
        <time>2023-11-19T09:02:43Z</time>
      </trkpt>
      <trkpt lat="45.98953" lon="1.34504">
        <ele>438.4</ele>
        <time>2023-11-19T09:02:46Z</time>
      </trkpt>
      <trkpt lat="45.98952" lon="1.34492">
        <ele>438</ele>
        <time>2023-11-19T09:02:48Z</time>
      </trkpt>
      <trkpt lat="45.9895" lon="1.34484">
        <ele>437.4</ele>
        <time>2023-11-19T09:02:50Z</time>
      </trkpt>
      <trkpt lat="45.98946" lon="1.34469">
        <ele>436.6</ele>
        <time>2023-11-19T09:02:54Z</time>
      </trkpt>
      <trkpt lat="45.98946" lon="1.34451">
        <ele>436.8</ele>
        <time>2023-11-19T09:02:59Z</time>
      </trkpt>
      <trkpt lat="45.98954" lon="1.34427">
        <ele>437</ele>
        <time>2023-11-19T09:03:04Z</time>
      </trkpt>
      <trkpt lat="45.98965" lon="1.34398">
        <ele>436.4</ele>
        <time>2023-11-19T09:03:09Z</time>
      </trkpt>
      <trkpt lat="45.98965" lon="1.34394">
        <ele>436.2</ele>
        <time>2023-11-19T09:03:10Z</time>
      </trkpt>
      <trkpt lat="45.98966" lon="1.34384">
        <ele>436.8</ele>
        <time>2023-11-19T09:03:12Z</time>
      </trkpt>
      <trkpt lat="45.98966" lon="1.3437">
        <ele>437.4</ele>
        <time>2023-11-19T09:03:15Z</time>
      </trkpt>
      <trkpt lat="45.98958" lon="1.34351">
        <ele>438.2</ele>
        <time>2023-11-19T09:03:20Z</time>
      </trkpt>
      <trkpt lat="45.98954" lon="1.34347">
        <ele>438.6</ele>
        <time>2023-11-19T09:03:22Z</time>
      </trkpt>
      <trkpt lat="45.98946" lon="1.34332">
        <ele>438.8</ele>
        <time>2023-11-19T09:03:27Z</time>
      </trkpt>
      <trkpt lat="45.9893" lon="1.34314">
        <ele>438.8</ele>
        <time>2023-11-19T09:03:34Z</time>
      </trkpt>
      <trkpt lat="45.9892" lon="1.3429">
        <ele>439.6</ele>
        <time>2023-11-19T09:03:40Z</time>
      </trkpt>
      <trkpt lat="45.98912" lon="1.34268">
        <ele>440.4</ele>
        <time>2023-11-19T09:03:45Z</time>
      </trkpt>
      <trkpt lat="45.98911" lon="1.34263">
        <ele>441.2</ele>
        <time>2023-11-19T09:03:46Z</time>
      </trkpt>
      <trkpt lat="45.98903" lon="1.34227">
        <ele>440.6</ele>
        <time>2023-11-19T09:03:53Z</time>
      </trkpt>
      <trkpt lat="45.98906" lon="1.34192">
        <ele>440.2</ele>
        <time>2023-11-19T09:04:01Z</time>
      </trkpt>
      <trkpt lat="45.98906" lon="1.34187">
        <ele>440.2</ele>
        <time>2023-11-19T09:04:02Z</time>
      </trkpt>
      <trkpt lat="45.98904" lon="1.3416">
        <ele>439.6</ele>
        <time>2023-11-19T09:04:07Z</time>
      </trkpt>
      <trkpt lat="45.98905" lon="1.34148">
        <ele>439.2</ele>
        <time>2023-11-19T09:04:09Z</time>
      </trkpt>
      <trkpt lat="45.98907" lon="1.34136">
        <ele>438</ele>
        <time>2023-11-19T09:04:11Z</time>
      </trkpt>
      <trkpt lat="45.9891" lon="1.34127">
        <ele>436.8</ele>
        <time>2023-11-19T09:04:13Z</time>
      </trkpt>
      <trkpt lat="45.98915" lon="1.34111">
        <ele>435.6</ele>
        <time>2023-11-19T09:04:16Z</time>
      </trkpt>
      <trkpt lat="45.98916" lon="1.34106">
        <ele>435.4</ele>
        <time>2023-11-19T09:04:17Z</time>
      </trkpt>
      <trkpt lat="45.98917" lon="1.34101">
        <ele>435.2</ele>
        <time>2023-11-19T09:04:18Z</time>
      </trkpt>
      <trkpt lat="45.98919" lon="1.34082">
        <ele>434.4</ele>
        <time>2023-11-19T09:04:21Z</time>
      </trkpt>
      <trkpt lat="45.98918" lon="1.3407">
        <ele>434</ele>
        <time>2023-11-19T09:04:23Z</time>
      </trkpt>
      <trkpt lat="45.98919" lon="1.34061">
        <ele>433.6</ele>
        <time>2023-11-19T09:04:25Z</time>
      </trkpt>
      <trkpt lat="45.98921" lon="1.34059">
        <ele>433.4</ele>
        <time>2023-11-19T09:04:26Z</time>
      </trkpt>
      <trkpt lat="45.98931" lon="1.34064">
        <ele>433</ele>
        <time>2023-11-19T09:04:30Z</time>
      </trkpt>
      <trkpt lat="45.98949" lon="1.34078">
        <ele>432.4</ele>
        <time>2023-11-19T09:04:34Z</time>
      </trkpt>
      <trkpt lat="45.98954" lon="1.34083">
        <ele>432.2</ele>
        <time>2023-11-19T09:04:35Z</time>
      </trkpt>
      <trkpt lat="45.98959" lon="1.34089">
        <ele>432.2</ele>
        <time>2023-11-19T09:04:36Z</time>
      </trkpt>
      <trkpt lat="45.98975" lon="1.34106">
        <ele>431.2</ele>
        <time>2023-11-19T09:04:39Z</time>
      </trkpt>
      <trkpt lat="45.98979" lon="1.34111">
        <ele>431</ele>
        <time>2023-11-19T09:04:40Z</time>
      </trkpt>
      <trkpt lat="45.99005" lon="1.34126">
        <ele>430.2</ele>
        <time>2023-11-19T09:04:45Z</time>
      </trkpt>
      <trkpt lat="45.99012" lon="1.34128">
        <ele>429.8</ele>
        <time>2023-11-19T09:04:47Z</time>
      </trkpt>
      <trkpt lat="45.99017" lon="1.3413">
        <ele>429.6</ele>
        <time>2023-11-19T09:04:49Z</time>
      </trkpt>
      <trkpt lat="45.99021" lon="1.3413">
        <ele>428.6</ele>
        <time>2023-11-19T09:04:51Z</time>
      </trkpt>
      <trkpt lat="45.99025" lon="1.34131">
        <ele>428.2</ele>
        <time>2023-11-19T09:04:53Z</time>
      </trkpt>
      <trkpt lat="45.99031" lon="1.34131">
        <ele>428.4</ele>
        <time>2023-11-19T09:04:55Z</time>
      </trkpt>
      <trkpt lat="45.99038" lon="1.34131">
        <ele>428.6</ele>
        <time>2023-11-19T09:04:57Z</time>
      </trkpt>
      <trkpt lat="45.99046" lon="1.34132">
        <ele>427.8</ele>
        <time>2023-11-19T09:04:59Z</time>
      </trkpt>
      <trkpt lat="45.9905" lon="1.34131">
        <ele>427.2</ele>
        <time>2023-11-19T09:05:00Z</time>
      </trkpt>
      <trkpt lat="45.99057" lon="1.34129">
        <ele>426.6</ele>
        <time>2023-11-19T09:05:02Z</time>
      </trkpt>
      <trkpt lat="45.99069" lon="1.34122">
        <ele>426.6</ele>
        <time>2023-11-19T09:05:05Z</time>
      </trkpt>
      <trkpt lat="45.99076" lon="1.34117">
        <ele>426.8</ele>
        <time>2023-11-19T09:05:07Z</time>
      </trkpt>
      <trkpt lat="45.99087" lon="1.34103">
        <ele>427</ele>
        <time>2023-11-19T09:05:11Z</time>
      </trkpt>
      <trkpt lat="45.99106" lon="1.34073">
        <ele>426.4</ele>
        <time>2023-11-19T09:05:18Z</time>
      </trkpt>
      <trkpt lat="45.99112" lon="1.34065">
        <ele>426.6</ele>
        <time>2023-11-19T09:05:20Z</time>
      </trkpt>
      <trkpt lat="45.99123" lon="1.34052">
        <ele>427</ele>
        <time>2023-11-19T09:05:23Z</time>
      </trkpt>
      <trkpt lat="45.99126" lon="1.34047">
        <ele>426.8</ele>
        <time>2023-11-19T09:05:24Z</time>
      </trkpt>
      <trkpt lat="45.9913" lon="1.34041">
        <ele>427</ele>
        <time>2023-11-19T09:05:25Z</time>
      </trkpt>
      <trkpt lat="45.99145" lon="1.34014">
        <ele>426.6</ele>
        <time>2023-11-19T09:05:29Z</time>
      </trkpt>
      <trkpt lat="45.99147" lon="1.34007">
        <ele>426.4</ele>
        <time>2023-11-19T09:05:30Z</time>
      </trkpt>
      <trkpt lat="45.9915" lon="1.33999">
        <ele>426</ele>
        <time>2023-11-19T09:05:31Z</time>
      </trkpt>
      <trkpt lat="45.99161" lon="1.33967">
        <ele>425.6</ele>
        <time>2023-11-19T09:05:35Z</time>
      </trkpt>
      <trkpt lat="45.99167" lon="1.33954">
        <ele>425.2</ele>
        <time>2023-11-19T09:05:37Z</time>
      </trkpt>
      <trkpt lat="45.99181" lon="1.33937">
        <ele>424.8</ele>
        <time>2023-11-19T09:05:40Z</time>
      </trkpt>
      <trkpt lat="45.99186" lon="1.33931">
        <ele>425</ele>
        <time>2023-11-19T09:05:41Z</time>
      </trkpt>
      <trkpt lat="45.99191" lon="1.33923">
        <ele>425</ele>
        <time>2023-11-19T09:05:42Z</time>
      </trkpt>
      <trkpt lat="45.99214" lon="1.3389">
        <ele>424.8</ele>
        <time>2023-11-19T09:05:48Z</time>
      </trkpt>
      <trkpt lat="45.99227" lon="1.33881">
        <ele>424.2</ele>
        <time>2023-11-19T09:05:53Z</time>
      </trkpt>
      <trkpt lat="45.99237" lon="1.33875">
        <ele>424.6</ele>
        <time>2023-11-19T09:05:58Z</time>
      </trkpt>
      <trkpt lat="45.99254" lon="1.33867">
        <ele>423.2</ele>
        <time>2023-11-19T09:06:04Z</time>
      </trkpt>
      <trkpt lat="45.99266" lon="1.33862">
        <ele>422</ele>
        <time>2023-11-19T09:06:07Z</time>
      </trkpt>
      <trkpt lat="45.99269" lon="1.3386">
        <ele>421.8</ele>
        <time>2023-11-19T09:06:08Z</time>
      </trkpt>
      <trkpt lat="45.99275" lon="1.3386">
        <ele>421.4</ele>
        <time>2023-11-19T09:06:10Z</time>
      </trkpt>
      <trkpt lat="45.99281" lon="1.33862">
        <ele>421</ele>
        <time>2023-11-19T09:06:12Z</time>
      </trkpt>
      <trkpt lat="45.99287" lon="1.33865">
        <ele>420.2</ele>
        <time>2023-11-19T09:06:14Z</time>
      </trkpt>
      <trkpt lat="45.99293" lon="1.3387">
        <ele>420</ele>
        <time>2023-11-19T09:06:16Z</time>
      </trkpt>
      <trkpt lat="45.9931" lon="1.33894">
        <ele>420.2</ele>
        <time>2023-11-19T09:06:24Z</time>
      </trkpt>
      <trkpt lat="45.99329" lon="1.33924">
        <ele>421.6</ele>
        <time>2023-11-19T09:06:31Z</time>
      </trkpt>
      <trkpt lat="45.99334" lon="1.33933">
        <ele>422</ele>
        <time>2023-11-19T09:06:34Z</time>
      </trkpt>
      <trkpt lat="45.99337" lon="1.3394">
        <ele>422</ele>
        <time>2023-11-19T09:06:36Z</time>
      </trkpt>
      <trkpt lat="45.99339" lon="1.33945">
        <ele>422.2</ele>
        <time>2023-11-19T09:06:38Z</time>
      </trkpt>
      <trkpt lat="45.99346" lon="1.33959">
        <ele>423.2</ele>
        <time>2023-11-19T09:06:43Z</time>
      </trkpt>
      <trkpt lat="45.9935" lon="1.33964">
        <ele>424.8</ele>
        <time>2023-11-19T09:06:45Z</time>
      </trkpt>
      <trkpt lat="45.99364" lon="1.33977">
        <ele>426</ele>
        <time>2023-11-19T09:06:51Z</time>
      </trkpt>
      <trkpt lat="45.99367" lon="1.33978">
        <ele>426</ele>
        <time>2023-11-19T09:06:52Z</time>
      </trkpt>
      <trkpt lat="45.99386" lon="1.33986">
        <ele>425.6</ele>
        <time>2023-11-19T09:06:58Z</time>
      </trkpt>
      <trkpt lat="45.99414" lon="1.33985">
        <ele>426.2</ele>
        <time>2023-11-19T09:07:05Z</time>
      </trkpt>
      <trkpt lat="45.99429" lon="1.33982">
        <ele>427</ele>
        <time>2023-11-19T09:07:10Z</time>
      </trkpt>
      <trkpt lat="45.99438" lon="1.33982">
        <ele>427.6</ele>
        <time>2023-11-19T09:07:13Z</time>
      </trkpt>
      <trkpt lat="45.99449" lon="1.33977">
        <ele>428.2</ele>
        <time>2023-11-19T09:07:18Z</time>
      </trkpt>
      <trkpt lat="45.99452" lon="1.33975">
        <ele>428.6</ele>
        <time>2023-11-19T09:07:20Z</time>
      </trkpt>
      <trkpt lat="45.99467" lon="1.33968">
        <ele>429.4</ele>
        <time>2023-11-19T09:07:25Z</time>
      </trkpt>
      <trkpt lat="45.99476" lon="1.33963">
        <ele>430.2</ele>
        <time>2023-11-19T09:07:28Z</time>
      </trkpt>
      <trkpt lat="45.99481" lon="1.3396">
        <ele>430.4</ele>
        <time>2023-11-19T09:07:30Z</time>
      </trkpt>
      <trkpt lat="45.99493" lon="1.33958">
        <ele>431.2</ele>
        <time>2023-11-19T09:07:35Z</time>
      </trkpt>
      <trkpt lat="45.99508" lon="1.33958">
        <ele>431.4</ele>
        <time>2023-11-19T09:07:42Z</time>
      </trkpt>
      <trkpt lat="45.99532" lon="1.33958">
        <ele>430.8</ele>
        <time>2023-11-19T09:07:49Z</time>
      </trkpt>
      <trkpt lat="45.99548" lon="1.33964">
        <ele>430</ele>
        <time>2023-11-19T09:07:54Z</time>
      </trkpt>
      <trkpt lat="45.9955" lon="1.33966">
        <ele>429.2</ele>
        <time>2023-11-19T09:07:55Z</time>
      </trkpt>
      <trkpt lat="45.99554" lon="1.33967">
        <ele>427.6</ele>
        <time>2023-11-19T09:07:57Z</time>
      </trkpt>
      <trkpt lat="45.99557" lon="1.33966">
        <ele>427</ele>
        <time>2023-11-19T09:07:59Z</time>
      </trkpt>
      <trkpt lat="45.9956" lon="1.33966">
        <ele>426.6</ele>
        <time>2023-11-19T09:08:00Z</time>
      </trkpt>
      <trkpt lat="45.99566" lon="1.33966">
        <ele>425.4</ele>
        <time>2023-11-19T09:08:02Z</time>
      </trkpt>
      <trkpt lat="45.99572" lon="1.33968">
        <ele>424.2</ele>
        <time>2023-11-19T09:08:04Z</time>
      </trkpt>
      <trkpt lat="45.99577" lon="1.33972">
        <ele>424</ele>
        <time>2023-11-19T09:08:05Z</time>
      </trkpt>
      <trkpt lat="45.99589" lon="1.33979">
        <ele>423.4</ele>
        <time>2023-11-19T09:08:07Z</time>
      </trkpt>
      <trkpt lat="45.99594" lon="1.33982">
        <ele>422.4</ele>
        <time>2023-11-19T09:08:08Z</time>
      </trkpt>
      <trkpt lat="45.99599" lon="1.33985">
        <ele>421.4</ele>
        <time>2023-11-19T09:08:09Z</time>
      </trkpt>
      <trkpt lat="45.99606" lon="1.33989">
        <ele>419.8</ele>
        <time>2023-11-19T09:08:11Z</time>
      </trkpt>
      <trkpt lat="45.99617" lon="1.33997">
        <ele>419.2</ele>
        <time>2023-11-19T09:08:15Z</time>
      </trkpt>
      <trkpt lat="45.99621" lon="1.33998">
        <ele>419.2</ele>
        <time>2023-11-19T09:08:17Z</time>
      </trkpt>
      <trkpt lat="45.99631" lon="1.33998">
        <ele>418.8</ele>
        <time>2023-11-19T09:08:21Z</time>
      </trkpt>
      <trkpt lat="45.99636" lon="1.33997">
        <ele>417.8</ele>
        <time>2023-11-19T09:08:25Z</time>
      </trkpt>
      <trkpt lat="45.99638" lon="1.33998">
        <ele>417.6</ele>
        <time>2023-11-19T09:08:27Z</time>
      </trkpt>
      <trkpt lat="45.99644" lon="1.33995">
        <ele>418.6</ele>
        <time>2023-11-19T09:08:32Z</time>
      </trkpt>
      <trkpt lat="45.99646" lon="1.33994">
        <ele>418.6</ele>
        <time>2023-11-19T09:08:33Z</time>
      </trkpt>
      <trkpt lat="45.9966" lon="1.33994">
        <ele>418.6</ele>
        <time>2023-11-19T09:08:40Z</time>
      </trkpt>
      <trkpt lat="45.99682" lon="1.33999">
        <ele>418</ele>
        <time>2023-11-19T09:08:47Z</time>
      </trkpt>
      <trkpt lat="45.99696" lon="1.33996">
        <ele>418.6</ele>
        <time>2023-11-19T09:08:52Z</time>
      </trkpt>
      <trkpt lat="45.9971" lon="1.33987">
        <ele>418.2</ele>
        <time>2023-11-19T09:08:56Z</time>
      </trkpt>
      <trkpt lat="45.99717" lon="1.33984">
        <ele>417.2</ele>
        <time>2023-11-19T09:08:58Z</time>
      </trkpt>
      <trkpt lat="45.99726" lon="1.33979">
        <ele>416.8</ele>
        <time>2023-11-19T09:09:01Z</time>
      </trkpt>
      <trkpt lat="45.99737" lon="1.33979">
        <ele>416.6</ele>
        <time>2023-11-19T09:09:04Z</time>
      </trkpt>
      <trkpt lat="45.99743" lon="1.33981">
        <ele>416.2</ele>
        <time>2023-11-19T09:09:06Z</time>
      </trkpt>
      <trkpt lat="45.99751" lon="1.33983">
        <ele>415.8</ele>
        <time>2023-11-19T09:09:08Z</time>
      </trkpt>
      <trkpt lat="45.99758" lon="1.33985">
        <ele>415.4</ele>
        <time>2023-11-19T09:09:10Z</time>
      </trkpt>
      <trkpt lat="45.99781" lon="1.33983">
        <ele>415.2</ele>
        <time>2023-11-19T09:09:14Z</time>
      </trkpt>
      <trkpt lat="45.99791" lon="1.33984">
        <ele>415.2</ele>
        <time>2023-11-19T09:09:16Z</time>
      </trkpt>
      <trkpt lat="45.99825" lon="1.33985">
        <ele>414.6</ele>
        <time>2023-11-19T09:09:22Z</time>
      </trkpt>
      <trkpt lat="45.99831" lon="1.33985">
        <ele>414.8</ele>
        <time>2023-11-19T09:09:23Z</time>
      </trkpt>
      <trkpt lat="45.99856" lon="1.3399">
        <ele>414.8</ele>
        <time>2023-11-19T09:09:28Z</time>
      </trkpt>
      <trkpt lat="45.99877" lon="1.34">
        <ele>415</ele>
        <time>2023-11-19T09:09:34Z</time>
      </trkpt>
      <trkpt lat="45.99887" lon="1.34014">
        <ele>415.6</ele>
        <time>2023-11-19T09:09:39Z</time>
      </trkpt>
      <trkpt lat="45.99891" lon="1.3402">
        <ele>416.2</ele>
        <time>2023-11-19T09:09:42Z</time>
      </trkpt>
      <trkpt lat="45.99896" lon="1.34025">
        <ele>417.6</ele>
        <time>2023-11-19T09:09:45Z</time>
      </trkpt>
      <trkpt lat="45.99899" lon="1.34028">
        <ele>418</ele>
        <time>2023-11-19T09:09:47Z</time>
      </trkpt>
      <trkpt lat="45.99903" lon="1.34033">
        <ele>418.8</ele>
        <time>2023-11-19T09:09:49Z</time>
      </trkpt>
      <trkpt lat="45.99914" lon="1.34044">
        <ele>419</ele>
        <time>2023-11-19T09:09:54Z</time>
      </trkpt>
      <trkpt lat="45.99926" lon="1.34054">
        <ele>420</ele>
        <time>2023-11-19T09:09:59Z</time>
      </trkpt>
      <trkpt lat="45.99932" lon="1.34062">
        <ele>420.8</ele>
        <time>2023-11-19T09:10:02Z</time>
      </trkpt>
      <trkpt lat="45.99934" lon="1.34064">
        <ele>421.4</ele>
        <time>2023-11-19T09:10:03Z</time>
      </trkpt>
      <trkpt lat="45.99938" lon="1.34073">
        <ele>422.6</ele>
        <time>2023-11-19T09:10:06Z</time>
      </trkpt>
      <trkpt lat="45.99942" lon="1.34079">
        <ele>423.6</ele>
        <time>2023-11-19T09:10:09Z</time>
      </trkpt>
      <trkpt lat="45.99943" lon="1.34082">
        <ele>424</ele>
        <time>2023-11-19T09:10:10Z</time>
      </trkpt>
      <trkpt lat="45.99947" lon="1.3409">
        <ele>424.6</ele>
        <time>2023-11-19T09:10:14Z</time>
      </trkpt>
      <trkpt lat="45.99948" lon="1.341">
        <ele>425.8</ele>
        <time>2023-11-19T09:10:18Z</time>
      </trkpt>
      <trkpt lat="45.99945" lon="1.34116">
        <ele>426.8</ele>
        <time>2023-11-19T09:10:25Z</time>
      </trkpt>
      <trkpt lat="45.99941" lon="1.34123">
        <ele>427</ele>
        <time>2023-11-19T09:10:28Z</time>
      </trkpt>
      <trkpt lat="45.99934" lon="1.34141">
        <ele>427.4</ele>
        <time>2023-11-19T09:10:36Z</time>
      </trkpt>
      <trkpt lat="45.9993" lon="1.34154">
        <ele>428</ele>
        <time>2023-11-19T09:10:41Z</time>
      </trkpt>
      <trkpt lat="45.99927" lon="1.34158">
        <ele>428.2</ele>
        <time>2023-11-19T09:10:43Z</time>
      </trkpt>
      <trkpt lat="45.99918" lon="1.34174">
        <ele>428.8</ele>
        <time>2023-11-19T09:10:49Z</time>
      </trkpt>
      <trkpt lat="45.99916" lon="1.34178">
        <ele>429.2</ele>
        <time>2023-11-19T09:10:50Z</time>
      </trkpt>
      <trkpt lat="45.99906" lon="1.3419">
        <ele>429.8</ele>
        <time>2023-11-19T09:10:56Z</time>
      </trkpt>
      <trkpt lat="45.99901" lon="1.34193">
        <ele>430.2</ele>
        <time>2023-11-19T09:10:59Z</time>
      </trkpt>
      <trkpt lat="45.99896" lon="1.34198">
        <ele>431.4</ele>
        <time>2023-11-19T09:11:03Z</time>
      </trkpt>
      <trkpt lat="45.99893" lon="1.34203">
        <ele>432.8</ele>
        <time>2023-11-19T09:11:06Z</time>
      </trkpt>
      <trkpt lat="45.99889" lon="1.34209">
        <ele>434</ele>
        <time>2023-11-19T09:11:11Z</time>
      </trkpt>
      <trkpt lat="45.99883" lon="1.34217">
        <ele>434.6</ele>
        <time>2023-11-19T09:11:18Z</time>
      </trkpt>
      <trkpt lat="45.99881" lon="1.3422">
        <ele>435.2</ele>
        <time>2023-11-19T09:11:20Z</time>
      </trkpt>
      <trkpt lat="45.99878" lon="1.34226">
        <ele>435.8</ele>
        <time>2023-11-19T09:11:23Z</time>
      </trkpt>
      <trkpt lat="45.99875" lon="1.3423">
        <ele>436</ele>
        <time>2023-11-19T09:11:25Z</time>
      </trkpt>
      <trkpt lat="45.99874" lon="1.34231">
        <ele>436.2</ele>
        <time>2023-11-19T09:11:26Z</time>
      </trkpt>
      <trkpt lat="45.99873" lon="1.34233">
        <ele>436.4</ele>
        <time>2023-11-19T09:11:27Z</time>
      </trkpt>
      <trkpt lat="45.99869" lon="1.34244">
        <ele>437.4</ele>
        <time>2023-11-19T09:11:33Z</time>
      </trkpt>
      <trkpt lat="45.99869" lon="1.34246">
        <ele>438</ele>
        <time>2023-11-19T09:11:35Z</time>
      </trkpt>
      <trkpt lat="45.99869" lon="1.34247">
        <ele>438.2</ele>
        <time>2023-11-19T09:11:36Z</time>
      </trkpt>
      <trkpt lat="45.99868" lon="1.34247">
        <ele>438.4</ele>
        <time>2023-11-19T09:11:38Z</time>
      </trkpt>
      <trkpt lat="45.99868" lon="1.34247">
        <ele>438.8</ele>
        <time>2023-11-19T09:11:43Z</time>
      </trkpt>
      <trkpt lat="45.99869" lon="1.34257">
        <ele>439.4</ele>
        <time>2023-11-19T09:11:51Z</time>
      </trkpt>
      <trkpt lat="45.99869" lon="1.34259">
        <ele>439.6</ele>
        <time>2023-11-19T09:11:52Z</time>
      </trkpt>
      <trkpt lat="45.99871" lon="1.34261">
        <ele>440</ele>
        <time>2023-11-19T09:11:54Z</time>
      </trkpt>
      <trkpt lat="45.99873" lon="1.34261">
        <ele>440.2</ele>
        <time>2023-11-19T09:11:56Z</time>
      </trkpt>
      <trkpt lat="45.99877" lon="1.34262">
        <ele>440.2</ele>
        <time>2023-11-19T09:11:59Z</time>
      </trkpt>
      <trkpt lat="45.99878" lon="1.34262">
        <ele>440.4</ele>
        <time>2023-11-19T09:12:00Z</time>
      </trkpt>
      <trkpt lat="45.99881" lon="1.34263">
        <ele>440.8</ele>
        <time>2023-11-19T09:12:02Z</time>
      </trkpt>
      <trkpt lat="45.99884" lon="1.34265">
        <ele>441.8</ele>
        <time>2023-11-19T09:12:06Z</time>
      </trkpt>
      <trkpt lat="45.99887" lon="1.3427">
        <ele>442.8</ele>
        <time>2023-11-19T09:12:11Z</time>
      </trkpt>
      <trkpt lat="45.99887" lon="1.34271">
        <ele>442.8</ele>
        <time>2023-11-19T09:12:12Z</time>
      </trkpt>
      <trkpt lat="45.99888" lon="1.34272">
        <ele>443</ele>
        <time>2023-11-19T09:12:13Z</time>
      </trkpt>
      <trkpt lat="45.9989" lon="1.34275">
        <ele>443.4</ele>
        <time>2023-11-19T09:12:15Z</time>
      </trkpt>
      <trkpt lat="45.99892" lon="1.34278">
        <ele>444</ele>
        <time>2023-11-19T09:12:17Z</time>
      </trkpt>
      <trkpt lat="45.99893" lon="1.34282">
        <ele>445.2</ele>
        <time>2023-11-19T09:12:20Z</time>
      </trkpt>
      <trkpt lat="45.99894" lon="1.34287">
        <ele>445.6</ele>
        <time>2023-11-19T09:12:23Z</time>
      </trkpt>
      <trkpt lat="45.99894" lon="1.34289">
        <ele>445.8</ele>
        <time>2023-11-19T09:12:25Z</time>
      </trkpt>
      <trkpt lat="45.99895" lon="1.34291">
        <ele>446.2</ele>
        <time>2023-11-19T09:12:27Z</time>
      </trkpt>
      <trkpt lat="45.99895" lon="1.34293">
        <ele>446.6</ele>
        <time>2023-11-19T09:12:29Z</time>
      </trkpt>
      <trkpt lat="45.99896" lon="1.34296">
        <ele>447</ele>
        <time>2023-11-19T09:12:32Z</time>
      </trkpt>
      <trkpt lat="45.99895" lon="1.34299">
        <ele>447.4</ele>
        <time>2023-11-19T09:12:35Z</time>
      </trkpt>
      <trkpt lat="45.99895" lon="1.34302">
        <ele>447.8</ele>
        <time>2023-11-19T09:12:38Z</time>
      </trkpt>
      <trkpt lat="45.99894" lon="1.34307">
        <ele>448</ele>
        <time>2023-11-19T09:12:42Z</time>
      </trkpt>
      <trkpt lat="45.99892" lon="1.3431">
        <ele>448.2</ele>
        <time>2023-11-19T09:12:44Z</time>
      </trkpt>
      <trkpt lat="45.99889" lon="1.34316">
        <ele>448.4</ele>
        <time>2023-11-19T09:12:46Z</time>
      </trkpt>
      <trkpt lat="45.99885" lon="1.34328">
        <ele>449.2</ele>
        <time>2023-11-19T09:12:52Z</time>
      </trkpt>
      <trkpt lat="45.9988" lon="1.34337">
        <ele>449.8</ele>
        <time>2023-11-19T09:12:56Z</time>
      </trkpt>
      <trkpt lat="45.99877" lon="1.34345">
        <ele>450.8</ele>
        <time>2023-11-19T09:12:59Z</time>
      </trkpt>
      <trkpt lat="45.99872" lon="1.34358">
        <ele>451.8</ele>
        <time>2023-11-19T09:13:05Z</time>
      </trkpt>
      <trkpt lat="45.99871" lon="1.34361">
        <ele>452</ele>
        <time>2023-11-19T09:13:06Z</time>
      </trkpt>
      <trkpt lat="45.99863" lon="1.34377">
        <ele>453</ele>
        <time>2023-11-19T09:13:13Z</time>
      </trkpt>
      <trkpt lat="45.99859" lon="1.34384">
        <ele>454</ele>
        <time>2023-11-19T09:13:18Z</time>
      </trkpt>
      <trkpt lat="45.99854" lon="1.34396">
        <ele>455.2</ele>
        <time>2023-11-19T09:13:26Z</time>
      </trkpt>
      <trkpt lat="45.99851" lon="1.34402">
        <ele>456.2</ele>
        <time>2023-11-19T09:13:30Z</time>
      </trkpt>
      <trkpt lat="45.99847" lon="1.34406">
        <ele>457</ele>
        <time>2023-11-19T09:13:33Z</time>
      </trkpt>
      <trkpt lat="45.99847" lon="1.34407">
        <ele>457.2</ele>
        <time>2023-11-19T09:13:34Z</time>
      </trkpt>
      <trkpt lat="45.99839" lon="1.34416">
        <ele>458.4</ele>
        <time>2023-11-19T09:13:43Z</time>
      </trkpt>
      <trkpt lat="45.99835" lon="1.34422">
        <ele>458.8</ele>
        <time>2023-11-19T09:13:48Z</time>
      </trkpt>
      <trkpt lat="45.99833" lon="1.34425">
        <ele>459</ele>
        <time>2023-11-19T09:13:51Z</time>
      </trkpt>
      <trkpt lat="45.99831" lon="1.34427">
        <ele>459.6</ele>
        <time>2023-11-19T09:13:53Z</time>
      </trkpt>
      <trkpt lat="45.99828" lon="1.34431">
        <ele>460.2</ele>
        <time>2023-11-19T09:13:55Z</time>
      </trkpt>
      <trkpt lat="45.99827" lon="1.34433">
        <ele>460.6</ele>
        <time>2023-11-19T09:13:56Z</time>
      </trkpt>
      <trkpt lat="45.99826" lon="1.34434">
        <ele>460.8</ele>
        <time>2023-11-19T09:13:57Z</time>
      </trkpt>
      <trkpt lat="45.99822" lon="1.34441">
        <ele>461.6</ele>
        <time>2023-11-19T09:14:01Z</time>
      </trkpt>
      <trkpt lat="45.99821" lon="1.34443">
        <ele>461.8</ele>
        <time>2023-11-19T09:14:02Z</time>
      </trkpt>
      <trkpt lat="45.99817" lon="1.34449">
        <ele>462.8</ele>
        <time>2023-11-19T09:14:07Z</time>
      </trkpt>
      <trkpt lat="45.99814" lon="1.34459">
        <ele>463.8</ele>
        <time>2023-11-19T09:14:13Z</time>
      </trkpt>
      <trkpt lat="45.99812" lon="1.34465">
        <ele>464.8</ele>
        <time>2023-11-19T09:14:17Z</time>
      </trkpt>
      <trkpt lat="45.99812" lon="1.34467">
        <ele>464.8</ele>
        <time>2023-11-19T09:14:18Z</time>
      </trkpt>
      <trkpt lat="45.99809" lon="1.34481">
        <ele>466</ele>
        <time>2023-11-19T09:14:26Z</time>
      </trkpt>
      <trkpt lat="45.9981" lon="1.34495">
        <ele>467</ele>
        <time>2023-11-19T09:14:33Z</time>
      </trkpt>
      <trkpt lat="45.9981" lon="1.34498">
        <ele>467.4</ele>
        <time>2023-11-19T09:14:34Z</time>
      </trkpt>
      <trkpt lat="45.9981" lon="1.34503">
        <ele>467.6</ele>
        <time>2023-11-19T09:14:36Z</time>
      </trkpt>
      <trkpt lat="45.99809" lon="1.34515">
        <ele>468.2</ele>
        <time>2023-11-19T09:14:41Z</time>
      </trkpt>
      <trkpt lat="45.99808" lon="1.34529">
        <ele>469.4</ele>
        <time>2023-11-19T09:14:46Z</time>
      </trkpt>
      <trkpt lat="45.99808" lon="1.34532">
        <ele>469.4</ele>
        <time>2023-11-19T09:14:47Z</time>
      </trkpt>
      <trkpt lat="45.99807" lon="1.34542">
        <ele>470.4</ele>
        <time>2023-11-19T09:14:51Z</time>
      </trkpt>
      <trkpt lat="45.99805" lon="1.34552">
        <ele>471.6</ele>
        <time>2023-11-19T09:14:56Z</time>
      </trkpt>
      <trkpt lat="45.99805" lon="1.34559">
        <ele>472.6</ele>
        <time>2023-11-19T09:15:00Z</time>
      </trkpt>
      <trkpt lat="45.99804" lon="1.3456">
        <ele>472.6</ele>
        <time>2023-11-19T09:15:01Z</time>
      </trkpt>
      <trkpt lat="45.99801" lon="1.34572">
        <ele>473.8</ele>
        <time>2023-11-19T09:15:07Z</time>
      </trkpt>
      <trkpt lat="45.99798" lon="1.34589">
        <ele>474.8</ele>
        <time>2023-11-19T09:15:13Z</time>
      </trkpt>
      <trkpt lat="45.99798" lon="1.34592">
        <ele>474.8</ele>
        <time>2023-11-19T09:15:14Z</time>
      </trkpt>
      <trkpt lat="45.99797" lon="1.34618">
        <ele>475.4</ele>
        <time>2023-11-19T09:15:21Z</time>
      </trkpt>
      <trkpt lat="45.99798" lon="1.34632">
        <ele>476</ele>
        <time>2023-11-19T09:15:25Z</time>
      </trkpt>
      <trkpt lat="45.99799" lon="1.34642">
        <ele>476.6</ele>
        <time>2023-11-19T09:15:28Z</time>
      </trkpt>
      <trkpt lat="45.99798" lon="1.34649">
        <ele>477.4</ele>
        <time>2023-11-19T09:15:30Z</time>
      </trkpt>
      <trkpt lat="45.998" lon="1.34666">
        <ele>478.4</ele>
        <time>2023-11-19T09:15:35Z</time>
      </trkpt>
      <trkpt lat="45.998" lon="1.3467">
        <ele>478.4</ele>
        <time>2023-11-19T09:15:36Z</time>
      </trkpt>
      <trkpt lat="45.99804" lon="1.34694">
        <ele>478.8</ele>
        <time>2023-11-19T09:15:43Z</time>
      </trkpt>
      <trkpt lat="45.99805" lon="1.34713">
        <ele>479.6</ele>
        <time>2023-11-19T09:15:49Z</time>
      </trkpt>
      <trkpt lat="45.99807" lon="1.34723">
        <ele>479.8</ele>
        <time>2023-11-19T09:15:52Z</time>
      </trkpt>
      <trkpt lat="45.9981" lon="1.34747">
        <ele>480.2</ele>
        <time>2023-11-19T09:15:59Z</time>
      </trkpt>
      <trkpt lat="45.99811" lon="1.34763">
        <ele>480.8</ele>
        <time>2023-11-19T09:16:03Z</time>
      </trkpt>
      <trkpt lat="45.99811" lon="1.34775">
        <ele>481.6</ele>
        <time>2023-11-19T09:16:06Z</time>
      </trkpt>
      <trkpt lat="45.99812" lon="1.34779">
        <ele>482</ele>
        <time>2023-11-19T09:16:07Z</time>
      </trkpt>
      <trkpt lat="45.99816" lon="1.34792">
        <ele>482.8</ele>
        <time>2023-11-19T09:16:11Z</time>
      </trkpt>
      <trkpt lat="45.99816" lon="1.34793">
        <ele>483.2</ele>
        <time>2023-11-19T09:16:12Z</time>
      </trkpt>
      <trkpt lat="45.99817" lon="1.34807">
        <ele>484.6</ele>
        <time>2023-11-19T09:16:16Z</time>
      </trkpt>
      <trkpt lat="45.99817" lon="1.3481">
        <ele>485</ele>
        <time>2023-11-19T09:16:17Z</time>
      </trkpt>
      <trkpt lat="45.99825" lon="1.34825">
        <ele>484.4</ele>
        <time>2023-11-19T09:16:23Z</time>
      </trkpt>
      <trkpt lat="45.99836" lon="1.34848">
        <ele>485.4</ele>
        <time>2023-11-19T09:16:30Z</time>
      </trkpt>
      <trkpt lat="45.99839" lon="1.3486">
        <ele>485.8</ele>
        <time>2023-11-19T09:16:33Z</time>
      </trkpt>
      <trkpt lat="45.99843" lon="1.3487">
        <ele>486</ele>
        <time>2023-11-19T09:16:36Z</time>
      </trkpt>
      <trkpt lat="45.99854" lon="1.34896">
        <ele>486</ele>
        <time>2023-11-19T09:16:44Z</time>
      </trkpt>
      <trkpt lat="45.99859" lon="1.34915">
        <ele>486.8</ele>
        <time>2023-11-19T09:16:50Z</time>
      </trkpt>
      <trkpt lat="45.99862" lon="1.34923">
        <ele>487</ele>
        <time>2023-11-19T09:16:53Z</time>
      </trkpt>
      <trkpt lat="45.9987" lon="1.34945">
        <ele>487.6</ele>
        <time>2023-11-19T09:17:01Z</time>
      </trkpt>
      <trkpt lat="45.99874" lon="1.34953">
        <ele>488.4</ele>
        <time>2023-11-19T09:17:04Z</time>
      </trkpt>
      <trkpt lat="45.99878" lon="1.34963">
        <ele>489.2</ele>
        <time>2023-11-19T09:17:08Z</time>
      </trkpt>
      <trkpt lat="45.99884" lon="1.34977">
        <ele>490</ele>
        <time>2023-11-19T09:17:15Z</time>
      </trkpt>
      <trkpt lat="45.99885" lon="1.34979">
        <ele>490.4</ele>
        <time>2023-11-19T09:17:16Z</time>
      </trkpt>
      <trkpt lat="45.99887" lon="1.34985">
        <ele>491.2</ele>
        <time>2023-11-19T09:17:20Z</time>
      </trkpt>
      <trkpt lat="45.99887" lon="1.34986">
        <ele>491.6</ele>
        <time>2023-11-19T09:17:21Z</time>
      </trkpt>
      <trkpt lat="45.99888" lon="1.34988">
        <ele>492.2</ele>
        <time>2023-11-19T09:17:23Z</time>
      </trkpt>
      <trkpt lat="45.99888" lon="1.3499">
        <ele>492.6</ele>
        <time>2023-11-19T09:17:24Z</time>
      </trkpt>
      <trkpt lat="45.99888" lon="1.34992">
        <ele>492.6</ele>
        <time>2023-11-19T09:17:25Z</time>
      </trkpt>
      <trkpt lat="45.99886" lon="1.35002">
        <ele>493.8</ele>
        <time>2023-11-19T09:17:31Z</time>
      </trkpt>
      <trkpt lat="45.99886" lon="1.35004">
        <ele>494</ele>
        <time>2023-11-19T09:17:33Z</time>
      </trkpt>
      <trkpt lat="45.99884" lon="1.35014">
        <ele>495.2</ele>
        <time>2023-11-19T09:17:37Z</time>
      </trkpt>
      <trkpt lat="45.99882" lon="1.35017">
        <ele>495.8</ele>
        <time>2023-11-19T09:17:40Z</time>
      </trkpt>
      <trkpt lat="45.99882" lon="1.35019">
        <ele>496</ele>
        <time>2023-11-19T09:17:41Z</time>
      </trkpt>
      <trkpt lat="45.99881" lon="1.35019">
        <ele>496.2</ele>
        <time>2023-11-19T09:17:42Z</time>
      </trkpt>
      <trkpt lat="45.99881" lon="1.3502">
        <ele>496.6</ele>
        <time>2023-11-19T09:17:43Z</time>
      </trkpt>
      <trkpt lat="45.99878" lon="1.35025">
        <ele>497.4</ele>
        <time>2023-11-19T09:17:46Z</time>
      </trkpt>
      <trkpt lat="45.99877" lon="1.35027">
        <ele>497.6</ele>
        <time>2023-11-19T09:17:47Z</time>
      </trkpt>
      <trkpt lat="45.99876" lon="1.35028">
        <ele>497.8</ele>
        <time>2023-11-19T09:17:49Z</time>
      </trkpt>
      <trkpt lat="45.99873" lon="1.35033">
        <ele>498.6</ele>
        <time>2023-11-19T09:17:53Z</time>
      </trkpt>
      <trkpt lat="45.99872" lon="1.35033">
        <ele>498.8</ele>
        <time>2023-11-19T09:17:54Z</time>
      </trkpt>
      <trkpt lat="45.99871" lon="1.35034">
        <ele>499.2</ele>
        <time>2023-11-19T09:17:55Z</time>
      </trkpt>
      <trkpt lat="45.99862" lon="1.35037">
        <ele>499.8</ele>
        <time>2023-11-19T09:18:01Z</time>
      </trkpt>
      <trkpt lat="45.9986" lon="1.35038">
        <ele>500.2</ele>
        <time>2023-11-19T09:18:03Z</time>
      </trkpt>
      <trkpt lat="45.99858" lon="1.35038">
        <ele>500.4</ele>
        <time>2023-11-19T09:18:04Z</time>
      </trkpt>
      <trkpt lat="45.99857" lon="1.35038">
        <ele>500.8</ele>
        <time>2023-11-19T09:18:05Z</time>
      </trkpt>
      <trkpt lat="45.99856" lon="1.35038">
        <ele>501</ele>
        <time>2023-11-19T09:18:06Z</time>
      </trkpt>
      <trkpt lat="45.99849" lon="1.3504">
        <ele>502</ele>
        <time>2023-11-19T09:18:11Z</time>
      </trkpt>
      <trkpt lat="45.99847" lon="1.3504">
        <ele>502.2</ele>
        <time>2023-11-19T09:18:12Z</time>
      </trkpt>
      <trkpt lat="45.99841" lon="1.35042">
        <ele>503</ele>
        <time>2023-11-19T09:18:16Z</time>
      </trkpt>
      <trkpt lat="45.99838" lon="1.35043">
        <ele>503.4</ele>
        <time>2023-11-19T09:18:20Z</time>
      </trkpt>
      <trkpt lat="45.99831" lon="1.35046">
        <ele>504.2</ele>
        <time>2023-11-19T09:18:26Z</time>
      </trkpt>
      <trkpt lat="45.99828" lon="1.35046">
        <ele>504.8</ele>
        <time>2023-11-19T09:18:28Z</time>
      </trkpt>
      <trkpt lat="45.99822" lon="1.35046">
        <ele>505.2</ele>
        <time>2023-11-19T09:18:32Z</time>
      </trkpt>
      <trkpt lat="45.99821" lon="1.35046">
        <ele>505.2</ele>
        <time>2023-11-19T09:18:33Z</time>
      </trkpt>
      <trkpt lat="45.99818" lon="1.35047">
        <ele>505.4</ele>
        <time>2023-11-19T09:18:35Z</time>
      </trkpt>
      <trkpt lat="45.99809" lon="1.35049">
        <ele>506.4</ele>
        <time>2023-11-19T09:18:39Z</time>
      </trkpt>
      <trkpt lat="45.99804" lon="1.35048">
        <ele>506.6</ele>
        <time>2023-11-19T09:18:42Z</time>
      </trkpt>
      <trkpt lat="45.99793" lon="1.3505">
        <ele>507.6</ele>
        <time>2023-11-19T09:18:48Z</time>
      </trkpt>
      <trkpt lat="45.99792" lon="1.35049">
        <ele>507.8</ele>
        <time>2023-11-19T09:18:49Z</time>
      </trkpt>
      <trkpt lat="45.99782" lon="1.35053">
        <ele>508.6</ele>
        <time>2023-11-19T09:18:56Z</time>
      </trkpt>
      <trkpt lat="45.99781" lon="1.35053">
        <ele>508.8</ele>
        <time>2023-11-19T09:18:57Z</time>
      </trkpt>
      <trkpt lat="45.99774" lon="1.35054">
        <ele>509.6</ele>
        <time>2023-11-19T09:19:02Z</time>
      </trkpt>
      <trkpt lat="45.99772" lon="1.35054">
        <ele>510</ele>
        <time>2023-11-19T09:19:03Z</time>
      </trkpt>
      <trkpt lat="45.99762" lon="1.35056">
        <ele>511</ele>
        <time>2023-11-19T09:19:11Z</time>
      </trkpt>
      <trkpt lat="45.99761" lon="1.35056">
        <ele>511.2</ele>
        <time>2023-11-19T09:19:12Z</time>
      </trkpt>
      <trkpt lat="45.99755" lon="1.35056">
        <ele>512.2</ele>
        <time>2023-11-19T09:19:17Z</time>
      </trkpt>
      <trkpt lat="45.9975" lon="1.35057">
        <ele>513.2</ele>
        <time>2023-11-19T09:19:21Z</time>
      </trkpt>
      <trkpt lat="45.99748" lon="1.35057">
        <ele>513.2</ele>
        <time>2023-11-19T09:19:23Z</time>
      </trkpt>
      <trkpt lat="45.99741" lon="1.3506">
        <ele>514.4</ele>
        <time>2023-11-19T09:19:28Z</time>
      </trkpt>
      <trkpt lat="45.9974" lon="1.35061">
        <ele>514.6</ele>
        <time>2023-11-19T09:19:29Z</time>
      </trkpt>
      <trkpt lat="45.99737" lon="1.35064">
        <ele>515.4</ele>
        <time>2023-11-19T09:19:33Z</time>
      </trkpt>
      <trkpt lat="45.99736" lon="1.35065">
        <ele>515.8</ele>
        <time>2023-11-19T09:19:34Z</time>
      </trkpt>
      <trkpt lat="45.99733" lon="1.35068">
        <ele>516.4</ele>
        <time>2023-11-19T09:19:37Z</time>
      </trkpt>
      <trkpt lat="45.9973" lon="1.35071">
        <ele>516.8</ele>
        <time>2023-11-19T09:19:40Z</time>
      </trkpt>
      <trkpt lat="45.99724" lon="1.35075">
        <ele>517.6</ele>
        <time>2023-11-19T09:19:45Z</time>
      </trkpt>
      <trkpt lat="45.99723" lon="1.35075">
        <ele>517.8</ele>
        <time>2023-11-19T09:19:46Z</time>
      </trkpt>
      <trkpt lat="45.99718" lon="1.35078">
        <ele>518.8</ele>
        <time>2023-11-19T09:19:51Z</time>
      </trkpt>
      <trkpt lat="45.99717" lon="1.35079">
        <ele>519</ele>
        <time>2023-11-19T09:19:52Z</time>
      </trkpt>
      <trkpt lat="45.99714" lon="1.35081">
        <ele>519.4</ele>
        <time>2023-11-19T09:19:55Z</time>
      </trkpt>
      <trkpt lat="45.99709" lon="1.35084">
        <ele>520</ele>
        <time>2023-11-19T09:19:58Z</time>
      </trkpt>
      <trkpt lat="45.99707" lon="1.35087">
        <ele>520.2</ele>
        <time>2023-11-19T09:20:00Z</time>
      </trkpt>
      <trkpt lat="45.99703" lon="1.35092">
        <ele>521</ele>
        <time>2023-11-19T09:20:05Z</time>
      </trkpt>
      <trkpt lat="45.99703" lon="1.35093">
        <ele>521.2</ele>
        <time>2023-11-19T09:20:06Z</time>
      </trkpt>
      <trkpt lat="45.99703" lon="1.35095">
        <ele>521.2</ele>
        <time>2023-11-19T09:20:07Z</time>
      </trkpt>
      <trkpt lat="45.99702" lon="1.35097">
        <ele>522.2</ele>
        <time>2023-11-19T09:20:10Z</time>
      </trkpt>
      <trkpt lat="45.99702" lon="1.35101">
        <ele>523</ele>
        <time>2023-11-19T09:20:14Z</time>
      </trkpt>
      <trkpt lat="45.99702" lon="1.35104">
        <ele>523.2</ele>
        <time>2023-11-19T09:20:16Z</time>
      </trkpt>
      <trkpt lat="45.99703" lon="1.35107">
        <ele>523.4</ele>
        <time>2023-11-19T09:20:18Z</time>
      </trkpt>
      <trkpt lat="45.99703" lon="1.35111">
        <ele>524</ele>
        <time>2023-11-19T09:20:21Z</time>
      </trkpt>
      <trkpt lat="45.99704" lon="1.35112">
        <ele>524.4</ele>
        <time>2023-11-19T09:20:22Z</time>
      </trkpt>
      <trkpt lat="45.99704" lon="1.35116">
        <ele>525</ele>
        <time>2023-11-19T09:20:25Z</time>
      </trkpt>
      <trkpt lat="45.99707" lon="1.35121">
        <ele>525</ele>
        <time>2023-11-19T09:20:28Z</time>
      </trkpt>
      <trkpt lat="45.99709" lon="1.35127">
        <ele>525.2</ele>
        <time>2023-11-19T09:20:31Z</time>
      </trkpt>
      <trkpt lat="45.9971" lon="1.3513">
        <ele>525.4</ele>
        <time>2023-11-19T09:20:33Z</time>
      </trkpt>
      <trkpt lat="45.99712" lon="1.35138">
        <ele>526.2</ele>
        <time>2023-11-19T09:20:37Z</time>
      </trkpt>
      <trkpt lat="45.99713" lon="1.35143">
        <ele>526.4</ele>
        <time>2023-11-19T09:20:40Z</time>
      </trkpt>
      <trkpt lat="45.99714" lon="1.35145">
        <ele>526.6</ele>
        <time>2023-11-19T09:20:41Z</time>
      </trkpt>
      <trkpt lat="45.99712" lon="1.35156">
        <ele>527.4</ele>
        <time>2023-11-19T09:20:45Z</time>
      </trkpt>
      <trkpt lat="45.9971" lon="1.35159">
        <ele>527.6</ele>
        <time>2023-11-19T09:20:47Z</time>
      </trkpt>
      <trkpt lat="45.99702" lon="1.35166">
        <ele>528</ele>
        <time>2023-11-19T09:20:52Z</time>
      </trkpt>
      <trkpt lat="45.99691" lon="1.35176">
        <ele>528.6</ele>
        <time>2023-11-19T09:20:59Z</time>
      </trkpt>
      <trkpt lat="45.99689" lon="1.35177">
        <ele>528.8</ele>
        <time>2023-11-19T09:21:00Z</time>
      </trkpt>
      <trkpt lat="45.99678" lon="1.35184">
        <ele>529.4</ele>
        <time>2023-11-19T09:21:07Z</time>
      </trkpt>
      <trkpt lat="45.99668" lon="1.3519">
        <ele>529.8</ele>
        <time>2023-11-19T09:21:11Z</time>
      </trkpt>
      <trkpt lat="45.99662" lon="1.35193">
        <ele>530.2</ele>
        <time>2023-11-19T09:21:14Z</time>
      </trkpt>
      <trkpt lat="45.99658" lon="1.35197">
        <ele>529.8</ele>
        <time>2023-11-19T09:21:16Z</time>
      </trkpt>
      <trkpt lat="45.99652" lon="1.35207">
        <ele>529.8</ele>
        <time>2023-11-19T09:21:19Z</time>
      </trkpt>
      <trkpt lat="45.99649" lon="1.3521">
        <ele>529.2</ele>
        <time>2023-11-19T09:21:20Z</time>
      </trkpt>
      <trkpt lat="45.99646" lon="1.35212">
        <ele>528.8</ele>
        <time>2023-11-19T09:21:21Z</time>
      </trkpt>
      <trkpt lat="45.9964" lon="1.35218">
        <ele>528.4</ele>
        <time>2023-11-19T09:21:23Z</time>
      </trkpt>
      <trkpt lat="45.99637" lon="1.35221">
        <ele>528.4</ele>
        <time>2023-11-19T09:21:24Z</time>
      </trkpt>
      <trkpt lat="45.99635" lon="1.35224">
        <ele>528.2</ele>
        <time>2023-11-19T09:21:25Z</time>
      </trkpt>
      <trkpt lat="45.99629" lon="1.35237">
        <ele>529</ele>
        <time>2023-11-19T09:21:28Z</time>
      </trkpt>
      <trkpt lat="45.99628" lon="1.35247">
        <ele>528.8</ele>
        <time>2023-11-19T09:21:30Z</time>
      </trkpt>
      <trkpt lat="45.99624" lon="1.35269">
        <ele>528.4</ele>
        <time>2023-11-19T09:21:36Z</time>
      </trkpt>
      <trkpt lat="45.99616" lon="1.35289">
        <ele>528.2</ele>
        <time>2023-11-19T09:21:43Z</time>
      </trkpt>
      <trkpt lat="45.99612" lon="1.35299">
        <ele>527.8</ele>
        <time>2023-11-19T09:21:46Z</time>
      </trkpt>
      <trkpt lat="45.99606" lon="1.3531">
        <ele>527.8</ele>
        <time>2023-11-19T09:21:48Z</time>
      </trkpt>
      <trkpt lat="45.9959" lon="1.35326">
        <ele>527.8</ele>
        <time>2023-11-19T09:21:53Z</time>
      </trkpt>
      <trkpt lat="45.99564" lon="1.35343">
        <ele>527.8</ele>
        <time>2023-11-19T09:22:00Z</time>
      </trkpt>
      <trkpt lat="45.99546" lon="1.35366">
        <ele>528</ele>
        <time>2023-11-19T09:22:06Z</time>
      </trkpt>
      <trkpt lat="45.99542" lon="1.35373">
        <ele>528.8</ele>
        <time>2023-11-19T09:22:08Z</time>
      </trkpt>
      <trkpt lat="45.99533" lon="1.3538">
        <ele>530.4</ele>
        <time>2023-11-19T09:22:11Z</time>
      </trkpt>
      <trkpt lat="45.99524" lon="1.35387">
        <ele>530.8</ele>
        <time>2023-11-19T09:22:14Z</time>
      </trkpt>
      <trkpt lat="45.99509" lon="1.35398">
        <ele>531.4</ele>
        <time>2023-11-19T09:22:19Z</time>
      </trkpt>
      <trkpt lat="45.99507" lon="1.354">
        <ele>531.6</ele>
        <time>2023-11-19T09:22:20Z</time>
      </trkpt>
      <trkpt lat="45.99495" lon="1.35418">
        <ele>533.4</ele>
        <time>2023-11-19T09:22:27Z</time>
      </trkpt>
      <trkpt lat="45.99493" lon="1.35422">
        <ele>534</ele>
        <time>2023-11-19T09:22:28Z</time>
      </trkpt>
      <trkpt lat="45.99488" lon="1.35431">
        <ele>534.6</ele>
        <time>2023-11-19T09:22:30Z</time>
      </trkpt>
      <trkpt lat="45.99473" lon="1.3545">
        <ele>534</ele>
        <time>2023-11-19T09:22:35Z</time>
      </trkpt>
      <trkpt lat="45.99471" lon="1.35454">
        <ele>533.4</ele>
        <time>2023-11-19T09:22:36Z</time>
      </trkpt>
      <trkpt lat="45.99465" lon="1.35459">
        <ele>532.2</ele>
        <time>2023-11-19T09:22:38Z</time>
      </trkpt>
      <trkpt lat="45.99454" lon="1.35475">
        <ele>531.2</ele>
        <time>2023-11-19T09:22:42Z</time>
      </trkpt>
      <trkpt lat="45.99452" lon="1.35479">
        <ele>531.2</ele>
        <time>2023-11-19T09:22:43Z</time>
      </trkpt>
      <trkpt lat="45.99431" lon="1.35502">
        <ele>531.2</ele>
        <time>2023-11-19T09:22:49Z</time>
      </trkpt>
      <trkpt lat="45.99413" lon="1.35509">
        <ele>532</ele>
        <time>2023-11-19T09:22:54Z</time>
      </trkpt>
      <trkpt lat="45.99406" lon="1.3551">
        <ele>532.2</ele>
        <time>2023-11-19T09:22:56Z</time>
      </trkpt>
      <trkpt lat="45.99394" lon="1.35509">
        <ele>533.4</ele>
        <time>2023-11-19T09:23:00Z</time>
      </trkpt>
      <trkpt lat="45.99389" lon="1.35509">
        <ele>533.6</ele>
        <time>2023-11-19T09:23:02Z</time>
      </trkpt>
      <trkpt lat="45.99378" lon="1.35509">
        <ele>534.4</ele>
        <time>2023-11-19T09:23:06Z</time>
      </trkpt>
      <trkpt lat="45.99367" lon="1.35509">
        <ele>534.8</ele>
        <time>2023-11-19T09:23:10Z</time>
      </trkpt>
      <trkpt lat="45.99346" lon="1.35508">
        <ele>535.2</ele>
        <time>2023-11-19T09:23:17Z</time>
      </trkpt>
      <trkpt lat="45.9932" lon="1.35505">
        <ele>535</ele>
        <time>2023-11-19T09:23:23Z</time>
      </trkpt>
      <trkpt lat="45.99315" lon="1.35506">
        <ele>534.8</ele>
        <time>2023-11-19T09:23:24Z</time>
      </trkpt>
      <trkpt lat="45.99306" lon="1.3551">
        <ele>534.4</ele>
        <time>2023-11-19T09:23:26Z</time>
      </trkpt>
      <trkpt lat="45.99302" lon="1.35511">
        <ele>534.2</ele>
        <time>2023-11-19T09:23:27Z</time>
      </trkpt>
      <trkpt lat="45.99295" lon="1.35517">
        <ele>534.4</ele>
        <time>2023-11-19T09:23:29Z</time>
      </trkpt>
      <trkpt lat="45.99285" lon="1.35532">
        <ele>534.2</ele>
        <time>2023-11-19T09:23:33Z</time>
      </trkpt>
      <trkpt lat="45.99277" lon="1.35547">
        <ele>533.4</ele>
        <time>2023-11-19T09:23:36Z</time>
      </trkpt>
      <trkpt lat="45.99272" lon="1.35557">
        <ele>532.6</ele>
        <time>2023-11-19T09:23:38Z</time>
      </trkpt>
      <trkpt lat="45.9927" lon="1.35563">
        <ele>532.2</ele>
        <time>2023-11-19T09:23:39Z</time>
      </trkpt>
      <trkpt lat="45.99267" lon="1.35578">
        <ele>531.8</ele>
        <time>2023-11-19T09:23:41Z</time>
      </trkpt>
      <trkpt lat="45.99262" lon="1.35593">
        <ele>531.8</ele>
        <time>2023-11-19T09:23:43Z</time>
      </trkpt>
      <trkpt lat="45.99253" lon="1.35617">
        <ele>531</ele>
        <time>2023-11-19T09:23:47Z</time>
      </trkpt>
      <trkpt lat="45.9925" lon="1.35623">
        <ele>531</ele>
        <time>2023-11-19T09:23:48Z</time>
      </trkpt>
      <trkpt lat="45.99242" lon="1.35635">
        <ele>530.6</ele>
        <time>2023-11-19T09:23:50Z</time>
      </trkpt>
      <trkpt lat="45.99234" lon="1.35644">
        <ele>530</ele>
        <time>2023-11-19T09:23:52Z</time>
      </trkpt>
      <trkpt lat="45.99229" lon="1.35648">
        <ele>529.6</ele>
        <time>2023-11-19T09:23:53Z</time>
      </trkpt>
      <trkpt lat="45.99219" lon="1.35659">
        <ele>529</ele>
        <time>2023-11-19T09:23:57Z</time>
      </trkpt>
      <trkpt lat="45.99217" lon="1.35664">
        <ele>528.8</ele>
        <time>2023-11-19T09:23:58Z</time>
      </trkpt>
      <trkpt lat="45.99215" lon="1.35688">
        <ele>529.4</ele>
        <time>2023-11-19T09:24:03Z</time>
      </trkpt>
      <trkpt lat="45.99215" lon="1.35699">
        <ele>530</ele>
        <time>2023-11-19T09:24:05Z</time>
      </trkpt>
      <trkpt lat="45.99215" lon="1.35726">
        <ele>531.2</ele>
        <time>2023-11-19T09:24:10Z</time>
      </trkpt>
      <trkpt lat="45.99217" lon="1.35757">
        <ele>532.2</ele>
        <time>2023-11-19T09:24:16Z</time>
      </trkpt>
      <trkpt lat="45.99218" lon="1.35762">
        <ele>532.4</ele>
        <time>2023-11-19T09:24:17Z</time>
      </trkpt>
      <trkpt lat="45.9922" lon="1.35784">
        <ele>533.4</ele>
        <time>2023-11-19T09:24:21Z</time>
      </trkpt>
      <trkpt lat="45.99222" lon="1.35806">
        <ele>534.4</ele>
        <time>2023-11-19T09:24:25Z</time>
      </trkpt>
      <trkpt lat="45.99224" lon="1.35816">
        <ele>534.8</ele>
        <time>2023-11-19T09:24:27Z</time>
      </trkpt>
      <trkpt lat="45.99228" lon="1.35846">
        <ele>535.4</ele>
        <time>2023-11-19T09:24:33Z</time>
      </trkpt>
      <trkpt lat="45.9923" lon="1.35856">
        <ele>535.8</ele>
        <time>2023-11-19T09:24:35Z</time>
      </trkpt>
      <trkpt lat="45.99229" lon="1.35887">
        <ele>536.8</ele>
        <time>2023-11-19T09:24:41Z</time>
      </trkpt>
      <trkpt lat="45.99228" lon="1.35912">
        <ele>537.2</ele>
        <time>2023-11-19T09:24:47Z</time>
      </trkpt>
      <trkpt lat="45.99227" lon="1.35942">
        <ele>538</ele>
        <time>2023-11-19T09:24:54Z</time>
      </trkpt>
      <trkpt lat="45.99227" lon="1.35946">
        <ele>538.2</ele>
        <time>2023-11-19T09:24:55Z</time>
      </trkpt>
      <trkpt lat="45.99228" lon="1.3596">
        <ele>539</ele>
        <time>2023-11-19T09:24:59Z</time>
      </trkpt>
      <trkpt lat="45.9923" lon="1.35971">
        <ele>540.2</ele>
        <time>2023-11-19T09:25:03Z</time>
      </trkpt>
      <trkpt lat="45.99234" lon="1.35985">
        <ele>541.4</ele>
        <time>2023-11-19T09:25:09Z</time>
      </trkpt>
      <trkpt lat="45.99233" lon="1.35996">
        <ele>542.4</ele>
        <time>2023-11-19T09:25:15Z</time>
      </trkpt>
      <trkpt lat="45.99233" lon="1.35998">
        <ele>542.8</ele>
        <time>2023-11-19T09:25:16Z</time>
      </trkpt>
      <trkpt lat="45.99235" lon="1.36006">
        <ele>543.4</ele>
        <time>2023-11-19T09:25:21Z</time>
      </trkpt>
      <trkpt lat="45.99234" lon="1.36014">
        <ele>544.6</ele>
        <time>2023-11-19T09:25:25Z</time>
      </trkpt>
      <trkpt lat="45.99236" lon="1.36029">
        <ele>545.4</ele>
        <time>2023-11-19T09:25:31Z</time>
      </trkpt>
      <trkpt lat="45.99237" lon="1.36031">
        <ele>545.6</ele>
        <time>2023-11-19T09:25:32Z</time>
      </trkpt>
      <trkpt lat="45.99238" lon="1.36049">
        <ele>546.6</ele>
        <time>2023-11-19T09:25:39Z</time>
      </trkpt>
      <trkpt lat="45.99238" lon="1.36052">
        <ele>546.8</ele>
        <time>2023-11-19T09:25:40Z</time>
      </trkpt>
      <trkpt lat="45.9924" lon="1.36068">
        <ele>547.6</ele>
        <time>2023-11-19T09:25:46Z</time>
      </trkpt>
      <trkpt lat="45.9924" lon="1.36075">
        <ele>547.8</ele>
        <time>2023-11-19T09:25:48Z</time>
      </trkpt>
      <trkpt lat="45.99241" lon="1.36091">
        <ele>548.8</ele>
        <time>2023-11-19T09:25:54Z</time>
      </trkpt>
      <trkpt lat="45.99241" lon="1.36094">
        <ele>548.8</ele>
        <time>2023-11-19T09:25:55Z</time>
      </trkpt>
      <trkpt lat="45.99241" lon="1.36107">
        <ele>549.6</ele>
        <time>2023-11-19T09:26:00Z</time>
      </trkpt>
      <trkpt lat="45.99242" lon="1.36113">
        <ele>550</ele>
        <time>2023-11-19T09:26:02Z</time>
      </trkpt>
      <trkpt lat="45.99247" lon="1.36121">
        <ele>550.4</ele>
        <time>2023-11-19T09:26:05Z</time>
      </trkpt>
      <trkpt lat="45.99248" lon="1.36126">
        <ele>550.8</ele>
        <time>2023-11-19T09:26:07Z</time>
      </trkpt>
      <trkpt lat="45.99249" lon="1.36129">
        <ele>551</ele>
        <time>2023-11-19T09:26:08Z</time>
      </trkpt>
      <trkpt lat="45.99254" lon="1.36148">
        <ele>551.6</ele>
        <time>2023-11-19T09:26:15Z</time>
      </trkpt>
      <trkpt lat="45.99259" lon="1.36167">
        <ele>552</ele>
        <time>2023-11-19T09:26:21Z</time>
      </trkpt>
      <trkpt lat="45.99261" lon="1.36171">
        <ele>552</ele>
        <time>2023-11-19T09:26:22Z</time>
      </trkpt>
      <trkpt lat="45.99264" lon="1.36196">
        <ele>552.2</ele>
        <time>2023-11-19T09:26:30Z</time>
      </trkpt>
      <trkpt lat="45.99263" lon="1.36215">
        <ele>551.6</ele>
        <time>2023-11-19T09:26:36Z</time>
      </trkpt>
      <trkpt lat="45.9926" lon="1.36226">
        <ele>551</ele>
        <time>2023-11-19T09:26:39Z</time>
      </trkpt>
      <trkpt lat="45.99258" lon="1.36236">
        <ele>550</ele>
        <time>2023-11-19T09:26:41Z</time>
      </trkpt>
      <trkpt lat="45.99258" lon="1.36241">
        <ele>549.8</ele>
        <time>2023-11-19T09:26:42Z</time>
      </trkpt>
      <trkpt lat="45.99258" lon="1.36263">
        <ele>549.6</ele>
        <time>2023-11-19T09:26:47Z</time>
      </trkpt>
      <trkpt lat="45.99259" lon="1.36271">
        <ele>549.4</ele>
        <time>2023-11-19T09:26:49Z</time>
      </trkpt>
      <trkpt lat="45.9925" lon="1.36296">
        <ele>548.6</ele>
        <time>2023-11-19T09:26:53Z</time>
      </trkpt>
      <trkpt lat="45.99247" lon="1.36309">
        <ele>548.2</ele>
        <time>2023-11-19T09:26:56Z</time>
      </trkpt>
      <trkpt lat="45.99243" lon="1.36328">
        <ele>548</ele>
        <time>2023-11-19T09:27:00Z</time>
      </trkpt>
      <trkpt lat="45.99229" lon="1.36355">
        <ele>547.8</ele>
        <time>2023-11-19T09:27:06Z</time>
      </trkpt>
      <trkpt lat="45.99223" lon="1.36371">
        <ele>547.6</ele>
        <time>2023-11-19T09:27:11Z</time>
      </trkpt>
      <trkpt lat="45.99222" lon="1.36374">
        <ele>547.8</ele>
        <time>2023-11-19T09:27:12Z</time>
      </trkpt>
      <trkpt lat="45.99216" lon="1.36385">
        <ele>546</ele>
        <time>2023-11-19T09:27:16Z</time>
      </trkpt>
      <trkpt lat="45.99212" lon="1.3639">
        <ele>545.4</ele>
        <time>2023-11-19T09:27:18Z</time>
      </trkpt>
      <trkpt lat="45.99207" lon="1.36395">
        <ele>545</ele>
        <time>2023-11-19T09:27:20Z</time>
      </trkpt>
      <trkpt lat="45.99198" lon="1.364">
        <ele>545</ele>
        <time>2023-11-19T09:27:23Z</time>
      </trkpt>
      <trkpt lat="45.99186" lon="1.36408">
        <ele>545</ele>
        <time>2023-11-19T09:27:27Z</time>
      </trkpt>
      <trkpt lat="45.99176" lon="1.3642">
        <ele>544</ele>
        <time>2023-11-19T09:27:31Z</time>
      </trkpt>
      <trkpt lat="45.99169" lon="1.36429">
        <ele>543.8</ele>
        <time>2023-11-19T09:27:34Z</time>
      </trkpt>
      <trkpt lat="45.99156" lon="1.36447">
        <ele>543.4</ele>
        <time>2023-11-19T09:27:40Z</time>
      </trkpt>
      <trkpt lat="45.99151" lon="1.36451">
        <ele>543.2</ele>
        <time>2023-11-19T09:27:42Z</time>
      </trkpt>
      <trkpt lat="45.99145" lon="1.36462">
        <ele>543.2</ele>
        <time>2023-11-19T09:27:45Z</time>
      </trkpt>
      <trkpt lat="45.99143" lon="1.36463">
        <ele>543.2</ele>
        <time>2023-11-19T09:27:46Z</time>
      </trkpt>
      <trkpt lat="45.99138" lon="1.36466">
        <ele>543.4</ele>
        <time>2023-11-19T09:27:48Z</time>
      </trkpt>
      <trkpt lat="45.9913" lon="1.36473">
        <ele>545.2</ele>
        <time>2023-11-19T09:27:51Z</time>
      </trkpt>
      <trkpt lat="45.99126" lon="1.36477">
        <ele>545.8</ele>
        <time>2023-11-19T09:27:53Z</time>
      </trkpt>
      <trkpt lat="45.9912" lon="1.36481">
        <ele>546.2</ele>
        <time>2023-11-19T09:27:57Z</time>
      </trkpt>
      <trkpt lat="45.99116" lon="1.36484">
        <ele>546.4</ele>
        <time>2023-11-19T09:27:59Z</time>
      </trkpt>
      <trkpt lat="45.99114" lon="1.36485">
        <ele>546.6</ele>
        <time>2023-11-19T09:28:00Z</time>
      </trkpt>
      <trkpt lat="45.99108" lon="1.36489">
        <ele>547.2</ele>
        <time>2023-11-19T09:28:03Z</time>
      </trkpt>
      <trkpt lat="45.99102" lon="1.36493">
        <ele>548.2</ele>
        <time>2023-11-19T09:28:09Z</time>
      </trkpt>
      <trkpt lat="45.99099" lon="1.36493">
        <ele>549.2</ele>
        <time>2023-11-19T09:28:15Z</time>
      </trkpt>
      <trkpt lat="45.99096" lon="1.36494">
        <ele>549.8</ele>
        <time>2023-11-19T09:28:18Z</time>
      </trkpt>
      <trkpt lat="45.99094" lon="1.36495">
        <ele>550.4</ele>
        <time>2023-11-19T09:28:21Z</time>
      </trkpt>
      <trkpt lat="45.9909" lon="1.36496">
        <ele>551.6</ele>
        <time>2023-11-19T09:28:25Z</time>
      </trkpt>
      <trkpt lat="45.99088" lon="1.36497">
        <ele>551.8</ele>
        <time>2023-11-19T09:28:28Z</time>
      </trkpt>
      <trkpt lat="45.99083" lon="1.36499">
        <ele>552.6</ele>
        <time>2023-11-19T09:28:36Z</time>
      </trkpt>
      <trkpt lat="45.99082" lon="1.365">
        <ele>552.4</ele>
        <time>2023-11-19T09:28:48Z</time>
      </trkpt>
      <trkpt lat="45.9908" lon="1.36502">
        <ele>552.4</ele>
        <time>2023-11-19T09:29:03Z</time>
      </trkpt>
      <trkpt lat="45.99079" lon="1.36508">
        <ele>552.2</ele>
        <time>2023-11-19T09:29:14Z</time>
      </trkpt>
      <trkpt lat="45.99078" lon="1.36511">
        <ele>552</ele>
        <time>2023-11-19T09:29:17Z</time>
      </trkpt>
      <trkpt lat="45.99077" lon="1.36514">
        <ele>551.4</ele>
        <time>2023-11-19T09:29:19Z</time>
      </trkpt>
      <trkpt lat="45.99077" lon="1.36516">
        <ele>551</ele>
        <time>2023-11-19T09:29:21Z</time>
      </trkpt>
      <trkpt lat="45.99077" lon="1.36519">
        <ele>550.6</ele>
        <time>2023-11-19T09:29:23Z</time>
      </trkpt>
      <trkpt lat="45.99078" lon="1.36521">
        <ele>550.2</ele>
        <time>2023-11-19T09:29:24Z</time>
      </trkpt>
      <trkpt lat="45.99076" lon="1.36529">
        <ele>549.2</ele>
        <time>2023-11-19T09:29:27Z</time>
      </trkpt>
      <trkpt lat="45.99069" lon="1.36548">
        <ele>548.6</ele>
        <time>2023-11-19T09:29:34Z</time>
      </trkpt>
      <trkpt lat="45.99067" lon="1.36557">
        <ele>548.8</ele>
        <time>2023-11-19T09:29:38Z</time>
      </trkpt>
      <trkpt lat="45.99067" lon="1.36562">
        <ele>548.8</ele>
        <time>2023-11-19T09:29:40Z</time>
      </trkpt>
      <trkpt lat="45.99067" lon="1.36566">
        <ele>548.2</ele>
        <time>2023-11-19T09:29:42Z</time>
      </trkpt>
      <trkpt lat="45.99067" lon="1.36572">
        <ele>546.8</ele>
        <time>2023-11-19T09:29:45Z</time>
      </trkpt>
      <trkpt lat="45.99068" lon="1.3658">
        <ele>545.4</ele>
        <time>2023-11-19T09:29:48Z</time>
      </trkpt>
      <trkpt lat="45.99069" lon="1.36587">
        <ele>544.2</ele>
        <time>2023-11-19T09:29:51Z</time>
      </trkpt>
      <trkpt lat="45.99067" lon="1.36595">
        <ele>542.6</ele>
        <time>2023-11-19T09:29:54Z</time>
      </trkpt>
      <trkpt lat="45.99067" lon="1.36597">
        <ele>542.2</ele>
        <time>2023-11-19T09:29:55Z</time>
      </trkpt>
      <trkpt lat="45.99066" lon="1.36603">
        <ele>541.6</ele>
        <time>2023-11-19T09:30:00Z</time>
      </trkpt>
      <trkpt lat="45.9907" lon="1.36612">
        <ele>541.2</ele>
        <time>2023-11-19T09:30:03Z</time>
      </trkpt>
      <trkpt lat="45.99071" lon="1.36622">
        <ele>540.2</ele>
        <time>2023-11-19T09:30:05Z</time>
      </trkpt>
      <trkpt lat="45.99069" lon="1.36628">
        <ele>539.8</ele>
        <time>2023-11-19T09:30:07Z</time>
      </trkpt>
      <trkpt lat="45.99055" lon="1.36644">
        <ele>540.4</ele>
        <time>2023-11-19T09:30:13Z</time>
      </trkpt>
      <trkpt lat="45.99046" lon="1.36649">
        <ele>541.2</ele>
        <time>2023-11-19T09:30:17Z</time>
      </trkpt>
      <trkpt lat="45.99041" lon="1.36651">
        <ele>541.4</ele>
        <time>2023-11-19T09:30:19Z</time>
      </trkpt>
      <trkpt lat="45.99026" lon="1.3665">
        <ele>541.8</ele>
        <time>2023-11-19T09:30:25Z</time>
      </trkpt>
      <trkpt lat="45.99018" lon="1.36649">
        <ele>542.4</ele>
        <time>2023-11-19T09:30:28Z</time>
      </trkpt>
      <trkpt lat="45.99012" lon="1.36647">
        <ele>542.8</ele>
        <time>2023-11-19T09:30:31Z</time>
      </trkpt>
      <trkpt lat="45.99002" lon="1.36645">
        <ele>543.4</ele>
        <time>2023-11-19T09:30:35Z</time>
      </trkpt>
      <trkpt lat="45.98994" lon="1.36642">
        <ele>543.8</ele>
        <time>2023-11-19T09:30:38Z</time>
      </trkpt>
      <trkpt lat="45.98983" lon="1.36635">
        <ele>544.6</ele>
        <time>2023-11-19T09:30:43Z</time>
      </trkpt>
      <trkpt lat="45.98978" lon="1.36631">
        <ele>545</ele>
        <time>2023-11-19T09:30:45Z</time>
      </trkpt>
      <trkpt lat="45.98966" lon="1.36621">
        <ele>545.8</ele>
        <time>2023-11-19T09:30:50Z</time>
      </trkpt>
      <trkpt lat="45.98964" lon="1.36619">
        <ele>546</ele>
        <time>2023-11-19T09:30:51Z</time>
      </trkpt>
      <trkpt lat="45.9895" lon="1.36612">
        <ele>545.4</ele>
        <time>2023-11-19T09:30:58Z</time>
      </trkpt>
      <trkpt lat="45.98941" lon="1.36608">
        <ele>544.8</ele>
        <time>2023-11-19T09:31:02Z</time>
      </trkpt>
      <trkpt lat="45.98935" lon="1.36605">
        <ele>544.8</ele>
        <time>2023-11-19T09:31:04Z</time>
      </trkpt>
      <trkpt lat="45.98912" lon="1.36598">
        <ele>545</ele>
        <time>2023-11-19T09:31:10Z</time>
      </trkpt>
      <trkpt lat="45.98889" lon="1.36596">
        <ele>544.8</ele>
        <time>2023-11-19T09:31:17Z</time>
      </trkpt>
      <trkpt lat="45.98888" lon="1.36597">
        <ele>544.4</ele>
        <time>2023-11-19T09:31:18Z</time>
      </trkpt>
      <trkpt lat="45.98889" lon="1.36599">
        <ele>543.6</ele>
        <time>2023-11-19T09:31:21Z</time>
      </trkpt>
      <trkpt lat="45.98891" lon="1.36601">
        <ele>543</ele>
        <time>2023-11-19T09:31:23Z</time>
      </trkpt>
      <trkpt lat="45.98896" lon="1.36602">
        <ele>542.6</ele>
        <time>2023-11-19T09:31:26Z</time>
      </trkpt>
      <trkpt lat="45.98899" lon="1.36602">
        <ele>542.6</ele>
        <time>2023-11-19T09:31:27Z</time>
      </trkpt>
      <trkpt lat="45.98914" lon="1.36605">
        <ele>542</ele>
        <time>2023-11-19T09:31:34Z</time>
      </trkpt>
      <trkpt lat="45.98915" lon="1.36606">
        <ele>540.4</ele>
        <time>2023-11-19T09:31:35Z</time>
      </trkpt>
      <trkpt lat="45.98918" lon="1.36609">
        <ele>539.4</ele>
        <time>2023-11-19T09:31:37Z</time>
      </trkpt>
      <trkpt lat="45.98925" lon="1.36618">
        <ele>538.6</ele>
        <time>2023-11-19T09:31:41Z</time>
      </trkpt>
      <trkpt lat="45.98934" lon="1.36634">
        <ele>539.6</ele>
        <time>2023-11-19T09:31:46Z</time>
      </trkpt>
      <trkpt lat="45.98936" lon="1.36637">
        <ele>539.4</ele>
        <time>2023-11-19T09:31:47Z</time>
      </trkpt>
      <trkpt lat="45.98942" lon="1.36643">
        <ele>537.8</ele>
        <time>2023-11-19T09:31:50Z</time>
      </trkpt>
      <trkpt lat="45.98949" lon="1.3665">
        <ele>537.4</ele>
        <time>2023-11-19T09:31:53Z</time>
      </trkpt>
      <trkpt lat="45.98954" lon="1.36655">
        <ele>536.6</ele>
        <time>2023-11-19T09:31:55Z</time>
      </trkpt>
      <trkpt lat="45.98966" lon="1.36662">
        <ele>536</ele>
        <time>2023-11-19T09:31:58Z</time>
      </trkpt>
      <trkpt lat="45.98971" lon="1.36668">
        <ele>534.8</ele>
        <time>2023-11-19T09:32:00Z</time>
      </trkpt>
      <trkpt lat="45.98978" lon="1.36679">
        <ele>533.8</ele>
        <time>2023-11-19T09:32:04Z</time>
      </trkpt>
      <trkpt lat="45.98983" lon="1.36686">
        <ele>533.6</ele>
        <time>2023-11-19T09:32:05Z</time>
      </trkpt>
      <trkpt lat="45.98992" lon="1.36698">
        <ele>534</ele>
        <time>2023-11-19T09:32:09Z</time>
      </trkpt>
      <trkpt lat="45.98995" lon="1.36701">
        <ele>534</ele>
        <time>2023-11-19T09:32:10Z</time>
      </trkpt>
      <trkpt lat="45.99008" lon="1.36711">
        <ele>533</ele>
        <time>2023-11-19T09:32:13Z</time>
      </trkpt>
      <trkpt lat="45.99012" lon="1.36713">
        <ele>532</ele>
        <time>2023-11-19T09:32:14Z</time>
      </trkpt>
      <trkpt lat="45.99016" lon="1.36715">
        <ele>531.6</ele>
        <time>2023-11-19T09:32:15Z</time>
      </trkpt>
      <trkpt lat="45.99027" lon="1.3672">
        <ele>531</ele>
        <time>2023-11-19T09:32:18Z</time>
      </trkpt>
      <trkpt lat="45.99031" lon="1.36721">
        <ele>529.8</ele>
        <time>2023-11-19T09:32:19Z</time>
      </trkpt>
      <trkpt lat="45.99037" lon="1.36722">
        <ele>528.6</ele>
        <time>2023-11-19T09:32:21Z</time>
      </trkpt>
      <trkpt lat="45.99043" lon="1.3672">
        <ele>527.6</ele>
        <time>2023-11-19T09:32:23Z</time>
      </trkpt>
      <trkpt lat="45.99045" lon="1.36719">
        <ele>527.4</ele>
        <time>2023-11-19T09:32:24Z</time>
      </trkpt>
      <trkpt lat="45.99057" lon="1.3671">
        <ele>526.8</ele>
        <time>2023-11-19T09:32:28Z</time>
      </trkpt>
      <trkpt lat="45.9906" lon="1.36709">
        <ele>526.4</ele>
        <time>2023-11-19T09:32:29Z</time>
      </trkpt>
      <trkpt lat="45.99063" lon="1.36709">
        <ele>526</ele>
        <time>2023-11-19T09:32:30Z</time>
      </trkpt>
      <trkpt lat="45.99071" lon="1.36714">
        <ele>526</ele>
        <time>2023-11-19T09:32:33Z</time>
      </trkpt>
      <trkpt lat="45.9908" lon="1.3672">
        <ele>525</ele>
        <time>2023-11-19T09:32:35Z</time>
      </trkpt>
      <trkpt lat="45.99095" lon="1.36727">
        <ele>523.8</ele>
        <time>2023-11-19T09:32:38Z</time>
      </trkpt>
      <trkpt lat="45.99098" lon="1.36729">
        <ele>523.4</ele>
        <time>2023-11-19T09:32:39Z</time>
      </trkpt>
      <trkpt lat="45.99115" lon="1.36742">
        <ele>523</ele>
        <time>2023-11-19T09:32:45Z</time>
      </trkpt>
      <trkpt lat="45.99129" lon="1.36757">
        <ele>522.4</ele>
        <time>2023-11-19T09:32:51Z</time>
      </trkpt>
      <trkpt lat="45.99134" lon="1.36761">
        <ele>521.6</ele>
        <time>2023-11-19T09:32:53Z</time>
      </trkpt>
      <trkpt lat="45.99153" lon="1.36774">
        <ele>521.4</ele>
        <time>2023-11-19T09:32:59Z</time>
      </trkpt>
      <trkpt lat="45.99156" lon="1.36777">
        <ele>521.4</ele>
        <time>2023-11-19T09:33:00Z</time>
      </trkpt>
      <trkpt lat="45.99158" lon="1.3678">
        <ele>520.6</ele>
        <time>2023-11-19T09:33:01Z</time>
      </trkpt>
      <trkpt lat="45.99161" lon="1.36783">
        <ele>520.2</ele>
        <time>2023-11-19T09:33:02Z</time>
      </trkpt>
      <trkpt lat="45.99164" lon="1.36789">
        <ele>519.4</ele>
        <time>2023-11-19T09:33:04Z</time>
      </trkpt>
      <trkpt lat="45.99167" lon="1.36791">
        <ele>519</ele>
        <time>2023-11-19T09:33:05Z</time>
      </trkpt>
      <trkpt lat="45.99177" lon="1.36806">
        <ele>518.6</ele>
        <time>2023-11-19T09:33:11Z</time>
      </trkpt>
      <trkpt lat="45.99193" lon="1.36823">
        <ele>518.8</ele>
        <time>2023-11-19T09:33:17Z</time>
      </trkpt>
      <trkpt lat="45.99215" lon="1.36839">
        <ele>518.6</ele>
        <time>2023-11-19T09:33:23Z</time>
      </trkpt>
      <trkpt lat="45.99224" lon="1.36853">
        <ele>518.6</ele>
        <time>2023-11-19T09:33:27Z</time>
      </trkpt>
      <trkpt lat="45.99227" lon="1.36859">
        <ele>519</ele>
        <time>2023-11-19T09:33:29Z</time>
      </trkpt>
      <trkpt lat="45.9923" lon="1.36863">
        <ele>519.6</ele>
        <time>2023-11-19T09:33:30Z</time>
      </trkpt>
      <trkpt lat="45.99233" lon="1.36867">
        <ele>520</ele>
        <time>2023-11-19T09:33:31Z</time>
      </trkpt>
      <trkpt lat="45.99249" lon="1.36883">
        <ele>520.4</ele>
        <time>2023-11-19T09:33:37Z</time>
      </trkpt>
      <trkpt lat="45.9926" lon="1.36906">
        <ele>520.6</ele>
        <time>2023-11-19T09:33:44Z</time>
      </trkpt>
      <trkpt lat="45.99266" lon="1.36915">
        <ele>520.4</ele>
        <time>2023-11-19T09:33:46Z</time>
      </trkpt>
      <trkpt lat="45.99272" lon="1.36925">
        <ele>520.2</ele>
        <time>2023-11-19T09:33:48Z</time>
      </trkpt>
      <trkpt lat="45.99276" lon="1.36929">
        <ele>520</ele>
        <time>2023-11-19T09:33:49Z</time>
      </trkpt>
      <trkpt lat="45.9929" lon="1.36947">
        <ele>519</ele>
        <time>2023-11-19T09:33:55Z</time>
      </trkpt>
      <trkpt lat="45.99293" lon="1.36951">
        <ele>519</ele>
        <time>2023-11-19T09:33:56Z</time>
      </trkpt>
      <trkpt lat="45.99322" lon="1.36974">
        <ele>518.4</ele>
        <time>2023-11-19T09:34:02Z</time>
      </trkpt>
      <trkpt lat="45.99341" lon="1.36988">
        <ele>517.8</ele>
        <time>2023-11-19T09:34:06Z</time>
      </trkpt>
      <trkpt lat="45.9935" lon="1.36995">
        <ele>517.6</ele>
        <time>2023-11-19T09:34:08Z</time>
      </trkpt>
      <trkpt lat="45.9937" lon="1.37015">
        <ele>517.6</ele>
        <time>2023-11-19T09:34:14Z</time>
      </trkpt>
      <trkpt lat="45.99383" lon="1.37025">
        <ele>518</ele>
        <time>2023-11-19T09:34:20Z</time>
      </trkpt>
      <trkpt lat="45.99402" lon="1.37028">
        <ele>517.6</ele>
        <time>2023-11-19T09:34:25Z</time>
      </trkpt>
      <trkpt lat="45.9941" lon="1.37032">
        <ele>518.6</ele>
        <time>2023-11-19T09:34:30Z</time>
      </trkpt>
      <trkpt lat="45.99417" lon="1.37033">
        <ele>518.8</ele>
        <time>2023-11-19T09:34:33Z</time>
      </trkpt>
      <trkpt lat="45.99426" lon="1.37039">
        <ele>520</ele>
        <time>2023-11-19T09:34:38Z</time>
      </trkpt>
      <trkpt lat="45.99443" lon="1.37048">
        <ele>520.2</ele>
        <time>2023-11-19T09:34:47Z</time>
      </trkpt>
      <trkpt lat="45.99458" lon="1.37054">
        <ele>520.8</ele>
        <time>2023-11-19T09:34:55Z</time>
      </trkpt>
      <trkpt lat="45.9946" lon="1.37056">
        <ele>521</ele>
        <time>2023-11-19T09:34:57Z</time>
      </trkpt>
      <trkpt lat="45.99465" lon="1.37057">
        <ele>521.6</ele>
        <time>2023-11-19T09:34:59Z</time>
      </trkpt>
      <trkpt lat="45.99469" lon="1.37058">
        <ele>522</ele>
        <time>2023-11-19T09:35:01Z</time>
      </trkpt>
      <trkpt lat="45.99472" lon="1.3706">
        <ele>522.2</ele>
        <time>2023-11-19T09:35:03Z</time>
      </trkpt>
      <trkpt lat="45.99475" lon="1.37064">
        <ele>522.2</ele>
        <time>2023-11-19T09:35:06Z</time>
      </trkpt>
      <trkpt lat="45.99479" lon="1.37068">
        <ele>522.2</ele>
        <time>2023-11-19T09:35:08Z</time>
      </trkpt>
      <trkpt lat="45.99489" lon="1.37085">
        <ele>522.8</ele>
        <time>2023-11-19T09:35:16Z</time>
      </trkpt>
      <trkpt lat="45.99503" lon="1.37106">
        <ele>523</ele>
        <time>2023-11-19T09:35:25Z</time>
      </trkpt>
      <trkpt lat="45.99504" lon="1.37108">
        <ele>523.6</ele>
        <time>2023-11-19T09:35:26Z</time>
      </trkpt>
      <trkpt lat="45.99507" lon="1.37116">
        <ele>524</ele>
        <time>2023-11-19T09:35:29Z</time>
      </trkpt>
      <trkpt lat="45.99511" lon="1.37124">
        <ele>524.2</ele>
        <time>2023-11-19T09:35:32Z</time>
      </trkpt>
      <trkpt lat="45.99523" lon="1.37139">
        <ele>524.6</ele>
        <time>2023-11-19T09:35:38Z</time>
      </trkpt>
      <trkpt lat="45.99538" lon="1.37156">
        <ele>525.6</ele>
        <time>2023-11-19T09:35:47Z</time>
      </trkpt>
      <trkpt lat="45.9954" lon="1.37158">
        <ele>525.8</ele>
        <time>2023-11-19T09:35:48Z</time>
      </trkpt>
      <trkpt lat="45.99554" lon="1.3717">
        <ele>526.8</ele>
        <time>2023-11-19T09:35:54Z</time>
      </trkpt>
      <trkpt lat="45.99559" lon="1.37178">
        <ele>526.8</ele>
        <time>2023-11-19T09:35:57Z</time>
      </trkpt>
      <trkpt lat="45.99575" lon="1.37195">
        <ele>525.8</ele>
        <time>2023-11-19T09:36:03Z</time>
      </trkpt>
      <trkpt lat="45.99582" lon="1.37207">
        <ele>524.8</ele>
        <time>2023-11-19T09:36:07Z</time>
      </trkpt>
      <trkpt lat="45.99588" lon="1.37216">
        <ele>524.8</ele>
        <time>2023-11-19T09:36:10Z</time>
      </trkpt>
      <trkpt lat="45.99612" lon="1.37236">
        <ele>524</ele>
        <time>2023-11-19T09:36:17Z</time>
      </trkpt>
      <trkpt lat="45.99629" lon="1.37247">
        <ele>524</ele>
        <time>2023-11-19T09:36:22Z</time>
      </trkpt>
      <trkpt lat="45.99643" lon="1.37257">
        <ele>525.2</ele>
        <time>2023-11-19T09:36:27Z</time>
      </trkpt>
      <trkpt lat="45.99643" lon="1.37259">
        <ele>525.4</ele>
        <time>2023-11-19T09:36:28Z</time>
      </trkpt>
      <trkpt lat="45.99648" lon="1.37265">
        <ele>525.4</ele>
        <time>2023-11-19T09:36:30Z</time>
      </trkpt>
      <trkpt lat="45.99658" lon="1.37279">
        <ele>525</ele>
        <time>2023-11-19T09:36:35Z</time>
      </trkpt>
      <trkpt lat="45.99678" lon="1.37293">
        <ele>525.8</ele>
        <time>2023-11-19T09:36:41Z</time>
      </trkpt>
      <trkpt lat="45.99684" lon="1.37299">
        <ele>526.8</ele>
        <time>2023-11-19T09:36:44Z</time>
      </trkpt>
      <trkpt lat="45.99686" lon="1.37303">
        <ele>527.2</ele>
        <time>2023-11-19T09:36:45Z</time>
      </trkpt>
      <trkpt lat="45.99696" lon="1.3731">
        <ele>527.4</ele>
        <time>2023-11-19T09:36:48Z</time>
      </trkpt>
      <trkpt lat="45.99708" lon="1.37326">
        <ele>527.8</ele>
        <time>2023-11-19T09:36:54Z</time>
      </trkpt>
      <trkpt lat="45.99712" lon="1.37333">
        <ele>528.2</ele>
        <time>2023-11-19T09:36:56Z</time>
      </trkpt>
      <trkpt lat="45.99718" lon="1.37339">
        <ele>528.8</ele>
        <time>2023-11-19T09:36:58Z</time>
      </trkpt>
      <trkpt lat="45.99725" lon="1.37342">
        <ele>529.2</ele>
        <time>2023-11-19T09:37:00Z</time>
      </trkpt>
      <trkpt lat="45.99727" lon="1.37344">
        <ele>529.4</ele>
        <time>2023-11-19T09:37:01Z</time>
      </trkpt>
      <trkpt lat="45.9974" lon="1.37361">
        <ele>529.6</ele>
        <time>2023-11-19T09:37:08Z</time>
      </trkpt>
      <trkpt lat="45.9975" lon="1.37382">
        <ele>529.4</ele>
        <time>2023-11-19T09:37:15Z</time>
      </trkpt>
      <trkpt lat="45.99769" lon="1.37405">
        <ele>529</ele>
        <time>2023-11-19T09:37:21Z</time>
      </trkpt>
      <trkpt lat="45.99793" lon="1.37425">
        <ele>529</ele>
        <time>2023-11-19T09:37:27Z</time>
      </trkpt>
      <trkpt lat="45.99814" lon="1.3744">
        <ele>530.2</ele>
        <time>2023-11-19T09:37:34Z</time>
      </trkpt>
      <trkpt lat="45.99823" lon="1.37457">
        <ele>528</ele>
        <time>2023-11-19T09:37:37Z</time>
      </trkpt>
      <trkpt lat="45.99826" lon="1.37464">
        <ele>527</ele>
        <time>2023-11-19T09:37:38Z</time>
      </trkpt>
      <trkpt lat="45.99828" lon="1.37469">
        <ele>526.4</ele>
        <time>2023-11-19T09:37:39Z</time>
      </trkpt>
      <trkpt lat="45.99832" lon="1.37475">
        <ele>525.4</ele>
        <time>2023-11-19T09:37:40Z</time>
      </trkpt>
      <trkpt lat="45.99847" lon="1.37492">
        <ele>524.6</ele>
        <time>2023-11-19T09:37:43Z</time>
      </trkpt>
      <trkpt lat="45.99852" lon="1.37494">
        <ele>524.6</ele>
        <time>2023-11-19T09:37:44Z</time>
      </trkpt>
      <trkpt lat="45.99858" lon="1.37495">
        <ele>524.4</ele>
        <time>2023-11-19T09:37:45Z</time>
      </trkpt>
      <trkpt lat="45.99876" lon="1.37492">
        <ele>523.8</ele>
        <time>2023-11-19T09:37:48Z</time>
      </trkpt>
      <trkpt lat="45.99882" lon="1.37493">
        <ele>523.6</ele>
        <time>2023-11-19T09:37:50Z</time>
      </trkpt>
      <trkpt lat="45.99887" lon="1.37497">
        <ele>523.4</ele>
        <time>2023-11-19T09:37:52Z</time>
      </trkpt>
      <trkpt lat="45.99889" lon="1.37499">
        <ele>523.2</ele>
        <time>2023-11-19T09:37:53Z</time>
      </trkpt>
      <trkpt lat="45.99894" lon="1.37508">
        <ele>521.8</ele>
        <time>2023-11-19T09:37:56Z</time>
      </trkpt>
      <trkpt lat="45.99894" lon="1.37511">
        <ele>521</ele>
        <time>2023-11-19T09:37:57Z</time>
      </trkpt>
      <trkpt lat="45.99894" lon="1.37516">
        <ele>520.6</ele>
        <time>2023-11-19T09:37:58Z</time>
      </trkpt>
      <trkpt lat="45.99891" lon="1.37532">
        <ele>520</ele>
        <time>2023-11-19T09:38:01Z</time>
      </trkpt>
      <trkpt lat="45.99891" lon="1.37537">
        <ele>518</ele>
        <time>2023-11-19T09:38:02Z</time>
      </trkpt>
      <trkpt lat="45.99892" lon="1.37541">
        <ele>517</ele>
        <time>2023-11-19T09:38:03Z</time>
      </trkpt>
      <trkpt lat="45.99892" lon="1.37555">
        <ele>515.6</ele>
        <time>2023-11-19T09:38:06Z</time>
      </trkpt>
      <trkpt lat="45.99891" lon="1.3756">
        <ele>515.2</ele>
        <time>2023-11-19T09:38:07Z</time>
      </trkpt>
      <trkpt lat="45.99887" lon="1.37571">
        <ele>514.6</ele>
        <time>2023-11-19T09:38:09Z</time>
      </trkpt>
      <trkpt lat="45.99881" lon="1.37587">
        <ele>514.2</ele>
        <time>2023-11-19T09:38:11Z</time>
      </trkpt>
      <trkpt lat="45.99877" lon="1.37604">
        <ele>513.4</ele>
        <time>2023-11-19T09:38:13Z</time>
      </trkpt>
      <trkpt lat="45.99878" lon="1.37617">
        <ele>511.2</ele>
        <time>2023-11-19T09:38:15Z</time>
      </trkpt>
      <trkpt lat="45.99878" lon="1.37624">
        <ele>510</ele>
        <time>2023-11-19T09:38:16Z</time>
      </trkpt>
      <trkpt lat="45.99878" lon="1.37633">
        <ele>508.6</ele>
        <time>2023-11-19T09:38:18Z</time>
      </trkpt>
      <trkpt lat="45.9988" lon="1.37648">
        <ele>507.6</ele>
        <time>2023-11-19T09:38:23Z</time>
      </trkpt>
      <trkpt lat="45.9989" lon="1.37669">
        <ele>508.2</ele>
        <time>2023-11-19T09:38:28Z</time>
      </trkpt>
      <trkpt lat="45.99893" lon="1.37677">
        <ele>507.6</ele>
        <time>2023-11-19T09:38:30Z</time>
      </trkpt>
      <trkpt lat="45.99902" lon="1.37678">
        <ele>506.4</ele>
        <time>2023-11-19T09:38:33Z</time>
      </trkpt>
      <trkpt lat="45.99908" lon="1.37677">
        <ele>505.4</ele>
        <time>2023-11-19T09:38:35Z</time>
      </trkpt>
      <trkpt lat="45.99924" lon="1.37672">
        <ele>504.6</ele>
        <time>2023-11-19T09:38:39Z</time>
      </trkpt>
      <trkpt lat="45.9994" lon="1.37666">
        <ele>504.4</ele>
        <time>2023-11-19T09:38:42Z</time>
      </trkpt>
      <trkpt lat="45.99957" lon="1.37659">
        <ele>503.4</ele>
        <time>2023-11-19T09:38:45Z</time>
      </trkpt>
      <trkpt lat="45.99963" lon="1.37657">
        <ele>503</ele>
        <time>2023-11-19T09:38:46Z</time>
      </trkpt>
      <trkpt lat="45.99996" lon="1.37646">
        <ele>502</ele>
        <time>2023-11-19T09:38:52Z</time>
      </trkpt>
      <trkpt lat="46.00002" lon="1.37643">
        <ele>501.6</ele>
        <time>2023-11-19T09:38:53Z</time>
      </trkpt>
      <trkpt lat="46.00019" lon="1.37636">
        <ele>500.8</ele>
        <time>2023-11-19T09:38:56Z</time>
      </trkpt>
      <trkpt lat="46.0003" lon="1.37632">
        <ele>500.4</ele>
        <time>2023-11-19T09:38:58Z</time>
      </trkpt>
      <trkpt lat="46.00052" lon="1.37628">
        <ele>499.6</ele>
        <time>2023-11-19T09:39:01Z</time>
      </trkpt>
      <trkpt lat="46.00058" lon="1.37627">
        <ele>499.6</ele>
        <time>2023-11-19T09:39:03Z</time>
      </trkpt>
      <trkpt lat="46.00083" lon="1.37622">
        <ele>498.6</ele>
        <time>2023-11-19T09:39:06Z</time>
      </trkpt>
      <trkpt lat="46.00091" lon="1.37621">
        <ele>498.4</ele>
        <time>2023-11-19T09:39:07Z</time>
      </trkpt>
      <trkpt lat="46.00099" lon="1.37619">
        <ele>496.6</ele>
        <time>2023-11-19T09:39:08Z</time>
      </trkpt>
      <trkpt lat="46.00106" lon="1.37618">
        <ele>493.6</ele>
        <time>2023-11-19T09:39:09Z</time>
      </trkpt>
      <trkpt lat="46.00123" lon="1.37612">
        <ele>491.6</ele>
        <time>2023-11-19T09:39:12Z</time>
      </trkpt>
      <trkpt lat="46.00128" lon="1.37611">
        <ele>490.6</ele>
        <time>2023-11-19T09:39:13Z</time>
      </trkpt>
      <trkpt lat="46.00137" lon="1.37608">
        <ele>488.8</ele>
        <time>2023-11-19T09:39:15Z</time>
      </trkpt>
      <trkpt lat="46.00146" lon="1.37604">
        <ele>487.6</ele>
        <time>2023-11-19T09:39:17Z</time>
      </trkpt>
      <trkpt lat="46.00149" lon="1.37602">
        <ele>486.4</ele>
        <time>2023-11-19T09:39:18Z</time>
      </trkpt>
      <trkpt lat="46.00153" lon="1.37598">
        <ele>485.6</ele>
        <time>2023-11-19T09:39:19Z</time>
      </trkpt>
      <trkpt lat="46.00156" lon="1.37595">
        <ele>484.8</ele>
        <time>2023-11-19T09:39:20Z</time>
      </trkpt>
      <trkpt lat="46.00158" lon="1.37591">
        <ele>484.4</ele>
        <time>2023-11-19T09:39:21Z</time>
      </trkpt>
      <trkpt lat="46.00162" lon="1.37581">
        <ele>484</ele>
        <time>2023-11-19T09:39:23Z</time>
      </trkpt>
      <trkpt lat="46.00164" lon="1.37575">
        <ele>483.6</ele>
        <time>2023-11-19T09:39:24Z</time>
      </trkpt>
      <trkpt lat="46.00167" lon="1.3757">
        <ele>483.4</ele>
        <time>2023-11-19T09:39:25Z</time>
      </trkpt>
      <trkpt lat="46.00171" lon="1.37562">
        <ele>481.4</ele>
        <time>2023-11-19T09:39:27Z</time>
      </trkpt>
      <trkpt lat="46.00174" lon="1.37558">
        <ele>480.4</ele>
        <time>2023-11-19T09:39:28Z</time>
      </trkpt>
      <trkpt lat="46.00176" lon="1.37553">
        <ele>479.4</ele>
        <time>2023-11-19T09:39:29Z</time>
      </trkpt>
      <trkpt lat="46.00178" lon="1.37549">
        <ele>478.8</ele>
        <time>2023-11-19T09:39:30Z</time>
      </trkpt>
      <trkpt lat="46.00189" lon="1.37532">
        <ele>477.6</ele>
        <time>2023-11-19T09:39:34Z</time>
      </trkpt>
      <trkpt lat="46.00194" lon="1.37524">
        <ele>476.6</ele>
        <time>2023-11-19T09:39:36Z</time>
      </trkpt>
      <trkpt lat="46.00197" lon="1.3752">
        <ele>474.8</ele>
        <time>2023-11-19T09:39:37Z</time>
      </trkpt>
      <trkpt lat="46.00201" lon="1.37516">
        <ele>473.6</ele>
        <time>2023-11-19T09:39:38Z</time>
      </trkpt>
      <trkpt lat="46.0021" lon="1.37505">
        <ele>472.6</ele>
        <time>2023-11-19T09:39:41Z</time>
      </trkpt>
      <trkpt lat="46.00217" lon="1.37498">
        <ele>471.2</ele>
        <time>2023-11-19T09:39:43Z</time>
      </trkpt>
      <trkpt lat="46.00222" lon="1.37494">
        <ele>470.6</ele>
        <time>2023-11-19T09:39:44Z</time>
      </trkpt>
      <trkpt lat="46.00227" lon="1.37491">
        <ele>470</ele>
        <time>2023-11-19T09:39:45Z</time>
      </trkpt>
      <trkpt lat="46.00237" lon="1.37484">
        <ele>468.8</ele>
        <time>2023-11-19T09:39:47Z</time>
      </trkpt>
      <trkpt lat="46.00247" lon="1.37478">
        <ele>467</ele>
        <time>2023-11-19T09:39:49Z</time>
      </trkpt>
      <trkpt lat="46.00258" lon="1.37472">
        <ele>465.8</ele>
        <time>2023-11-19T09:39:51Z</time>
      </trkpt>
      <trkpt lat="46.00268" lon="1.37466">
        <ele>464.8</ele>
        <time>2023-11-19T09:39:53Z</time>
      </trkpt>
      <trkpt lat="46.00278" lon="1.37461">
        <ele>463.2</ele>
        <time>2023-11-19T09:39:55Z</time>
      </trkpt>
      <trkpt lat="46.00284" lon="1.37459">
        <ele>462.4</ele>
        <time>2023-11-19T09:39:56Z</time>
      </trkpt>
      <trkpt lat="46.00289" lon="1.37457">
        <ele>461.8</ele>
        <time>2023-11-19T09:39:57Z</time>
      </trkpt>
      <trkpt lat="46.00299" lon="1.37449">
        <ele>460.2</ele>
        <time>2023-11-19T09:39:59Z</time>
      </trkpt>
      <trkpt lat="46.0031" lon="1.3744">
        <ele>458</ele>
        <time>2023-11-19T09:40:01Z</time>
      </trkpt>
      <trkpt lat="46.00315" lon="1.37436">
        <ele>456.8</ele>
        <time>2023-11-19T09:40:02Z</time>
      </trkpt>
      <trkpt lat="46.00328" lon="1.3743">
        <ele>454.8</ele>
        <time>2023-11-19T09:40:04Z</time>
      </trkpt>
      <trkpt lat="46.0034" lon="1.37423">
        <ele>453.8</ele>
        <time>2023-11-19T09:40:06Z</time>
      </trkpt>
      <trkpt lat="46.00346" lon="1.3742">
        <ele>453.4</ele>
        <time>2023-11-19T09:40:07Z</time>
      </trkpt>
      <trkpt lat="46.00353" lon="1.37417">
        <ele>453.2</ele>
        <time>2023-11-19T09:40:08Z</time>
      </trkpt>
      <trkpt lat="46.00367" lon="1.37413">
        <ele>452.6</ele>
        <time>2023-11-19T09:40:10Z</time>
      </trkpt>
      <trkpt lat="46.00378" lon="1.37412">
        <ele>452.4</ele>
        <time>2023-11-19T09:40:12Z</time>
      </trkpt>
      <trkpt lat="46.00388" lon="1.37408">
        <ele>452</ele>
        <time>2023-11-19T09:40:13Z</time>
      </trkpt>
      <trkpt lat="46.00398" lon="1.37404">
        <ele>450.8</ele>
        <time>2023-11-19T09:40:16Z</time>
      </trkpt>
      <trkpt lat="46.00403" lon="1.37401">
        <ele>450.4</ele>
        <time>2023-11-19T09:40:17Z</time>
      </trkpt>
      <trkpt lat="46.00414" lon="1.37394">
        <ele>449.8</ele>
        <time>2023-11-19T09:40:20Z</time>
      </trkpt>
      <trkpt lat="46.0042" lon="1.37389">
        <ele>449.4</ele>
        <time>2023-11-19T09:40:22Z</time>
      </trkpt>
      <trkpt lat="46.00424" lon="1.37386">
        <ele>448.8</ele>
        <time>2023-11-19T09:40:23Z</time>
      </trkpt>
      <trkpt lat="46.00434" lon="1.37379">
        <ele>447.6</ele>
        <time>2023-11-19T09:40:26Z</time>
      </trkpt>
      <trkpt lat="46.00439" lon="1.37375">
        <ele>447.6</ele>
        <time>2023-11-19T09:40:28Z</time>
      </trkpt>
      <trkpt lat="46.00446" lon="1.37372">
        <ele>447.6</ele>
        <time>2023-11-19T09:40:30Z</time>
      </trkpt>
      <trkpt lat="46.00463" lon="1.37362">
        <ele>447.6</ele>
        <time>2023-11-19T09:40:35Z</time>
      </trkpt>
      <trkpt lat="46.0049" lon="1.37352">
        <ele>446.6</ele>
        <time>2023-11-19T09:40:40Z</time>
      </trkpt>
      <trkpt lat="46.00512" lon="1.37336">
        <ele>445.4</ele>
        <time>2023-11-19T09:40:44Z</time>
      </trkpt>
      <trkpt lat="46.00518" lon="1.37331">
        <ele>445.2</ele>
        <time>2023-11-19T09:40:45Z</time>
      </trkpt>
      <trkpt lat="46.0053" lon="1.37319">
        <ele>444.2</ele>
        <time>2023-11-19T09:40:47Z</time>
      </trkpt>
      <trkpt lat="46.00541" lon="1.37308">
        <ele>443</ele>
        <time>2023-11-19T09:40:49Z</time>
      </trkpt>
      <trkpt lat="46.00545" lon="1.37303">
        <ele>442.8</ele>
        <time>2023-11-19T09:40:50Z</time>
      </trkpt>
      <trkpt lat="46.00549" lon="1.37299">
        <ele>442.4</ele>
        <time>2023-11-19T09:40:51Z</time>
      </trkpt>
      <trkpt lat="46.0057" lon="1.37275">
        <ele>441.8</ele>
        <time>2023-11-19T09:40:58Z</time>
      </trkpt>
      <trkpt lat="46.00573" lon="1.37272">
        <ele>441.6</ele>
        <time>2023-11-19T09:40:59Z</time>
      </trkpt>
      <trkpt lat="46.00589" lon="1.37254">
        <ele>441.2</ele>
        <time>2023-11-19T09:41:04Z</time>
      </trkpt>
      <trkpt lat="46.00592" lon="1.3725">
        <ele>441.2</ele>
        <time>2023-11-19T09:41:05Z</time>
      </trkpt>
      <trkpt lat="46.00598" lon="1.37242">
        <ele>441</ele>
        <time>2023-11-19T09:41:07Z</time>
      </trkpt>
      <trkpt lat="46.00605" lon="1.37231">
        <ele>441</ele>
        <time>2023-11-19T09:41:09Z</time>
      </trkpt>
      <trkpt lat="46.00609" lon="1.37225">
        <ele>440.8</ele>
        <time>2023-11-19T09:41:10Z</time>
      </trkpt>
      <trkpt lat="46.00625" lon="1.37206">
        <ele>439.6</ele>
        <time>2023-11-19T09:41:15Z</time>
      </trkpt>
      <trkpt lat="46.00627" lon="1.37203">
        <ele>439.6</ele>
        <time>2023-11-19T09:41:16Z</time>
      </trkpt>
      <trkpt lat="46.00647" lon="1.37182">
        <ele>439.6</ele>
        <time>2023-11-19T09:41:24Z</time>
      </trkpt>
      <trkpt lat="46.00661" lon="1.37169">
        <ele>440</ele>
        <time>2023-11-19T09:41:31Z</time>
      </trkpt>
      <trkpt lat="46.00672" lon="1.37161">
        <ele>440.6</ele>
        <time>2023-11-19T09:41:38Z</time>
      </trkpt>
      <trkpt lat="46.00682" lon="1.37154">
        <ele>440.8</ele>
        <time>2023-11-19T09:41:45Z</time>
      </trkpt>
      <trkpt lat="46.00684" lon="1.37153">
        <ele>441</ele>
        <time>2023-11-19T09:41:46Z</time>
      </trkpt>
      <trkpt lat="46.00697" lon="1.37142">
        <ele>441.4</ele>
        <time>2023-11-19T09:41:53Z</time>
      </trkpt>
      <trkpt lat="46.00701" lon="1.3714">
        <ele>441.8</ele>
        <time>2023-11-19T09:41:55Z</time>
      </trkpt>
      <trkpt lat="46.00712" lon="1.37133">
        <ele>442.2</ele>
        <time>2023-11-19T09:42:01Z</time>
      </trkpt>
      <trkpt lat="46.00723" lon="1.37125">
        <ele>443</ele>
        <time>2023-11-19T09:42:06Z</time>
      </trkpt>
      <trkpt lat="46.00725" lon="1.37124">
        <ele>443.2</ele>
        <time>2023-11-19T09:42:07Z</time>
      </trkpt>
      <trkpt lat="46.00731" lon="1.37115">
        <ele>443.2</ele>
        <time>2023-11-19T09:42:13Z</time>
      </trkpt>
      <trkpt lat="46.00733" lon="1.37113">
        <ele>443.2</ele>
        <time>2023-11-19T09:42:14Z</time>
      </trkpt>
      <trkpt lat="46.00745" lon="1.371">
        <ele>444.2</ele>
        <time>2023-11-19T09:42:21Z</time>
      </trkpt>
      <trkpt lat="46.0076" lon="1.37088">
        <ele>445.2</ele>
        <time>2023-11-19T09:42:27Z</time>
      </trkpt>
      <trkpt lat="46.00762" lon="1.37087">
        <ele>445.2</ele>
        <time>2023-11-19T09:42:28Z</time>
      </trkpt>
      <trkpt lat="46.00775" lon="1.37079">
        <ele>445.6</ele>
        <time>2023-11-19T09:42:33Z</time>
      </trkpt>
      <trkpt lat="46.00789" lon="1.37069">
        <ele>446.4</ele>
        <time>2023-11-19T09:42:38Z</time>
      </trkpt>
      <trkpt lat="46.00795" lon="1.37059">
        <ele>447</ele>
        <time>2023-11-19T09:42:41Z</time>
      </trkpt>
      <trkpt lat="46.00804" lon="1.37052">
        <ele>447.4</ele>
        <time>2023-11-19T09:42:45Z</time>
      </trkpt>
      <trkpt lat="46.00815" lon="1.37046">
        <ele>448</ele>
        <time>2023-11-19T09:42:50Z</time>
      </trkpt>
      <trkpt lat="46.00824" lon="1.3704">
        <ele>448.8</ele>
        <time>2023-11-19T09:42:55Z</time>
      </trkpt>
      <trkpt lat="46.00827" lon="1.37039">
        <ele>449</ele>
        <time>2023-11-19T09:42:57Z</time>
      </trkpt>
      <trkpt lat="46.00836" lon="1.37036">
        <ele>450</ele>
        <time>2023-11-19T09:43:02Z</time>
      </trkpt>
      <trkpt lat="46.0084" lon="1.37034">
        <ele>450.4</ele>
        <time>2023-11-19T09:43:04Z</time>
      </trkpt>
      <trkpt lat="46.00844" lon="1.37033">
        <ele>451</ele>
        <time>2023-11-19T09:43:06Z</time>
      </trkpt>
      <trkpt lat="46.00856" lon="1.37033">
        <ele>452</ele>
        <time>2023-11-19T09:43:13Z</time>
      </trkpt>
      <trkpt lat="46.00858" lon="1.37033">
        <ele>452</ele>
        <time>2023-11-19T09:43:14Z</time>
      </trkpt>
      <trkpt lat="46.00861" lon="1.37033">
        <ele>452</ele>
        <time>2023-11-19T09:43:16Z</time>
      </trkpt>
      <trkpt lat="46.00865" lon="1.3703">
        <ele>452.8</ele>
        <time>2023-11-19T09:43:20Z</time>
      </trkpt>
      <trkpt lat="46.00867" lon="1.3703">
        <ele>453</ele>
        <time>2023-11-19T09:43:21Z</time>
      </trkpt>
      <trkpt lat="46.00877" lon="1.37022">
        <ele>454</ele>
        <time>2023-11-19T09:43:29Z</time>
      </trkpt>
      <trkpt lat="46.00894" lon="1.37013">
        <ele>453.6</ele>
        <time>2023-11-19T09:43:36Z</time>
      </trkpt>
      <trkpt lat="46.00908" lon="1.37008">
        <ele>453</ele>
        <time>2023-11-19T09:43:44Z</time>
      </trkpt>
      <trkpt lat="46.00923" lon="1.37001">
        <ele>453.6</ele>
        <time>2023-11-19T09:43:49Z</time>
      </trkpt>
      <trkpt lat="46.00946" lon="1.3699">
        <ele>452.2</ele>
        <time>2023-11-19T09:43:55Z</time>
      </trkpt>
      <trkpt lat="46.00948" lon="1.36989">
        <ele>452</ele>
        <time>2023-11-19T09:43:56Z</time>
      </trkpt>
      <trkpt lat="46.00971" lon="1.36978">
        <ele>451.8</ele>
        <time>2023-11-19T09:44:03Z</time>
      </trkpt>
      <trkpt lat="46.00994" lon="1.36963">
        <ele>452.2</ele>
        <time>2023-11-19T09:44:10Z</time>
      </trkpt>
      <trkpt lat="46.01008" lon="1.36948">
        <ele>451.4</ele>
        <time>2023-11-19T09:44:14Z</time>
      </trkpt>
      <trkpt lat="46.01014" lon="1.36941">
        <ele>451</ele>
        <time>2023-11-19T09:44:16Z</time>
      </trkpt>
      <trkpt lat="46.01026" lon="1.36926">
        <ele>450.2</ele>
        <time>2023-11-19T09:44:20Z</time>
      </trkpt>
      <trkpt lat="46.01032" lon="1.36919">
        <ele>449.8</ele>
        <time>2023-11-19T09:44:22Z</time>
      </trkpt>
      <trkpt lat="46.01034" lon="1.36914">
        <ele>449.8</ele>
        <time>2023-11-19T09:44:23Z</time>
      </trkpt>
      <trkpt lat="46.01045" lon="1.36887">
        <ele>448.6</ele>
        <time>2023-11-19T09:44:30Z</time>
      </trkpt>
      <trkpt lat="46.01059" lon="1.36876">
        <ele>447.6</ele>
        <time>2023-11-19T09:44:34Z</time>
      </trkpt>
      <trkpt lat="46.01063" lon="1.36874">
        <ele>447.6</ele>
        <time>2023-11-19T09:44:35Z</time>
      </trkpt>
      <trkpt lat="46.01068" lon="1.36874">
        <ele>447.4</ele>
        <time>2023-11-19T09:44:36Z</time>
      </trkpt>
      <trkpt lat="46.01081" lon="1.36871">
        <ele>447.2</ele>
        <time>2023-11-19T09:44:39Z</time>
      </trkpt>
      <trkpt lat="46.01088" lon="1.36869">
        <ele>447.2</ele>
        <time>2023-11-19T09:44:40Z</time>
      </trkpt>
      <trkpt lat="46.01093" lon="1.36867">
        <ele>447</ele>
        <time>2023-11-19T09:44:41Z</time>
      </trkpt>
      <trkpt lat="46.011" lon="1.36864">
        <ele>446.4</ele>
        <time>2023-11-19T09:44:42Z</time>
      </trkpt>
      <trkpt lat="46.01107" lon="1.36859">
        <ele>446.2</ele>
        <time>2023-11-19T09:44:43Z</time>
      </trkpt>
      <trkpt lat="46.01113" lon="1.36854">
        <ele>446</ele>
        <time>2023-11-19T09:44:44Z</time>
      </trkpt>
      <trkpt lat="46.01118" lon="1.36847">
        <ele>446</ele>
        <time>2023-11-19T09:44:45Z</time>
      </trkpt>
      <trkpt lat="46.01127" lon="1.36831">
        <ele>445.6</ele>
        <time>2023-11-19T09:44:47Z</time>
      </trkpt>
      <trkpt lat="46.0113" lon="1.36823">
        <ele>445.4</ele>
        <time>2023-11-19T09:44:48Z</time>
      </trkpt>
      <trkpt lat="46.01153" lon="1.36775">
        <ele>444.6</ele>
        <time>2023-11-19T09:44:54Z</time>
      </trkpt>
      <trkpt lat="46.01159" lon="1.3676">
        <ele>444.2</ele>
        <time>2023-11-19T09:44:56Z</time>
      </trkpt>
      <trkpt lat="46.01167" lon="1.36736">
        <ele>444</ele>
        <time>2023-11-19T09:45:00Z</time>
      </trkpt>
      <trkpt lat="46.01182" lon="1.3671">
        <ele>443.4</ele>
        <time>2023-11-19T09:45:06Z</time>
      </trkpt>
      <trkpt lat="46.01188" lon="1.36708">
        <ele>443</ele>
        <time>2023-11-19T09:45:08Z</time>
      </trkpt>
      <trkpt lat="46.01193" lon="1.36711">
        <ele>442.6</ele>
        <time>2023-11-19T09:45:10Z</time>
      </trkpt>
      <trkpt lat="46.01204" lon="1.36719">
        <ele>442.8</ele>
        <time>2023-11-19T09:45:15Z</time>
      </trkpt>
      <trkpt lat="46.01206" lon="1.36721">
        <ele>443</ele>
        <time>2023-11-19T09:45:17Z</time>
      </trkpt>
      <trkpt lat="46.01211" lon="1.3672">
        <ele>443.4</ele>
        <time>2023-11-19T09:45:20Z</time>
      </trkpt>
      <trkpt lat="46.01218" lon="1.36717">
        <ele>444.2</ele>
        <time>2023-11-19T09:45:24Z</time>
      </trkpt>
      <trkpt lat="46.01223" lon="1.36711">
        <ele>444.8</ele>
        <time>2023-11-19T09:45:27Z</time>
      </trkpt>
      <trkpt lat="46.01226" lon="1.36707">
        <ele>445.6</ele>
        <time>2023-11-19T09:45:29Z</time>
      </trkpt>
      <trkpt lat="46.01234" lon="1.36698">
        <ele>446.6</ele>
        <time>2023-11-19T09:45:34Z</time>
      </trkpt>
      <trkpt lat="46.01245" lon="1.36686">
        <ele>447.8</ele>
        <time>2023-11-19T09:45:39Z</time>
      </trkpt>
      <trkpt lat="46.01247" lon="1.36684">
        <ele>447.8</ele>
        <time>2023-11-19T09:45:40Z</time>
      </trkpt>
      <trkpt lat="46.01263" lon="1.36677">
        <ele>448.4</ele>
        <time>2023-11-19T09:45:46Z</time>
      </trkpt>
      <trkpt lat="46.01275" lon="1.36674">
        <ele>448.8</ele>
        <time>2023-11-19T09:45:50Z</time>
      </trkpt>
      <trkpt lat="46.01282" lon="1.36672">
        <ele>449.2</ele>
        <time>2023-11-19T09:45:53Z</time>
      </trkpt>
      <trkpt lat="46.0129" lon="1.36674">
        <ele>449.8</ele>
        <time>2023-11-19T09:45:59Z</time>
      </trkpt>
      <trkpt lat="46.013" lon="1.36683">
        <ele>450.8</ele>
        <time>2023-11-19T09:46:08Z</time>
      </trkpt>
      <trkpt lat="46.01301" lon="1.36684">
        <ele>451</ele>
        <time>2023-11-19T09:46:10Z</time>
      </trkpt>
      <trkpt lat="46.01304" lon="1.36688">
        <ele>451.8</ele>
        <time>2023-11-19T09:46:13Z</time>
      </trkpt>
      <trkpt lat="46.01305" lon="1.3669">
        <ele>452</ele>
        <time>2023-11-19T09:46:14Z</time>
      </trkpt>
      <trkpt lat="46.01306" lon="1.36692">
        <ele>452.4</ele>
        <time>2023-11-19T09:46:15Z</time>
      </trkpt>
      <trkpt lat="46.01307" lon="1.36695">
        <ele>453</ele>
        <time>2023-11-19T09:46:17Z</time>
      </trkpt>
      <trkpt lat="46.01309" lon="1.36702">
        <ele>453.6</ele>
        <time>2023-11-19T09:46:21Z</time>
      </trkpt>
      <trkpt lat="46.01309" lon="1.36706">
        <ele>454.2</ele>
        <time>2023-11-19T09:46:23Z</time>
      </trkpt>
      <trkpt lat="46.0131" lon="1.36708">
        <ele>454.4</ele>
        <time>2023-11-19T09:46:24Z</time>
      </trkpt>
      <trkpt lat="46.01313" lon="1.36715">
        <ele>455.4</ele>
        <time>2023-11-19T09:46:28Z</time>
      </trkpt>
      <trkpt lat="46.01315" lon="1.36729">
        <ele>456</ele>
        <time>2023-11-19T09:46:34Z</time>
      </trkpt>
      <trkpt lat="46.01315" lon="1.36732">
        <ele>456.4</ele>
        <time>2023-11-19T09:46:35Z</time>
      </trkpt>
      <trkpt lat="46.01316" lon="1.3674">
        <ele>457.6</ele>
        <time>2023-11-19T09:46:39Z</time>
      </trkpt>
      <trkpt lat="46.01316" lon="1.36746">
        <ele>458</ele>
        <time>2023-11-19T09:46:42Z</time>
      </trkpt>
      <trkpt lat="46.01317" lon="1.3675">
        <ele>458.8</ele>
        <time>2023-11-19T09:46:44Z</time>
      </trkpt>
      <trkpt lat="46.01317" lon="1.36756">
        <ele>459.4</ele>
        <time>2023-11-19T09:46:47Z</time>
      </trkpt>
      <trkpt lat="46.01317" lon="1.36759">
        <ele>459.6</ele>
        <time>2023-11-19T09:46:48Z</time>
      </trkpt>
      <trkpt lat="46.01316" lon="1.36773">
        <ele>460</ele>
        <time>2023-11-19T09:46:54Z</time>
      </trkpt>
      <trkpt lat="46.01316" lon="1.36778">
        <ele>460.2</ele>
        <time>2023-11-19T09:46:56Z</time>
      </trkpt>
      <trkpt lat="46.01314" lon="1.36784">
        <ele>461.6</ele>
        <time>2023-11-19T09:46:59Z</time>
      </trkpt>
      <trkpt lat="46.01314" lon="1.3679">
        <ele>462.8</ele>
        <time>2023-11-19T09:47:02Z</time>
      </trkpt>
      <trkpt lat="46.01315" lon="1.36796">
        <ele>462.8</ele>
        <time>2023-11-19T09:47:05Z</time>
      </trkpt>
      <trkpt lat="46.01319" lon="1.36808">
        <ele>463</ele>
        <time>2023-11-19T09:47:11Z</time>
      </trkpt>
      <trkpt lat="46.01321" lon="1.36821">
        <ele>463.6</ele>
        <time>2023-11-19T09:47:17Z</time>
      </trkpt>
      <trkpt lat="46.01322" lon="1.36825">
        <ele>464</ele>
        <time>2023-11-19T09:47:19Z</time>
      </trkpt>
      <trkpt lat="46.01325" lon="1.36832">
        <ele>465</ele>
        <time>2023-11-19T09:47:23Z</time>
      </trkpt>
      <trkpt lat="46.01328" lon="1.36846">
        <ele>465.4</ele>
        <time>2023-11-19T09:47:29Z</time>
      </trkpt>
      <trkpt lat="46.01331" lon="1.36858">
        <ele>466</ele>
        <time>2023-11-19T09:47:35Z</time>
      </trkpt>
      <trkpt lat="46.01332" lon="1.36875">
        <ele>466.8</ele>
        <time>2023-11-19T09:47:42Z</time>
      </trkpt>
      <trkpt lat="46.01329" lon="1.36884">
        <ele>467.2</ele>
        <time>2023-11-19T09:47:45Z</time>
      </trkpt>
      <trkpt lat="46.01327" lon="1.36892">
        <ele>467.4</ele>
        <time>2023-11-19T09:47:48Z</time>
      </trkpt>
      <trkpt lat="46.01323" lon="1.36907">
        <ele>468.2</ele>
        <time>2023-11-19T09:47:56Z</time>
      </trkpt>
      <trkpt lat="46.01322" lon="1.36908">
        <ele>468.2</ele>
        <time>2023-11-19T09:47:57Z</time>
      </trkpt>
      <trkpt lat="46.01316" lon="1.36922">
        <ele>469</ele>
        <time>2023-11-19T09:48:04Z</time>
      </trkpt>
      <trkpt lat="46.01315" lon="1.36924">
        <ele>469.4</ele>
        <time>2023-11-19T09:48:05Z</time>
      </trkpt>
      <trkpt lat="46.01308" lon="1.36936">
        <ele>470.4</ele>
        <time>2023-11-19T09:48:12Z</time>
      </trkpt>
      <trkpt lat="46.01308" lon="1.36938">
        <ele>470.4</ele>
        <time>2023-11-19T09:48:13Z</time>
      </trkpt>
      <trkpt lat="46.01303" lon="1.36947">
        <ele>470.8</ele>
        <time>2023-11-19T09:48:19Z</time>
      </trkpt>
      <trkpt lat="46.01302" lon="1.36953">
        <ele>471.6</ele>
        <time>2023-11-19T09:48:23Z</time>
      </trkpt>
      <trkpt lat="46.013" lon="1.36957">
        <ele>472.4</ele>
        <time>2023-11-19T09:48:26Z</time>
      </trkpt>
      <trkpt lat="46.013" lon="1.36958">
        <ele>472.6</ele>
        <time>2023-11-19T09:48:27Z</time>
      </trkpt>
      <trkpt lat="46.01298" lon="1.36966">
        <ele>473.2</ele>
        <time>2023-11-19T09:48:33Z</time>
      </trkpt>
      <trkpt lat="46.01298" lon="1.36967">
        <ele>473.6</ele>
        <time>2023-11-19T09:48:34Z</time>
      </trkpt>
      <trkpt lat="46.01297" lon="1.36971">
        <ele>474.6</ele>
        <time>2023-11-19T09:48:37Z</time>
      </trkpt>
      <trkpt lat="46.01297" lon="1.36971">
        <ele>474.8</ele>
        <time>2023-11-19T09:48:38Z</time>
      </trkpt>
      <trkpt lat="46.01297" lon="1.36973">
        <ele>475.2</ele>
        <time>2023-11-19T09:48:40Z</time>
      </trkpt>
      <trkpt lat="46.01298" lon="1.36976">
        <ele>475.6</ele>
        <time>2023-11-19T09:48:43Z</time>
      </trkpt>
      <trkpt lat="46.013" lon="1.36978">
        <ele>475.8</ele>
        <time>2023-11-19T09:48:45Z</time>
      </trkpt>
      <trkpt lat="46.013" lon="1.36981">
        <ele>475.6</ele>
        <time>2023-11-19T09:48:48Z</time>
      </trkpt>
      <trkpt lat="46.01301" lon="1.36982">
        <ele>475.8</ele>
        <time>2023-11-19T09:48:49Z</time>
      </trkpt>
      <trkpt lat="46.01301" lon="1.36984">
        <ele>476</ele>
        <time>2023-11-19T09:48:50Z</time>
      </trkpt>
      <trkpt lat="46.01305" lon="1.36988">
        <ele>477</ele>
        <time>2023-11-19T09:48:54Z</time>
      </trkpt>
      <trkpt lat="46.01306" lon="1.36991">
        <ele>477.4</ele>
        <time>2023-11-19T09:48:56Z</time>
      </trkpt>
      <trkpt lat="46.01308" lon="1.36994">
        <ele>477.8</ele>
        <time>2023-11-19T09:48:58Z</time>
      </trkpt>
      <trkpt lat="46.0131" lon="1.36997">
        <ele>478</ele>
        <time>2023-11-19T09:49:00Z</time>
      </trkpt>
      <trkpt lat="46.01314" lon="1.37004">
        <ele>478.6</ele>
        <time>2023-11-19T09:49:04Z</time>
      </trkpt>
      <trkpt lat="46.01315" lon="1.37006">
        <ele>478.8</ele>
        <time>2023-11-19T09:49:05Z</time>
      </trkpt>
      <trkpt lat="46.01315" lon="1.37007">
        <ele>479</ele>
        <time>2023-11-19T09:49:06Z</time>
      </trkpt>
      <trkpt lat="46.01316" lon="1.37008">
        <ele>479.8</ele>
        <time>2023-11-19T09:49:07Z</time>
      </trkpt>
      <trkpt lat="46.01319" lon="1.37012">
        <ele>480.2</ele>
        <time>2023-11-19T09:49:10Z</time>
      </trkpt>
      <trkpt lat="46.01321" lon="1.37015">
        <ele>480.4</ele>
        <time>2023-11-19T09:49:12Z</time>
      </trkpt>
      <trkpt lat="46.01322" lon="1.37018">
        <ele>480.6</ele>
        <time>2023-11-19T09:49:13Z</time>
      </trkpt>
      <trkpt lat="46.01326" lon="1.37025">
        <ele>481.2</ele>
        <time>2023-11-19T09:49:16Z</time>
      </trkpt>
      <trkpt lat="46.01329" lon="1.37031">
        <ele>481.4</ele>
        <time>2023-11-19T09:49:19Z</time>
      </trkpt>
      <trkpt lat="46.01333" lon="1.37039">
        <ele>481.8</ele>
        <time>2023-11-19T09:49:23Z</time>
      </trkpt>
      <trkpt lat="46.01334" lon="1.37047">
        <ele>482</ele>
        <time>2023-11-19T09:49:26Z</time>
      </trkpt>
      <trkpt lat="46.01335" lon="1.37049">
        <ele>482.8</ele>
        <time>2023-11-19T09:49:27Z</time>
      </trkpt>
      <trkpt lat="46.01338" lon="1.37059">
        <ele>483.8</ele>
        <time>2023-11-19T09:49:32Z</time>
      </trkpt>
      <trkpt lat="46.01339" lon="1.3706">
        <ele>484</ele>
        <time>2023-11-19T09:49:33Z</time>
      </trkpt>
      <trkpt lat="46.01339" lon="1.37062">
        <ele>484.2</ele>
        <time>2023-11-19T09:49:34Z</time>
      </trkpt>
      <trkpt lat="46.01338" lon="1.37077">
        <ele>484.6</ele>
        <time>2023-11-19T09:49:41Z</time>
      </trkpt>
      <trkpt lat="46.01338" lon="1.37078">
        <ele>485.2</ele>
        <time>2023-11-19T09:49:42Z</time>
      </trkpt>
      <trkpt lat="46.0134" lon="1.37087">
        <ele>486.2</ele>
        <time>2023-11-19T09:49:46Z</time>
      </trkpt>
      <trkpt lat="46.01341" lon="1.37096">
        <ele>486.6</ele>
        <time>2023-11-19T09:49:50Z</time>
      </trkpt>
      <trkpt lat="46.01339" lon="1.37102">
        <ele>487.2</ele>
        <time>2023-11-19T09:49:53Z</time>
      </trkpt>
      <trkpt lat="46.01334" lon="1.37112">
        <ele>488.2</ele>
        <time>2023-11-19T09:49:57Z</time>
      </trkpt>
      <trkpt lat="46.01333" lon="1.37116">
        <ele>488.2</ele>
        <time>2023-11-19T09:49:59Z</time>
      </trkpt>
      <trkpt lat="46.01334" lon="1.37118">
        <ele>488.4</ele>
        <time>2023-11-19T09:50:00Z</time>
      </trkpt>
      <trkpt lat="46.01333" lon="1.37125">
        <ele>489</ele>
        <time>2023-11-19T09:50:03Z</time>
      </trkpt>
      <trkpt lat="46.01334" lon="1.37136">
        <ele>489</ele>
        <time>2023-11-19T09:50:09Z</time>
      </trkpt>
      <trkpt lat="46.01334" lon="1.37139">
        <ele>489.2</ele>
        <time>2023-11-19T09:50:10Z</time>
      </trkpt>
      <trkpt lat="46.01333" lon="1.37142">
        <ele>489.4</ele>
        <time>2023-11-19T09:50:11Z</time>
      </trkpt>
      <trkpt lat="46.01334" lon="1.37156">
        <ele>490</ele>
        <time>2023-11-19T09:50:17Z</time>
      </trkpt>
      <trkpt lat="46.01333" lon="1.37174">
        <ele>490.4</ele>
        <time>2023-11-19T09:50:22Z</time>
      </trkpt>
      <trkpt lat="46.01332" lon="1.37184">
        <ele>491.2</ele>
        <time>2023-11-19T09:50:25Z</time>
      </trkpt>
      <trkpt lat="46.01331" lon="1.37196">
        <ele>491.6</ele>
        <time>2023-11-19T09:50:28Z</time>
      </trkpt>
      <trkpt lat="46.0133" lon="1.37203">
        <ele>492.6</ele>
        <time>2023-11-19T09:50:32Z</time>
      </trkpt>
      <trkpt lat="46.0133" lon="1.37204">
        <ele>493</ele>
        <time>2023-11-19T09:50:33Z</time>
      </trkpt>
      <trkpt lat="46.01328" lon="1.37205">
        <ele>493.2</ele>
        <time>2023-11-19T09:50:36Z</time>
      </trkpt>
      <trkpt lat="46.01326" lon="1.37205">
        <ele>493.6</ele>
        <time>2023-11-19T09:50:37Z</time>
      </trkpt>
      <trkpt lat="46.01323" lon="1.37204">
        <ele>494</ele>
        <time>2023-11-19T09:50:39Z</time>
      </trkpt>
      <trkpt lat="46.01315" lon="1.37203">
        <ele>495.2</ele>
        <time>2023-11-19T09:50:46Z</time>
      </trkpt>
      <trkpt lat="46.01312" lon="1.37204">
        <ele>496.2</ele>
        <time>2023-11-19T09:50:49Z</time>
      </trkpt>
      <trkpt lat="46.01305" lon="1.37207">
        <ele>496.4</ele>
        <time>2023-11-19T09:50:55Z</time>
      </trkpt>
      <trkpt lat="46.01298" lon="1.3721">
        <ele>497.4</ele>
        <time>2023-11-19T09:51:01Z</time>
      </trkpt>
      <trkpt lat="46.01295" lon="1.37211">
        <ele>497.6</ele>
        <time>2023-11-19T09:51:03Z</time>
      </trkpt>
      <trkpt lat="46.01287" lon="1.37212">
        <ele>498.6</ele>
        <time>2023-11-19T09:51:08Z</time>
      </trkpt>
      <trkpt lat="46.01282" lon="1.37213">
        <ele>499</ele>
        <time>2023-11-19T09:51:11Z</time>
      </trkpt>
      <trkpt lat="46.01278" lon="1.37213">
        <ele>499.8</ele>
        <time>2023-11-19T09:51:13Z</time>
      </trkpt>
      <trkpt lat="46.01269" lon="1.37213">
        <ele>501</ele>
        <time>2023-11-19T09:51:18Z</time>
      </trkpt>
      <trkpt lat="46.01267" lon="1.37213">
        <ele>501</ele>
        <time>2023-11-19T09:51:19Z</time>
      </trkpt>
      <trkpt lat="46.01251" lon="1.37212">
        <ele>501.4</ele>
        <time>2023-11-19T09:51:26Z</time>
      </trkpt>
      <trkpt lat="46.01243" lon="1.37208">
        <ele>502</ele>
        <time>2023-11-19T09:51:30Z</time>
      </trkpt>
      <trkpt lat="46.01235" lon="1.37203">
        <ele>502.2</ele>
        <time>2023-11-19T09:51:33Z</time>
      </trkpt>
      <trkpt lat="46.01233" lon="1.37202">
        <ele>502.2</ele>
        <time>2023-11-19T09:51:34Z</time>
      </trkpt>
      <trkpt lat="46.01224" lon="1.37193">
        <ele>501.8</ele>
        <time>2023-11-19T09:51:38Z</time>
      </trkpt>
      <trkpt lat="46.01212" lon="1.37191">
        <ele>500.8</ele>
        <time>2023-11-19T09:51:42Z</time>
      </trkpt>
      <trkpt lat="46.0121" lon="1.37191">
        <ele>500.8</ele>
        <time>2023-11-19T09:51:43Z</time>
      </trkpt>
      <trkpt lat="46.01197" lon="1.37195">
        <ele>501.4</ele>
        <time>2023-11-19T09:51:49Z</time>
      </trkpt>
      <trkpt lat="46.01192" lon="1.37197">
        <ele>502</ele>
        <time>2023-11-19T09:51:51Z</time>
      </trkpt>
      <trkpt lat="46.01182" lon="1.37204">
        <ele>502.6</ele>
        <time>2023-11-19T09:51:56Z</time>
      </trkpt>
      <trkpt lat="46.01178" lon="1.37216">
        <ele>503</ele>
        <time>2023-11-19T09:52:00Z</time>
      </trkpt>
      <trkpt lat="46.01176" lon="1.37221">
        <ele>503.6</ele>
        <time>2023-11-19T09:52:02Z</time>
      </trkpt>
      <trkpt lat="46.01175" lon="1.37223">
        <ele>504</ele>
        <time>2023-11-19T09:52:03Z</time>
      </trkpt>
      <trkpt lat="46.01171" lon="1.37236">
        <ele>505.6</ele>
        <time>2023-11-19T09:52:08Z</time>
      </trkpt>
      <trkpt lat="46.01165" lon="1.37247">
        <ele>506.6</ele>
        <time>2023-11-19T09:52:15Z</time>
      </trkpt>
      <trkpt lat="46.01156" lon="1.37254">
        <ele>507.4</ele>
        <time>2023-11-19T09:52:21Z</time>
      </trkpt>
      <trkpt lat="46.0115" lon="1.37259">
        <ele>507.6</ele>
        <time>2023-11-19T09:52:25Z</time>
      </trkpt>
      <trkpt lat="46.01145" lon="1.37262">
        <ele>507.8</ele>
        <time>2023-11-19T09:52:28Z</time>
      </trkpt>
      <trkpt lat="46.01133" lon="1.37273">
        <ele>508.8</ele>
        <time>2023-11-19T09:52:35Z</time>
      </trkpt>
      <trkpt lat="46.01131" lon="1.37275">
        <ele>508.8</ele>
        <time>2023-11-19T09:52:36Z</time>
      </trkpt>
      <trkpt lat="46.01121" lon="1.37287">
        <ele>509.8</ele>
        <time>2023-11-19T09:52:42Z</time>
      </trkpt>
      <trkpt lat="46.01114" lon="1.37297">
        <ele>510.8</ele>
        <time>2023-11-19T09:52:47Z</time>
      </trkpt>
      <trkpt lat="46.01112" lon="1.37298">
        <ele>511</ele>
        <time>2023-11-19T09:52:49Z</time>
      </trkpt>
      <trkpt lat="46.01099" lon="1.37304">
        <ele>511.8</ele>
        <time>2023-11-19T09:52:55Z</time>
      </trkpt>
      <trkpt lat="46.01096" lon="1.37306">
        <ele>511.8</ele>
        <time>2023-11-19T09:52:57Z</time>
      </trkpt>
      <trkpt lat="46.01088" lon="1.37314">
        <ele>513</ele>
        <time>2023-11-19T09:53:03Z</time>
      </trkpt>
      <trkpt lat="46.01078" lon="1.37322">
        <ele>513.8</ele>
        <time>2023-11-19T09:53:10Z</time>
      </trkpt>
      <trkpt lat="46.0107" lon="1.37328">
        <ele>514.2</ele>
        <time>2023-11-19T09:53:15Z</time>
      </trkpt>
      <trkpt lat="46.01065" lon="1.37331">
        <ele>514.4</ele>
        <time>2023-11-19T09:53:18Z</time>
      </trkpt>
      <trkpt lat="46.01056" lon="1.37335">
        <ele>515.2</ele>
        <time>2023-11-19T09:53:24Z</time>
      </trkpt>
      <trkpt lat="46.01054" lon="1.37335">
        <ele>515.4</ele>
        <time>2023-11-19T09:53:25Z</time>
      </trkpt>
      <trkpt lat="46.01049" lon="1.37337">
        <ele>515.6</ele>
        <time>2023-11-19T09:53:27Z</time>
      </trkpt>
      <trkpt lat="46.01041" lon="1.37338">
        <ele>516.6</ele>
        <time>2023-11-19T09:53:31Z</time>
      </trkpt>
      <trkpt lat="46.01036" lon="1.3734">
        <ele>517.2</ele>
        <time>2023-11-19T09:53:34Z</time>
      </trkpt>
      <trkpt lat="46.01032" lon="1.37341">
        <ele>517.8</ele>
        <time>2023-11-19T09:53:37Z</time>
      </trkpt>
      <trkpt lat="46.01026" lon="1.37343">
        <ele>518.4</ele>
        <time>2023-11-19T09:53:42Z</time>
      </trkpt>
      <trkpt lat="46.01025" lon="1.37345">
        <ele>518.8</ele>
        <time>2023-11-19T09:53:43Z</time>
      </trkpt>
      <trkpt lat="46.01019" lon="1.37349">
        <ele>519.8</ele>
        <time>2023-11-19T09:53:47Z</time>
      </trkpt>
      <trkpt lat="46.01018" lon="1.3735">
        <ele>520</ele>
        <time>2023-11-19T09:53:48Z</time>
      </trkpt>
      <trkpt lat="46.01009" lon="1.37359">
        <ele>521</ele>
        <time>2023-11-19T09:53:55Z</time>
      </trkpt>
      <trkpt lat="46.01008" lon="1.3736">
        <ele>521</ele>
        <time>2023-11-19T09:53:56Z</time>
      </trkpt>
      <trkpt lat="46.01007" lon="1.37361">
        <ele>521.4</ele>
        <time>2023-11-19T09:53:58Z</time>
      </trkpt>
      <trkpt lat="46.01003" lon="1.37365">
        <ele>522</ele>
        <time>2023-11-19T09:54:02Z</time>
      </trkpt>
      <trkpt lat="46.01002" lon="1.37367">
        <ele>522.2</ele>
        <time>2023-11-19T09:54:03Z</time>
      </trkpt>
      <trkpt lat="46.00999" lon="1.37375">
        <ele>523.4</ele>
        <time>2023-11-19T09:54:07Z</time>
      </trkpt>
      <trkpt lat="46.00999" lon="1.37381">
        <ele>523.8</ele>
        <time>2023-11-19T09:54:10Z</time>
      </trkpt>
      <trkpt lat="46.00998" lon="1.37385">
        <ele>524.2</ele>
        <time>2023-11-19T09:54:12Z</time>
      </trkpt>
      <trkpt lat="46.00998" lon="1.3739">
        <ele>524.4</ele>
        <time>2023-11-19T09:54:14Z</time>
      </trkpt>
      <trkpt lat="46.00996" lon="1.37398">
        <ele>525.2</ele>
        <time>2023-11-19T09:54:17Z</time>
      </trkpt>
      <trkpt lat="46.00996" lon="1.374">
        <ele>525.4</ele>
        <time>2023-11-19T09:54:18Z</time>
      </trkpt>
      <trkpt lat="46.00994" lon="1.37409">
        <ele>526.4</ele>
        <time>2023-11-19T09:54:23Z</time>
      </trkpt>
      <trkpt lat="46.00992" lon="1.3741">
        <ele>526.4</ele>
        <time>2023-11-19T09:54:24Z</time>
      </trkpt>
      <trkpt lat="46.00992" lon="1.37411">
        <ele>526.6</ele>
        <time>2023-11-19T09:54:25Z</time>
      </trkpt>
      <trkpt lat="46.00991" lon="1.37412">
        <ele>526.6</ele>
        <time>2023-11-19T09:54:26Z</time>
      </trkpt>
      <trkpt lat="46.00989" lon="1.37415">
        <ele>527.2</ele>
        <time>2023-11-19T09:54:28Z</time>
      </trkpt>
      <trkpt lat="46.00986" lon="1.37422">
        <ele>527.6</ele>
        <time>2023-11-19T09:54:31Z</time>
      </trkpt>
      <trkpt lat="46.00984" lon="1.37425">
        <ele>528.2</ele>
        <time>2023-11-19T09:54:33Z</time>
      </trkpt>
      <trkpt lat="46.00979" lon="1.3743">
        <ele>528.8</ele>
        <time>2023-11-19T09:54:36Z</time>
      </trkpt>
      <trkpt lat="46.00971" lon="1.37445">
        <ele>529.8</ele>
        <time>2023-11-19T09:54:44Z</time>
      </trkpt>
      <trkpt lat="46.00971" lon="1.37447">
        <ele>530</ele>
        <time>2023-11-19T09:54:45Z</time>
      </trkpt>
      <trkpt lat="46.00968" lon="1.37456">
        <ele>530.8</ele>
        <time>2023-11-19T09:54:50Z</time>
      </trkpt>
      <trkpt lat="46.00966" lon="1.37463">
        <ele>531.4</ele>
        <time>2023-11-19T09:54:57Z</time>
      </trkpt>
      <trkpt lat="46.00965" lon="1.37465">
        <ele>531.4</ele>
        <time>2023-11-19T09:54:59Z</time>
      </trkpt>
      <trkpt lat="46.00964" lon="1.37471">
        <ele>531.8</ele>
        <time>2023-11-19T09:55:05Z</time>
      </trkpt>
      <trkpt lat="46.00964" lon="1.37476">
        <ele>532</ele>
        <time>2023-11-19T09:55:08Z</time>
      </trkpt>
      <trkpt lat="46.00964" lon="1.37477">
        <ele>532</ele>
        <time>2023-11-19T09:55:10Z</time>
      </trkpt>
      <trkpt lat="46.00964" lon="1.37479">
        <ele>532.2</ele>
        <time>2023-11-19T09:55:12Z</time>
      </trkpt>
      <trkpt lat="46.0096" lon="1.37497">
        <ele>533</ele>
        <time>2023-11-19T09:55:22Z</time>
      </trkpt>
      <trkpt lat="46.00955" lon="1.37507">
        <ele>534.2</ele>
        <time>2023-11-19T09:55:28Z</time>
      </trkpt>
      <trkpt lat="46.00951" lon="1.37512">
        <ele>535.4</ele>
        <time>2023-11-19T09:55:32Z</time>
      </trkpt>
      <trkpt lat="46.00948" lon="1.37515">
        <ele>536</ele>
        <time>2023-11-19T09:55:35Z</time>
      </trkpt>
      <trkpt lat="46.00947" lon="1.37517">
        <ele>536.4</ele>
        <time>2023-11-19T09:55:37Z</time>
      </trkpt>
      <trkpt lat="46.00939" lon="1.37525">
        <ele>537.6</ele>
        <time>2023-11-19T09:55:45Z</time>
      </trkpt>
      <trkpt lat="46.00936" lon="1.37529">
        <ele>538.4</ele>
        <time>2023-11-19T09:55:49Z</time>
      </trkpt>
      <trkpt lat="46.00934" lon="1.37529">
        <ele>539.6</ele>
        <time>2023-11-19T09:55:50Z</time>
      </trkpt>
      <trkpt lat="46.00931" lon="1.3753">
        <ele>540</ele>
        <time>2023-11-19T09:55:52Z</time>
      </trkpt>
      <trkpt lat="46.00928" lon="1.37533">
        <ele>540.8</ele>
        <time>2023-11-19T09:55:56Z</time>
      </trkpt>
      <trkpt lat="46.00925" lon="1.3754">
        <ele>541.4</ele>
        <time>2023-11-19T09:55:59Z</time>
      </trkpt>
      <trkpt lat="46.00924" lon="1.37542">
        <ele>541.4</ele>
        <time>2023-11-19T09:56:00Z</time>
      </trkpt>
      <trkpt lat="46.00921" lon="1.3755">
        <ele>542</ele>
        <time>2023-11-19T09:56:05Z</time>
      </trkpt>
      <trkpt lat="46.00918" lon="1.37557">
        <ele>543</ele>
        <time>2023-11-19T09:56:11Z</time>
      </trkpt>
      <trkpt lat="46.00913" lon="1.37572">
        <ele>544.2</ele>
        <time>2023-11-19T09:56:20Z</time>
      </trkpt>
      <trkpt lat="46.00912" lon="1.37577">
        <ele>544.4</ele>
        <time>2023-11-19T09:56:23Z</time>
      </trkpt>
      <trkpt lat="46.00911" lon="1.37584">
        <ele>545.2</ele>
        <time>2023-11-19T09:56:28Z</time>
      </trkpt>
      <trkpt lat="46.00905" lon="1.3759">
        <ele>545.8</ele>
        <time>2023-11-19T09:56:32Z</time>
      </trkpt>
      <trkpt lat="46.00904" lon="1.37592">
        <ele>546</ele>
        <time>2023-11-19T09:56:34Z</time>
      </trkpt>
      <trkpt lat="46.00902" lon="1.37594">
        <ele>546.6</ele>
        <time>2023-11-19T09:56:36Z</time>
      </trkpt>
      <trkpt lat="46.00897" lon="1.37601">
        <ele>547.6</ele>
        <time>2023-11-19T09:56:42Z</time>
      </trkpt>
      <trkpt lat="46.00896" lon="1.37605">
        <ele>548</ele>
        <time>2023-11-19T09:56:44Z</time>
      </trkpt>
      <trkpt lat="46.00892" lon="1.37609">
        <ele>548.4</ele>
        <time>2023-11-19T09:56:48Z</time>
      </trkpt>
      <trkpt lat="46.00891" lon="1.37611">
        <ele>548.8</ele>
        <time>2023-11-19T09:56:49Z</time>
      </trkpt>
      <trkpt lat="46.00887" lon="1.37623">
        <ele>549.8</ele>
        <time>2023-11-19T09:56:56Z</time>
      </trkpt>
      <trkpt lat="46.00887" lon="1.37626">
        <ele>550.2</ele>
        <time>2023-11-19T09:56:58Z</time>
      </trkpt>
      <trkpt lat="46.00883" lon="1.37635">
        <ele>550.8</ele>
        <time>2023-11-19T09:57:03Z</time>
      </trkpt>
      <trkpt lat="46.00883" lon="1.37635">
        <ele>551</ele>
        <time>2023-11-19T09:57:04Z</time>
      </trkpt>
      <trkpt lat="46.00882" lon="1.37641">
        <ele>551.8</ele>
        <time>2023-11-19T09:57:09Z</time>
      </trkpt>
      <trkpt lat="46.00882" lon="1.37642">
        <ele>552</ele>
        <time>2023-11-19T09:57:10Z</time>
      </trkpt>
      <trkpt lat="46.00878" lon="1.37652">
        <ele>553</ele>
        <time>2023-11-19T09:57:18Z</time>
      </trkpt>
      <trkpt lat="46.00877" lon="1.37655">
        <ele>553.6</ele>
        <time>2023-11-19T09:57:24Z</time>
      </trkpt>
      <trkpt lat="46.00877" lon="1.37663">
        <ele>553.6</ele>
        <time>2023-11-19T09:57:37Z</time>
      </trkpt>
      <trkpt lat="46.00877" lon="1.37663">
        <ele>553.8</ele>
        <time>2023-11-19T09:57:38Z</time>
      </trkpt>
      <trkpt lat="46.00875" lon="1.37665">
        <ele>554</ele>
        <time>2023-11-19T09:57:40Z</time>
      </trkpt>
      <trkpt lat="46.00873" lon="1.37666">
        <ele>554.2</ele>
        <time>2023-11-19T09:57:42Z</time>
      </trkpt>
      <trkpt lat="46.00871" lon="1.37665">
        <ele>554.2</ele>
        <time>2023-11-19T09:57:44Z</time>
      </trkpt>
      <trkpt lat="46.00868" lon="1.37663">
        <ele>554.4</ele>
        <time>2023-11-19T09:57:47Z</time>
      </trkpt>
      <trkpt lat="46.00866" lon="1.37663">
        <ele>554.4</ele>
        <time>2023-11-19T09:57:48Z</time>
      </trkpt>
      <trkpt lat="46.0086" lon="1.37664">
        <ele>553.8</ele>
        <time>2023-11-19T09:57:54Z</time>
      </trkpt>
      <trkpt lat="46.0086" lon="1.37664">
        <ele>553.6</ele>
        <time>2023-11-19T09:57:55Z</time>
      </trkpt>
      <trkpt lat="46.00857" lon="1.37669">
        <ele>554</ele>
        <time>2023-11-19T09:58:01Z</time>
      </trkpt>
      <trkpt lat="46.00855" lon="1.37673">
        <ele>555</ele>
        <time>2023-11-19T09:58:04Z</time>
      </trkpt>
      <trkpt lat="46.00854" lon="1.37678">
        <ele>555.6</ele>
        <time>2023-11-19T09:58:07Z</time>
      </trkpt>
      <trkpt lat="46.00854" lon="1.37686">
        <ele>556.2</ele>
        <time>2023-11-19T09:58:12Z</time>
      </trkpt>
      <trkpt lat="46.00855" lon="1.37692">
        <ele>556.8</ele>
        <time>2023-11-19T09:58:16Z</time>
      </trkpt>
      <trkpt lat="46.00852" lon="1.37704">
        <ele>557.2</ele>
        <time>2023-11-19T09:58:21Z</time>
      </trkpt>
      <trkpt lat="46.00848" lon="1.37708">
        <ele>558</ele>
        <time>2023-11-19T09:58:24Z</time>
      </trkpt>
      <trkpt lat="46.00846" lon="1.37709">
        <ele>558.2</ele>
        <time>2023-11-19T09:58:25Z</time>
      </trkpt>
      <trkpt lat="46.00844" lon="1.3771">
        <ele>558.4</ele>
        <time>2023-11-19T09:58:26Z</time>
      </trkpt>
      <trkpt lat="46.00834" lon="1.37714">
        <ele>558.8</ele>
        <time>2023-11-19T09:58:31Z</time>
      </trkpt>
      <trkpt lat="46.00831" lon="1.37718">
        <ele>559</ele>
        <time>2023-11-19T09:58:34Z</time>
      </trkpt>
      <trkpt lat="46.0083" lon="1.37722">
        <ele>559.2</ele>
        <time>2023-11-19T09:58:36Z</time>
      </trkpt>
      <trkpt lat="46.00829" lon="1.37723">
        <ele>559.4</ele>
        <time>2023-11-19T09:58:37Z</time>
      </trkpt>
      <trkpt lat="46.00827" lon="1.3773">
        <ele>559.6</ele>
        <time>2023-11-19T09:58:42Z</time>
      </trkpt>
      <trkpt lat="46.00824" lon="1.37739">
        <ele>560.4</ele>
        <time>2023-11-19T09:58:47Z</time>
      </trkpt>
      <trkpt lat="46.00824" lon="1.37741">
        <ele>560.6</ele>
        <time>2023-11-19T09:58:48Z</time>
      </trkpt>
      <trkpt lat="46.0082" lon="1.37753">
        <ele>561.8</ele>
        <time>2023-11-19T09:58:54Z</time>
      </trkpt>
      <trkpt lat="46.00819" lon="1.37754">
        <ele>562</ele>
        <time>2023-11-19T09:58:55Z</time>
      </trkpt>
      <trkpt lat="46.00819" lon="1.37755">
        <ele>562.2</ele>
        <time>2023-11-19T09:58:56Z</time>
      </trkpt>
      <trkpt lat="46.00816" lon="1.37757">
        <ele>562.4</ele>
        <time>2023-11-19T09:58:58Z</time>
      </trkpt>
      <trkpt lat="46.00815" lon="1.37759">
        <ele>562.4</ele>
        <time>2023-11-19T09:59:00Z</time>
      </trkpt>
      <trkpt lat="46.00812" lon="1.37764">
        <ele>563</ele>
        <time>2023-11-19T09:59:03Z</time>
      </trkpt>
      <trkpt lat="46.00808" lon="1.3777">
        <ele>563.6</ele>
        <time>2023-11-19T09:59:07Z</time>
      </trkpt>
      <trkpt lat="46.00808" lon="1.37772">
        <ele>563.6</ele>
        <time>2023-11-19T09:59:09Z</time>
      </trkpt>
      <trkpt lat="46.00809" lon="1.37777">
        <ele>564</ele>
        <time>2023-11-19T09:59:13Z</time>
      </trkpt>
      <trkpt lat="46.00808" lon="1.37781">
        <ele>564.8</ele>
        <time>2023-11-19T09:59:17Z</time>
      </trkpt>
      <trkpt lat="46.00806" lon="1.37784">
        <ele>565</ele>
        <time>2023-11-19T09:59:22Z</time>
      </trkpt>
      <trkpt lat="46.00805" lon="1.37787">
        <ele>565.2</ele>
        <time>2023-11-19T09:59:27Z</time>
      </trkpt>
      <trkpt lat="46.00804" lon="1.37788">
        <ele>565.6</ele>
        <time>2023-11-19T09:59:29Z</time>
      </trkpt>
      <trkpt lat="46.00803" lon="1.3779">
        <ele>566.2</ele>
        <time>2023-11-19T09:59:31Z</time>
      </trkpt>
      <trkpt lat="46.00802" lon="1.37792">
        <ele>566.4</ele>
        <time>2023-11-19T09:59:32Z</time>
      </trkpt>
      <trkpt lat="46.00799" lon="1.37797">
        <ele>567.2</ele>
        <time>2023-11-19T09:59:35Z</time>
      </trkpt>
      <trkpt lat="46.00798" lon="1.37798">
        <ele>567.2</ele>
        <time>2023-11-19T09:59:36Z</time>
      </trkpt>
      <trkpt lat="46.00795" lon="1.37804">
        <ele>567.6</ele>
        <time>2023-11-19T09:59:40Z</time>
      </trkpt>
      <trkpt lat="46.00793" lon="1.37808">
        <ele>568.6</ele>
        <time>2023-11-19T09:59:43Z</time>
      </trkpt>
      <trkpt lat="46.00792" lon="1.37809">
        <ele>568.8</ele>
        <time>2023-11-19T09:59:44Z</time>
      </trkpt>
      <trkpt lat="46.00788" lon="1.37813">
        <ele>569.4</ele>
        <time>2023-11-19T09:59:47Z</time>
      </trkpt>
      <trkpt lat="46.00787" lon="1.37814">
        <ele>569.6</ele>
        <time>2023-11-19T09:59:48Z</time>
      </trkpt>
      <trkpt lat="46.00787" lon="1.37814">
        <ele>569.6</ele>
        <time>2023-11-19T09:59:49Z</time>
      </trkpt>
      <trkpt lat="46.00785" lon="1.3782">
        <ele>569.8</ele>
        <time>2023-11-19T09:59:52Z</time>
      </trkpt>
      <trkpt lat="46.0078" lon="1.37829">
        <ele>570.8</ele>
        <time>2023-11-19T09:59:55Z</time>
      </trkpt>
      <trkpt lat="46.00774" lon="1.3784">
        <ele>571.6</ele>
        <time>2023-11-19T10:00:00Z</time>
      </trkpt>
      <trkpt lat="46.00773" lon="1.37841">
        <ele>572.2</ele>
        <time>2023-11-19T10:00:01Z</time>
      </trkpt>
      <trkpt lat="46.0077" lon="1.37846">
        <ele>573</ele>
        <time>2023-11-19T10:00:07Z</time>
      </trkpt>
      <trkpt lat="46.0077" lon="1.37847">
        <ele>573.4</ele>
        <time>2023-11-19T10:00:09Z</time>
      </trkpt>
      <trkpt lat="46.0077" lon="1.37851">
        <ele>573.4</ele>
        <time>2023-11-19T10:00:14Z</time>
      </trkpt>
      <trkpt lat="46.00765" lon="1.37857">
        <ele>573.4</ele>
        <time>2023-11-19T10:00:22Z</time>
      </trkpt>
      <trkpt lat="46.00765" lon="1.37866">
        <ele>574.6</ele>
        <time>2023-11-19T10:00:30Z</time>
      </trkpt>
      <trkpt lat="46.00765" lon="1.37867">
        <ele>575</ele>
        <time>2023-11-19T10:00:31Z</time>
      </trkpt>
      <trkpt lat="46.00765" lon="1.37869">
        <ele>575.2</ele>
        <time>2023-11-19T10:00:32Z</time>
      </trkpt>
      <trkpt lat="46.00765" lon="1.37873">
        <ele>575.8</ele>
        <time>2023-11-19T10:00:35Z</time>
      </trkpt>
      <trkpt lat="46.00764" lon="1.37875">
        <ele>576</ele>
        <time>2023-11-19T10:00:36Z</time>
      </trkpt>
      <trkpt lat="46.00763" lon="1.37878">
        <ele>576.4</ele>
        <time>2023-11-19T10:00:38Z</time>
      </trkpt>
      <trkpt lat="46.00762" lon="1.3788">
        <ele>577.2</ele>
        <time>2023-11-19T10:00:40Z</time>
      </trkpt>
      <trkpt lat="46.00758" lon="1.37885">
        <ele>577.6</ele>
        <time>2023-11-19T10:00:43Z</time>
      </trkpt>
      <trkpt lat="46.00752" lon="1.3789">
        <ele>578.2</ele>
        <time>2023-11-19T10:00:48Z</time>
      </trkpt>
      <trkpt lat="46.00749" lon="1.37892">
        <ele>578.6</ele>
        <time>2023-11-19T10:00:50Z</time>
      </trkpt>
      <trkpt lat="46.00747" lon="1.37895">
        <ele>579.2</ele>
        <time>2023-11-19T10:00:53Z</time>
      </trkpt>
      <trkpt lat="46.00746" lon="1.37895">
        <ele>579.4</ele>
        <time>2023-11-19T10:00:54Z</time>
      </trkpt>
      <trkpt lat="46.00743" lon="1.37897">
        <ele>579.8</ele>
        <time>2023-11-19T10:00:57Z</time>
      </trkpt>
      <trkpt lat="46.00741" lon="1.37898">
        <ele>580.2</ele>
        <time>2023-11-19T10:00:59Z</time>
      </trkpt>
      <trkpt lat="46.0074" lon="1.37899">
        <ele>580.4</ele>
        <time>2023-11-19T10:01:00Z</time>
      </trkpt>
      <trkpt lat="46.00735" lon="1.37905">
        <ele>581</ele>
        <time>2023-11-19T10:01:05Z</time>
      </trkpt>
      <trkpt lat="46.00734" lon="1.37906">
        <ele>581.2</ele>
        <time>2023-11-19T10:01:06Z</time>
      </trkpt>
      <trkpt lat="46.00734" lon="1.37907">
        <ele>581.4</ele>
        <time>2023-11-19T10:01:07Z</time>
      </trkpt>
      <trkpt lat="46.00733" lon="1.37909">
        <ele>581.6</ele>
        <time>2023-11-19T10:01:08Z</time>
      </trkpt>
      <trkpt lat="46.00732" lon="1.3791">
        <ele>581.6</ele>
        <time>2023-11-19T10:01:09Z</time>
      </trkpt>
      <trkpt lat="46.00728" lon="1.37914">
        <ele>582.4</ele>
        <time>2023-11-19T10:01:13Z</time>
      </trkpt>
      <trkpt lat="46.00727" lon="1.37915">
        <ele>582.6</ele>
        <time>2023-11-19T10:01:14Z</time>
      </trkpt>
      <trkpt lat="46.00725" lon="1.37917">
        <ele>583.2</ele>
        <time>2023-11-19T10:01:18Z</time>
      </trkpt>
      <trkpt lat="46.00721" lon="1.37919">
        <ele>583.6</ele>
        <time>2023-11-19T10:01:21Z</time>
      </trkpt>
      <trkpt lat="46.0072" lon="1.37919">
        <ele>583.8</ele>
        <time>2023-11-19T10:01:22Z</time>
      </trkpt>
      <trkpt lat="46.00719" lon="1.37922">
        <ele>584.2</ele>
        <time>2023-11-19T10:01:25Z</time>
      </trkpt>
      <trkpt lat="46.00717" lon="1.37925">
        <ele>584.2</ele>
        <time>2023-11-19T10:01:27Z</time>
      </trkpt>
      <trkpt lat="46.00716" lon="1.37927">
        <ele>584.4</ele>
        <time>2023-11-19T10:01:28Z</time>
      </trkpt>
      <trkpt lat="46.00712" lon="1.37934">
        <ele>584.8</ele>
        <time>2023-11-19T10:01:31Z</time>
      </trkpt>
      <trkpt lat="46.00711" lon="1.37936">
        <ele>585</ele>
        <time>2023-11-19T10:01:32Z</time>
      </trkpt>
      <trkpt lat="46.0071" lon="1.37939">
        <ele>585.4</ele>
        <time>2023-11-19T10:01:34Z</time>
      </trkpt>
      <trkpt lat="46.00709" lon="1.37944">
        <ele>585.6</ele>
        <time>2023-11-19T10:01:37Z</time>
      </trkpt>
      <trkpt lat="46.00708" lon="1.37945">
        <ele>586</ele>
        <time>2023-11-19T10:01:38Z</time>
      </trkpt>
      <trkpt lat="46.00707" lon="1.37946">
        <ele>586.2</ele>
        <time>2023-11-19T10:01:39Z</time>
      </trkpt>
      <trkpt lat="46.00704" lon="1.37948">
        <ele>586.6</ele>
        <time>2023-11-19T10:01:41Z</time>
      </trkpt>
      <trkpt lat="46.00688" lon="1.37947">
        <ele>586.4</ele>
        <time>2023-11-19T10:01:47Z</time>
      </trkpt>
      <trkpt lat="46.00675" lon="1.37951">
        <ele>585.6</ele>
        <time>2023-11-19T10:01:53Z</time>
      </trkpt>
      <trkpt lat="46.00674" lon="1.37954">
        <ele>585.6</ele>
        <time>2023-11-19T10:01:54Z</time>
      </trkpt>
      <trkpt lat="46.00673" lon="1.3796">
        <ele>585.4</ele>
        <time>2023-11-19T10:01:58Z</time>
      </trkpt>
      <trkpt lat="46.00668" lon="1.3798">
        <ele>585.8</ele>
        <time>2023-11-19T10:02:05Z</time>
      </trkpt>
      <trkpt lat="46.00665" lon="1.37989">
        <ele>587</ele>
        <time>2023-11-19T10:02:08Z</time>
      </trkpt>
      <trkpt lat="46.00661" lon="1.37999">
        <ele>587.6</ele>
        <time>2023-11-19T10:02:11Z</time>
      </trkpt>
      <trkpt lat="46.00651" lon="1.38022">
        <ele>588</ele>
        <time>2023-11-19T10:02:17Z</time>
      </trkpt>
      <trkpt lat="46.00649" lon="1.38027">
        <ele>588.2</ele>
        <time>2023-11-19T10:02:18Z</time>
      </trkpt>
      <trkpt lat="46.00638" lon="1.38058">
        <ele>587.6</ele>
        <time>2023-11-19T10:02:25Z</time>
      </trkpt>
      <trkpt lat="46.00627" lon="1.38098">
        <ele>588.4</ele>
        <time>2023-11-19T10:02:34Z</time>
      </trkpt>
      <trkpt lat="46.00624" lon="1.38115">
        <ele>589.2</ele>
        <time>2023-11-19T10:02:38Z</time>
      </trkpt>
      <trkpt lat="46.00621" lon="1.38131">
        <ele>589.6</ele>
        <time>2023-11-19T10:02:42Z</time>
      </trkpt>
      <trkpt lat="46.00609" lon="1.38161">
        <ele>589.6</ele>
        <time>2023-11-19T10:02:48Z</time>
      </trkpt>
      <trkpt lat="46.00606" lon="1.38166">
        <ele>589.6</ele>
        <time>2023-11-19T10:02:49Z</time>
      </trkpt>
      <trkpt lat="46.00592" lon="1.38182">
        <ele>588.6</ele>
        <time>2023-11-19T10:02:52Z</time>
      </trkpt>
      <trkpt lat="46.00582" lon="1.38194">
        <ele>588</ele>
        <time>2023-11-19T10:02:54Z</time>
      </trkpt>
      <trkpt lat="46.00568" lon="1.38213">
        <ele>587.2</ele>
        <time>2023-11-19T10:02:57Z</time>
      </trkpt>
      <trkpt lat="46.00556" lon="1.38234">
        <ele>586.4</ele>
        <time>2023-11-19T10:03:00Z</time>
      </trkpt>
      <trkpt lat="46.00549" lon="1.38249">
        <ele>586</ele>
        <time>2023-11-19T10:03:02Z</time>
      </trkpt>
      <trkpt lat="46.00539" lon="1.38276">
        <ele>585.8</ele>
        <time>2023-11-19T10:03:06Z</time>
      </trkpt>
      <trkpt lat="46.00532" lon="1.38285">
        <ele>583.2</ele>
        <time>2023-11-19T10:03:08Z</time>
      </trkpt>
      <trkpt lat="46.00528" lon="1.38288">
        <ele>581.2</ele>
        <time>2023-11-19T10:03:09Z</time>
      </trkpt>
      <trkpt lat="46.00524" lon="1.3829">
        <ele>579.6</ele>
        <time>2023-11-19T10:03:10Z</time>
      </trkpt>
      <trkpt lat="46.00516" lon="1.38292">
        <ele>577.8</ele>
        <time>2023-11-19T10:03:12Z</time>
      </trkpt>
      <trkpt lat="46.00509" lon="1.38292">
        <ele>576.4</ele>
        <time>2023-11-19T10:03:14Z</time>
      </trkpt>
      <trkpt lat="46.005" lon="1.38296">
        <ele>575</ele>
        <time>2023-11-19T10:03:17Z</time>
      </trkpt>
      <trkpt lat="46.00496" lon="1.38305">
        <ele>574</ele>
        <time>2023-11-19T10:03:20Z</time>
      </trkpt>
      <trkpt lat="46.00494" lon="1.38307">
        <ele>573.4</ele>
        <time>2023-11-19T10:03:21Z</time>
      </trkpt>
      <trkpt lat="46.00491" lon="1.38308">
        <ele>573</ele>
        <time>2023-11-19T10:03:22Z</time>
      </trkpt>
      <trkpt lat="46.00482" lon="1.38307">
        <ele>571.8</ele>
        <time>2023-11-19T10:03:25Z</time>
      </trkpt>
      <trkpt lat="46.00464" lon="1.38298">
        <ele>571.4</ele>
        <time>2023-11-19T10:03:31Z</time>
      </trkpt>
      <trkpt lat="46.00443" lon="1.38285">
        <ele>571.6</ele>
        <time>2023-11-19T10:03:36Z</time>
      </trkpt>
      <trkpt lat="46.00428" lon="1.38276">
        <ele>570.2</ele>
        <time>2023-11-19T10:03:39Z</time>
      </trkpt>
      <trkpt lat="46.00419" lon="1.38271">
        <ele>568</ele>
        <time>2023-11-19T10:03:41Z</time>
      </trkpt>
      <trkpt lat="46.00415" lon="1.38268">
        <ele>567.6</ele>
        <time>2023-11-19T10:03:42Z</time>
      </trkpt>
      <trkpt lat="46.00407" lon="1.38264">
        <ele>567</ele>
        <time>2023-11-19T10:03:44Z</time>
      </trkpt>
      <trkpt lat="46.0039" lon="1.38251">
        <ele>563.4</ele>
        <time>2023-11-19T10:03:48Z</time>
      </trkpt>
      <trkpt lat="46.00386" lon="1.38248">
        <ele>560.6</ele>
        <time>2023-11-19T10:03:49Z</time>
      </trkpt>
      <trkpt lat="46.00382" lon="1.38244">
        <ele>558.8</ele>
        <time>2023-11-19T10:03:50Z</time>
      </trkpt>
      <trkpt lat="46.00374" lon="1.38237">
        <ele>557.4</ele>
        <time>2023-11-19T10:03:52Z</time>
      </trkpt>
      <trkpt lat="46.00371" lon="1.38234">
        <ele>556</ele>
        <time>2023-11-19T10:03:53Z</time>
      </trkpt>
      <trkpt lat="46.00368" lon="1.3823">
        <ele>555.2</ele>
        <time>2023-11-19T10:03:54Z</time>
      </trkpt>
      <trkpt lat="46.00365" lon="1.38227">
        <ele>554.6</ele>
        <time>2023-11-19T10:03:55Z</time>
      </trkpt>
      <trkpt lat="46.00362" lon="1.38224">
        <ele>554</ele>
        <time>2023-11-19T10:03:56Z</time>
      </trkpt>
      <trkpt lat="46.0036" lon="1.38221">
        <ele>553.6</ele>
        <time>2023-11-19T10:03:57Z</time>
      </trkpt>
      <trkpt lat="46.00356" lon="1.38218">
        <ele>552</ele>
        <time>2023-11-19T10:03:59Z</time>
      </trkpt>
      <trkpt lat="46.00355" lon="1.38218">
        <ele>551</ele>
        <time>2023-11-19T10:04:00Z</time>
      </trkpt>
      <trkpt lat="46.00353" lon="1.3822">
        <ele>550.4</ele>
        <time>2023-11-19T10:04:03Z</time>
      </trkpt>
      <trkpt lat="46.00353" lon="1.38224">
        <ele>549.8</ele>
        <time>2023-11-19T10:04:05Z</time>
      </trkpt>
      <trkpt lat="46.00352" lon="1.38231">
        <ele>550</ele>
        <time>2023-11-19T10:04:08Z</time>
      </trkpt>
      <trkpt lat="46.00346" lon="1.38246">
        <ele>550.2</ele>
        <time>2023-11-19T10:04:13Z</time>
      </trkpt>
      <trkpt lat="46.00339" lon="1.38263">
        <ele>549.4</ele>
        <time>2023-11-19T10:04:19Z</time>
      </trkpt>
      <trkpt lat="46.00333" lon="1.38289">
        <ele>549.6</ele>
        <time>2023-11-19T10:04:24Z</time>
      </trkpt>
      <trkpt lat="46.00327" lon="1.38306">
        <ele>550.2</ele>
        <time>2023-11-19T10:04:28Z</time>
      </trkpt>
      <trkpt lat="46.00325" lon="1.38311">
        <ele>550</ele>
        <time>2023-11-19T10:04:29Z</time>
      </trkpt>
      <trkpt lat="46.00318" lon="1.38327">
        <ele>548.8</ele>
        <time>2023-11-19T10:04:33Z</time>
      </trkpt>
      <trkpt lat="46.00317" lon="1.3833">
        <ele>548.4</ele>
        <time>2023-11-19T10:04:34Z</time>
      </trkpt>
      <trkpt lat="46.00315" lon="1.38332">
        <ele>548.2</ele>
        <time>2023-11-19T10:04:35Z</time>
      </trkpt>
      <trkpt lat="46.003" lon="1.38355">
        <ele>548.6</ele>
        <time>2023-11-19T10:04:40Z</time>
      </trkpt>
      <trkpt lat="46.0029" lon="1.38366">
        <ele>547.6</ele>
        <time>2023-11-19T10:04:43Z</time>
      </trkpt>
      <trkpt lat="46.00286" lon="1.38369">
        <ele>547.2</ele>
        <time>2023-11-19T10:04:44Z</time>
      </trkpt>
      <trkpt lat="46.00281" lon="1.38379">
        <ele>546.6</ele>
        <time>2023-11-19T10:04:47Z</time>
      </trkpt>
      <trkpt lat="46.00275" lon="1.3839">
        <ele>545.6</ele>
        <time>2023-11-19T10:04:50Z</time>
      </trkpt>
      <trkpt lat="46.00268" lon="1.38399">
        <ele>544.4</ele>
        <time>2023-11-19T10:04:52Z</time>
      </trkpt>
      <trkpt lat="46.00266" lon="1.38403">
        <ele>545.6</ele>
        <time>2023-11-19T10:04:53Z</time>
      </trkpt>
      <trkpt lat="46.00264" lon="1.38408">
        <ele>545</ele>
        <time>2023-11-19T10:04:54Z</time>
      </trkpt>
      <trkpt lat="46.0026" lon="1.38413">
        <ele>544.4</ele>
        <time>2023-11-19T10:04:55Z</time>
      </trkpt>
      <trkpt lat="46.00251" lon="1.38431">
        <ele>543.2</ele>
        <time>2023-11-19T10:04:58Z</time>
      </trkpt>
      <trkpt lat="46.00244" lon="1.3845">
        <ele>542.8</ele>
        <time>2023-11-19T10:05:01Z</time>
      </trkpt>
      <trkpt lat="46.00243" lon="1.38471">
        <ele>542</ele>
        <time>2023-11-19T10:05:05Z</time>
      </trkpt>
      <trkpt lat="46.00242" lon="1.38476">
        <ele>541.6</ele>
        <time>2023-11-19T10:05:06Z</time>
      </trkpt>
      <trkpt lat="46.00242" lon="1.38487">
        <ele>541.2</ele>
        <time>2023-11-19T10:05:08Z</time>
      </trkpt>
      <trkpt lat="46.00243" lon="1.38493">
        <ele>540.6</ele>
        <time>2023-11-19T10:05:09Z</time>
      </trkpt>
      <trkpt lat="46.00243" lon="1.38513">
        <ele>539.6</ele>
        <time>2023-11-19T10:05:12Z</time>
      </trkpt>
      <trkpt lat="46.00248" lon="1.38536">
        <ele>538.2</ele>
        <time>2023-11-19T10:05:16Z</time>
      </trkpt>
      <trkpt lat="46.00252" lon="1.38548">
        <ele>537.8</ele>
        <time>2023-11-19T10:05:18Z</time>
      </trkpt>
      <trkpt lat="46.00257" lon="1.3856">
        <ele>537.4</ele>
        <time>2023-11-19T10:05:20Z</time>
      </trkpt>
      <trkpt lat="46.00267" lon="1.3858">
        <ele>537.4</ele>
        <time>2023-11-19T10:05:24Z</time>
      </trkpt>
      <trkpt lat="46.00274" lon="1.38589">
        <ele>537.2</ele>
        <time>2023-11-19T10:05:26Z</time>
      </trkpt>
      <trkpt lat="46.0028" lon="1.38595">
        <ele>537.4</ele>
        <time>2023-11-19T10:05:27Z</time>
      </trkpt>
      <trkpt lat="46.00283" lon="1.38607">
        <ele>537.4</ele>
        <time>2023-11-19T10:05:29Z</time>
      </trkpt>
      <trkpt lat="46.00284" lon="1.38623">
        <ele>537.4</ele>
        <time>2023-11-19T10:05:31Z</time>
      </trkpt>
      <trkpt lat="46.00281" lon="1.38643">
        <ele>537.4</ele>
        <time>2023-11-19T10:05:34Z</time>
      </trkpt>
      <trkpt lat="46.00271" lon="1.38683">
        <ele>536.4</ele>
        <time>2023-11-19T10:05:40Z</time>
      </trkpt>
      <trkpt lat="46.00266" lon="1.38701">
        <ele>536.2</ele>
        <time>2023-11-19T10:05:43Z</time>
      </trkpt>
      <trkpt lat="46.00266" lon="1.38707">
        <ele>536.2</ele>
        <time>2023-11-19T10:05:45Z</time>
      </trkpt>
      <trkpt lat="46.00261" lon="1.38728">
        <ele>536.4</ele>
        <time>2023-11-19T10:05:49Z</time>
      </trkpt>
      <trkpt lat="46.00254" lon="1.38732">
        <ele>537.4</ele>
        <time>2023-11-19T10:05:51Z</time>
      </trkpt>
      <trkpt lat="46.00235" lon="1.38741">
        <ele>537.8</ele>
        <time>2023-11-19T10:05:57Z</time>
      </trkpt>
      <trkpt lat="46.00224" lon="1.38746">
        <ele>538.6</ele>
        <time>2023-11-19T10:06:02Z</time>
      </trkpt>
      <trkpt lat="46.0022" lon="1.38749">
        <ele>539.6</ele>
        <time>2023-11-19T10:06:04Z</time>
      </trkpt>
      <trkpt lat="46.0021" lon="1.38761">
        <ele>540.8</ele>
        <time>2023-11-19T10:06:10Z</time>
      </trkpt>
      <trkpt lat="46.00205" lon="1.38766">
        <ele>541.2</ele>
        <time>2023-11-19T10:06:12Z</time>
      </trkpt>
      <trkpt lat="46.00201" lon="1.3877">
        <ele>541.8</ele>
        <time>2023-11-19T10:06:14Z</time>
      </trkpt>
      <trkpt lat="46.00194" lon="1.38781">
        <ele>543</ele>
        <time>2023-11-19T10:06:20Z</time>
      </trkpt>
      <trkpt lat="46.00184" lon="1.38799">
        <ele>544</ele>
        <time>2023-11-19T10:06:27Z</time>
      </trkpt>
      <trkpt lat="46.00183" lon="1.38801">
        <ele>544.2</ele>
        <time>2023-11-19T10:06:28Z</time>
      </trkpt>
      <trkpt lat="46.00179" lon="1.3881">
        <ele>544.2</ele>
        <time>2023-11-19T10:06:32Z</time>
      </trkpt>
      <trkpt lat="46.00175" lon="1.38812">
        <ele>544.4</ele>
        <time>2023-11-19T10:06:34Z</time>
      </trkpt>
      <trkpt lat="46.0016" lon="1.38816">
        <ele>545.2</ele>
        <time>2023-11-19T10:06:41Z</time>
      </trkpt>
      <trkpt lat="46.00152" lon="1.38819">
        <ele>545.6</ele>
        <time>2023-11-19T10:06:47Z</time>
      </trkpt>
      <trkpt lat="46.00151" lon="1.38822">
        <ele>545.8</ele>
        <time>2023-11-19T10:06:48Z</time>
      </trkpt>
      <trkpt lat="46.0015" lon="1.38827">
        <ele>546.4</ele>
        <time>2023-11-19T10:06:50Z</time>
      </trkpt>
      <trkpt lat="46.00153" lon="1.38834">
        <ele>546.6</ele>
        <time>2023-11-19T10:06:54Z</time>
      </trkpt>
      <trkpt lat="46.00162" lon="1.3884">
        <ele>546.4</ele>
        <time>2023-11-19T10:06:58Z</time>
      </trkpt>
      <trkpt lat="46.00166" lon="1.38843">
        <ele>546</ele>
        <time>2023-11-19T10:06:59Z</time>
      </trkpt>
      <trkpt lat="46.00169" lon="1.38846">
        <ele>545.6</ele>
        <time>2023-11-19T10:07:00Z</time>
      </trkpt>
      <trkpt lat="46.00177" lon="1.38854">
        <ele>545.4</ele>
        <time>2023-11-19T10:07:03Z</time>
      </trkpt>
      <trkpt lat="46.00185" lon="1.38865">
        <ele>546</ele>
        <time>2023-11-19T10:07:09Z</time>
      </trkpt>
      <trkpt lat="46.00194" lon="1.38874">
        <ele>547.4</ele>
        <time>2023-11-19T10:07:15Z</time>
      </trkpt>
      <trkpt lat="46.00195" lon="1.38875">
        <ele>547.8</ele>
        <time>2023-11-19T10:07:16Z</time>
      </trkpt>
      <trkpt lat="46.002" lon="1.38877">
        <ele>548.4</ele>
        <time>2023-11-19T10:07:19Z</time>
      </trkpt>
      <trkpt lat="46.00205" lon="1.38885">
        <ele>549.6</ele>
        <time>2023-11-19T10:07:24Z</time>
      </trkpt>
      <trkpt lat="46.00206" lon="1.38888">
        <ele>550</ele>
        <time>2023-11-19T10:07:26Z</time>
      </trkpt>
      <trkpt lat="46.00208" lon="1.38893">
        <ele>550.4</ele>
        <time>2023-11-19T10:07:29Z</time>
      </trkpt>
      <trkpt lat="46.00208" lon="1.38895">
        <ele>550.8</ele>
        <time>2023-11-19T10:07:30Z</time>
      </trkpt>
      <trkpt lat="46.00209" lon="1.38904">
        <ele>551.6</ele>
        <time>2023-11-19T10:07:35Z</time>
      </trkpt>
      <trkpt lat="46.00211" lon="1.38909">
        <ele>552.2</ele>
        <time>2023-11-19T10:07:38Z</time>
      </trkpt>
      <trkpt lat="46.00212" lon="1.38912">
        <ele>552.8</ele>
        <time>2023-11-19T10:07:39Z</time>
      </trkpt>
      <trkpt lat="46.00213" lon="1.38916">
        <ele>553.2</ele>
        <time>2023-11-19T10:07:42Z</time>
      </trkpt>
      <trkpt lat="46.00214" lon="1.3892">
        <ele>553.8</ele>
        <time>2023-11-19T10:07:45Z</time>
      </trkpt>
      <trkpt lat="46.00216" lon="1.38923">
        <ele>554.2</ele>
        <time>2023-11-19T10:07:47Z</time>
      </trkpt>
      <trkpt lat="46.00216" lon="1.38924">
        <ele>554.2</ele>
        <time>2023-11-19T10:07:48Z</time>
      </trkpt>
      <trkpt lat="46.00215" lon="1.38926">
        <ele>554.8</ele>
        <time>2023-11-19T10:07:50Z</time>
      </trkpt>
      <trkpt lat="46.00214" lon="1.38928">
        <ele>555.2</ele>
        <time>2023-11-19T10:07:52Z</time>
      </trkpt>
      <trkpt lat="46.00213" lon="1.38929">
        <ele>555.4</ele>
        <time>2023-11-19T10:07:53Z</time>
      </trkpt>
      <trkpt lat="46.00212" lon="1.3893">
        <ele>555.6</ele>
        <time>2023-11-19T10:07:54Z</time>
      </trkpt>
      <trkpt lat="46.00209" lon="1.38939">
        <ele>556.8</ele>
        <time>2023-11-19T10:08:00Z</time>
      </trkpt>
      <trkpt lat="46.00209" lon="1.38944">
        <ele>557.2</ele>
        <time>2023-11-19T10:08:03Z</time>
      </trkpt>
      <trkpt lat="46.00209" lon="1.38952">
        <ele>557.8</ele>
        <time>2023-11-19T10:08:07Z</time>
      </trkpt>
      <trkpt lat="46.00207" lon="1.38963">
        <ele>558.8</ele>
        <time>2023-11-19T10:08:13Z</time>
      </trkpt>
      <trkpt lat="46.00199" lon="1.3898">
        <ele>560</ele>
        <time>2023-11-19T10:08:22Z</time>
      </trkpt>
      <trkpt lat="46.00199" lon="1.38981">
        <ele>560.2</ele>
        <time>2023-11-19T10:08:23Z</time>
      </trkpt>
      <trkpt lat="46.00198" lon="1.38984">
        <ele>560.6</ele>
        <time>2023-11-19T10:08:25Z</time>
      </trkpt>
      <trkpt lat="46.00197" lon="1.38992">
        <ele>560.8</ele>
        <time>2023-11-19T10:08:30Z</time>
      </trkpt>
      <trkpt lat="46.00197" lon="1.38993">
        <ele>560.8</ele>
        <time>2023-11-19T10:08:31Z</time>
      </trkpt>
      <trkpt lat="46.00196" lon="1.38996">
        <ele>561</ele>
        <time>2023-11-19T10:08:32Z</time>
      </trkpt>
      <trkpt lat="46.00195" lon="1.38997">
        <ele>561.2</ele>
        <time>2023-11-19T10:08:33Z</time>
      </trkpt>
      <trkpt lat="46.00196" lon="1.38999">
        <ele>561.2</ele>
        <time>2023-11-19T10:08:34Z</time>
      </trkpt>
      <trkpt lat="46.00195" lon="1.39005">
        <ele>562</ele>
        <time>2023-11-19T10:08:37Z</time>
      </trkpt>
      <trkpt lat="46.00195" lon="1.3901">
        <ele>562.2</ele>
        <time>2023-11-19T10:08:39Z</time>
      </trkpt>
      <trkpt lat="46.00196" lon="1.39018">
        <ele>562.2</ele>
        <time>2023-11-19T10:08:42Z</time>
      </trkpt>
      <trkpt lat="46.00193" lon="1.39041">
        <ele>563.2</ele>
        <time>2023-11-19T10:08:51Z</time>
      </trkpt>
      <trkpt lat="46.00192" lon="1.39043">
        <ele>563.4</ele>
        <time>2023-11-19T10:08:52Z</time>
      </trkpt>
      <trkpt lat="46.00189" lon="1.39052">
        <ele>564</ele>
        <time>2023-11-19T10:08:57Z</time>
      </trkpt>
      <trkpt lat="46.00188" lon="1.39054">
        <ele>564</ele>
        <time>2023-11-19T10:08:59Z</time>
      </trkpt>
      <trkpt lat="46.00185" lon="1.39057">
        <ele>564</ele>
        <time>2023-11-19T10:09:08Z</time>
      </trkpt>
      <trkpt lat="46.00181" lon="1.39063">
        <ele>564.4</ele>
        <time>2023-11-19T10:09:16Z</time>
      </trkpt>
      <trkpt lat="46.00177" lon="1.39064">
        <ele>564.4</ele>
        <time>2023-11-19T10:09:22Z</time>
      </trkpt>
      <trkpt lat="46.00173" lon="1.39065">
        <ele>563.6</ele>
        <time>2023-11-19T10:09:31Z</time>
      </trkpt>
      <trkpt lat="46.00174" lon="1.39066">
        <ele>563.6</ele>
        <time>2023-11-19T10:09:42Z</time>
      </trkpt>
      <trkpt lat="46.00173" lon="1.39066">
        <ele>563.6</ele>
        <time>2023-11-19T10:09:53Z</time>
      </trkpt>
      <trkpt lat="46.00173" lon="1.39068">
        <ele>563.2</ele>
        <time>2023-11-19T10:10:03Z</time>
      </trkpt>
      <trkpt lat="46.00172" lon="1.39068">
        <ele>563.2</ele>
        <time>2023-11-19T10:10:21Z</time>
      </trkpt>
      <trkpt lat="46.00175" lon="1.39068">
        <ele>563.2</ele>
        <time>2023-11-19T10:10:38Z</time>
      </trkpt>
      <trkpt lat="46.00172" lon="1.39069">
        <ele>563.2</ele>
        <time>2023-11-19T10:10:49Z</time>
      </trkpt>
      <trkpt lat="46.00171" lon="1.3907">
        <ele>563.2</ele>
        <time>2023-11-19T10:11:05Z</time>
      </trkpt>
      <trkpt lat="46.00172" lon="1.39069">
        <ele>563.2</ele>
        <time>2023-11-19T10:11:27Z</time>
      </trkpt>
      <trkpt lat="46.00171" lon="1.3907">
        <ele>563.2</ele>
        <time>2023-11-19T10:11:45Z</time>
      </trkpt>
      <trkpt lat="46.00172" lon="1.39069">
        <ele>563.2</ele>
        <time>2023-11-19T10:12:07Z</time>
      </trkpt>
      <trkpt lat="46.00174" lon="1.39069">
        <ele>563.2</ele>
        <time>2023-11-19T10:12:27Z</time>
      </trkpt>
      <trkpt lat="46.00178" lon="1.39073">
        <ele>563.2</ele>
        <time>2023-11-19T10:12:46Z</time>
      </trkpt>
      <trkpt lat="46.00178" lon="1.39073">
        <ele>563.2</ele>
        <time>2023-11-19T10:13:08Z</time>
      </trkpt>
      <trkpt lat="46.00176" lon="1.39071">
        <ele>563.2</ele>
        <time>2023-11-19T10:13:28Z</time>
      </trkpt>
      <trkpt lat="46.00176" lon="1.39071">
        <ele>563.2</ele>
        <time>2023-11-19T10:13:46Z</time>
      </trkpt>
      <trkpt lat="46.00176" lon="1.39071">
        <ele>563.2</ele>
        <time>2023-11-19T10:14:05Z</time>
      </trkpt>
      <trkpt lat="46.00176" lon="1.3907">
        <ele>563.2</ele>
        <time>2023-11-19T10:14:22Z</time>
      </trkpt>
      <trkpt lat="46.00177" lon="1.39072">
        <ele>563.2</ele>
        <time>2023-11-19T10:14:41Z</time>
      </trkpt>
      <trkpt lat="46.00177" lon="1.39071">
        <ele>563.2</ele>
        <time>2023-11-19T10:14:58Z</time>
      </trkpt>
      <trkpt lat="46.00176" lon="1.3907">
        <ele>563.2</ele>
        <time>2023-11-19T10:15:11Z</time>
      </trkpt>
      <trkpt lat="46.00176" lon="1.39072">
        <ele>563.2</ele>
        <time>2023-11-19T10:15:32Z</time>
      </trkpt>
      <trkpt lat="46.00175" lon="1.39073">
        <ele>563.2</ele>
        <time>2023-11-19T10:15:44Z</time>
      </trkpt>
      <trkpt lat="46.0017" lon="1.39078">
        <ele>563.2</ele>
        <time>2023-11-19T10:16:02Z</time>
      </trkpt>
      <trkpt lat="46.00171" lon="1.39079">
        <ele>563.2</ele>
        <time>2023-11-19T10:16:22Z</time>
      </trkpt>
      <trkpt lat="46.00176" lon="1.39072">
        <ele>563.2</ele>
        <time>2023-11-19T10:16:37Z</time>
      </trkpt>
      <trkpt lat="46.00179" lon="1.39071">
        <ele>563.2</ele>
        <time>2023-11-19T10:16:54Z</time>
      </trkpt>
      <trkpt lat="46.00179" lon="1.39071">
        <ele>563.2</ele>
        <time>2023-11-19T10:17:09Z</time>
      </trkpt>
      <trkpt lat="46.00175" lon="1.39075">
        <ele>563.2</ele>
        <time>2023-11-19T10:17:27Z</time>
      </trkpt>
      <trkpt lat="46.00174" lon="1.39079">
        <ele>563.2</ele>
        <time>2023-11-19T10:17:42Z</time>
      </trkpt>
      <trkpt lat="46.00173" lon="1.39086">
        <ele>563.2</ele>
        <time>2023-11-19T10:17:49Z</time>
      </trkpt>
      <trkpt lat="46.00173" lon="1.39088">
        <ele>563.2</ele>
        <time>2023-11-19T10:17:51Z</time>
      </trkpt>
      <trkpt lat="46.00174" lon="1.3909">
        <ele>563.2</ele>
        <time>2023-11-19T10:17:53Z</time>
      </trkpt>
      <trkpt lat="46.00175" lon="1.39093">
        <ele>563.6</ele>
        <time>2023-11-19T10:17:56Z</time>
      </trkpt>
      <trkpt lat="46.00177" lon="1.39098">
        <ele>564</ele>
        <time>2023-11-19T10:17:59Z</time>
      </trkpt>
      <trkpt lat="46.00178" lon="1.39103">
        <ele>564.4</ele>
        <time>2023-11-19T10:18:01Z</time>
      </trkpt>
      <trkpt lat="46.00179" lon="1.39109">
        <ele>565</ele>
        <time>2023-11-19T10:18:04Z</time>
      </trkpt>
      <trkpt lat="46.0018" lon="1.39113">
        <ele>565.4</ele>
        <time>2023-11-19T10:18:06Z</time>
      </trkpt>
      <trkpt lat="46.00188" lon="1.39136">
        <ele>566.4</ele>
        <time>2023-11-19T10:18:15Z</time>
      </trkpt>
      <trkpt lat="46.0019" lon="1.39139">
        <ele>566.6</ele>
        <time>2023-11-19T10:18:16Z</time>
      </trkpt>
      <trkpt lat="46.00194" lon="1.39161">
        <ele>567.2</ele>
        <time>2023-11-19T10:18:23Z</time>
      </trkpt>
      <trkpt lat="46.00197" lon="1.39176">
        <ele>567.6</ele>
        <time>2023-11-19T10:18:28Z</time>
      </trkpt>
      <trkpt lat="46.00199" lon="1.39181">
        <ele>568.2</ele>
        <time>2023-11-19T10:18:30Z</time>
      </trkpt>
      <trkpt lat="46.00203" lon="1.3919">
        <ele>568.6</ele>
        <time>2023-11-19T10:18:33Z</time>
      </trkpt>
      <trkpt lat="46.00209" lon="1.39201">
        <ele>569.6</ele>
        <time>2023-11-19T10:18:37Z</time>
      </trkpt>
      <trkpt lat="46.00211" lon="1.39204">
        <ele>569.8</ele>
        <time>2023-11-19T10:18:38Z</time>
      </trkpt>
      <trkpt lat="46.00222" lon="1.39216">
        <ele>570.2</ele>
        <time>2023-11-19T10:18:43Z</time>
      </trkpt>
      <trkpt lat="46.00232" lon="1.39224">
        <ele>570.8</ele>
        <time>2023-11-19T10:18:48Z</time>
      </trkpt>
      <trkpt lat="46.00234" lon="1.39226">
        <ele>571</ele>
        <time>2023-11-19T10:18:49Z</time>
      </trkpt>
      <trkpt lat="46.00244" lon="1.39234">
        <ele>572</ele>
        <time>2023-11-19T10:18:54Z</time>
      </trkpt>
      <trkpt lat="46.00248" lon="1.39237">
        <ele>572.4</ele>
        <time>2023-11-19T10:18:56Z</time>
      </trkpt>
      <trkpt lat="46.00257" lon="1.39242">
        <ele>573.2</ele>
        <time>2023-11-19T10:19:00Z</time>
      </trkpt>
      <trkpt lat="46.00264" lon="1.39245">
        <ele>573.6</ele>
        <time>2023-11-19T10:19:03Z</time>
      </trkpt>
      <trkpt lat="46.00275" lon="1.39252">
        <ele>574.2</ele>
        <time>2023-11-19T10:19:08Z</time>
      </trkpt>
      <trkpt lat="46.0028" lon="1.39255">
        <ele>574.2</ele>
        <time>2023-11-19T10:19:10Z</time>
      </trkpt>
      <trkpt lat="46.00295" lon="1.39264">
        <ele>574.2</ele>
        <time>2023-11-19T10:19:16Z</time>
      </trkpt>
      <trkpt lat="46.00309" lon="1.39268">
        <ele>575</ele>
        <time>2023-11-19T10:19:23Z</time>
      </trkpt>
      <trkpt lat="46.00325" lon="1.3927">
        <ele>575</ele>
        <time>2023-11-19T10:19:30Z</time>
      </trkpt>
      <trkpt lat="46.0034" lon="1.39273">
        <ele>575.4</ele>
        <time>2023-11-19T10:19:35Z</time>
      </trkpt>
      <trkpt lat="46.00346" lon="1.39275">
        <ele>575.4</ele>
        <time>2023-11-19T10:19:37Z</time>
      </trkpt>
      <trkpt lat="46.00365" lon="1.3928">
        <ele>575.8</ele>
        <time>2023-11-19T10:19:43Z</time>
      </trkpt>
      <trkpt lat="46.0038" lon="1.39284">
        <ele>576.2</ele>
        <time>2023-11-19T10:19:48Z</time>
      </trkpt>
      <trkpt lat="46.00382" lon="1.39284">
        <ele>576.4</ele>
        <time>2023-11-19T10:19:49Z</time>
      </trkpt>
      <trkpt lat="46.00396" lon="1.39286">
        <ele>577.2</ele>
        <time>2023-11-19T10:19:55Z</time>
      </trkpt>
      <trkpt lat="46.00398" lon="1.39287">
        <ele>577.4</ele>
        <time>2023-11-19T10:19:56Z</time>
      </trkpt>
      <trkpt lat="46.00408" lon="1.39288">
        <ele>578.8</ele>
        <time>2023-11-19T10:20:01Z</time>
      </trkpt>
      <trkpt lat="46.0041" lon="1.39288">
        <ele>579.4</ele>
        <time>2023-11-19T10:20:02Z</time>
      </trkpt>
      <trkpt lat="46.00414" lon="1.39289">
        <ele>580</ele>
        <time>2023-11-19T10:20:04Z</time>
      </trkpt>
      <trkpt lat="46.00424" lon="1.3929">
        <ele>580.4</ele>
        <time>2023-11-19T10:20:09Z</time>
      </trkpt>
      <trkpt lat="46.00441" lon="1.3929">
        <ele>581.2</ele>
        <time>2023-11-19T10:20:15Z</time>
      </trkpt>
      <trkpt lat="46.00446" lon="1.39291">
        <ele>581.4</ele>
        <time>2023-11-19T10:20:17Z</time>
      </trkpt>
      <trkpt lat="46.00465" lon="1.39296">
        <ele>581.2</ele>
        <time>2023-11-19T10:20:24Z</time>
      </trkpt>
      <trkpt lat="46.00481" lon="1.39303">
        <ele>582</ele>
        <time>2023-11-19T10:20:30Z</time>
      </trkpt>
      <trkpt lat="46.00488" lon="1.39306">
        <ele>582.2</ele>
        <time>2023-11-19T10:20:32Z</time>
      </trkpt>
      <trkpt lat="46.00499" lon="1.39313">
        <ele>582.8</ele>
        <time>2023-11-19T10:20:36Z</time>
      </trkpt>
      <trkpt lat="46.0052" lon="1.39321">
        <ele>583</ele>
        <time>2023-11-19T10:20:43Z</time>
      </trkpt>
      <trkpt lat="46.00533" lon="1.3933">
        <ele>583.2</ele>
        <time>2023-11-19T10:20:47Z</time>
      </trkpt>
      <trkpt lat="46.00543" lon="1.39336">
        <ele>583.6</ele>
        <time>2023-11-19T10:20:50Z</time>
      </trkpt>
      <trkpt lat="46.00567" lon="1.39353">
        <ele>584</ele>
        <time>2023-11-19T10:20:57Z</time>
      </trkpt>
      <trkpt lat="46.00588" lon="1.39364">
        <ele>583.6</ele>
        <time>2023-11-19T10:21:02Z</time>
      </trkpt>
      <trkpt lat="46.00604" lon="1.39378">
        <ele>582.8</ele>
        <time>2023-11-19T10:21:07Z</time>
      </trkpt>
      <trkpt lat="46.00627" lon="1.39395">
        <ele>583.6</ele>
        <time>2023-11-19T10:21:15Z</time>
      </trkpt>
      <trkpt lat="46.0064" lon="1.39407">
        <ele>583.8</ele>
        <time>2023-11-19T10:21:21Z</time>
      </trkpt>
      <trkpt lat="46.00656" lon="1.39421">
        <ele>584</ele>
        <time>2023-11-19T10:21:28Z</time>
      </trkpt>
      <trkpt lat="46.00666" lon="1.3943">
        <ele>584.2</ele>
        <time>2023-11-19T10:21:33Z</time>
      </trkpt>
      <trkpt lat="46.0067" lon="1.39433">
        <ele>584.6</ele>
        <time>2023-11-19T10:21:35Z</time>
      </trkpt>
      <trkpt lat="46.00675" lon="1.39437">
        <ele>585.4</ele>
        <time>2023-11-19T10:21:38Z</time>
      </trkpt>
      <trkpt lat="46.00685" lon="1.39443">
        <ele>586.4</ele>
        <time>2023-11-19T10:21:43Z</time>
      </trkpt>
      <trkpt lat="46.00687" lon="1.39444">
        <ele>586.6</ele>
        <time>2023-11-19T10:21:44Z</time>
      </trkpt>
      <trkpt lat="46.00696" lon="1.39452">
        <ele>587.8</ele>
        <time>2023-11-19T10:21:50Z</time>
      </trkpt>
      <trkpt lat="46.007" lon="1.39455">
        <ele>588</ele>
        <time>2023-11-19T10:21:52Z</time>
      </trkpt>
      <trkpt lat="46.00706" lon="1.39461">
        <ele>588.8</ele>
        <time>2023-11-19T10:21:56Z</time>
      </trkpt>
      <trkpt lat="46.00713" lon="1.39464">
        <ele>590.2</ele>
        <time>2023-11-19T10:22:01Z</time>
      </trkpt>
      <trkpt lat="46.00717" lon="1.39467">
        <ele>591.2</ele>
        <time>2023-11-19T10:22:04Z</time>
      </trkpt>
      <trkpt lat="46.00722" lon="1.39469">
        <ele>592.2</ele>
        <time>2023-11-19T10:22:08Z</time>
      </trkpt>
      <trkpt lat="46.00724" lon="1.39474">
        <ele>593</ele>
        <time>2023-11-19T10:22:11Z</time>
      </trkpt>
      <trkpt lat="46.00725" lon="1.39476">
        <ele>593.4</ele>
        <time>2023-11-19T10:22:12Z</time>
      </trkpt>
      <trkpt lat="46.00728" lon="1.39492">
        <ele>594.6</ele>
        <time>2023-11-19T10:22:18Z</time>
      </trkpt>
      <trkpt lat="46.00722" lon="1.39502">
        <ele>595</ele>
        <time>2023-11-19T10:22:23Z</time>
      </trkpt>
      <trkpt lat="46.00714" lon="1.39507">
        <ele>595</ele>
        <time>2023-11-19T10:22:26Z</time>
      </trkpt>
      <trkpt lat="46.00713" lon="1.39513">
        <ele>594.6</ele>
        <time>2023-11-19T10:22:28Z</time>
      </trkpt>
      <trkpt lat="46.00719" lon="1.39519">
        <ele>594</ele>
        <time>2023-11-19T10:22:33Z</time>
      </trkpt>
      <trkpt lat="46.00725" lon="1.39524">
        <ele>595.6</ele>
        <time>2023-11-19T10:22:40Z</time>
      </trkpt>
      <trkpt lat="46.00729" lon="1.3953">
        <ele>596.6</ele>
        <time>2023-11-19T10:22:44Z</time>
      </trkpt>
      <trkpt lat="46.0073" lon="1.39536">
        <ele>596.8</ele>
        <time>2023-11-19T10:22:47Z</time>
      </trkpt>
      <trkpt lat="46.00736" lon="1.3955">
        <ele>597.4</ele>
        <time>2023-11-19T10:22:53Z</time>
      </trkpt>
      <trkpt lat="46.00745" lon="1.39569">
        <ele>597.6</ele>
        <time>2023-11-19T10:23:00Z</time>
      </trkpt>
      <trkpt lat="46.00755" lon="1.39591">
        <ele>597.2</ele>
        <time>2023-11-19T10:23:06Z</time>
      </trkpt>
      <trkpt lat="46.00767" lon="1.39612">
        <ele>597</ele>
        <time>2023-11-19T10:23:11Z</time>
      </trkpt>
      <trkpt lat="46.00772" lon="1.39621">
        <ele>596.8</ele>
        <time>2023-11-19T10:23:13Z</time>
      </trkpt>
      <trkpt lat="46.00776" lon="1.39634">
        <ele>596.6</ele>
        <time>2023-11-19T10:23:16Z</time>
      </trkpt>
      <trkpt lat="46.00779" lon="1.39637">
        <ele>596.6</ele>
        <time>2023-11-19T10:23:17Z</time>
      </trkpt>
      <trkpt lat="46.00789" lon="1.39656">
        <ele>596.8</ele>
        <time>2023-11-19T10:23:23Z</time>
      </trkpt>
      <trkpt lat="46.00797" lon="1.39679">
        <ele>597.2</ele>
        <time>2023-11-19T10:23:29Z</time>
      </trkpt>
      <trkpt lat="46.00803" lon="1.39709">
        <ele>597.2</ele>
        <time>2023-11-19T10:23:35Z</time>
      </trkpt>
      <trkpt lat="46.00817" lon="1.39735">
        <ele>596.8</ele>
        <time>2023-11-19T10:23:41Z</time>
      </trkpt>
      <trkpt lat="46.00829" lon="1.39758">
        <ele>597</ele>
        <time>2023-11-19T10:23:46Z</time>
      </trkpt>
      <trkpt lat="46.0084" lon="1.3978">
        <ele>597.6</ele>
        <time>2023-11-19T10:23:52Z</time>
      </trkpt>
      <trkpt lat="46.00846" lon="1.39788">
        <ele>597.8</ele>
        <time>2023-11-19T10:23:55Z</time>
      </trkpt>
      <trkpt lat="46.00852" lon="1.398">
        <ele>598.4</ele>
        <time>2023-11-19T10:23:58Z</time>
      </trkpt>
      <trkpt lat="46.00856" lon="1.39807">
        <ele>599</ele>
        <time>2023-11-19T10:24:00Z</time>
      </trkpt>
      <trkpt lat="46.00866" lon="1.39821">
        <ele>599.8</ele>
        <time>2023-11-19T10:24:05Z</time>
      </trkpt>
      <trkpt lat="46.00868" lon="1.39823">
        <ele>600</ele>
        <time>2023-11-19T10:24:06Z</time>
      </trkpt>
      <trkpt lat="46.00884" lon="1.39855">
        <ele>600.8</ele>
        <time>2023-11-19T10:24:15Z</time>
      </trkpt>
      <trkpt lat="46.00888" lon="1.39864">
        <ele>601</ele>
        <time>2023-11-19T10:24:18Z</time>
      </trkpt>
      <trkpt lat="46.00894" lon="1.39871">
        <ele>601.2</ele>
        <time>2023-11-19T10:24:21Z</time>
      </trkpt>
      <trkpt lat="46.00906" lon="1.39889">
        <ele>602.4</ele>
        <time>2023-11-19T10:24:28Z</time>
      </trkpt>
      <trkpt lat="46.00909" lon="1.39896">
        <ele>603.4</ele>
        <time>2023-11-19T10:24:31Z</time>
      </trkpt>
      <trkpt lat="46.00912" lon="1.39903">
        <ele>604.2</ele>
        <time>2023-11-19T10:24:35Z</time>
      </trkpt>
      <trkpt lat="46.00917" lon="1.39913">
        <ele>604.6</ele>
        <time>2023-11-19T10:24:40Z</time>
      </trkpt>
      <trkpt lat="46.00919" lon="1.39917">
        <ele>604.6</ele>
        <time>2023-11-19T10:24:42Z</time>
      </trkpt>
      <trkpt lat="46.0092" lon="1.39921">
        <ele>605</ele>
        <time>2023-11-19T10:24:44Z</time>
      </trkpt>
      <trkpt lat="46.00926" lon="1.39935">
        <ele>605.2</ele>
        <time>2023-11-19T10:24:49Z</time>
      </trkpt>
      <trkpt lat="46.00938" lon="1.39957">
        <ele>605.6</ele>
        <time>2023-11-19T10:24:56Z</time>
      </trkpt>
      <trkpt lat="46.00949" lon="1.39979">
        <ele>606.2</ele>
        <time>2023-11-19T10:25:03Z</time>
      </trkpt>
      <trkpt lat="46.00959" lon="1.4">
        <ele>606.4</ele>
        <time>2023-11-19T10:25:09Z</time>
      </trkpt>
      <trkpt lat="46.00961" lon="1.40004">
        <ele>606.6</ele>
        <time>2023-11-19T10:25:10Z</time>
      </trkpt>
      <trkpt lat="46.00965" lon="1.40027">
        <ele>606.6</ele>
        <time>2023-11-19T10:25:15Z</time>
      </trkpt>
      <trkpt lat="46.00969" lon="1.40048">
        <ele>605.4</ele>
        <time>2023-11-19T10:25:18Z</time>
      </trkpt>
      <trkpt lat="46.00971" lon="1.40055">
        <ele>605</ele>
        <time>2023-11-19T10:25:19Z</time>
      </trkpt>
      <trkpt lat="46.00975" lon="1.40065">
        <ele>603.6</ele>
        <time>2023-11-19T10:25:21Z</time>
      </trkpt>
      <trkpt lat="46.0098" lon="1.40077">
        <ele>602.2</ele>
        <time>2023-11-19T10:25:23Z</time>
      </trkpt>
      <trkpt lat="46.00984" lon="1.40091">
        <ele>600.2</ele>
        <time>2023-11-19T10:25:25Z</time>
      </trkpt>
      <trkpt lat="46.00985" lon="1.40096">
        <ele>599.4</ele>
        <time>2023-11-19T10:25:26Z</time>
      </trkpt>
      <trkpt lat="46.00984" lon="1.40103">
        <ele>599</ele>
        <time>2023-11-19T10:25:27Z</time>
      </trkpt>
      <trkpt lat="46.00986" lon="1.40119">
        <ele>597.4</ele>
        <time>2023-11-19T10:25:30Z</time>
      </trkpt>
      <trkpt lat="46.0099" lon="1.40128">
        <ele>595.8</ele>
        <time>2023-11-19T10:25:32Z</time>
      </trkpt>
      <trkpt lat="46.00994" lon="1.40132">
        <ele>594</ele>
        <time>2023-11-19T10:25:34Z</time>
      </trkpt>
      <trkpt lat="46.00997" lon="1.40137">
        <ele>593</ele>
        <time>2023-11-19T10:25:36Z</time>
      </trkpt>
      <trkpt lat="46.00997" lon="1.40151">
        <ele>592.2</ele>
        <time>2023-11-19T10:25:41Z</time>
      </trkpt>
      <trkpt lat="46.00998" lon="1.40156">
        <ele>591.6</ele>
        <time>2023-11-19T10:25:42Z</time>
      </trkpt>
      <trkpt lat="46.01002" lon="1.40161">
        <ele>591.2</ele>
        <time>2023-11-19T10:25:43Z</time>
      </trkpt>
      <trkpt lat="46.01009" lon="1.4017">
        <ele>590.4</ele>
        <time>2023-11-19T10:25:45Z</time>
      </trkpt>
      <trkpt lat="46.01012" lon="1.40174">
        <ele>590</ele>
        <time>2023-11-19T10:25:46Z</time>
      </trkpt>
      <trkpt lat="46.01023" lon="1.40188">
        <ele>589.2</ele>
        <time>2023-11-19T10:25:49Z</time>
      </trkpt>
      <trkpt lat="46.01034" lon="1.40199">
        <ele>588.2</ele>
        <time>2023-11-19T10:25:52Z</time>
      </trkpt>
      <trkpt lat="46.01037" lon="1.40203">
        <ele>588.2</ele>
        <time>2023-11-19T10:25:53Z</time>
      </trkpt>
      <trkpt lat="46.01049" lon="1.40216">
        <ele>587</ele>
        <time>2023-11-19T10:25:57Z</time>
      </trkpt>
      <trkpt lat="46.01052" lon="1.40218">
        <ele>586.8</ele>
        <time>2023-11-19T10:25:58Z</time>
      </trkpt>
      <trkpt lat="46.01074" lon="1.40226">
        <ele>585.6</ele>
        <time>2023-11-19T10:26:03Z</time>
      </trkpt>
      <trkpt lat="46.01077" lon="1.40227">
        <ele>585.4</ele>
        <time>2023-11-19T10:26:04Z</time>
      </trkpt>
      <trkpt lat="46.01085" lon="1.40228">
        <ele>584.4</ele>
        <time>2023-11-19T10:26:06Z</time>
      </trkpt>
      <trkpt lat="46.01093" lon="1.40231">
        <ele>583.4</ele>
        <time>2023-11-19T10:26:09Z</time>
      </trkpt>
      <trkpt lat="46.01094" lon="1.40232">
        <ele>583.2</ele>
        <time>2023-11-19T10:26:10Z</time>
      </trkpt>
      <trkpt lat="46.01101" lon="1.40235">
        <ele>582.2</ele>
        <time>2023-11-19T10:26:13Z</time>
      </trkpt>
      <trkpt lat="46.01108" lon="1.4024">
        <ele>580.6</ele>
        <time>2023-11-19T10:26:16Z</time>
      </trkpt>
      <trkpt lat="46.01111" lon="1.40241">
        <ele>579.6</ele>
        <time>2023-11-19T10:26:17Z</time>
      </trkpt>
      <trkpt lat="46.01114" lon="1.40241">
        <ele>579</ele>
        <time>2023-11-19T10:26:18Z</time>
      </trkpt>
      <trkpt lat="46.01121" lon="1.40243">
        <ele>577.8</ele>
        <time>2023-11-19T10:26:22Z</time>
      </trkpt>
      <trkpt lat="46.01127" lon="1.40245">
        <ele>577</ele>
        <time>2023-11-19T10:26:24Z</time>
      </trkpt>
      <trkpt lat="46.01133" lon="1.40247">
        <ele>575.4</ele>
        <time>2023-11-19T10:26:26Z</time>
      </trkpt>
      <trkpt lat="46.01138" lon="1.40249">
        <ele>573.4</ele>
        <time>2023-11-19T10:26:28Z</time>
      </trkpt>
      <trkpt lat="46.01144" lon="1.40251">
        <ele>571.6</ele>
        <time>2023-11-19T10:26:30Z</time>
      </trkpt>
      <trkpt lat="46.01149" lon="1.40254">
        <ele>570.2</ele>
        <time>2023-11-19T10:26:32Z</time>
      </trkpt>
      <trkpt lat="46.01154" lon="1.40257">
        <ele>569</ele>
        <time>2023-11-19T10:26:34Z</time>
      </trkpt>
      <trkpt lat="46.01157" lon="1.40259">
        <ele>568.6</ele>
        <time>2023-11-19T10:26:36Z</time>
      </trkpt>
      <trkpt lat="46.01163" lon="1.40265">
        <ele>567.6</ele>
        <time>2023-11-19T10:26:38Z</time>
      </trkpt>
      <trkpt lat="46.01172" lon="1.40269">
        <ele>566</ele>
        <time>2023-11-19T10:26:40Z</time>
      </trkpt>
      <trkpt lat="46.0118" lon="1.40274">
        <ele>565.4</ele>
        <time>2023-11-19T10:26:42Z</time>
      </trkpt>
      <trkpt lat="46.01184" lon="1.40276">
        <ele>564.6</ele>
        <time>2023-11-19T10:26:43Z</time>
      </trkpt>
      <trkpt lat="46.01193" lon="1.40282">
        <ele>563.4</ele>
        <time>2023-11-19T10:26:46Z</time>
      </trkpt>
      <trkpt lat="46.012" lon="1.40285">
        <ele>562.6</ele>
        <time>2023-11-19T10:26:48Z</time>
      </trkpt>
      <trkpt lat="46.01203" lon="1.40286">
        <ele>562</ele>
        <time>2023-11-19T10:26:49Z</time>
      </trkpt>
      <trkpt lat="46.01209" lon="1.40291">
        <ele>560.8</ele>
        <time>2023-11-19T10:26:51Z</time>
      </trkpt>
      <trkpt lat="46.01216" lon="1.40293">
        <ele>559.8</ele>
        <time>2023-11-19T10:26:53Z</time>
      </trkpt>
      <trkpt lat="46.01223" lon="1.40296">
        <ele>558.6</ele>
        <time>2023-11-19T10:26:55Z</time>
      </trkpt>
      <trkpt lat="46.0123" lon="1.40302">
        <ele>557.2</ele>
        <time>2023-11-19T10:26:57Z</time>
      </trkpt>
      <trkpt lat="46.01239" lon="1.40311">
        <ele>556</ele>
        <time>2023-11-19T10:27:00Z</time>
      </trkpt>
      <trkpt lat="46.01242" lon="1.40315">
        <ele>555.6</ele>
        <time>2023-11-19T10:27:01Z</time>
      </trkpt>
      <trkpt lat="46.01247" lon="1.40325">
        <ele>554.2</ele>
        <time>2023-11-19T10:27:04Z</time>
      </trkpt>
      <trkpt lat="46.0125" lon="1.40333">
        <ele>552.4</ele>
        <time>2023-11-19T10:27:05Z</time>
      </trkpt>
      <trkpt lat="46.0125" lon="1.40333">
        <ele>552.4</ele>
        <time>2023-11-19T10:27:06Z</time>
      </trkpt>
      <trkpt lat="46.01252" lon="1.40342">
        <ele>550.8</ele>
        <time>2023-11-19T10:27:08Z</time>
      </trkpt>
      <trkpt lat="46.01253" lon="1.40356">
        <ele>550.2</ele>
        <time>2023-11-19T10:27:11Z</time>
      </trkpt>
      <trkpt lat="46.01255" lon="1.40362">
        <ele>548.8</ele>
        <time>2023-11-19T10:27:12Z</time>
      </trkpt>
      <trkpt lat="46.01256" lon="1.40375">
        <ele>547.6</ele>
        <time>2023-11-19T10:27:13Z</time>
      </trkpt>
      <trkpt lat="46.01251" lon="1.40387">
        <ele>547.4</ele>
        <time>2023-11-19T10:27:15Z</time>
      </trkpt>
      <trkpt lat="46.01254" lon="1.40406">
        <ele>546.6</ele>
        <time>2023-11-19T10:27:17Z</time>
      </trkpt>
      <trkpt lat="46.01258" lon="1.40413">
        <ele>546.6</ele>
        <time>2023-11-19T10:27:18Z</time>
      </trkpt>
      <trkpt lat="46.01262" lon="1.4042">
        <ele>546.4</ele>
        <time>2023-11-19T10:27:19Z</time>
      </trkpt>
      <trkpt lat="46.01279" lon="1.40444">
        <ele>546.2</ele>
        <time>2023-11-19T10:27:24Z</time>
      </trkpt>
      <trkpt lat="46.01292" lon="1.40457">
        <ele>547.4</ele>
        <time>2023-11-19T10:27:30Z</time>
      </trkpt>
      <trkpt lat="46.01295" lon="1.40464">
        <ele>547.6</ele>
        <time>2023-11-19T10:27:33Z</time>
      </trkpt>
      <trkpt lat="46.01296" lon="1.4047">
        <ele>548.2</ele>
        <time>2023-11-19T10:27:37Z</time>
      </trkpt>
      <trkpt lat="46.01296" lon="1.40472">
        <ele>548.2</ele>
        <time>2023-11-19T10:27:38Z</time>
      </trkpt>
      <trkpt lat="46.01297" lon="1.40475">
        <ele>548.8</ele>
        <time>2023-11-19T10:27:39Z</time>
      </trkpt>
      <trkpt lat="46.013" lon="1.40495">
        <ele>549.8</ele>
        <time>2023-11-19T10:27:45Z</time>
      </trkpt>
      <trkpt lat="46.01301" lon="1.40498">
        <ele>550</ele>
        <time>2023-11-19T10:27:46Z</time>
      </trkpt>
      <trkpt lat="46.01304" lon="1.40507">
        <ele>550.6</ele>
        <time>2023-11-19T10:27:48Z</time>
      </trkpt>
      <trkpt lat="46.01304" lon="1.40515">
        <ele>551</ele>
        <time>2023-11-19T10:27:51Z</time>
      </trkpt>
      <trkpt lat="46.01309" lon="1.40537">
        <ele>551.8</ele>
        <time>2023-11-19T10:27:57Z</time>
      </trkpt>
      <trkpt lat="46.01311" lon="1.40549">
        <ele>552.2</ele>
        <time>2023-11-19T10:28:03Z</time>
      </trkpt>
      <trkpt lat="46.01312" lon="1.40551">
        <ele>552.4</ele>
        <time>2023-11-19T10:28:04Z</time>
      </trkpt>
      <trkpt lat="46.01312" lon="1.40553">
        <ele>552.6</ele>
        <time>2023-11-19T10:28:05Z</time>
      </trkpt>
      <trkpt lat="46.0131" lon="1.40557">
        <ele>552.6</ele>
        <time>2023-11-19T10:28:07Z</time>
      </trkpt>
      <trkpt lat="46.01309" lon="1.40568">
        <ele>553</ele>
        <time>2023-11-19T10:28:11Z</time>
      </trkpt>
      <trkpt lat="46.01307" lon="1.40573">
        <ele>553.4</ele>
        <time>2023-11-19T10:28:13Z</time>
      </trkpt>
      <trkpt lat="46.01307" lon="1.40581">
        <ele>554.4</ele>
        <time>2023-11-19T10:28:17Z</time>
      </trkpt>
      <trkpt lat="46.01308" lon="1.40587">
        <ele>554.8</ele>
        <time>2023-11-19T10:28:20Z</time>
      </trkpt>
      <trkpt lat="46.01306" lon="1.40591">
        <ele>555.2</ele>
        <time>2023-11-19T10:28:23Z</time>
      </trkpt>
      <trkpt lat="46.01307" lon="1.40596">
        <ele>555.2</ele>
        <time>2023-11-19T10:28:26Z</time>
      </trkpt>
      <trkpt lat="46.01307" lon="1.40597">
        <ele>555.6</ele>
        <time>2023-11-19T10:28:27Z</time>
      </trkpt>
      <trkpt lat="46.01308" lon="1.40599">
        <ele>555.8</ele>
        <time>2023-11-19T10:28:28Z</time>
      </trkpt>
      <trkpt lat="46.01312" lon="1.40604">
        <ele>556.6</ele>
        <time>2023-11-19T10:28:31Z</time>
      </trkpt>
      <trkpt lat="46.01313" lon="1.40606">
        <ele>556.8</ele>
        <time>2023-11-19T10:28:32Z</time>
      </trkpt>
      <trkpt lat="46.01324" lon="1.40615">
        <ele>557.6</ele>
        <time>2023-11-19T10:28:41Z</time>
      </trkpt>
      <trkpt lat="46.01326" lon="1.40616">
        <ele>557.6</ele>
        <time>2023-11-19T10:28:42Z</time>
      </trkpt>
      <trkpt lat="46.01339" lon="1.40623">
        <ele>558.6</ele>
        <time>2023-11-19T10:28:49Z</time>
      </trkpt>
      <trkpt lat="46.01341" lon="1.40624">
        <ele>558.8</ele>
        <time>2023-11-19T10:28:50Z</time>
      </trkpt>
      <trkpt lat="46.01352" lon="1.40632">
        <ele>559.6</ele>
        <time>2023-11-19T10:28:56Z</time>
      </trkpt>
      <trkpt lat="46.01356" lon="1.40637">
        <ele>560</ele>
        <time>2023-11-19T10:28:59Z</time>
      </trkpt>
      <trkpt lat="46.01356" lon="1.4064">
        <ele>560.2</ele>
        <time>2023-11-19T10:29:00Z</time>
      </trkpt>
      <trkpt lat="46.01357" lon="1.40649">
        <ele>560.8</ele>
        <time>2023-11-19T10:29:03Z</time>
      </trkpt>
      <trkpt lat="46.01359" lon="1.40666">
        <ele>561</ele>
        <time>2023-11-19T10:29:08Z</time>
      </trkpt>
      <trkpt lat="46.01357" lon="1.40684">
        <ele>561.6</ele>
        <time>2023-11-19T10:29:13Z</time>
      </trkpt>
      <trkpt lat="46.01356" lon="1.40691">
        <ele>562.2</ele>
        <time>2023-11-19T10:29:15Z</time>
      </trkpt>
      <trkpt lat="46.01356" lon="1.40707">
        <ele>563</ele>
        <time>2023-11-19T10:29:20Z</time>
      </trkpt>
      <trkpt lat="46.01355" lon="1.40711">
        <ele>563.2</ele>
        <time>2023-11-19T10:29:21Z</time>
      </trkpt>
      <trkpt lat="46.01352" lon="1.40729">
        <ele>564.2</ele>
        <time>2023-11-19T10:29:27Z</time>
      </trkpt>
      <trkpt lat="46.01352" lon="1.40732">
        <ele>564.4</ele>
        <time>2023-11-19T10:29:28Z</time>
      </trkpt>
      <trkpt lat="46.01349" lon="1.40751">
        <ele>565.4</ele>
        <time>2023-11-19T10:29:34Z</time>
      </trkpt>
      <trkpt lat="46.01347" lon="1.40761">
        <ele>565.8</ele>
        <time>2023-11-19T10:29:37Z</time>
      </trkpt>
      <trkpt lat="46.01345" lon="1.40769">
        <ele>566.4</ele>
        <time>2023-11-19T10:29:40Z</time>
      </trkpt>
      <trkpt lat="46.01343" lon="1.4078">
        <ele>566.6</ele>
        <time>2023-11-19T10:29:44Z</time>
      </trkpt>
      <trkpt lat="46.01338" lon="1.40795">
        <ele>567.4</ele>
        <time>2023-11-19T10:29:50Z</time>
      </trkpt>
      <trkpt lat="46.01337" lon="1.40798">
        <ele>567.6</ele>
        <time>2023-11-19T10:29:51Z</time>
      </trkpt>
      <trkpt lat="46.01326" lon="1.40812">
        <ele>568.6</ele>
        <time>2023-11-19T10:29:57Z</time>
      </trkpt>
      <trkpt lat="46.01312" lon="1.40825">
        <ele>569.6</ele>
        <time>2023-11-19T10:30:04Z</time>
      </trkpt>
      <trkpt lat="46.01298" lon="1.40837">
        <ele>570.8</ele>
        <time>2023-11-19T10:30:11Z</time>
      </trkpt>
      <trkpt lat="46.01287" lon="1.40851">
        <ele>571.8</ele>
        <time>2023-11-19T10:30:16Z</time>
      </trkpt>
      <trkpt lat="46.01285" lon="1.40858">
        <ele>572</ele>
        <time>2023-11-19T10:30:18Z</time>
      </trkpt>
      <trkpt lat="46.01279" lon="1.40884">
        <ele>572.4</ele>
        <time>2023-11-19T10:30:25Z</time>
      </trkpt>
      <trkpt lat="46.01272" lon="1.40906">
        <ele>572.2</ele>
        <time>2023-11-19T10:30:32Z</time>
      </trkpt>
      <trkpt lat="46.01256" lon="1.40914">
        <ele>572.4</ele>
        <time>2023-11-19T10:30:38Z</time>
      </trkpt>
      <trkpt lat="46.01236" lon="1.40915">
        <ele>572.4</ele>
        <time>2023-11-19T10:30:44Z</time>
      </trkpt>
      <trkpt lat="46.01217" lon="1.40919">
        <ele>572.4</ele>
        <time>2023-11-19T10:30:50Z</time>
      </trkpt>
      <trkpt lat="46.01194" lon="1.40928">
        <ele>571.6</ele>
        <time>2023-11-19T10:30:58Z</time>
      </trkpt>
      <trkpt lat="46.01183" lon="1.4093">
        <ele>570.6</ele>
        <time>2023-11-19T10:31:02Z</time>
      </trkpt>
      <trkpt lat="46.0118" lon="1.40929">
        <ele>570.2</ele>
        <time>2023-11-19T10:31:03Z</time>
      </trkpt>
      <trkpt lat="46.01167" lon="1.40928">
        <ele>570</ele>
        <time>2023-11-19T10:31:08Z</time>
      </trkpt>
      <trkpt lat="46.01163" lon="1.40929">
        <ele>570</ele>
        <time>2023-11-19T10:31:09Z</time>
      </trkpt>
      <trkpt lat="46.01154" lon="1.40933">
        <ele>570.2</ele>
        <time>2023-11-19T10:31:11Z</time>
      </trkpt>
      <trkpt lat="46.01149" lon="1.40937">
        <ele>569</ele>
        <time>2023-11-19T10:31:12Z</time>
      </trkpt>
      <trkpt lat="46.01144" lon="1.40942">
        <ele>568.4</ele>
        <time>2023-11-19T10:31:13Z</time>
      </trkpt>
      <trkpt lat="46.01139" lon="1.40947">
        <ele>567.4</ele>
        <time>2023-11-19T10:31:14Z</time>
      </trkpt>
      <trkpt lat="46.0113" lon="1.40958">
        <ele>566.4</ele>
        <time>2023-11-19T10:31:16Z</time>
      </trkpt>
      <trkpt lat="46.01127" lon="1.40964">
        <ele>565.8</ele>
        <time>2023-11-19T10:31:17Z</time>
      </trkpt>
      <trkpt lat="46.01123" lon="1.4097">
        <ele>565.2</ele>
        <time>2023-11-19T10:31:18Z</time>
      </trkpt>
      <trkpt lat="46.01116" lon="1.40983">
        <ele>563.4</ele>
        <time>2023-11-19T10:31:20Z</time>
      </trkpt>
      <trkpt lat="46.01107" lon="1.40995">
        <ele>562</ele>
        <time>2023-11-19T10:31:22Z</time>
      </trkpt>
      <trkpt lat="46.01103" lon="1.41001">
        <ele>561.6</ele>
        <time>2023-11-19T10:31:23Z</time>
      </trkpt>
      <trkpt lat="46.01085" lon="1.41019">
        <ele>561.2</ele>
        <time>2023-11-19T10:31:27Z</time>
      </trkpt>
      <trkpt lat="46.01081" lon="1.41022">
        <ele>561.2</ele>
        <time>2023-11-19T10:31:28Z</time>
      </trkpt>
      <trkpt lat="46.01075" lon="1.41024">
        <ele>560.8</ele>
        <time>2023-11-19T10:31:30Z</time>
      </trkpt>
      <trkpt lat="46.0107" lon="1.41025">
        <ele>560.6</ele>
        <time>2023-11-19T10:31:32Z</time>
      </trkpt>
      <trkpt lat="46.01052" lon="1.41027">
        <ele>560</ele>
        <time>2023-11-19T10:31:40Z</time>
      </trkpt>
      <trkpt lat="46.01037" lon="1.41029">
        <ele>560.4</ele>
        <time>2023-11-19T10:31:47Z</time>
      </trkpt>
      <trkpt lat="46.0103" lon="1.41037">
        <ele>560.8</ele>
        <time>2023-11-19T10:31:53Z</time>
      </trkpt>
      <trkpt lat="46.01027" lon="1.41042">
        <ele>561.2</ele>
        <time>2023-11-19T10:31:59Z</time>
      </trkpt>
      <trkpt lat="46.01026" lon="1.41044">
        <ele>561.6</ele>
        <time>2023-11-19T10:32:01Z</time>
      </trkpt>
      <trkpt lat="46.01024" lon="1.41045">
        <ele>562</ele>
        <time>2023-11-19T10:32:03Z</time>
      </trkpt>
      <trkpt lat="46.0102" lon="1.4105">
        <ele>563.2</ele>
        <time>2023-11-19T10:32:07Z</time>
      </trkpt>
      <trkpt lat="46.01018" lon="1.41052">
        <ele>563.4</ele>
        <time>2023-11-19T10:32:09Z</time>
      </trkpt>
      <trkpt lat="46.01012" lon="1.41059">
        <ele>564.4</ele>
        <time>2023-11-19T10:32:15Z</time>
      </trkpt>
      <trkpt lat="46.01011" lon="1.41059">
        <ele>564.8</ele>
        <time>2023-11-19T10:32:16Z</time>
      </trkpt>
      <trkpt lat="46.01009" lon="1.41059">
        <ele>565.4</ele>
        <time>2023-11-19T10:32:18Z</time>
      </trkpt>
      <trkpt lat="46.01007" lon="1.41061">
        <ele>566</ele>
        <time>2023-11-19T10:32:20Z</time>
      </trkpt>
      <trkpt lat="46.01005" lon="1.41062">
        <ele>566.4</ele>
        <time>2023-11-19T10:32:22Z</time>
      </trkpt>
      <trkpt lat="46.01003" lon="1.41063">
        <ele>566.6</ele>
        <time>2023-11-19T10:32:23Z</time>
      </trkpt>
      <trkpt lat="46.01002" lon="1.41064">
        <ele>566.6</ele>
        <time>2023-11-19T10:32:24Z</time>
      </trkpt>
      <trkpt lat="46.00995" lon="1.41069">
        <ele>567.2</ele>
        <time>2023-11-19T10:32:31Z</time>
      </trkpt>
      <trkpt lat="46.00994" lon="1.41069">
        <ele>567.8</ele>
        <time>2023-11-19T10:32:35Z</time>
      </trkpt>
      <trkpt lat="46.00993" lon="1.4107">
        <ele>568.6</ele>
        <time>2023-11-19T10:32:38Z</time>
      </trkpt>
      <trkpt lat="46.00989" lon="1.41073">
        <ele>568.6</ele>
        <time>2023-11-19T10:32:44Z</time>
      </trkpt>
      <trkpt lat="46.00988" lon="1.41074">
        <ele>568.6</ele>
        <time>2023-11-19T10:32:45Z</time>
      </trkpt>
      <trkpt lat="46.00987" lon="1.41075">
        <ele>569</ele>
        <time>2023-11-19T10:32:46Z</time>
      </trkpt>
      <trkpt lat="46.0098" lon="1.41078">
        <ele>570</ele>
        <time>2023-11-19T10:32:52Z</time>
      </trkpt>
      <trkpt lat="46.0098" lon="1.41079">
        <ele>570.2</ele>
        <time>2023-11-19T10:32:53Z</time>
      </trkpt>
      <trkpt lat="46.00976" lon="1.41081">
        <ele>571.2</ele>
        <time>2023-11-19T10:32:58Z</time>
      </trkpt>
      <trkpt lat="46.0097" lon="1.41086">
        <ele>572</ele>
        <time>2023-11-19T10:33:07Z</time>
      </trkpt>
      <trkpt lat="46.00969" lon="1.41086">
        <ele>572.2</ele>
        <time>2023-11-19T10:33:08Z</time>
      </trkpt>
      <trkpt lat="46.00965" lon="1.4109">
        <ele>573</ele>
        <time>2023-11-19T10:33:13Z</time>
      </trkpt>
      <trkpt lat="46.00963" lon="1.41091">
        <ele>573.2</ele>
        <time>2023-11-19T10:33:15Z</time>
      </trkpt>
      <trkpt lat="46.00962" lon="1.41093">
        <ele>573.6</ele>
        <time>2023-11-19T10:33:16Z</time>
      </trkpt>
      <trkpt lat="46.00959" lon="1.41097">
        <ele>574.4</ele>
        <time>2023-11-19T10:33:21Z</time>
      </trkpt>
      <trkpt lat="46.00958" lon="1.41098">
        <ele>574.6</ele>
        <time>2023-11-19T10:33:22Z</time>
      </trkpt>
      <trkpt lat="46.00956" lon="1.41101">
        <ele>574.8</ele>
        <time>2023-11-19T10:33:26Z</time>
      </trkpt>
      <trkpt lat="46.00953" lon="1.41106">
        <ele>575.6</ele>
        <time>2023-11-19T10:33:32Z</time>
      </trkpt>
      <trkpt lat="46.00952" lon="1.41109">
        <ele>576.2</ele>
        <time>2023-11-19T10:33:36Z</time>
      </trkpt>
      <trkpt lat="46.00951" lon="1.4111">
        <ele>576.4</ele>
        <time>2023-11-19T10:33:37Z</time>
      </trkpt>
      <trkpt lat="46.0095" lon="1.41112">
        <ele>576.6</ele>
        <time>2023-11-19T10:33:41Z</time>
      </trkpt>
      <trkpt lat="46.00945" lon="1.41113">
        <ele>577</ele>
        <time>2023-11-19T10:33:48Z</time>
      </trkpt>
      <trkpt lat="46.00944" lon="1.41113">
        <ele>577</ele>
        <time>2023-11-19T10:33:49Z</time>
      </trkpt>
      <trkpt lat="46.00942" lon="1.41111">
        <ele>577.6</ele>
        <time>2023-11-19T10:33:52Z</time>
      </trkpt>
      <trkpt lat="46.00941" lon="1.41111">
        <ele>578.2</ele>
        <time>2023-11-19T10:33:53Z</time>
      </trkpt>
      <trkpt lat="46.00939" lon="1.41107">
        <ele>579</ele>
        <time>2023-11-19T10:33:57Z</time>
      </trkpt>
      <trkpt lat="46.00939" lon="1.41105">
        <ele>579.2</ele>
        <time>2023-11-19T10:33:58Z</time>
      </trkpt>
      <trkpt lat="46.00938" lon="1.41102">
        <ele>579.8</ele>
        <time>2023-11-19T10:34:00Z</time>
      </trkpt>
      <trkpt lat="46.00937" lon="1.411">
        <ele>579.6</ele>
        <time>2023-11-19T10:34:01Z</time>
      </trkpt>
      <trkpt lat="46.00936" lon="1.41099">
        <ele>579.8</ele>
        <time>2023-11-19T10:34:02Z</time>
      </trkpt>
      <trkpt lat="46.00932" lon="1.41096">
        <ele>580.2</ele>
        <time>2023-11-19T10:34:05Z</time>
      </trkpt>
      <trkpt lat="46.00926" lon="1.41096">
        <ele>581</ele>
        <time>2023-11-19T10:34:09Z</time>
      </trkpt>
      <trkpt lat="46.00916" lon="1.411">
        <ele>581.4</ele>
        <time>2023-11-19T10:34:15Z</time>
      </trkpt>
      <trkpt lat="46.00912" lon="1.41101">
        <ele>581.4</ele>
        <time>2023-11-19T10:34:17Z</time>
      </trkpt>
      <trkpt lat="46.00901" lon="1.41103">
        <ele>581.6</ele>
        <time>2023-11-19T10:34:25Z</time>
      </trkpt>
      <trkpt lat="46.00891" lon="1.41106">
        <ele>582</ele>
        <time>2023-11-19T10:34:32Z</time>
      </trkpt>
      <trkpt lat="46.00887" lon="1.41107">
        <ele>582.6</ele>
        <time>2023-11-19T10:34:35Z</time>
      </trkpt>
      <trkpt lat="46.00882" lon="1.41109">
        <ele>583.2</ele>
        <time>2023-11-19T10:34:39Z</time>
      </trkpt>
      <trkpt lat="46.00879" lon="1.4111">
        <ele>583.8</ele>
        <time>2023-11-19T10:34:41Z</time>
      </trkpt>
      <trkpt lat="46.00874" lon="1.41112">
        <ele>585</ele>
        <time>2023-11-19T10:34:46Z</time>
      </trkpt>
      <trkpt lat="46.00873" lon="1.41112">
        <ele>585.2</ele>
        <time>2023-11-19T10:34:47Z</time>
      </trkpt>
      <trkpt lat="46.00872" lon="1.41113">
        <ele>585.8</ele>
        <time>2023-11-19T10:34:49Z</time>
      </trkpt>
      <trkpt lat="46.00871" lon="1.41114">
        <ele>586</ele>
        <time>2023-11-19T10:34:50Z</time>
      </trkpt>
      <trkpt lat="46.00868" lon="1.41118">
        <ele>586.6</ele>
        <time>2023-11-19T10:34:54Z</time>
      </trkpt>
      <trkpt lat="46.00865" lon="1.41122">
        <ele>586.6</ele>
        <time>2023-11-19T10:34:56Z</time>
      </trkpt>
      <trkpt lat="46.00864" lon="1.41123">
        <ele>587</ele>
        <time>2023-11-19T10:34:57Z</time>
      </trkpt>
      <trkpt lat="46.00863" lon="1.41125">
        <ele>587.2</ele>
        <time>2023-11-19T10:34:58Z</time>
      </trkpt>
      <trkpt lat="46.00857" lon="1.41131">
        <ele>588.2</ele>
        <time>2023-11-19T10:35:03Z</time>
      </trkpt>
      <trkpt lat="46.00854" lon="1.41136">
        <ele>589.2</ele>
        <time>2023-11-19T10:35:06Z</time>
      </trkpt>
      <trkpt lat="46.00854" lon="1.41137">
        <ele>589.4</ele>
        <time>2023-11-19T10:35:07Z</time>
      </trkpt>
      <trkpt lat="46.00852" lon="1.4114">
        <ele>589.6</ele>
        <time>2023-11-19T10:35:10Z</time>
      </trkpt>
      <trkpt lat="46.00848" lon="1.41143">
        <ele>590.2</ele>
        <time>2023-11-19T10:35:14Z</time>
      </trkpt>
      <trkpt lat="46.00846" lon="1.41145">
        <ele>590.4</ele>
        <time>2023-11-19T10:35:16Z</time>
      </trkpt>
      <trkpt lat="46.00838" lon="1.4115">
        <ele>591.6</ele>
        <time>2023-11-19T10:35:21Z</time>
      </trkpt>
      <trkpt lat="46.00832" lon="1.41155">
        <ele>592.6</ele>
        <time>2023-11-19T10:35:26Z</time>
      </trkpt>
      <trkpt lat="46.00831" lon="1.41156">
        <ele>592.6</ele>
        <time>2023-11-19T10:35:27Z</time>
      </trkpt>
      <trkpt lat="46.00828" lon="1.41158">
        <ele>592.8</ele>
        <time>2023-11-19T10:35:29Z</time>
      </trkpt>
      <trkpt lat="46.00819" lon="1.41167">
        <ele>593.8</ele>
        <time>2023-11-19T10:35:37Z</time>
      </trkpt>
      <trkpt lat="46.00818" lon="1.41168">
        <ele>593.8</ele>
        <time>2023-11-19T10:35:38Z</time>
      </trkpt>
      <trkpt lat="46.00817" lon="1.41171">
        <ele>594.2</ele>
        <time>2023-11-19T10:35:40Z</time>
      </trkpt>
      <trkpt lat="46.00813" lon="1.41175">
        <ele>594.6</ele>
        <time>2023-11-19T10:35:43Z</time>
      </trkpt>
      <trkpt lat="46.0081" lon="1.41178">
        <ele>595</ele>
        <time>2023-11-19T10:35:45Z</time>
      </trkpt>
      <trkpt lat="46.00801" lon="1.41186">
        <ele>595.4</ele>
        <time>2023-11-19T10:35:50Z</time>
      </trkpt>
      <trkpt lat="46.00793" lon="1.41189">
        <ele>596.2</ele>
        <time>2023-11-19T10:35:56Z</time>
      </trkpt>
      <trkpt lat="46.00791" lon="1.41192">
        <ele>596.6</ele>
        <time>2023-11-19T10:35:58Z</time>
      </trkpt>
      <trkpt lat="46.00789" lon="1.41195">
        <ele>596.8</ele>
        <time>2023-11-19T10:36:00Z</time>
      </trkpt>
      <trkpt lat="46.00787" lon="1.41198">
        <ele>597.2</ele>
        <time>2023-11-19T10:36:02Z</time>
      </trkpt>
      <trkpt lat="46.00783" lon="1.41204">
        <ele>597.6</ele>
        <time>2023-11-19T10:36:06Z</time>
      </trkpt>
      <trkpt lat="46.00779" lon="1.41209">
        <ele>598.2</ele>
        <time>2023-11-19T10:36:10Z</time>
      </trkpt>
      <trkpt lat="46.00777" lon="1.4121">
        <ele>598.4</ele>
        <time>2023-11-19T10:36:11Z</time>
      </trkpt>
      <trkpt lat="46.00773" lon="1.41212">
        <ele>599.2</ele>
        <time>2023-11-19T10:36:13Z</time>
      </trkpt>
      <trkpt lat="46.00768" lon="1.41213">
        <ele>599.6</ele>
        <time>2023-11-19T10:36:15Z</time>
      </trkpt>
      <trkpt lat="46.00756" lon="1.41219">
        <ele>600.4</ele>
        <time>2023-11-19T10:36:20Z</time>
      </trkpt>
      <trkpt lat="46.00754" lon="1.41219">
        <ele>600.6</ele>
        <time>2023-11-19T10:36:21Z</time>
      </trkpt>
      <trkpt lat="46.00744" lon="1.41225">
        <ele>600.6</ele>
        <time>2023-11-19T10:36:27Z</time>
      </trkpt>
      <trkpt lat="46.00736" lon="1.41232">
        <ele>602</ele>
        <time>2023-11-19T10:36:32Z</time>
      </trkpt>
      <trkpt lat="46.00735" lon="1.41233">
        <ele>602.2</ele>
        <time>2023-11-19T10:36:33Z</time>
      </trkpt>
      <trkpt lat="46.00732" lon="1.41236">
        <ele>603</ele>
        <time>2023-11-19T10:36:35Z</time>
      </trkpt>
      <trkpt lat="46.00726" lon="1.41242">
        <ele>604</ele>
        <time>2023-11-19T10:36:41Z</time>
      </trkpt>
      <trkpt lat="46.00725" lon="1.41243">
        <ele>604</ele>
        <time>2023-11-19T10:36:42Z</time>
      </trkpt>
      <trkpt lat="46.0072" lon="1.41246">
        <ele>605</ele>
        <time>2023-11-19T10:36:46Z</time>
      </trkpt>
      <trkpt lat="46.00715" lon="1.4125">
        <ele>605.6</ele>
        <time>2023-11-19T10:36:50Z</time>
      </trkpt>
      <trkpt lat="46.00711" lon="1.41252">
        <ele>606.6</ele>
        <time>2023-11-19T10:36:52Z</time>
      </trkpt>
      <trkpt lat="46.00705" lon="1.41255">
        <ele>607.6</ele>
        <time>2023-11-19T10:36:56Z</time>
      </trkpt>
      <trkpt lat="46.00703" lon="1.41256">
        <ele>607.8</ele>
        <time>2023-11-19T10:36:57Z</time>
      </trkpt>
      <trkpt lat="46.00688" lon="1.4126">
        <ele>608.2</ele>
        <time>2023-11-19T10:37:04Z</time>
      </trkpt>
      <trkpt lat="46.00679" lon="1.41265">
        <ele>608.6</ele>
        <time>2023-11-19T10:37:08Z</time>
      </trkpt>
      <trkpt lat="46.00668" lon="1.4127">
        <ele>609.6</ele>
        <time>2023-11-19T10:37:12Z</time>
      </trkpt>
      <trkpt lat="46.00662" lon="1.41275">
        <ele>609.6</ele>
        <time>2023-11-19T10:37:14Z</time>
      </trkpt>
      <trkpt lat="46.0065" lon="1.41286">
        <ele>609.8</ele>
        <time>2023-11-19T10:37:19Z</time>
      </trkpt>
      <trkpt lat="46.00643" lon="1.41293">
        <ele>610.8</ele>
        <time>2023-11-19T10:37:22Z</time>
      </trkpt>
      <trkpt lat="46.00637" lon="1.41298">
        <ele>611.6</ele>
        <time>2023-11-19T10:37:25Z</time>
      </trkpt>
      <trkpt lat="46.00633" lon="1.41302">
        <ele>611.8</ele>
        <time>2023-11-19T10:37:27Z</time>
      </trkpt>
      <trkpt lat="46.00619" lon="1.41317">
        <ele>612</ele>
        <time>2023-11-19T10:37:34Z</time>
      </trkpt>
      <trkpt lat="46.00611" lon="1.41324">
        <ele>613</ele>
        <time>2023-11-19T10:37:38Z</time>
      </trkpt>
      <trkpt lat="46.00605" lon="1.41329">
        <ele>613.4</ele>
        <time>2023-11-19T10:37:41Z</time>
      </trkpt>
      <trkpt lat="46.00599" lon="1.41335">
        <ele>614.2</ele>
        <time>2023-11-19T10:37:45Z</time>
      </trkpt>
      <trkpt lat="46.00595" lon="1.4134">
        <ele>614.8</ele>
        <time>2023-11-19T10:37:48Z</time>
      </trkpt>
      <trkpt lat="46.0058" lon="1.41352">
        <ele>614.4</ele>
        <time>2023-11-19T10:37:55Z</time>
      </trkpt>
      <trkpt lat="46.00567" lon="1.4136">
        <ele>614.6</ele>
        <time>2023-11-19T10:38:01Z</time>
      </trkpt>
      <trkpt lat="46.00557" lon="1.41368">
        <ele>614.2</ele>
        <time>2023-11-19T10:38:04Z</time>
      </trkpt>
      <trkpt lat="46.00548" lon="1.41374">
        <ele>614.2</ele>
        <time>2023-11-19T10:38:07Z</time>
      </trkpt>
      <trkpt lat="46.00539" lon="1.41379">
        <ele>613.6</ele>
        <time>2023-11-19T10:38:10Z</time>
      </trkpt>
      <trkpt lat="46.00535" lon="1.41382">
        <ele>613.2</ele>
        <time>2023-11-19T10:38:12Z</time>
      </trkpt>
      <trkpt lat="46.00535" lon="1.41384">
        <ele>613</ele>
        <time>2023-11-19T10:38:13Z</time>
      </trkpt>
      <trkpt lat="46.00534" lon="1.41385">
        <ele>613</ele>
        <time>2023-11-19T10:38:14Z</time>
      </trkpt>
      <trkpt lat="46.00526" lon="1.41404">
        <ele>613.6</ele>
        <time>2023-11-19T10:38:22Z</time>
      </trkpt>
      <trkpt lat="46.00523" lon="1.41409">
        <ele>614.2</ele>
        <time>2023-11-19T10:38:24Z</time>
      </trkpt>
      <trkpt lat="46.00518" lon="1.41427">
        <ele>615</ele>
        <time>2023-11-19T10:38:28Z</time>
      </trkpt>
      <trkpt lat="46.00512" lon="1.41462">
        <ele>615</ele>
        <time>2023-11-19T10:38:36Z</time>
      </trkpt>
      <trkpt lat="46.00507" lon="1.41488">
        <ele>615</ele>
        <time>2023-11-19T10:38:42Z</time>
      </trkpt>
      <trkpt lat="46.00505" lon="1.41502">
        <ele>615.2</ele>
        <time>2023-11-19T10:38:45Z</time>
      </trkpt>
      <trkpt lat="46.00504" lon="1.41513">
        <ele>616</ele>
        <time>2023-11-19T10:38:49Z</time>
      </trkpt>
      <trkpt lat="46.00503" lon="1.41519">
        <ele>616.4</ele>
        <time>2023-11-19T10:38:51Z</time>
      </trkpt>
      <trkpt lat="46.00502" lon="1.41528">
        <ele>617</ele>
        <time>2023-11-19T10:38:54Z</time>
      </trkpt>
      <trkpt lat="46.00497" lon="1.41541">
        <ele>617</ele>
        <time>2023-11-19T10:39:00Z</time>
      </trkpt>
      <trkpt lat="46.00492" lon="1.41548">
        <ele>617.6</ele>
        <time>2023-11-19T10:39:03Z</time>
      </trkpt>
      <trkpt lat="46.00485" lon="1.41558">
        <ele>617.6</ele>
        <time>2023-11-19T10:39:07Z</time>
      </trkpt>
      <trkpt lat="46.00472" lon="1.41579">
        <ele>617.8</ele>
        <time>2023-11-19T10:39:14Z</time>
      </trkpt>
      <trkpt lat="46.00467" lon="1.41591">
        <ele>618.2</ele>
        <time>2023-11-19T10:39:18Z</time>
      </trkpt>
      <trkpt lat="46.00465" lon="1.41598">
        <ele>618.2</ele>
        <time>2023-11-19T10:39:20Z</time>
      </trkpt>
      <trkpt lat="46.00463" lon="1.41612">
        <ele>618.2</ele>
        <time>2023-11-19T10:39:24Z</time>
      </trkpt>
      <trkpt lat="46.00465" lon="1.41621">
        <ele>618.2</ele>
        <time>2023-11-19T10:39:26Z</time>
      </trkpt>
      <trkpt lat="46.00467" lon="1.41633">
        <ele>618.6</ele>
        <time>2023-11-19T10:39:29Z</time>
      </trkpt>
      <trkpt lat="46.00464" lon="1.41646">
        <ele>618.8</ele>
        <time>2023-11-19T10:39:32Z</time>
      </trkpt>
      <trkpt lat="46.00458" lon="1.41673">
        <ele>618.6</ele>
        <time>2023-11-19T10:39:38Z</time>
      </trkpt>
      <trkpt lat="46.00452" lon="1.41715">
        <ele>618</ele>
        <time>2023-11-19T10:39:44Z</time>
      </trkpt>
      <trkpt lat="46.00451" lon="1.4174">
        <ele>617.6</ele>
        <time>2023-11-19T10:39:49Z</time>
      </trkpt>
      <trkpt lat="46.00451" lon="1.41744">
        <ele>617.4</ele>
        <time>2023-11-19T10:39:50Z</time>
      </trkpt>
      <trkpt lat="46.00449" lon="1.41756">
        <ele>617.4</ele>
        <time>2023-11-19T10:39:54Z</time>
      </trkpt>
      <trkpt lat="46.00447" lon="1.41759">
        <ele>617.4</ele>
        <time>2023-11-19T10:39:55Z</time>
      </trkpt>
      <trkpt lat="46.00435" lon="1.41776">
        <ele>617.2</ele>
        <time>2023-11-19T10:40:01Z</time>
      </trkpt>
      <trkpt lat="46.00416" lon="1.41807">
        <ele>617.4</ele>
        <time>2023-11-19T10:40:08Z</time>
      </trkpt>
      <trkpt lat="46.00403" lon="1.41837">
        <ele>617.4</ele>
        <time>2023-11-19T10:40:15Z</time>
      </trkpt>
      <trkpt lat="46.00395" lon="1.41848">
        <ele>616.4</ele>
        <time>2023-11-19T10:40:18Z</time>
      </trkpt>
      <trkpt lat="46.00391" lon="1.41855">
        <ele>616</ele>
        <time>2023-11-19T10:40:20Z</time>
      </trkpt>
      <trkpt lat="46.00386" lon="1.41864">
        <ele>616</ele>
        <time>2023-11-19T10:40:24Z</time>
      </trkpt>
      <trkpt lat="46.00373" lon="1.41866">
        <ele>615.8</ele>
        <time>2023-11-19T10:40:32Z</time>
      </trkpt>
      <trkpt lat="46.00372" lon="1.41865">
        <ele>615.8</ele>
        <time>2023-11-19T10:40:33Z</time>
      </trkpt>
      <trkpt lat="46.00367" lon="1.41852">
        <ele>617.4</ele>
        <time>2023-11-19T10:40:40Z</time>
      </trkpt>
      <trkpt lat="46.00366" lon="1.41849">
        <ele>617.4</ele>
        <time>2023-11-19T10:40:41Z</time>
      </trkpt>
      <trkpt lat="46.00361" lon="1.41825">
        <ele>618</ele>
        <time>2023-11-19T10:40:48Z</time>
      </trkpt>
      <trkpt lat="46.00359" lon="1.41811">
        <ele>618.4</ele>
        <time>2023-11-19T10:40:52Z</time>
      </trkpt>
      <trkpt lat="46.00358" lon="1.41802">
        <ele>618.4</ele>
        <time>2023-11-19T10:40:55Z</time>
      </trkpt>
      <trkpt lat="46.00357" lon="1.41785">
        <ele>619</ele>
        <time>2023-11-19T10:41:01Z</time>
      </trkpt>
      <trkpt lat="46.00354" lon="1.4178">
        <ele>619</ele>
        <time>2023-11-19T10:41:03Z</time>
      </trkpt>
      <trkpt lat="46.00349" lon="1.41778">
        <ele>619</ele>
        <time>2023-11-19T10:41:05Z</time>
      </trkpt>
      <trkpt lat="46.00339" lon="1.41786">
        <ele>619</ele>
        <time>2023-11-19T10:41:10Z</time>
      </trkpt>
      <trkpt lat="46.00327" lon="1.41798">
        <ele>619.8</ele>
        <time>2023-11-19T10:41:15Z</time>
      </trkpt>
      <trkpt lat="46.00309" lon="1.41823">
        <ele>620.2</ele>
        <time>2023-11-19T10:41:22Z</time>
      </trkpt>
      <trkpt lat="46.00303" lon="1.41828">
        <ele>620.2</ele>
        <time>2023-11-19T10:41:24Z</time>
      </trkpt>
      <trkpt lat="46.00292" lon="1.41844">
        <ele>620.2</ele>
        <time>2023-11-19T10:41:28Z</time>
      </trkpt>
      <trkpt lat="46.00283" lon="1.41857">
        <ele>620.4</ele>
        <time>2023-11-19T10:41:31Z</time>
      </trkpt>
      <trkpt lat="46.00274" lon="1.41869">
        <ele>620.6</ele>
        <time>2023-11-19T10:41:34Z</time>
      </trkpt>
      <trkpt lat="46.00267" lon="1.41878">
        <ele>620.6</ele>
        <time>2023-11-19T10:41:36Z</time>
      </trkpt>
      <trkpt lat="46.0026" lon="1.41886">
        <ele>620.4</ele>
        <time>2023-11-19T10:41:38Z</time>
      </trkpt>
      <trkpt lat="46.00248" lon="1.41899">
        <ele>620</ele>
        <time>2023-11-19T10:41:42Z</time>
      </trkpt>
      <trkpt lat="46.00245" lon="1.41902">
        <ele>620</ele>
        <time>2023-11-19T10:41:43Z</time>
      </trkpt>
      <trkpt lat="46.00226" lon="1.41917">
        <ele>619.8</ele>
        <time>2023-11-19T10:41:47Z</time>
      </trkpt>
      <trkpt lat="46.00198" lon="1.4193">
        <ele>618.6</ele>
        <time>2023-11-19T10:41:53Z</time>
      </trkpt>
      <trkpt lat="46.00194" lon="1.41931">
        <ele>617</ele>
        <time>2023-11-19T10:41:54Z</time>
      </trkpt>
      <trkpt lat="46.00186" lon="1.41932">
        <ele>615.4</ele>
        <time>2023-11-19T10:41:56Z</time>
      </trkpt>
      <trkpt lat="46.00172" lon="1.41936">
        <ele>615.2</ele>
        <time>2023-11-19T10:41:59Z</time>
      </trkpt>
      <trkpt lat="46.00148" lon="1.41942">
        <ele>615.2</ele>
        <time>2023-11-19T10:42:05Z</time>
      </trkpt>
      <trkpt lat="46.00126" lon="1.41949">
        <ele>615.2</ele>
        <time>2023-11-19T10:42:10Z</time>
      </trkpt>
      <trkpt lat="46.00117" lon="1.41952">
        <ele>615.2</ele>
        <time>2023-11-19T10:42:12Z</time>
      </trkpt>
      <trkpt lat="46.00111" lon="1.41954">
        <ele>615.2</ele>
        <time>2023-11-19T10:42:13Z</time>
      </trkpt>
      <trkpt lat="46.00073" lon="1.41973">
        <ele>614.8</ele>
        <time>2023-11-19T10:42:18Z</time>
      </trkpt>
      <trkpt lat="46.00067" lon="1.41977">
        <ele>614.8</ele>
        <time>2023-11-19T10:42:19Z</time>
      </trkpt>
      <trkpt lat="46.00063" lon="1.41977">
        <ele>614.4</ele>
        <time>2023-11-19T10:42:20Z</time>
      </trkpt>
      <trkpt lat="46.00061" lon="1.41976">
        <ele>614</ele>
        <time>2023-11-19T10:42:21Z</time>
      </trkpt>
      <trkpt lat="46.00055" lon="1.41976">
        <ele>613.4</ele>
        <time>2023-11-19T10:42:24Z</time>
      </trkpt>
      <trkpt lat="46.00049" lon="1.41976">
        <ele>613.4</ele>
        <time>2023-11-19T10:42:26Z</time>
      </trkpt>
      <trkpt lat="46.00036" lon="1.41967">
        <ele>615.2</ele>
        <time>2023-11-19T10:42:36Z</time>
      </trkpt>
      <trkpt lat="46.00036" lon="1.41966">
        <ele>615.4</ele>
        <time>2023-11-19T10:42:37Z</time>
      </trkpt>
      <trkpt lat="46.00034" lon="1.41962">
        <ele>616.4</ele>
        <time>2023-11-19T10:42:41Z</time>
      </trkpt>
      <trkpt lat="46.00033" lon="1.41956">
        <ele>617.2</ele>
        <time>2023-11-19T10:42:46Z</time>
      </trkpt>
      <trkpt lat="46.00033" lon="1.41954">
        <ele>617.6</ele>
        <time>2023-11-19T10:42:48Z</time>
      </trkpt>
      <trkpt lat="46.00033" lon="1.41953">
        <ele>619</ele>
        <time>2023-11-19T10:42:50Z</time>
      </trkpt>
      <trkpt lat="46.00034" lon="1.41952">
        <ele>619.2</ele>
        <time>2023-11-19T10:42:51Z</time>
      </trkpt>
      <trkpt lat="46.00033" lon="1.41947">
        <ele>619.8</ele>
        <time>2023-11-19T10:42:54Z</time>
      </trkpt>
      <trkpt lat="46.00033" lon="1.41946">
        <ele>619.8</ele>
        <time>2023-11-19T10:42:55Z</time>
      </trkpt>
      <trkpt lat="46.00032" lon="1.41944">
        <ele>620</ele>
        <time>2023-11-19T10:42:56Z</time>
      </trkpt>
      <trkpt lat="46.00028" lon="1.41937">
        <ele>620.8</ele>
        <time>2023-11-19T10:43:01Z</time>
      </trkpt>
      <trkpt lat="46.00027" lon="1.41936">
        <ele>621.2</ele>
        <time>2023-11-19T10:43:02Z</time>
      </trkpt>
      <trkpt lat="46.00026" lon="1.41935">
        <ele>621.4</ele>
        <time>2023-11-19T10:43:03Z</time>
      </trkpt>
      <trkpt lat="46.0002" lon="1.41929">
        <ele>622.2</ele>
        <time>2023-11-19T10:43:09Z</time>
      </trkpt>
      <trkpt lat="46.00019" lon="1.41926">
        <ele>622.4</ele>
        <time>2023-11-19T10:43:11Z</time>
      </trkpt>
      <trkpt lat="46.00018" lon="1.41923">
        <ele>622.8</ele>
        <time>2023-11-19T10:43:13Z</time>
      </trkpt>
      <trkpt lat="46.00015" lon="1.41917">
        <ele>623</ele>
        <time>2023-11-19T10:43:16Z</time>
      </trkpt>
      <trkpt lat="46.00013" lon="1.41915">
        <ele>623.4</ele>
        <time>2023-11-19T10:43:18Z</time>
      </trkpt>
      <trkpt lat="46.00012" lon="1.41913">
        <ele>623.4</ele>
        <time>2023-11-19T10:43:19Z</time>
      </trkpt>
      <trkpt lat="46.00006" lon="1.41898">
        <ele>624.4</ele>
        <time>2023-11-19T10:43:26Z</time>
      </trkpt>
      <trkpt lat="46.00005" lon="1.41896">
        <ele>624.4</ele>
        <time>2023-11-19T10:43:27Z</time>
      </trkpt>
      <trkpt lat="46.00003" lon="1.41882">
        <ele>625.4</ele>
        <time>2023-11-19T10:43:34Z</time>
      </trkpt>
      <trkpt lat="46.00002" lon="1.41868">
        <ele>626.6</ele>
        <time>2023-11-19T10:43:41Z</time>
      </trkpt>
      <trkpt lat="46.00002" lon="1.41863">
        <ele>627</ele>
        <time>2023-11-19T10:43:43Z</time>
      </trkpt>
      <trkpt lat="46.00002" lon="1.41854">
        <ele>627.6</ele>
        <time>2023-11-19T10:43:47Z</time>
      </trkpt>
      <trkpt lat="46.00002" lon="1.41841">
        <ele>628.4</ele>
        <time>2023-11-19T10:43:52Z</time>
      </trkpt>
      <trkpt lat="46.00002" lon="1.41838">
        <ele>628.6</ele>
        <time>2023-11-19T10:43:54Z</time>
      </trkpt>
      <trkpt lat="46.00004" lon="1.41826">
        <ele>629.4</ele>
        <time>2023-11-19T10:44:00Z</time>
      </trkpt>
      <trkpt lat="46.00003" lon="1.41821">
        <ele>629.8</ele>
        <time>2023-11-19T10:44:03Z</time>
      </trkpt>
      <trkpt lat="46.00002" lon="1.41812">
        <ele>630.2</ele>
        <time>2023-11-19T10:44:07Z</time>
      </trkpt>
      <trkpt lat="46.00003" lon="1.418">
        <ele>631</ele>
        <time>2023-11-19T10:44:13Z</time>
      </trkpt>
      <trkpt lat="46.00004" lon="1.41793">
        <ele>631.6</ele>
        <time>2023-11-19T10:44:17Z</time>
      </trkpt>
      <trkpt lat="46.00006" lon="1.41788">
        <ele>632</ele>
        <time>2023-11-19T10:44:20Z</time>
      </trkpt>
      <trkpt lat="46.00007" lon="1.41777">
        <ele>632.6</ele>
        <time>2023-11-19T10:44:24Z</time>
      </trkpt>
      <trkpt lat="46.00008" lon="1.41769">
        <ele>633</ele>
        <time>2023-11-19T10:44:28Z</time>
      </trkpt>
      <trkpt lat="46.00008" lon="1.41758">
        <ele>633.2</ele>
        <time>2023-11-19T10:44:32Z</time>
      </trkpt>
      <trkpt lat="46.0001" lon="1.41738">
        <ele>634</ele>
        <time>2023-11-19T10:44:40Z</time>
      </trkpt>
      <trkpt lat="46.00011" lon="1.41736">
        <ele>634</ele>
        <time>2023-11-19T10:44:41Z</time>
      </trkpt>
      <trkpt lat="46.00013" lon="1.4172">
        <ele>634</ele>
        <time>2023-11-19T10:44:46Z</time>
      </trkpt>
      <trkpt lat="46.00019" lon="1.41693">
        <ele>634</ele>
        <time>2023-11-19T10:44:53Z</time>
      </trkpt>
      <trkpt lat="46.00029" lon="1.41666">
        <ele>634</ele>
        <time>2023-11-19T10:45:01Z</time>
      </trkpt>
      <trkpt lat="46.00038" lon="1.41639">
        <ele>634.6</ele>
        <time>2023-11-19T10:45:08Z</time>
      </trkpt>
      <trkpt lat="46.00047" lon="1.41618">
        <ele>635.2</ele>
        <time>2023-11-19T10:45:14Z</time>
      </trkpt>
      <trkpt lat="46.00048" lon="1.41615">
        <ele>635.2</ele>
        <time>2023-11-19T10:45:15Z</time>
      </trkpt>
      <trkpt lat="46.00052" lon="1.41602">
        <ele>636.4</ele>
        <time>2023-11-19T10:45:19Z</time>
      </trkpt>
      <trkpt lat="46.00054" lon="1.41594">
        <ele>636.6</ele>
        <time>2023-11-19T10:45:21Z</time>
      </trkpt>
      <trkpt lat="46.00062" lon="1.4157">
        <ele>637.2</ele>
        <time>2023-11-19T10:45:28Z</time>
      </trkpt>
      <trkpt lat="46.00063" lon="1.41541">
        <ele>636.8</ele>
        <time>2023-11-19T10:45:33Z</time>
      </trkpt>
      <trkpt lat="46.00059" lon="1.41529">
        <ele>636.6</ele>
        <time>2023-11-19T10:45:35Z</time>
      </trkpt>
      <trkpt lat="46.00055" lon="1.41519">
        <ele>636.6</ele>
        <time>2023-11-19T10:45:37Z</time>
      </trkpt>
      <trkpt lat="46.0005" lon="1.41501">
        <ele>636.6</ele>
        <time>2023-11-19T10:45:42Z</time>
      </trkpt>
      <trkpt lat="46.00035" lon="1.41478">
        <ele>635.8</ele>
        <time>2023-11-19T10:45:48Z</time>
      </trkpt>
      <trkpt lat="46.00021" lon="1.4146">
        <ele>635.2</ele>
        <time>2023-11-19T10:45:52Z</time>
      </trkpt>
      <trkpt lat="46.00016" lon="1.41454">
        <ele>634.8</ele>
        <time>2023-11-19T10:45:53Z</time>
      </trkpt>
      <trkpt lat="46.00005" lon="1.41442">
        <ele>634.2</ele>
        <time>2023-11-19T10:45:55Z</time>
      </trkpt>
      <trkpt lat="45.99999" lon="1.41436">
        <ele>633</ele>
        <time>2023-11-19T10:45:56Z</time>
      </trkpt>
      <trkpt lat="45.99992" lon="1.41429">
        <ele>632.2</ele>
        <time>2023-11-19T10:45:57Z</time>
      </trkpt>
      <trkpt lat="45.99986" lon="1.41423">
        <ele>631</ele>
        <time>2023-11-19T10:45:58Z</time>
      </trkpt>
      <trkpt lat="45.99973" lon="1.41409">
        <ele>629.6</ele>
        <time>2023-11-19T10:46:00Z</time>
      </trkpt>
      <trkpt lat="45.99961" lon="1.41394">
        <ele>629.2</ele>
        <time>2023-11-19T10:46:02Z</time>
      </trkpt>
      <trkpt lat="45.99949" lon="1.4138">
        <ele>628</ele>
        <time>2023-11-19T10:46:04Z</time>
      </trkpt>
      <trkpt lat="45.99932" lon="1.41357">
        <ele>626.6</ele>
        <time>2023-11-19T10:46:08Z</time>
      </trkpt>
      <trkpt lat="45.99926" lon="1.41347">
        <ele>626</ele>
        <time>2023-11-19T10:46:10Z</time>
      </trkpt>
      <trkpt lat="45.99924" lon="1.41341">
        <ele>625.6</ele>
        <time>2023-11-19T10:46:11Z</time>
      </trkpt>
      <trkpt lat="45.99924" lon="1.41336">
        <ele>625.4</ele>
        <time>2023-11-19T10:46:12Z</time>
      </trkpt>
      <trkpt lat="45.99926" lon="1.41313">
        <ele>624.8</ele>
        <time>2023-11-19T10:46:17Z</time>
      </trkpt>
      <trkpt lat="45.99927" lon="1.41307">
        <ele>624.6</ele>
        <time>2023-11-19T10:46:18Z</time>
      </trkpt>
      <trkpt lat="45.99932" lon="1.41281">
        <ele>623</ele>
        <time>2023-11-19T10:46:22Z</time>
      </trkpt>
      <trkpt lat="45.99932" lon="1.41275">
        <ele>622.4</ele>
        <time>2023-11-19T10:46:23Z</time>
      </trkpt>
      <trkpt lat="45.99933" lon="1.41269">
        <ele>621.8</ele>
        <time>2023-11-19T10:46:24Z</time>
      </trkpt>
      <trkpt lat="45.99934" lon="1.41257">
        <ele>620.2</ele>
        <time>2023-11-19T10:46:27Z</time>
      </trkpt>
      <trkpt lat="45.99936" lon="1.41253">
        <ele>619.4</ele>
        <time>2023-11-19T10:46:28Z</time>
      </trkpt>
      <trkpt lat="45.99937" lon="1.41248">
        <ele>618.6</ele>
        <time>2023-11-19T10:46:29Z</time>
      </trkpt>
      <trkpt lat="45.99941" lon="1.4123">
        <ele>617.6</ele>
        <time>2023-11-19T10:46:32Z</time>
      </trkpt>
      <trkpt lat="45.99944" lon="1.41225">
        <ele>616.6</ele>
        <time>2023-11-19T10:46:33Z</time>
      </trkpt>
      <trkpt lat="45.99946" lon="1.41218">
        <ele>616.2</ele>
        <time>2023-11-19T10:46:34Z</time>
      </trkpt>
      <trkpt lat="45.99949" lon="1.41206">
        <ele>614.6</ele>
        <time>2023-11-19T10:46:36Z</time>
      </trkpt>
      <trkpt lat="45.99952" lon="1.41195">
        <ele>613.4</ele>
        <time>2023-11-19T10:46:38Z</time>
      </trkpt>
      <trkpt lat="45.99953" lon="1.41188">
        <ele>612.6</ele>
        <time>2023-11-19T10:46:39Z</time>
      </trkpt>
      <trkpt lat="45.99955" lon="1.41181">
        <ele>611.8</ele>
        <time>2023-11-19T10:46:40Z</time>
      </trkpt>
      <trkpt lat="45.99959" lon="1.41165">
        <ele>610.6</ele>
        <time>2023-11-19T10:46:42Z</time>
      </trkpt>
      <trkpt lat="45.99964" lon="1.4115">
        <ele>610.8</ele>
        <time>2023-11-19T10:46:44Z</time>
      </trkpt>
      <trkpt lat="45.99968" lon="1.41137">
        <ele>609.6</ele>
        <time>2023-11-19T10:46:46Z</time>
      </trkpt>
      <trkpt lat="45.99976" lon="1.41103">
        <ele>608.8</ele>
        <time>2023-11-19T10:46:50Z</time>
      </trkpt>
      <trkpt lat="45.9998" lon="1.41087">
        <ele>607.8</ele>
        <time>2023-11-19T10:46:52Z</time>
      </trkpt>
      <trkpt lat="45.99989" lon="1.41067">
        <ele>607</ele>
        <time>2023-11-19T10:46:56Z</time>
      </trkpt>
      <trkpt lat="45.99991" lon="1.41058">
        <ele>606.2</ele>
        <time>2023-11-19T10:46:58Z</time>
      </trkpt>
      <trkpt lat="45.99992" lon="1.41053">
        <ele>605.6</ele>
        <time>2023-11-19T10:46:59Z</time>
      </trkpt>
      <trkpt lat="45.99995" lon="1.41039">
        <ele>605</ele>
        <time>2023-11-19T10:47:01Z</time>
      </trkpt>
      <trkpt lat="45.99998" lon="1.41022">
        <ele>604.6</ele>
        <time>2023-11-19T10:47:03Z</time>
      </trkpt>
      <trkpt lat="46.00005" lon="1.40977">
        <ele>604</ele>
        <time>2023-11-19T10:47:09Z</time>
      </trkpt>
      <trkpt lat="46.00006" lon="1.40971">
        <ele>603.8</ele>
        <time>2023-11-19T10:47:10Z</time>
      </trkpt>
      <trkpt lat="46.0001" lon="1.40929">
        <ele>604</ele>
        <time>2023-11-19T10:47:16Z</time>
      </trkpt>
      <trkpt lat="46.00008" lon="1.40917">
        <ele>604</ele>
        <time>2023-11-19T10:47:18Z</time>
      </trkpt>
      <trkpt lat="46.00004" lon="1.40902">
        <ele>603.6</ele>
        <time>2023-11-19T10:47:21Z</time>
      </trkpt>
      <trkpt lat="45.99999" lon="1.40887">
        <ele>603</ele>
        <time>2023-11-19T10:47:26Z</time>
      </trkpt>
      <trkpt lat="45.99992" lon="1.40857">
        <ele>603.8</ele>
        <time>2023-11-19T10:47:33Z</time>
      </trkpt>
      <trkpt lat="45.99982" lon="1.40823">
        <ele>604</ele>
        <time>2023-11-19T10:47:41Z</time>
      </trkpt>
      <trkpt lat="45.99974" lon="1.40796">
        <ele>604.4</ele>
        <time>2023-11-19T10:47:48Z</time>
      </trkpt>
      <trkpt lat="45.99972" lon="1.40792">
        <ele>605</ele>
        <time>2023-11-19T10:47:49Z</time>
      </trkpt>
      <trkpt lat="45.9996" lon="1.40762">
        <ele>605.6</ele>
        <time>2023-11-19T10:47:57Z</time>
      </trkpt>
      <trkpt lat="45.99952" lon="1.40739">
        <ele>605.2</ele>
        <time>2023-11-19T10:48:03Z</time>
      </trkpt>
      <trkpt lat="45.99949" lon="1.40711">
        <ele>604.6</ele>
        <time>2023-11-19T10:48:10Z</time>
      </trkpt>
      <trkpt lat="45.99949" lon="1.40699">
        <ele>604.4</ele>
        <time>2023-11-19T10:48:13Z</time>
      </trkpt>
      <trkpt lat="45.99948" lon="1.40688">
        <ele>604</ele>
        <time>2023-11-19T10:48:16Z</time>
      </trkpt>
      <trkpt lat="45.99947" lon="1.40684">
        <ele>603.6</ele>
        <time>2023-11-19T10:48:17Z</time>
      </trkpt>
      <trkpt lat="45.99944" lon="1.40671">
        <ele>603.6</ele>
        <time>2023-11-19T10:48:19Z</time>
      </trkpt>
      <trkpt lat="45.99939" lon="1.4066">
        <ele>603.2</ele>
        <time>2023-11-19T10:48:21Z</time>
      </trkpt>
      <trkpt lat="45.99937" lon="1.40656">
        <ele>603</ele>
        <time>2023-11-19T10:48:22Z</time>
      </trkpt>
      <trkpt lat="45.99936" lon="1.40652">
        <ele>602.8</ele>
        <time>2023-11-19T10:48:23Z</time>
      </trkpt>
      <trkpt lat="45.99934" lon="1.40648">
        <ele>602.6</ele>
        <time>2023-11-19T10:48:24Z</time>
      </trkpt>
      <trkpt lat="45.99929" lon="1.40631">
        <ele>602.2</ele>
        <time>2023-11-19T10:48:26Z</time>
      </trkpt>
      <trkpt lat="45.99924" lon="1.40616">
        <ele>601.8</ele>
        <time>2023-11-19T10:48:28Z</time>
      </trkpt>
      <trkpt lat="45.99924" lon="1.40613">
        <ele>601.6</ele>
        <time>2023-11-19T10:48:29Z</time>
      </trkpt>
      <trkpt lat="45.99924" lon="1.40607">
        <ele>601.2</ele>
        <time>2023-11-19T10:48:32Z</time>
      </trkpt>
      <trkpt lat="45.99912" lon="1.40585">
        <ele>601.2</ele>
        <time>2023-11-19T10:48:37Z</time>
      </trkpt>
      <trkpt lat="45.99901" lon="1.40554">
        <ele>601.4</ele>
        <time>2023-11-19T10:48:44Z</time>
      </trkpt>
      <trkpt lat="45.99899" lon="1.40548">
        <ele>601.6</ele>
        <time>2023-11-19T10:48:46Z</time>
      </trkpt>
      <trkpt lat="45.99896" lon="1.40537">
        <ele>602</ele>
        <time>2023-11-19T10:48:50Z</time>
      </trkpt>
      <trkpt lat="45.99894" lon="1.40533">
        <ele>602.2</ele>
        <time>2023-11-19T10:48:52Z</time>
      </trkpt>
      <trkpt lat="45.99891" lon="1.40529">
        <ele>602.8</ele>
        <time>2023-11-19T10:48:54Z</time>
      </trkpt>
      <trkpt lat="45.99887" lon="1.40525">
        <ele>603.2</ele>
        <time>2023-11-19T10:48:56Z</time>
      </trkpt>
      <trkpt lat="45.99874" lon="1.40499">
        <ele>603.4</ele>
        <time>2023-11-19T10:49:04Z</time>
      </trkpt>
      <trkpt lat="45.99861" lon="1.40474">
        <ele>602</ele>
        <time>2023-11-19T10:49:11Z</time>
      </trkpt>
      <trkpt lat="45.99857" lon="1.40465">
        <ele>601.6</ele>
        <time>2023-11-19T10:49:13Z</time>
      </trkpt>
      <trkpt lat="45.9985" lon="1.40452">
        <ele>601.2</ele>
        <time>2023-11-19T10:49:16Z</time>
      </trkpt>
      <trkpt lat="45.99849" lon="1.40448">
        <ele>601</ele>
        <time>2023-11-19T10:49:17Z</time>
      </trkpt>
      <trkpt lat="45.99843" lon="1.40436">
        <ele>600.6</ele>
        <time>2023-11-19T10:49:20Z</time>
      </trkpt>
      <trkpt lat="45.99836" lon="1.40427">
        <ele>599.2</ele>
        <time>2023-11-19T10:49:23Z</time>
      </trkpt>
      <trkpt lat="45.99832" lon="1.40418">
        <ele>598.2</ele>
        <time>2023-11-19T10:49:26Z</time>
      </trkpt>
      <trkpt lat="45.99828" lon="1.40412">
        <ele>597.4</ele>
        <time>2023-11-19T10:49:28Z</time>
      </trkpt>
      <trkpt lat="45.99823" lon="1.40406">
        <ele>597</ele>
        <time>2023-11-19T10:49:30Z</time>
      </trkpt>
      <trkpt lat="45.99811" lon="1.40392">
        <ele>595.6</ele>
        <time>2023-11-19T10:49:35Z</time>
      </trkpt>
      <trkpt lat="45.99808" lon="1.40389">
        <ele>594.6</ele>
        <time>2023-11-19T10:49:36Z</time>
      </trkpt>
      <trkpt lat="45.99801" lon="1.40378">
        <ele>593.4</ele>
        <time>2023-11-19T10:49:39Z</time>
      </trkpt>
      <trkpt lat="45.99798" lon="1.4037">
        <ele>593</ele>
        <time>2023-11-19T10:49:41Z</time>
      </trkpt>
      <trkpt lat="45.99795" lon="1.40364">
        <ele>592.2</ele>
        <time>2023-11-19T10:49:43Z</time>
      </trkpt>
      <trkpt lat="45.99794" lon="1.40363">
        <ele>591.6</ele>
        <time>2023-11-19T10:49:44Z</time>
      </trkpt>
      <trkpt lat="45.99791" lon="1.40358">
        <ele>591</ele>
        <time>2023-11-19T10:49:46Z</time>
      </trkpt>
      <trkpt lat="45.99782" lon="1.40344">
        <ele>589.6</ele>
        <time>2023-11-19T10:49:51Z</time>
      </trkpt>
      <trkpt lat="45.9978" lon="1.40341">
        <ele>589.6</ele>
        <time>2023-11-19T10:49:52Z</time>
      </trkpt>
      <trkpt lat="45.99772" lon="1.40328">
        <ele>588.2</ele>
        <time>2023-11-19T10:49:57Z</time>
      </trkpt>
      <trkpt lat="45.99767" lon="1.40321">
        <ele>587.6</ele>
        <time>2023-11-19T10:49:59Z</time>
      </trkpt>
      <trkpt lat="45.99765" lon="1.40315">
        <ele>587</ele>
        <time>2023-11-19T10:50:00Z</time>
      </trkpt>
      <trkpt lat="45.99762" lon="1.403">
        <ele>585.8</ele>
        <time>2023-11-19T10:50:03Z</time>
      </trkpt>
      <trkpt lat="45.9976" lon="1.40296">
        <ele>585.4</ele>
        <time>2023-11-19T10:50:04Z</time>
      </trkpt>
      <trkpt lat="45.99758" lon="1.40291">
        <ele>584.8</ele>
        <time>2023-11-19T10:50:05Z</time>
      </trkpt>
      <trkpt lat="45.9975" lon="1.40262">
        <ele>584</ele>
        <time>2023-11-19T10:50:10Z</time>
      </trkpt>
      <trkpt lat="45.9975" lon="1.40254">
        <ele>583.2</ele>
        <time>2023-11-19T10:50:12Z</time>
      </trkpt>
      <trkpt lat="45.99748" lon="1.40244">
        <ele>582</ele>
        <time>2023-11-19T10:50:15Z</time>
      </trkpt>
      <trkpt lat="45.99747" lon="1.4024">
        <ele>582</ele>
        <time>2023-11-19T10:50:16Z</time>
      </trkpt>
      <trkpt lat="45.99735" lon="1.4021">
        <ele>581</ele>
        <time>2023-11-19T10:50:22Z</time>
      </trkpt>
      <trkpt lat="45.99733" lon="1.40206">
        <ele>580.6</ele>
        <time>2023-11-19T10:50:23Z</time>
      </trkpt>
      <trkpt lat="45.99721" lon="1.40168">
        <ele>580.4</ele>
        <time>2023-11-19T10:50:30Z</time>
      </trkpt>
      <trkpt lat="45.99716" lon="1.40143">
        <ele>580</ele>
        <time>2023-11-19T10:50:35Z</time>
      </trkpt>
      <trkpt lat="45.99714" lon="1.40134">
        <ele>579.8</ele>
        <time>2023-11-19T10:50:37Z</time>
      </trkpt>
      <trkpt lat="45.99709" lon="1.40108">
        <ele>580</ele>
        <time>2023-11-19T10:50:44Z</time>
      </trkpt>
      <trkpt lat="45.99702" lon="1.40082">
        <ele>580.6</ele>
        <time>2023-11-19T10:50:50Z</time>
      </trkpt>
      <trkpt lat="45.99701" lon="1.40075">
        <ele>581</ele>
        <time>2023-11-19T10:50:52Z</time>
      </trkpt>
      <trkpt lat="45.99703" lon="1.40059">
        <ele>581.6</ele>
        <time>2023-11-19T10:50:57Z</time>
      </trkpt>
      <trkpt lat="45.99705" lon="1.40051">
        <ele>582</ele>
        <time>2023-11-19T10:51:00Z</time>
      </trkpt>
      <trkpt lat="45.99708" lon="1.4004">
        <ele>582.4</ele>
        <time>2023-11-19T10:51:05Z</time>
      </trkpt>
      <trkpt lat="45.99711" lon="1.40028">
        <ele>583.2</ele>
        <time>2023-11-19T10:51:10Z</time>
      </trkpt>
      <trkpt lat="45.99712" lon="1.40022">
        <ele>583.6</ele>
        <time>2023-11-19T10:51:12Z</time>
      </trkpt>
      <trkpt lat="45.99716" lon="1.4001">
        <ele>584.4</ele>
        <time>2023-11-19T10:51:16Z</time>
      </trkpt>
      <trkpt lat="45.99719" lon="1.39998">
        <ele>585</ele>
        <time>2023-11-19T10:51:20Z</time>
      </trkpt>
      <trkpt lat="45.99726" lon="1.39977">
        <ele>585.4</ele>
        <time>2023-11-19T10:51:27Z</time>
      </trkpt>
      <trkpt lat="45.99735" lon="1.3995">
        <ele>585.8</ele>
        <time>2023-11-19T10:51:33Z</time>
      </trkpt>
      <trkpt lat="45.99742" lon="1.39928">
        <ele>584.8</ele>
        <time>2023-11-19T10:51:38Z</time>
      </trkpt>
      <trkpt lat="45.99749" lon="1.39908">
        <ele>584.4</ele>
        <time>2023-11-19T10:51:42Z</time>
      </trkpt>
      <trkpt lat="45.99753" lon="1.39897">
        <ele>584.2</ele>
        <time>2023-11-19T10:51:44Z</time>
      </trkpt>
      <trkpt lat="45.99755" lon="1.39891">
        <ele>584.2</ele>
        <time>2023-11-19T10:51:45Z</time>
      </trkpt>
      <trkpt lat="45.99762" lon="1.39873">
        <ele>583.4</ele>
        <time>2023-11-19T10:51:48Z</time>
      </trkpt>
      <trkpt lat="45.99764" lon="1.39866">
        <ele>583.2</ele>
        <time>2023-11-19T10:51:49Z</time>
      </trkpt>
      <trkpt lat="45.99766" lon="1.3986">
        <ele>583</ele>
        <time>2023-11-19T10:51:50Z</time>
      </trkpt>
      <trkpt lat="45.99766" lon="1.39854">
        <ele>582.8</ele>
        <time>2023-11-19T10:51:51Z</time>
      </trkpt>
      <trkpt lat="45.99765" lon="1.3985">
        <ele>582.8</ele>
        <time>2023-11-19T10:51:52Z</time>
      </trkpt>
      <trkpt lat="45.99762" lon="1.39844">
        <ele>582.8</ele>
        <time>2023-11-19T10:51:54Z</time>
      </trkpt>
      <trkpt lat="45.99755" lon="1.39823">
        <ele>583.6</ele>
        <time>2023-11-19T10:52:00Z</time>
      </trkpt>
      <trkpt lat="45.99751" lon="1.39807">
        <ele>584.2</ele>
        <time>2023-11-19T10:52:04Z</time>
      </trkpt>
      <trkpt lat="45.99749" lon="1.39801">
        <ele>584.2</ele>
        <time>2023-11-19T10:52:06Z</time>
      </trkpt>
      <trkpt lat="45.99747" lon="1.39788">
        <ele>584.2</ele>
        <time>2023-11-19T10:52:10Z</time>
      </trkpt>
      <trkpt lat="45.99745" lon="1.39776">
        <ele>584</ele>
        <time>2023-11-19T10:52:12Z</time>
      </trkpt>
      <trkpt lat="45.99744" lon="1.39764">
        <ele>583</ele>
        <time>2023-11-19T10:52:14Z</time>
      </trkpt>
      <trkpt lat="45.99744" lon="1.39759">
        <ele>582.2</ele>
        <time>2023-11-19T10:52:15Z</time>
      </trkpt>
      <trkpt lat="45.99744" lon="1.39754">
        <ele>581.4</ele>
        <time>2023-11-19T10:52:16Z</time>
      </trkpt>
      <trkpt lat="45.99744" lon="1.39749">
        <ele>580.8</ele>
        <time>2023-11-19T10:52:17Z</time>
      </trkpt>
      <trkpt lat="45.99745" lon="1.39744">
        <ele>579.6</ele>
        <time>2023-11-19T10:52:18Z</time>
      </trkpt>
      <trkpt lat="45.99745" lon="1.39737">
        <ele>578.4</ele>
        <time>2023-11-19T10:52:20Z</time>
      </trkpt>
      <trkpt lat="45.99746" lon="1.39728">
        <ele>576.6</ele>
        <time>2023-11-19T10:52:22Z</time>
      </trkpt>
      <trkpt lat="45.99745" lon="1.39721">
        <ele>575.6</ele>
        <time>2023-11-19T10:52:23Z</time>
      </trkpt>
      <trkpt lat="45.99743" lon="1.39714">
        <ele>575</ele>
        <time>2023-11-19T10:52:24Z</time>
      </trkpt>
      <trkpt lat="45.99741" lon="1.39707">
        <ele>574.4</ele>
        <time>2023-11-19T10:52:25Z</time>
      </trkpt>
      <trkpt lat="45.99734" lon="1.39696">
        <ele>572.8</ele>
        <time>2023-11-19T10:52:28Z</time>
      </trkpt>
      <trkpt lat="45.99733" lon="1.39693">
        <ele>572.4</ele>
        <time>2023-11-19T10:52:29Z</time>
      </trkpt>
      <trkpt lat="45.99731" lon="1.39687">
        <ele>571.4</ele>
        <time>2023-11-19T10:52:30Z</time>
      </trkpt>
      <trkpt lat="45.99729" lon="1.39677">
        <ele>570.6</ele>
        <time>2023-11-19T10:52:31Z</time>
      </trkpt>
      <trkpt lat="45.99728" lon="1.3967">
        <ele>569</ele>
        <time>2023-11-19T10:52:32Z</time>
      </trkpt>
      <trkpt lat="45.99728" lon="1.39659">
        <ele>567.8</ele>
        <time>2023-11-19T10:52:34Z</time>
      </trkpt>
      <trkpt lat="45.99727" lon="1.39639">
        <ele>566.8</ele>
        <time>2023-11-19T10:52:37Z</time>
      </trkpt>
      <trkpt lat="45.99726" lon="1.3963">
        <ele>566</ele>
        <time>2023-11-19T10:52:38Z</time>
      </trkpt>
      <trkpt lat="45.99726" lon="1.39622">
        <ele>564.6</ele>
        <time>2023-11-19T10:52:39Z</time>
      </trkpt>
      <trkpt lat="45.99728" lon="1.39612">
        <ele>563.4</ele>
        <time>2023-11-19T10:52:41Z</time>
      </trkpt>
      <trkpt lat="45.99729" lon="1.39606">
        <ele>562.8</ele>
        <time>2023-11-19T10:52:42Z</time>
      </trkpt>
      <trkpt lat="45.99731" lon="1.39599">
        <ele>562.4</ele>
        <time>2023-11-19T10:52:43Z</time>
      </trkpt>
      <trkpt lat="45.99733" lon="1.39592">
        <ele>562.4</ele>
        <time>2023-11-19T10:52:44Z</time>
      </trkpt>
      <trkpt lat="45.99738" lon="1.39574">
        <ele>561.6</ele>
        <time>2023-11-19T10:52:47Z</time>
      </trkpt>
      <trkpt lat="45.99742" lon="1.39562">
        <ele>561.4</ele>
        <time>2023-11-19T10:52:49Z</time>
      </trkpt>
      <trkpt lat="45.99744" lon="1.39556">
        <ele>561.2</ele>
        <time>2023-11-19T10:52:50Z</time>
      </trkpt>
      <trkpt lat="45.99747" lon="1.39545">
        <ele>559.8</ele>
        <time>2023-11-19T10:52:52Z</time>
      </trkpt>
      <trkpt lat="45.99753" lon="1.39536">
        <ele>558.4</ele>
        <time>2023-11-19T10:52:54Z</time>
      </trkpt>
      <trkpt lat="45.99757" lon="1.39531">
        <ele>557.8</ele>
        <time>2023-11-19T10:52:55Z</time>
      </trkpt>
      <trkpt lat="45.9976" lon="1.39528">
        <ele>557</ele>
        <time>2023-11-19T10:52:56Z</time>
      </trkpt>
      <trkpt lat="45.99769" lon="1.39524">
        <ele>556</ele>
        <time>2023-11-19T10:52:59Z</time>
      </trkpt>
      <trkpt lat="45.99777" lon="1.39525">
        <ele>555.2</ele>
        <time>2023-11-19T10:53:02Z</time>
      </trkpt>
      <trkpt lat="45.99785" lon="1.39524">
        <ele>554.4</ele>
        <time>2023-11-19T10:53:04Z</time>
      </trkpt>
      <trkpt lat="45.99793" lon="1.39524">
        <ele>553.2</ele>
        <time>2023-11-19T10:53:06Z</time>
      </trkpt>
      <trkpt lat="45.99796" lon="1.39525">
        <ele>551.4</ele>
        <time>2023-11-19T10:53:07Z</time>
      </trkpt>
      <trkpt lat="45.99801" lon="1.39526">
        <ele>550.4</ele>
        <time>2023-11-19T10:53:08Z</time>
      </trkpt>
      <trkpt lat="45.99806" lon="1.39526">
        <ele>550</ele>
        <time>2023-11-19T10:53:09Z</time>
      </trkpt>
      <trkpt lat="45.99816" lon="1.39525">
        <ele>549.4</ele>
        <time>2023-11-19T10:53:11Z</time>
      </trkpt>
      <trkpt lat="45.99823" lon="1.39524">
        <ele>548.8</ele>
        <time>2023-11-19T10:53:13Z</time>
      </trkpt>
      <trkpt lat="45.99829" lon="1.39522">
        <ele>547.4</ele>
        <time>2023-11-19T10:53:15Z</time>
      </trkpt>
      <trkpt lat="45.9983" lon="1.39521">
        <ele>547</ele>
        <time>2023-11-19T10:53:16Z</time>
      </trkpt>
      <trkpt lat="45.99831" lon="1.39519">
        <ele>546.6</ele>
        <time>2023-11-19T10:53:17Z</time>
      </trkpt>
      <trkpt lat="45.99831" lon="1.39517">
        <ele>546.2</ele>
        <time>2023-11-19T10:53:18Z</time>
      </trkpt>
      <trkpt lat="45.99828" lon="1.39513">
        <ele>546</ele>
        <time>2023-11-19T10:53:20Z</time>
      </trkpt>
      <trkpt lat="45.99825" lon="1.39509">
        <ele>546</ele>
        <time>2023-11-19T10:53:22Z</time>
      </trkpt>
      <trkpt lat="45.99814" lon="1.39495">
        <ele>546</ele>
        <time>2023-11-19T10:53:28Z</time>
      </trkpt>
      <trkpt lat="45.99802" lon="1.39477">
        <ele>545.4</ele>
        <time>2023-11-19T10:53:35Z</time>
      </trkpt>
      <trkpt lat="45.9979" lon="1.39459">
        <ele>546.2</ele>
        <time>2023-11-19T10:53:43Z</time>
      </trkpt>
      <trkpt lat="45.99773" lon="1.39443">
        <ele>546.6</ele>
        <time>2023-11-19T10:53:52Z</time>
      </trkpt>
      <trkpt lat="45.99761" lon="1.39439">
        <ele>547.2</ele>
        <time>2023-11-19T10:53:58Z</time>
      </trkpt>
      <trkpt lat="45.99758" lon="1.39439">
        <ele>547.4</ele>
        <time>2023-11-19T10:54:00Z</time>
      </trkpt>
      <trkpt lat="45.99751" lon="1.39442">
        <ele>548</ele>
        <time>2023-11-19T10:54:07Z</time>
      </trkpt>
      <trkpt lat="45.99745" lon="1.39448">
        <ele>548.4</ele>
        <time>2023-11-19T10:54:11Z</time>
      </trkpt>
      <trkpt lat="45.9974" lon="1.39452">
        <ele>549</ele>
        <time>2023-11-19T10:54:15Z</time>
      </trkpt>
      <trkpt lat="45.99724" lon="1.3946">
        <ele>548.2</ele>
        <time>2023-11-19T10:54:21Z</time>
      </trkpt>
      <trkpt lat="45.99721" lon="1.3946">
        <ele>548</ele>
        <time>2023-11-19T10:54:22Z</time>
      </trkpt>
      <trkpt lat="45.99709" lon="1.39459">
        <ele>547.4</ele>
        <time>2023-11-19T10:54:25Z</time>
      </trkpt>
      <trkpt lat="45.99701" lon="1.39458">
        <ele>547.2</ele>
        <time>2023-11-19T10:54:27Z</time>
      </trkpt>
      <trkpt lat="45.99697" lon="1.39456">
        <ele>547.2</ele>
        <time>2023-11-19T10:54:28Z</time>
      </trkpt>
      <trkpt lat="45.99681" lon="1.39452">
        <ele>547</ele>
        <time>2023-11-19T10:54:33Z</time>
      </trkpt>
      <trkpt lat="45.99663" lon="1.39447">
        <ele>546.6</ele>
        <time>2023-11-19T10:54:39Z</time>
      </trkpt>
      <trkpt lat="45.99644" lon="1.3944">
        <ele>547.8</ele>
        <time>2023-11-19T10:54:46Z</time>
      </trkpt>
      <trkpt lat="45.99633" lon="1.39434">
        <ele>548.2</ele>
        <time>2023-11-19T10:54:50Z</time>
      </trkpt>
      <trkpt lat="45.99629" lon="1.39431">
        <ele>548.8</ele>
        <time>2023-11-19T10:54:52Z</time>
      </trkpt>
      <trkpt lat="45.99609" lon="1.39418">
        <ele>549.2</ele>
        <time>2023-11-19T10:55:00Z</time>
      </trkpt>
      <trkpt lat="45.99587" lon="1.39408">
        <ele>547.6</ele>
        <time>2023-11-19T10:55:07Z</time>
      </trkpt>
      <trkpt lat="45.99584" lon="1.39407">
        <ele>547</ele>
        <time>2023-11-19T10:55:08Z</time>
      </trkpt>
      <trkpt lat="45.99577" lon="1.39405">
        <ele>546.4</ele>
        <time>2023-11-19T10:55:10Z</time>
      </trkpt>
      <trkpt lat="45.99561" lon="1.39402">
        <ele>546</ele>
        <time>2023-11-19T10:55:14Z</time>
      </trkpt>
      <trkpt lat="45.99557" lon="1.39401">
        <ele>545.6</ele>
        <time>2023-11-19T10:55:15Z</time>
      </trkpt>
      <trkpt lat="45.99552" lon="1.394">
        <ele>545.2</ele>
        <time>2023-11-19T10:55:16Z</time>
      </trkpt>
      <trkpt lat="45.99539" lon="1.394">
        <ele>544</ele>
        <time>2023-11-19T10:55:19Z</time>
      </trkpt>
      <trkpt lat="45.99531" lon="1.394">
        <ele>543.8</ele>
        <time>2023-11-19T10:55:21Z</time>
      </trkpt>
      <trkpt lat="45.99523" lon="1.394">
        <ele>543.4</ele>
        <time>2023-11-19T10:55:23Z</time>
      </trkpt>
      <trkpt lat="45.99519" lon="1.39401">
        <ele>543</ele>
        <time>2023-11-19T10:55:24Z</time>
      </trkpt>
      <trkpt lat="45.99515" lon="1.39401">
        <ele>542.6</ele>
        <time>2023-11-19T10:55:25Z</time>
      </trkpt>
      <trkpt lat="45.99504" lon="1.39398">
        <ele>542.2</ele>
        <time>2023-11-19T10:55:27Z</time>
      </trkpt>
      <trkpt lat="45.995" lon="1.39398">
        <ele>542</ele>
        <time>2023-11-19T10:55:28Z</time>
      </trkpt>
      <trkpt lat="45.99491" lon="1.39391">
        <ele>541.8</ele>
        <time>2023-11-19T10:55:30Z</time>
      </trkpt>
      <trkpt lat="45.99483" lon="1.39388">
        <ele>542</ele>
        <time>2023-11-19T10:55:32Z</time>
      </trkpt>
      <trkpt lat="45.99467" lon="1.39381">
        <ele>542.2</ele>
        <time>2023-11-19T10:55:37Z</time>
      </trkpt>
      <trkpt lat="45.99445" lon="1.39376">
        <ele>542.2</ele>
        <time>2023-11-19T10:55:43Z</time>
      </trkpt>
      <trkpt lat="45.99428" lon="1.39369">
        <ele>540.6</ele>
        <time>2023-11-19T10:55:50Z</time>
      </trkpt>
      <trkpt lat="45.99417" lon="1.39368">
        <ele>539</ele>
        <time>2023-11-19T10:55:53Z</time>
      </trkpt>
      <trkpt lat="45.99413" lon="1.39367">
        <ele>537.8</ele>
        <time>2023-11-19T10:55:54Z</time>
      </trkpt>
      <trkpt lat="45.99409" lon="1.39367">
        <ele>537</ele>
        <time>2023-11-19T10:55:55Z</time>
      </trkpt>
      <trkpt lat="45.99406" lon="1.39366">
        <ele>536.4</ele>
        <time>2023-11-19T10:55:56Z</time>
      </trkpt>
      <trkpt lat="45.9939" lon="1.3936">
        <ele>535.2</ele>
        <time>2023-11-19T10:56:01Z</time>
      </trkpt>
      <trkpt lat="45.99387" lon="1.3936">
        <ele>534.4</ele>
        <time>2023-11-19T10:56:02Z</time>
      </trkpt>
      <trkpt lat="45.99384" lon="1.39361">
        <ele>533.8</ele>
        <time>2023-11-19T10:56:03Z</time>
      </trkpt>
      <trkpt lat="45.99371" lon="1.39364">
        <ele>531.8</ele>
        <time>2023-11-19T10:56:07Z</time>
      </trkpt>
      <trkpt lat="45.99363" lon="1.39368">
        <ele>530.8</ele>
        <time>2023-11-19T10:56:09Z</time>
      </trkpt>
      <trkpt lat="45.9936" lon="1.3937">
        <ele>529.2</ele>
        <time>2023-11-19T10:56:10Z</time>
      </trkpt>
      <trkpt lat="45.99355" lon="1.39374">
        <ele>527.8</ele>
        <time>2023-11-19T10:56:11Z</time>
      </trkpt>
      <trkpt lat="45.9935" lon="1.39377">
        <ele>526.8</ele>
        <time>2023-11-19T10:56:12Z</time>
      </trkpt>
      <trkpt lat="45.99342" lon="1.39381">
        <ele>525.2</ele>
        <time>2023-11-19T10:56:14Z</time>
      </trkpt>
      <trkpt lat="45.99338" lon="1.39384">
        <ele>524</ele>
        <time>2023-11-19T10:56:15Z</time>
      </trkpt>
      <trkpt lat="45.9933" lon="1.39387">
        <ele>522.6</ele>
        <time>2023-11-19T10:56:17Z</time>
      </trkpt>
      <trkpt lat="45.99322" lon="1.39391">
        <ele>521</ele>
        <time>2023-11-19T10:56:19Z</time>
      </trkpt>
      <trkpt lat="45.99312" lon="1.39395">
        <ele>519.6</ele>
        <time>2023-11-19T10:56:21Z</time>
      </trkpt>
      <trkpt lat="45.99304" lon="1.39399">
        <ele>518.4</ele>
        <time>2023-11-19T10:56:23Z</time>
      </trkpt>
      <trkpt lat="45.99294" lon="1.39401">
        <ele>517</ele>
        <time>2023-11-19T10:56:25Z</time>
      </trkpt>
      <trkpt lat="45.99286" lon="1.39403">
        <ele>515.6</ele>
        <time>2023-11-19T10:56:27Z</time>
      </trkpt>
      <trkpt lat="45.99276" lon="1.39403">
        <ele>514</ele>
        <time>2023-11-19T10:56:29Z</time>
      </trkpt>
      <trkpt lat="45.9927" lon="1.39403">
        <ele>513.4</ele>
        <time>2023-11-19T10:56:30Z</time>
      </trkpt>
      <trkpt lat="45.99264" lon="1.39404">
        <ele>512.8</ele>
        <time>2023-11-19T10:56:31Z</time>
      </trkpt>
      <trkpt lat="45.99251" lon="1.39405">
        <ele>511.8</ele>
        <time>2023-11-19T10:56:34Z</time>
      </trkpt>
      <trkpt lat="45.99245" lon="1.39403">
        <ele>511</ele>
        <time>2023-11-19T10:56:36Z</time>
      </trkpt>
      <trkpt lat="45.99241" lon="1.39401">
        <ele>510.6</ele>
        <time>2023-11-19T10:56:38Z</time>
      </trkpt>
      <trkpt lat="45.99237" lon="1.39401">
        <ele>510.4</ele>
        <time>2023-11-19T10:56:41Z</time>
      </trkpt>
      <trkpt lat="45.99226" lon="1.39397">
        <ele>510.2</ele>
        <time>2023-11-19T10:56:50Z</time>
      </trkpt>
      <trkpt lat="45.99225" lon="1.39394">
        <ele>510</ele>
        <time>2023-11-19T10:56:59Z</time>
      </trkpt>
      <trkpt lat="45.99224" lon="1.39393">
        <ele>510</ele>
        <time>2023-11-19T10:57:15Z</time>
      </trkpt>
      <trkpt lat="45.99223" lon="1.39391">
        <ele>510.2</ele>
        <time>2023-11-19T10:57:29Z</time>
      </trkpt>
      <trkpt lat="45.99216" lon="1.39385">
        <ele>510</ele>
        <time>2023-11-19T10:57:38Z</time>
      </trkpt>
      <trkpt lat="45.99213" lon="1.39383">
        <ele>509.4</ele>
        <time>2023-11-19T10:57:40Z</time>
      </trkpt>
      <trkpt lat="45.99208" lon="1.39378">
        <ele>508.2</ele>
        <time>2023-11-19T10:57:43Z</time>
      </trkpt>
      <trkpt lat="45.99204" lon="1.39369">
        <ele>507</ele>
        <time>2023-11-19T10:57:46Z</time>
      </trkpt>
      <trkpt lat="45.99199" lon="1.39359">
        <ele>505.6</ele>
        <time>2023-11-19T10:57:49Z</time>
      </trkpt>
      <trkpt lat="45.99194" lon="1.39354">
        <ele>504.4</ele>
        <time>2023-11-19T10:57:51Z</time>
      </trkpt>
      <trkpt lat="45.99192" lon="1.39351">
        <ele>503.6</ele>
        <time>2023-11-19T10:57:52Z</time>
      </trkpt>
      <trkpt lat="45.9919" lon="1.39348">
        <ele>502.4</ele>
        <time>2023-11-19T10:57:53Z</time>
      </trkpt>
      <trkpt lat="45.99186" lon="1.39345">
        <ele>501</ele>
        <time>2023-11-19T10:57:55Z</time>
      </trkpt>
      <trkpt lat="45.99182" lon="1.39345">
        <ele>500.6</ele>
        <time>2023-11-19T10:57:57Z</time>
      </trkpt>
      <trkpt lat="45.99178" lon="1.39344">
        <ele>500</ele>
        <time>2023-11-19T10:57:59Z</time>
      </trkpt>
      <trkpt lat="45.99172" lon="1.39342">
        <ele>498.6</ele>
        <time>2023-11-19T10:58:01Z</time>
      </trkpt>
      <trkpt lat="45.9917" lon="1.39342">
        <ele>497.6</ele>
        <time>2023-11-19T10:58:02Z</time>
      </trkpt>
      <trkpt lat="45.99167" lon="1.39342">
        <ele>497</ele>
        <time>2023-11-19T10:58:03Z</time>
      </trkpt>
      <trkpt lat="45.99161" lon="1.39342">
        <ele>495.4</ele>
        <time>2023-11-19T10:58:05Z</time>
      </trkpt>
      <trkpt lat="45.99156" lon="1.39343">
        <ele>494</ele>
        <time>2023-11-19T10:58:07Z</time>
      </trkpt>
      <trkpt lat="45.99154" lon="1.39344">
        <ele>492.6</ele>
        <time>2023-11-19T10:58:08Z</time>
      </trkpt>
      <trkpt lat="45.99152" lon="1.39345">
        <ele>491.8</ele>
        <time>2023-11-19T10:58:09Z</time>
      </trkpt>
      <trkpt lat="45.99151" lon="1.39346">
        <ele>491</ele>
        <time>2023-11-19T10:58:10Z</time>
      </trkpt>
      <trkpt lat="45.99149" lon="1.39348">
        <ele>489.8</ele>
        <time>2023-11-19T10:58:11Z</time>
      </trkpt>
      <trkpt lat="45.99144" lon="1.39351">
        <ele>488</ele>
        <time>2023-11-19T10:58:13Z</time>
      </trkpt>
      <trkpt lat="45.99139" lon="1.39353">
        <ele>487.6</ele>
        <time>2023-11-19T10:58:15Z</time>
      </trkpt>
      <trkpt lat="45.99134" lon="1.39353">
        <ele>487.2</ele>
        <time>2023-11-19T10:58:17Z</time>
      </trkpt>
      <trkpt lat="45.9913" lon="1.3935">
        <ele>486.4</ele>
        <time>2023-11-19T10:58:19Z</time>
      </trkpt>
      <trkpt lat="45.99123" lon="1.39342">
        <ele>485.4</ele>
        <time>2023-11-19T10:58:22Z</time>
      </trkpt>
      <trkpt lat="45.99114" lon="1.39337">
        <ele>484.4</ele>
        <time>2023-11-19T10:58:24Z</time>
      </trkpt>
      <trkpt lat="45.99109" lon="1.39334">
        <ele>484</ele>
        <time>2023-11-19T10:58:25Z</time>
      </trkpt>
      <trkpt lat="45.99096" lon="1.39329">
        <ele>483.2</ele>
        <time>2023-11-19T10:58:29Z</time>
      </trkpt>
      <trkpt lat="45.99084" lon="1.39324">
        <ele>482.4</ele>
        <time>2023-11-19T10:58:32Z</time>
      </trkpt>
      <trkpt lat="45.99078" lon="1.39322">
        <ele>480.6</ele>
        <time>2023-11-19T10:58:33Z</time>
      </trkpt>
      <trkpt lat="45.9907" lon="1.39322">
        <ele>479.4</ele>
        <time>2023-11-19T10:58:34Z</time>
      </trkpt>
      <trkpt lat="45.99052" lon="1.39314">
        <ele>478</ele>
        <time>2023-11-19T10:58:37Z</time>
      </trkpt>
      <trkpt lat="45.99047" lon="1.39312">
        <ele>476.4</ele>
        <time>2023-11-19T10:58:38Z</time>
      </trkpt>
      <trkpt lat="45.99038" lon="1.39308">
        <ele>476</ele>
        <time>2023-11-19T10:58:40Z</time>
      </trkpt>
      <trkpt lat="45.99031" lon="1.39304">
        <ele>475.4</ele>
        <time>2023-11-19T10:58:42Z</time>
      </trkpt>
      <trkpt lat="45.99028" lon="1.39303">
        <ele>475</ele>
        <time>2023-11-19T10:58:43Z</time>
      </trkpt>
      <trkpt lat="45.99026" lon="1.39301">
        <ele>474</ele>
        <time>2023-11-19T10:58:44Z</time>
      </trkpt>
      <trkpt lat="45.99023" lon="1.39299">
        <ele>472.8</ele>
        <time>2023-11-19T10:58:45Z</time>
      </trkpt>
      <trkpt lat="45.99019" lon="1.39295">
        <ele>471.2</ele>
        <time>2023-11-19T10:58:47Z</time>
      </trkpt>
      <trkpt lat="45.99013" lon="1.3929">
        <ele>470.4</ele>
        <time>2023-11-19T10:58:50Z</time>
      </trkpt>
      <trkpt lat="45.99012" lon="1.39288">
        <ele>470</ele>
        <time>2023-11-19T10:58:51Z</time>
      </trkpt>
      <trkpt lat="45.9901" lon="1.39289">
        <ele>469.2</ele>
        <time>2023-11-19T10:58:53Z</time>
      </trkpt>
      <trkpt lat="45.99009" lon="1.39291">
        <ele>468.8</ele>
        <time>2023-11-19T10:58:54Z</time>
      </trkpt>
      <trkpt lat="45.99008" lon="1.39292">
        <ele>468.4</ele>
        <time>2023-11-19T10:58:55Z</time>
      </trkpt>
      <trkpt lat="45.99007" lon="1.39295">
        <ele>467.8</ele>
        <time>2023-11-19T10:58:57Z</time>
      </trkpt>
      <trkpt lat="45.98999" lon="1.39302">
        <ele>466.6</ele>
        <time>2023-11-19T10:59:02Z</time>
      </trkpt>
      <trkpt lat="45.98995" lon="1.39308">
        <ele>466</ele>
        <time>2023-11-19T10:59:05Z</time>
      </trkpt>
      <trkpt lat="45.9899" lon="1.39317">
        <ele>465.8</ele>
        <time>2023-11-19T10:59:08Z</time>
      </trkpt>
      <trkpt lat="45.98988" lon="1.39321">
        <ele>465.4</ele>
        <time>2023-11-19T10:59:09Z</time>
      </trkpt>
      <trkpt lat="45.98986" lon="1.39325">
        <ele>465.2</ele>
        <time>2023-11-19T10:59:10Z</time>
      </trkpt>
      <trkpt lat="45.98973" lon="1.39346">
        <ele>464.2</ele>
        <time>2023-11-19T10:59:15Z</time>
      </trkpt>
      <trkpt lat="45.98968" lon="1.39358">
        <ele>462.2</ele>
        <time>2023-11-19T10:59:17Z</time>
      </trkpt>
      <trkpt lat="45.98964" lon="1.39367">
        <ele>460.8</ele>
        <time>2023-11-19T10:59:18Z</time>
      </trkpt>
      <trkpt lat="45.98961" lon="1.39375">
        <ele>460</ele>
        <time>2023-11-19T10:59:19Z</time>
      </trkpt>
      <trkpt lat="45.98959" lon="1.39381">
        <ele>458.8</ele>
        <time>2023-11-19T10:59:20Z</time>
      </trkpt>
      <trkpt lat="45.98957" lon="1.39387">
        <ele>458</ele>
        <time>2023-11-19T10:59:21Z</time>
      </trkpt>
      <trkpt lat="45.98956" lon="1.39393">
        <ele>457.6</ele>
        <time>2023-11-19T10:59:22Z</time>
      </trkpt>
      <trkpt lat="45.98952" lon="1.39401">
        <ele>457.8</ele>
        <time>2023-11-19T10:59:24Z</time>
      </trkpt>
      <trkpt lat="45.98933" lon="1.39417">
        <ele>456.4</ele>
        <time>2023-11-19T10:59:28Z</time>
      </trkpt>
      <trkpt lat="45.98919" lon="1.39424">
        <ele>455.4</ele>
        <time>2023-11-19T10:59:31Z</time>
      </trkpt>
      <trkpt lat="45.98911" lon="1.39428">
        <ele>454.4</ele>
        <time>2023-11-19T10:59:33Z</time>
      </trkpt>
      <trkpt lat="45.98904" lon="1.3943">
        <ele>453.6</ele>
        <time>2023-11-19T10:59:35Z</time>
      </trkpt>
      <trkpt lat="45.98901" lon="1.39431">
        <ele>452.6</ele>
        <time>2023-11-19T10:59:36Z</time>
      </trkpt>
      <trkpt lat="45.98896" lon="1.39432">
        <ele>450.6</ele>
        <time>2023-11-19T10:59:38Z</time>
      </trkpt>
      <trkpt lat="45.98891" lon="1.39432">
        <ele>449.4</ele>
        <time>2023-11-19T10:59:40Z</time>
      </trkpt>
      <trkpt lat="45.98889" lon="1.3943">
        <ele>448.6</ele>
        <time>2023-11-19T10:59:41Z</time>
      </trkpt>
      <trkpt lat="45.98888" lon="1.39428">
        <ele>447.8</ele>
        <time>2023-11-19T10:59:42Z</time>
      </trkpt>
      <trkpt lat="45.98887" lon="1.39421">
        <ele>446.8</ele>
        <time>2023-11-19T10:59:45Z</time>
      </trkpt>
      <trkpt lat="45.98886" lon="1.39418">
        <ele>446.6</ele>
        <time>2023-11-19T10:59:46Z</time>
      </trkpt>
      <trkpt lat="45.98879" lon="1.39402">
        <ele>445.4</ele>
        <time>2023-11-19T10:59:50Z</time>
      </trkpt>
      <trkpt lat="45.98876" lon="1.39392">
        <ele>444.8</ele>
        <time>2023-11-19T10:59:52Z</time>
      </trkpt>
      <trkpt lat="45.98874" lon="1.39388">
        <ele>444.2</ele>
        <time>2023-11-19T10:59:53Z</time>
      </trkpt>
      <trkpt lat="45.98871" lon="1.39379">
        <ele>443</ele>
        <time>2023-11-19T10:59:55Z</time>
      </trkpt>
      <trkpt lat="45.98869" lon="1.39372">
        <ele>442</ele>
        <time>2023-11-19T10:59:57Z</time>
      </trkpt>
      <trkpt lat="45.98867" lon="1.39366">
        <ele>441.6</ele>
        <time>2023-11-19T10:59:59Z</time>
      </trkpt>
      <trkpt lat="45.98866" lon="1.39361">
        <ele>441</ele>
        <time>2023-11-19T11:00:01Z</time>
      </trkpt>
      <trkpt lat="45.98863" lon="1.39353">
        <ele>439.6</ele>
        <time>2023-11-19T11:00:03Z</time>
      </trkpt>
      <trkpt lat="45.9886" lon="1.39342">
        <ele>438.2</ele>
        <time>2023-11-19T11:00:05Z</time>
      </trkpt>
      <trkpt lat="45.98856" lon="1.39327">
        <ele>436.6</ele>
        <time>2023-11-19T11:00:08Z</time>
      </trkpt>
      <trkpt lat="45.98855" lon="1.39323">
        <ele>436.2</ele>
        <time>2023-11-19T11:00:09Z</time>
      </trkpt>
      <trkpt lat="45.98853" lon="1.39311">
        <ele>435.8</ele>
        <time>2023-11-19T11:00:11Z</time>
      </trkpt>
      <trkpt lat="45.98854" lon="1.39307">
        <ele>435.2</ele>
        <time>2023-11-19T11:00:12Z</time>
      </trkpt>
      <trkpt lat="45.98852" lon="1.39297">
        <ele>433.6</ele>
        <time>2023-11-19T11:00:14Z</time>
      </trkpt>
      <trkpt lat="45.98851" lon="1.39288">
        <ele>431.6</ele>
        <time>2023-11-19T11:00:16Z</time>
      </trkpt>
      <trkpt lat="45.9885" lon="1.39276">
        <ele>429.8</ele>
        <time>2023-11-19T11:00:18Z</time>
      </trkpt>
      <trkpt lat="45.98849" lon="1.39266">
        <ele>428.8</ele>
        <time>2023-11-19T11:00:20Z</time>
      </trkpt>
      <trkpt lat="45.98848" lon="1.3926">
        <ele>427.6</ele>
        <time>2023-11-19T11:00:21Z</time>
      </trkpt>
      <trkpt lat="45.98842" lon="1.39242">
        <ele>426.2</ele>
        <time>2023-11-19T11:00:23Z</time>
      </trkpt>
      <trkpt lat="45.98838" lon="1.39235">
        <ele>425.2</ele>
        <time>2023-11-19T11:00:24Z</time>
      </trkpt>
      <trkpt lat="45.98834" lon="1.39227">
        <ele>424.2</ele>
        <time>2023-11-19T11:00:26Z</time>
      </trkpt>
      <trkpt lat="45.9883" lon="1.39223">
        <ele>424</ele>
        <time>2023-11-19T11:00:27Z</time>
      </trkpt>
      <trkpt lat="45.98819" lon="1.39209">
        <ele>422.6</ele>
        <time>2023-11-19T11:00:30Z</time>
      </trkpt>
      <trkpt lat="45.98813" lon="1.39205">
        <ele>421.4</ele>
        <time>2023-11-19T11:00:31Z</time>
      </trkpt>
      <trkpt lat="45.98807" lon="1.392">
        <ele>419.8</ele>
        <time>2023-11-19T11:00:32Z</time>
      </trkpt>
      <trkpt lat="45.98791" lon="1.3919">
        <ele>418.4</ele>
        <time>2023-11-19T11:00:34Z</time>
      </trkpt>
      <trkpt lat="45.98783" lon="1.39185">
        <ele>417.4</ele>
        <time>2023-11-19T11:00:35Z</time>
      </trkpt>
      <trkpt lat="45.98775" lon="1.3918">
        <ele>416.8</ele>
        <time>2023-11-19T11:00:36Z</time>
      </trkpt>
      <trkpt lat="45.98768" lon="1.39179">
        <ele>416.2</ele>
        <time>2023-11-19T11:00:37Z</time>
      </trkpt>
      <trkpt lat="45.98752" lon="1.39179">
        <ele>415.6</ele>
        <time>2023-11-19T11:00:39Z</time>
      </trkpt>
      <trkpt lat="45.98744" lon="1.39179">
        <ele>414.8</ele>
        <time>2023-11-19T11:00:40Z</time>
      </trkpt>
      <trkpt lat="45.98729" lon="1.39179">
        <ele>413.4</ele>
        <time>2023-11-19T11:00:42Z</time>
      </trkpt>
      <trkpt lat="45.98715" lon="1.39178">
        <ele>413</ele>
        <time>2023-11-19T11:00:44Z</time>
      </trkpt>
      <trkpt lat="45.98708" lon="1.39178">
        <ele>412.4</ele>
        <time>2023-11-19T11:00:45Z</time>
      </trkpt>
      <trkpt lat="45.98693" lon="1.3918">
        <ele>410.8</ele>
        <time>2023-11-19T11:00:47Z</time>
      </trkpt>
      <trkpt lat="45.98672" lon="1.39182">
        <ele>410.6</ele>
        <time>2023-11-19T11:00:50Z</time>
      </trkpt>
      <trkpt lat="45.98662" lon="1.39188">
        <ele>410.6</ele>
        <time>2023-11-19T11:00:52Z</time>
      </trkpt>
      <trkpt lat="45.98654" lon="1.39193">
        <ele>410.6</ele>
        <time>2023-11-19T11:00:54Z</time>
      </trkpt>
      <trkpt lat="45.98639" lon="1.39206">
        <ele>409.8</ele>
        <time>2023-11-19T11:00:57Z</time>
      </trkpt>
      <trkpt lat="45.9863" lon="1.39216">
        <ele>409.6</ele>
        <time>2023-11-19T11:00:59Z</time>
      </trkpt>
      <trkpt lat="45.98606" lon="1.39243">
        <ele>408.6</ele>
        <time>2023-11-19T11:01:04Z</time>
      </trkpt>
      <trkpt lat="45.98597" lon="1.39251">
        <ele>407.8</ele>
        <time>2023-11-19T11:01:06Z</time>
      </trkpt>
      <trkpt lat="45.98592" lon="1.39255">
        <ele>407.4</ele>
        <time>2023-11-19T11:01:07Z</time>
      </trkpt>
      <trkpt lat="45.98584" lon="1.39263">
        <ele>406</ele>
        <time>2023-11-19T11:01:09Z</time>
      </trkpt>
      <trkpt lat="45.98568" lon="1.3928">
        <ele>404.8</ele>
        <time>2023-11-19T11:01:13Z</time>
      </trkpt>
      <trkpt lat="45.98566" lon="1.3929">
        <ele>404.4</ele>
        <time>2023-11-19T11:01:14Z</time>
      </trkpt>
      <trkpt lat="45.98557" lon="1.39304">
        <ele>403.6</ele>
        <time>2023-11-19T11:01:17Z</time>
      </trkpt>
      <trkpt lat="45.98554" lon="1.39308">
        <ele>403.2</ele>
        <time>2023-11-19T11:01:18Z</time>
      </trkpt>
      <trkpt lat="45.98551" lon="1.39311">
        <ele>402.8</ele>
        <time>2023-11-19T11:01:19Z</time>
      </trkpt>
      <trkpt lat="45.98549" lon="1.39315">
        <ele>401.2</ele>
        <time>2023-11-19T11:01:20Z</time>
      </trkpt>
      <trkpt lat="45.98546" lon="1.3932">
        <ele>400.2</ele>
        <time>2023-11-19T11:01:21Z</time>
      </trkpt>
      <trkpt lat="45.98545" lon="1.39325">
        <ele>399.6</ele>
        <time>2023-11-19T11:01:22Z</time>
      </trkpt>
      <trkpt lat="45.98541" lon="1.39338">
        <ele>398.8</ele>
        <time>2023-11-19T11:01:24Z</time>
      </trkpt>
      <trkpt lat="45.9854" lon="1.39352">
        <ele>397.6</ele>
        <time>2023-11-19T11:01:26Z</time>
      </trkpt>
      <trkpt lat="45.98539" lon="1.39371">
        <ele>395.8</ele>
        <time>2023-11-19T11:01:29Z</time>
      </trkpt>
      <trkpt lat="45.98538" lon="1.39379">
        <ele>395.4</ele>
        <time>2023-11-19T11:01:30Z</time>
      </trkpt>
      <trkpt lat="45.98537" lon="1.39385">
        <ele>394.8</ele>
        <time>2023-11-19T11:01:31Z</time>
      </trkpt>
      <trkpt lat="45.98533" lon="1.39391">
        <ele>394</ele>
        <time>2023-11-19T11:01:32Z</time>
      </trkpt>
      <trkpt lat="45.98529" lon="1.39398">
        <ele>393.2</ele>
        <time>2023-11-19T11:01:33Z</time>
      </trkpt>
      <trkpt lat="45.98522" lon="1.39401">
        <ele>392.6</ele>
        <time>2023-11-19T11:01:35Z</time>
      </trkpt>
      <trkpt lat="45.9852" lon="1.39403">
        <ele>392</ele>
        <time>2023-11-19T11:01:36Z</time>
      </trkpt>
      <trkpt lat="45.98516" lon="1.39403">
        <ele>391.6</ele>
        <time>2023-11-19T11:01:37Z</time>
      </trkpt>
      <trkpt lat="45.98509" lon="1.394">
        <ele>391</ele>
        <time>2023-11-19T11:01:39Z</time>
      </trkpt>
      <trkpt lat="45.98506" lon="1.394">
        <ele>390.6</ele>
        <time>2023-11-19T11:01:40Z</time>
      </trkpt>
      <trkpt lat="45.98493" lon="1.39405">
        <ele>389.6</ele>
        <time>2023-11-19T11:01:42Z</time>
      </trkpt>
      <trkpt lat="45.98487" lon="1.39408">
        <ele>388.8</ele>
        <time>2023-11-19T11:01:43Z</time>
      </trkpt>
      <trkpt lat="45.98481" lon="1.39408">
        <ele>387.6</ele>
        <time>2023-11-19T11:01:44Z</time>
      </trkpt>
      <trkpt lat="45.98468" lon="1.39409">
        <ele>385.8</ele>
        <time>2023-11-19T11:01:46Z</time>
      </trkpt>
      <trkpt lat="45.98455" lon="1.39407">
        <ele>384.8</ele>
        <time>2023-11-19T11:01:48Z</time>
      </trkpt>
      <trkpt lat="45.98426" lon="1.39401">
        <ele>383.6</ele>
        <time>2023-11-19T11:01:53Z</time>
      </trkpt>
      <trkpt lat="45.98423" lon="1.39401">
        <ele>383.4</ele>
        <time>2023-11-19T11:01:54Z</time>
      </trkpt>
      <trkpt lat="45.98394" lon="1.39408">
        <ele>383.2</ele>
        <time>2023-11-19T11:02:00Z</time>
      </trkpt>
      <trkpt lat="45.98362" lon="1.39413">
        <ele>383.6</ele>
        <time>2023-11-19T11:02:07Z</time>
      </trkpt>
      <trkpt lat="45.98334" lon="1.39418">
        <ele>384.2</ele>
        <time>2023-11-19T11:02:14Z</time>
      </trkpt>
      <trkpt lat="45.98314" lon="1.39421">
        <ele>384.4</ele>
        <time>2023-11-19T11:02:21Z</time>
      </trkpt>
      <trkpt lat="45.98292" lon="1.39426">
        <ele>384.8</ele>
        <time>2023-11-19T11:02:29Z</time>
      </trkpt>
      <trkpt lat="45.98274" lon="1.39431">
        <ele>384.6</ele>
        <time>2023-11-19T11:02:35Z</time>
      </trkpt>
      <trkpt lat="45.98249" lon="1.39436">
        <ele>385</ele>
        <time>2023-11-19T11:02:42Z</time>
      </trkpt>
      <trkpt lat="45.98228" lon="1.39449">
        <ele>385.2</ele>
        <time>2023-11-19T11:02:49Z</time>
      </trkpt>
      <trkpt lat="45.98219" lon="1.39455">
        <ele>385.8</ele>
        <time>2023-11-19T11:02:52Z</time>
      </trkpt>
      <trkpt lat="45.98207" lon="1.39457">
        <ele>386</ele>
        <time>2023-11-19T11:02:56Z</time>
      </trkpt>
      <trkpt lat="45.98186" lon="1.39457">
        <ele>385.8</ele>
        <time>2023-11-19T11:03:02Z</time>
      </trkpt>
      <trkpt lat="45.98163" lon="1.39458">
        <ele>385.4</ele>
        <time>2023-11-19T11:03:09Z</time>
      </trkpt>
      <trkpt lat="45.98136" lon="1.39458">
        <ele>385.2</ele>
        <time>2023-11-19T11:03:17Z</time>
      </trkpt>
      <trkpt lat="45.98112" lon="1.39464">
        <ele>385.2</ele>
        <time>2023-11-19T11:03:23Z</time>
      </trkpt>
      <trkpt lat="45.98098" lon="1.39473">
        <ele>385.4</ele>
        <time>2023-11-19T11:03:28Z</time>
      </trkpt>
      <trkpt lat="45.98085" lon="1.39489">
        <ele>385.2</ele>
        <time>2023-11-19T11:03:33Z</time>
      </trkpt>
      <trkpt lat="45.98078" lon="1.39496">
        <ele>385</ele>
        <time>2023-11-19T11:03:35Z</time>
      </trkpt>
      <trkpt lat="45.98067" lon="1.39509">
        <ele>382.8</ele>
        <time>2023-11-19T11:03:38Z</time>
      </trkpt>
      <trkpt lat="45.98064" lon="1.39512">
        <ele>381.4</ele>
        <time>2023-11-19T11:03:39Z</time>
      </trkpt>
      <trkpt lat="45.9806" lon="1.3952">
        <ele>380</ele>
        <time>2023-11-19T11:03:41Z</time>
      </trkpt>
      <trkpt lat="45.98056" lon="1.39527">
        <ele>379</ele>
        <time>2023-11-19T11:03:44Z</time>
      </trkpt>
      <trkpt lat="45.98055" lon="1.3953">
        <ele>378.8</ele>
        <time>2023-11-19T11:03:45Z</time>
      </trkpt>
      <trkpt lat="45.98053" lon="1.39534">
        <ele>378.8</ele>
        <time>2023-11-19T11:03:46Z</time>
      </trkpt>
      <trkpt lat="45.98053" lon="1.39536">
        <ele>378.6</ele>
        <time>2023-11-19T11:03:47Z</time>
      </trkpt>
      <trkpt lat="45.98054" lon="1.39537">
        <ele>377.8</ele>
        <time>2023-11-19T11:03:49Z</time>
      </trkpt>
      <trkpt lat="45.98056" lon="1.39539">
        <ele>377.6</ele>
        <time>2023-11-19T11:03:51Z</time>
      </trkpt>
      <trkpt lat="45.98066" lon="1.3954">
        <ele>378</ele>
        <time>2023-11-19T11:03:56Z</time>
      </trkpt>
      <trkpt lat="45.98078" lon="1.39546">
        <ele>378.2</ele>
        <time>2023-11-19T11:04:00Z</time>
      </trkpt>
      <trkpt lat="45.98084" lon="1.3955">
        <ele>378.2</ele>
        <time>2023-11-19T11:04:02Z</time>
      </trkpt>
      <trkpt lat="45.98087" lon="1.39552">
        <ele>378.2</ele>
        <time>2023-11-19T11:04:03Z</time>
      </trkpt>
      <trkpt lat="45.98093" lon="1.39559">
        <ele>378.4</ele>
        <time>2023-11-19T11:04:05Z</time>
      </trkpt>
      <trkpt lat="45.98096" lon="1.39567">
        <ele>379.4</ele>
        <time>2023-11-19T11:04:07Z</time>
      </trkpt>
      <trkpt lat="45.98098" lon="1.3957">
        <ele>379.8</ele>
        <time>2023-11-19T11:04:08Z</time>
      </trkpt>
      <trkpt lat="45.98101" lon="1.39576">
        <ele>380.6</ele>
        <time>2023-11-19T11:04:10Z</time>
      </trkpt>
      <trkpt lat="45.98103" lon="1.39584">
        <ele>381.2</ele>
        <time>2023-11-19T11:04:12Z</time>
      </trkpt>
      <trkpt lat="45.98104" lon="1.39589">
        <ele>381.8</ele>
        <time>2023-11-19T11:04:13Z</time>
      </trkpt>
      <trkpt lat="45.98107" lon="1.39611">
        <ele>382.8</ele>
        <time>2023-11-19T11:04:17Z</time>
      </trkpt>
      <trkpt lat="45.98108" lon="1.39616">
        <ele>382.8</ele>
        <time>2023-11-19T11:04:18Z</time>
      </trkpt>
      <trkpt lat="45.98112" lon="1.39643">
        <ele>383.8</ele>
        <time>2023-11-19T11:04:23Z</time>
      </trkpt>
      <trkpt lat="45.98112" lon="1.39652">
        <ele>384</ele>
        <time>2023-11-19T11:04:25Z</time>
      </trkpt>
      <trkpt lat="45.98112" lon="1.39683">
        <ele>384.6</ele>
        <time>2023-11-19T11:04:32Z</time>
      </trkpt>
      <trkpt lat="45.98112" lon="1.39687">
        <ele>385</ele>
        <time>2023-11-19T11:04:33Z</time>
      </trkpt>
      <trkpt lat="45.98111" lon="1.39725">
        <ele>385.8</ele>
        <time>2023-11-19T11:04:41Z</time>
      </trkpt>
      <trkpt lat="45.98112" lon="1.39733">
        <ele>386</ele>
        <time>2023-11-19T11:04:43Z</time>
      </trkpt>
      <trkpt lat="45.98112" lon="1.39749">
        <ele>386.6</ele>
        <time>2023-11-19T11:04:47Z</time>
      </trkpt>
      <trkpt lat="45.98112" lon="1.39757">
        <ele>386.8</ele>
        <time>2023-11-19T11:04:49Z</time>
      </trkpt>
      <trkpt lat="45.98112" lon="1.39766">
        <ele>387.2</ele>
        <time>2023-11-19T11:04:51Z</time>
      </trkpt>
      <trkpt lat="45.98112" lon="1.39787">
        <ele>388.2</ele>
        <time>2023-11-19T11:04:55Z</time>
      </trkpt>
      <trkpt lat="45.98111" lon="1.39796">
        <ele>388.6</ele>
        <time>2023-11-19T11:04:57Z</time>
      </trkpt>
      <trkpt lat="45.98111" lon="1.39812">
        <ele>389.4</ele>
        <time>2023-11-19T11:05:00Z</time>
      </trkpt>
      <trkpt lat="45.98109" lon="1.39839">
        <ele>389.8</ele>
        <time>2023-11-19T11:05:06Z</time>
      </trkpt>
      <trkpt lat="45.98107" lon="1.39853">
        <ele>390.4</ele>
        <time>2023-11-19T11:05:09Z</time>
      </trkpt>
      <trkpt lat="45.98101" lon="1.39874">
        <ele>390.8</ele>
        <time>2023-11-19T11:05:13Z</time>
      </trkpt>
      <trkpt lat="45.98089" lon="1.39901">
        <ele>390.8</ele>
        <time>2023-11-19T11:05:19Z</time>
      </trkpt>
      <trkpt lat="45.98075" lon="1.39935">
        <ele>391.4</ele>
        <time>2023-11-19T11:05:26Z</time>
      </trkpt>
      <trkpt lat="45.98061" lon="1.39969">
        <ele>391.4</ele>
        <time>2023-11-19T11:05:33Z</time>
      </trkpt>
      <trkpt lat="45.98059" lon="1.39973">
        <ele>391.6</ele>
        <time>2023-11-19T11:05:34Z</time>
      </trkpt>
      <trkpt lat="45.98041" lon="1.40021">
        <ele>391.8</ele>
        <time>2023-11-19T11:05:43Z</time>
      </trkpt>
      <trkpt lat="45.9803" lon="1.40051">
        <ele>392</ele>
        <time>2023-11-19T11:05:49Z</time>
      </trkpt>
      <trkpt lat="45.98028" lon="1.40055">
        <ele>392</ele>
        <time>2023-11-19T11:05:50Z</time>
      </trkpt>
      <trkpt lat="45.98017" lon="1.40081">
        <ele>391.6</ele>
        <time>2023-11-19T11:05:56Z</time>
      </trkpt>
      <trkpt lat="45.98011" lon="1.40092">
        <ele>390.2</ele>
        <time>2023-11-19T11:05:58Z</time>
      </trkpt>
      <trkpt lat="45.98008" lon="1.40097">
        <ele>389.8</ele>
        <time>2023-11-19T11:05:59Z</time>
      </trkpt>
      <trkpt lat="45.97998" lon="1.40108">
        <ele>388.8</ele>
        <time>2023-11-19T11:06:01Z</time>
      </trkpt>
      <trkpt lat="45.97965" lon="1.40135">
        <ele>387.8</ele>
        <time>2023-11-19T11:06:07Z</time>
      </trkpt>
      <trkpt lat="45.9792" lon="1.40159">
        <ele>387.4</ele>
        <time>2023-11-19T11:06:15Z</time>
      </trkpt>
      <trkpt lat="45.97906" lon="1.40166">
        <ele>386.8</ele>
        <time>2023-11-19T11:06:17Z</time>
      </trkpt>
      <trkpt lat="45.97886" lon="1.40175">
        <ele>385.6</ele>
        <time>2023-11-19T11:06:20Z</time>
      </trkpt>
      <trkpt lat="45.97879" lon="1.40178">
        <ele>385.2</ele>
        <time>2023-11-19T11:06:21Z</time>
      </trkpt>
      <trkpt lat="45.97864" lon="1.40184">
        <ele>384.4</ele>
        <time>2023-11-19T11:06:23Z</time>
      </trkpt>
      <trkpt lat="45.97828" lon="1.40196">
        <ele>383.6</ele>
        <time>2023-11-19T11:06:28Z</time>
      </trkpt>
      <trkpt lat="45.97801" lon="1.40201">
        <ele>383.4</ele>
        <time>2023-11-19T11:06:32Z</time>
      </trkpt>
      <trkpt lat="45.97788" lon="1.40201">
        <ele>383.4</ele>
        <time>2023-11-19T11:06:34Z</time>
      </trkpt>
      <trkpt lat="45.97744" lon="1.402">
        <ele>383.4</ele>
        <time>2023-11-19T11:06:41Z</time>
      </trkpt>
      <trkpt lat="45.977" lon="1.40198">
        <ele>383</ele>
        <time>2023-11-19T11:06:48Z</time>
      </trkpt>
      <trkpt lat="45.97667" lon="1.40193">
        <ele>383</ele>
        <time>2023-11-19T11:06:54Z</time>
      </trkpt>
      <trkpt lat="45.97634" lon="1.40189">
        <ele>382.4</ele>
        <time>2023-11-19T11:07:00Z</time>
      </trkpt>
      <trkpt lat="45.97628" lon="1.40189">
        <ele>382.2</ele>
        <time>2023-11-19T11:07:01Z</time>
      </trkpt>
      <trkpt lat="45.97594" lon="1.40186">
        <ele>381.8</ele>
        <time>2023-11-19T11:07:07Z</time>
      </trkpt>
      <trkpt lat="45.97582" lon="1.40185">
        <ele>381.4</ele>
        <time>2023-11-19T11:07:09Z</time>
      </trkpt>
      <trkpt lat="45.97548" lon="1.40179">
        <ele>380.6</ele>
        <time>2023-11-19T11:07:15Z</time>
      </trkpt>
      <trkpt lat="45.97528" lon="1.40172">
        <ele>380.2</ele>
        <time>2023-11-19T11:07:19Z</time>
      </trkpt>
      <trkpt lat="45.97524" lon="1.40168">
        <ele>378.4</ele>
        <time>2023-11-19T11:07:20Z</time>
      </trkpt>
      <trkpt lat="45.97518" lon="1.40162">
        <ele>377.8</ele>
        <time>2023-11-19T11:07:22Z</time>
      </trkpt>
      <trkpt lat="45.97515" lon="1.40159">
        <ele>377.2</ele>
        <time>2023-11-19T11:07:23Z</time>
      </trkpt>
      <trkpt lat="45.97514" lon="1.40154">
        <ele>376.8</ele>
        <time>2023-11-19T11:07:24Z</time>
      </trkpt>
      <trkpt lat="45.97512" lon="1.40147">
        <ele>376.2</ele>
        <time>2023-11-19T11:07:26Z</time>
      </trkpt>
      <trkpt lat="45.97512" lon="1.40143">
        <ele>375.4</ele>
        <time>2023-11-19T11:07:27Z</time>
      </trkpt>
      <trkpt lat="45.97515" lon="1.4013">
        <ele>374.6</ele>
        <time>2023-11-19T11:07:30Z</time>
      </trkpt>
      <trkpt lat="45.97517" lon="1.40126">
        <ele>374.4</ele>
        <time>2023-11-19T11:07:31Z</time>
      </trkpt>
      <trkpt lat="45.97521" lon="1.40114">
        <ele>373.2</ele>
        <time>2023-11-19T11:07:34Z</time>
      </trkpt>
      <trkpt lat="45.97523" lon="1.40108">
        <ele>372.2</ele>
        <time>2023-11-19T11:07:36Z</time>
      </trkpt>
      <trkpt lat="45.97524" lon="1.40105">
        <ele>372.2</ele>
        <time>2023-11-19T11:07:37Z</time>
      </trkpt>
      <trkpt lat="45.97525" lon="1.40098">
        <ele>371.6</ele>
        <time>2023-11-19T11:07:41Z</time>
      </trkpt>
      <trkpt lat="45.97524" lon="1.40096">
        <ele>371.6</ele>
        <time>2023-11-19T11:07:42Z</time>
      </trkpt>
      <trkpt lat="45.97524" lon="1.40092">
        <ele>371.8</ele>
        <time>2023-11-19T11:07:44Z</time>
      </trkpt>
      <trkpt lat="45.97522" lon="1.40083">
        <ele>372</ele>
        <time>2023-11-19T11:07:47Z</time>
      </trkpt>
      <trkpt lat="45.97512" lon="1.40064">
        <ele>372.2</ele>
        <time>2023-11-19T11:07:52Z</time>
      </trkpt>
      <trkpt lat="45.9751" lon="1.4006">
        <ele>372</ele>
        <time>2023-11-19T11:07:53Z</time>
      </trkpt>
      <trkpt lat="45.97504" lon="1.40046">
        <ele>371.8</ele>
        <time>2023-11-19T11:07:56Z</time>
      </trkpt>
      <trkpt lat="45.97497" lon="1.40031">
        <ele>371.8</ele>
        <time>2023-11-19T11:07:59Z</time>
      </trkpt>
      <trkpt lat="45.9749" lon="1.40017">
        <ele>371</ele>
        <time>2023-11-19T11:08:02Z</time>
      </trkpt>
      <trkpt lat="45.97488" lon="1.40011">
        <ele>370.4</ele>
        <time>2023-11-19T11:08:03Z</time>
      </trkpt>
      <trkpt lat="45.97486" lon="1.40005">
        <ele>369</ele>
        <time>2023-11-19T11:08:04Z</time>
      </trkpt>
      <trkpt lat="45.97485" lon="1.39999">
        <ele>368.2</ele>
        <time>2023-11-19T11:08:05Z</time>
      </trkpt>
      <trkpt lat="45.97483" lon="1.39992">
        <ele>367.8</ele>
        <time>2023-11-19T11:08:06Z</time>
      </trkpt>
      <trkpt lat="45.97473" lon="1.3995">
        <ele>366.6</ele>
        <time>2023-11-19T11:08:10Z</time>
      </trkpt>
      <trkpt lat="45.9747" lon="1.39941">
        <ele>366.2</ele>
        <time>2023-11-19T11:08:11Z</time>
      </trkpt>
      <trkpt lat="45.97462" lon="1.3992">
        <ele>364.6</ele>
        <time>2023-11-19T11:08:14Z</time>
      </trkpt>
      <trkpt lat="45.97458" lon="1.39914">
        <ele>364.2</ele>
        <time>2023-11-19T11:08:15Z</time>
      </trkpt>
      <trkpt lat="45.97446" lon="1.39887">
        <ele>364.8</ele>
        <time>2023-11-19T11:08:22Z</time>
      </trkpt>
      <trkpt lat="45.97437" lon="1.39875">
        <ele>365.6</ele>
        <time>2023-11-19T11:08:29Z</time>
      </trkpt>
      <trkpt lat="45.97435" lon="1.39873">
        <ele>366</ele>
        <time>2023-11-19T11:08:30Z</time>
      </trkpt>
      <trkpt lat="45.97422" lon="1.39871">
        <ele>367</ele>
        <time>2023-11-19T11:08:38Z</time>
      </trkpt>
      <trkpt lat="45.9742" lon="1.39871">
        <ele>367</ele>
        <time>2023-11-19T11:08:39Z</time>
      </trkpt>
      <trkpt lat="45.97407" lon="1.39869">
        <ele>367.8</ele>
        <time>2023-11-19T11:08:46Z</time>
      </trkpt>
      <trkpt lat="45.97402" lon="1.39869">
        <ele>368.2</ele>
        <time>2023-11-19T11:08:48Z</time>
      </trkpt>
      <trkpt lat="45.97398" lon="1.39869">
        <ele>368.6</ele>
        <time>2023-11-19T11:08:51Z</time>
      </trkpt>
      <trkpt lat="45.97397" lon="1.39869">
        <ele>368.6</ele>
        <time>2023-11-19T11:08:52Z</time>
      </trkpt>
      <trkpt lat="45.97395" lon="1.39869">
        <ele>368.8</ele>
        <time>2023-11-19T11:08:53Z</time>
      </trkpt>
      <trkpt lat="45.97391" lon="1.39868">
        <ele>369.2</ele>
        <time>2023-11-19T11:08:56Z</time>
      </trkpt>
      <trkpt lat="45.97387" lon="1.39869">
        <ele>369.6</ele>
        <time>2023-11-19T11:08:59Z</time>
      </trkpt>
      <trkpt lat="45.97386" lon="1.39869">
        <ele>369.8</ele>
        <time>2023-11-19T11:09:00Z</time>
      </trkpt>
      <trkpt lat="45.97373" lon="1.39872">
        <ele>370</ele>
        <time>2023-11-19T11:09:08Z</time>
      </trkpt>
      <trkpt lat="45.9737" lon="1.39873">
        <ele>370.4</ele>
        <time>2023-11-19T11:09:10Z</time>
      </trkpt>
      <trkpt lat="45.97369" lon="1.39873">
        <ele>370.4</ele>
        <time>2023-11-19T11:09:11Z</time>
      </trkpt>
      <trkpt lat="45.97366" lon="1.39874">
        <ele>371.4</ele>
        <time>2023-11-19T11:09:14Z</time>
      </trkpt>
      <trkpt lat="45.97361" lon="1.39879">
        <ele>372.4</ele>
        <time>2023-11-19T11:09:17Z</time>
      </trkpt>
      <trkpt lat="45.97359" lon="1.39881">
        <ele>372.6</ele>
        <time>2023-11-19T11:09:18Z</time>
      </trkpt>
      <trkpt lat="45.97356" lon="1.39883">
        <ele>373.4</ele>
        <time>2023-11-19T11:09:21Z</time>
      </trkpt>
      <trkpt lat="45.97355" lon="1.39884">
        <ele>373.8</ele>
        <time>2023-11-19T11:09:23Z</time>
      </trkpt>
      <trkpt lat="45.97355" lon="1.39884">
        <ele>374.2</ele>
        <time>2023-11-19T11:09:24Z</time>
      </trkpt>
      <trkpt lat="45.97353" lon="1.39886">
        <ele>374.4</ele>
        <time>2023-11-19T11:09:26Z</time>
      </trkpt>
      <trkpt lat="45.9735" lon="1.39888">
        <ele>374.8</ele>
        <time>2023-11-19T11:09:29Z</time>
      </trkpt>
      <trkpt lat="45.97346" lon="1.39895">
        <ele>375.2</ele>
        <time>2023-11-19T11:09:31Z</time>
      </trkpt>
      <trkpt lat="45.97339" lon="1.39909">
        <ele>375.2</ele>
        <time>2023-11-19T11:09:35Z</time>
      </trkpt>
      <trkpt lat="45.97327" lon="1.39928">
        <ele>375.8</ele>
        <time>2023-11-19T11:09:40Z</time>
      </trkpt>
      <trkpt lat="45.97313" lon="1.39943">
        <ele>376.2</ele>
        <time>2023-11-19T11:09:48Z</time>
      </trkpt>
      <trkpt lat="45.97296" lon="1.39959">
        <ele>376.4</ele>
        <time>2023-11-19T11:09:57Z</time>
      </trkpt>
      <trkpt lat="45.97286" lon="1.39972">
        <ele>376.8</ele>
        <time>2023-11-19T11:10:03Z</time>
      </trkpt>
      <trkpt lat="45.97281" lon="1.39979">
        <ele>376.8</ele>
        <time>2023-11-19T11:10:06Z</time>
      </trkpt>
      <trkpt lat="45.97274" lon="1.39987">
        <ele>376.6</ele>
        <time>2023-11-19T11:10:10Z</time>
      </trkpt>
      <trkpt lat="45.9727" lon="1.39993">
        <ele>375.8</ele>
        <time>2023-11-19T11:10:12Z</time>
      </trkpt>
      <trkpt lat="45.97262" lon="1.40005">
        <ele>374.2</ele>
        <time>2023-11-19T11:10:16Z</time>
      </trkpt>
      <trkpt lat="45.9726" lon="1.40008">
        <ele>373.8</ele>
        <time>2023-11-19T11:10:17Z</time>
      </trkpt>
      <trkpt lat="45.97255" lon="1.4002">
        <ele>373.6</ele>
        <time>2023-11-19T11:10:20Z</time>
      </trkpt>
      <trkpt lat="45.97245" lon="1.40035">
        <ele>373</ele>
        <time>2023-11-19T11:10:25Z</time>
      </trkpt>
      <trkpt lat="45.97242" lon="1.40043">
        <ele>373</ele>
        <time>2023-11-19T11:10:27Z</time>
      </trkpt>
      <trkpt lat="45.97238" lon="1.40061">
        <ele>371.8</ele>
        <time>2023-11-19T11:10:32Z</time>
      </trkpt>
      <trkpt lat="45.97234" lon="1.40074">
        <ele>371.4</ele>
        <time>2023-11-19T11:10:34Z</time>
      </trkpt>
      <trkpt lat="45.97232" lon="1.40081">
        <ele>370.8</ele>
        <time>2023-11-19T11:10:37Z</time>
      </trkpt>
      <trkpt lat="45.97223" lon="1.40102">
        <ele>370.6</ele>
        <time>2023-11-19T11:10:41Z</time>
      </trkpt>
      <trkpt lat="45.97207" lon="1.40136">
        <ele>371.8</ele>
        <time>2023-11-19T11:10:47Z</time>
      </trkpt>
      <trkpt lat="45.97205" lon="1.40141">
        <ele>372</ele>
        <time>2023-11-19T11:10:48Z</time>
      </trkpt>
      <trkpt lat="45.97191" lon="1.40177">
        <ele>371.8</ele>
        <time>2023-11-19T11:10:55Z</time>
      </trkpt>
      <trkpt lat="45.9718" lon="1.40207">
        <ele>371.2</ele>
        <time>2023-11-19T11:11:02Z</time>
      </trkpt>
      <trkpt lat="45.97174" lon="1.4022">
        <ele>370.8</ele>
        <time>2023-11-19T11:11:05Z</time>
      </trkpt>
      <trkpt lat="45.9717" lon="1.4023">
        <ele>370.8</ele>
        <time>2023-11-19T11:11:07Z</time>
      </trkpt>
      <trkpt lat="45.97163" lon="1.40248">
        <ele>370.4</ele>
        <time>2023-11-19T11:11:11Z</time>
      </trkpt>
      <trkpt lat="45.97158" lon="1.40256">
        <ele>370</ele>
        <time>2023-11-19T11:11:13Z</time>
      </trkpt>
      <trkpt lat="45.97156" lon="1.4026">
        <ele>370</ele>
        <time>2023-11-19T11:11:14Z</time>
      </trkpt>
      <trkpt lat="45.97153" lon="1.40264">
        <ele>370</ele>
        <time>2023-11-19T11:11:15Z</time>
      </trkpt>
      <trkpt lat="45.97141" lon="1.40287">
        <ele>370.2</ele>
        <time>2023-11-19T11:11:20Z</time>
      </trkpt>
      <trkpt lat="45.97128" lon="1.40321">
        <ele>370.8</ele>
        <time>2023-11-19T11:11:28Z</time>
      </trkpt>
      <trkpt lat="45.97109" lon="1.40365">
        <ele>370.6</ele>
        <time>2023-11-19T11:11:35Z</time>
      </trkpt>
      <trkpt lat="45.97096" lon="1.40392">
        <ele>372</ele>
        <time>2023-11-19T11:11:40Z</time>
      </trkpt>
      <trkpt lat="45.97094" lon="1.40399">
        <ele>372</ele>
        <time>2023-11-19T11:11:41Z</time>
      </trkpt>
      <trkpt lat="45.9708" lon="1.40436">
        <ele>371.4</ele>
        <time>2023-11-19T11:11:48Z</time>
      </trkpt>
      <trkpt lat="45.97068" lon="1.40466">
        <ele>371.8</ele>
        <time>2023-11-19T11:11:55Z</time>
      </trkpt>
      <trkpt lat="45.97058" lon="1.40486">
        <ele>372.2</ele>
        <time>2023-11-19T11:12:01Z</time>
      </trkpt>
      <trkpt lat="45.97054" lon="1.40493">
        <ele>371.8</ele>
        <time>2023-11-19T11:12:03Z</time>
      </trkpt>
      <trkpt lat="45.9705" lon="1.40504">
        <ele>370.8</ele>
        <time>2023-11-19T11:12:05Z</time>
      </trkpt>
      <trkpt lat="45.97045" lon="1.40515">
        <ele>370.2</ele>
        <time>2023-11-19T11:12:07Z</time>
      </trkpt>
      <trkpt lat="45.97043" lon="1.40518">
        <ele>369.8</ele>
        <time>2023-11-19T11:12:08Z</time>
      </trkpt>
      <trkpt lat="45.9704" lon="1.40522">
        <ele>369.4</ele>
        <time>2023-11-19T11:12:09Z</time>
      </trkpt>
      <trkpt lat="45.97035" lon="1.4053">
        <ele>368</ele>
        <time>2023-11-19T11:12:11Z</time>
      </trkpt>
      <trkpt lat="45.97035" lon="1.4053">
        <ele>366.2</ele>
        <time>2023-11-19T11:12:14Z</time>
      </trkpt>
      <trkpt lat="45.97022" lon="1.40554">
        <ele>365</ele>
        <time>2023-11-19T11:12:16Z</time>
      </trkpt>
      <trkpt lat="45.97019" lon="1.4056">
        <ele>364.2</ele>
        <time>2023-11-19T11:12:18Z</time>
      </trkpt>
      <trkpt lat="45.97016" lon="1.40565">
        <ele>363.8</ele>
        <time>2023-11-19T11:12:19Z</time>
      </trkpt>
      <trkpt lat="45.97007" lon="1.40581">
        <ele>362.8</ele>
        <time>2023-11-19T11:12:22Z</time>
      </trkpt>
      <trkpt lat="45.97004" lon="1.40588">
        <ele>362.6</ele>
        <time>2023-11-19T11:12:23Z</time>
      </trkpt>
      <trkpt lat="45.96987" lon="1.4062">
        <ele>362.8</ele>
        <time>2023-11-19T11:12:27Z</time>
      </trkpt>
      <trkpt lat="45.9697" lon="1.40646">
        <ele>363</ele>
        <time>2023-11-19T11:12:31Z</time>
      </trkpt>
      <trkpt lat="45.96967" lon="1.40648">
        <ele>363.2</ele>
        <time>2023-11-19T11:12:32Z</time>
      </trkpt>
      <trkpt lat="45.96959" lon="1.40655">
        <ele>363.6</ele>
        <time>2023-11-19T11:12:35Z</time>
      </trkpt>
      <trkpt lat="45.9695" lon="1.40666">
        <ele>364.2</ele>
        <time>2023-11-19T11:12:39Z</time>
      </trkpt>
      <trkpt lat="45.96936" lon="1.4068">
        <ele>364.6</ele>
        <time>2023-11-19T11:12:44Z</time>
      </trkpt>
      <trkpt lat="45.96929" lon="1.40687">
        <ele>365.2</ele>
        <time>2023-11-19T11:12:47Z</time>
      </trkpt>
      <trkpt lat="45.96916" lon="1.40695">
        <ele>365.8</ele>
        <time>2023-11-19T11:12:52Z</time>
      </trkpt>
      <trkpt lat="45.96907" lon="1.40701">
        <ele>366</ele>
        <time>2023-11-19T11:12:55Z</time>
      </trkpt>
      <trkpt lat="45.96891" lon="1.40714">
        <ele>366.8</ele>
        <time>2023-11-19T11:13:00Z</time>
      </trkpt>
      <trkpt lat="45.96884" lon="1.40721">
        <ele>367</ele>
        <time>2023-11-19T11:13:02Z</time>
      </trkpt>
      <trkpt lat="45.9687" lon="1.40735">
        <ele>367.8</ele>
        <time>2023-11-19T11:13:06Z</time>
      </trkpt>
      <trkpt lat="45.96861" lon="1.40738">
        <ele>368.2</ele>
        <time>2023-11-19T11:13:09Z</time>
      </trkpt>
      <trkpt lat="45.96841" lon="1.40749">
        <ele>369</ele>
        <time>2023-11-19T11:13:16Z</time>
      </trkpt>
      <trkpt lat="45.96821" lon="1.40765">
        <ele>369.8</ele>
        <time>2023-11-19T11:13:23Z</time>
      </trkpt>
      <trkpt lat="45.96817" lon="1.40767">
        <ele>370</ele>
        <time>2023-11-19T11:13:25Z</time>
      </trkpt>
      <trkpt lat="45.96808" lon="1.40769">
        <ele>371</ele>
        <time>2023-11-19T11:13:29Z</time>
      </trkpt>
      <trkpt lat="45.96805" lon="1.4077">
        <ele>371.2</ele>
        <time>2023-11-19T11:13:30Z</time>
      </trkpt>
      <trkpt lat="45.96794" lon="1.40775">
        <ele>371.6</ele>
        <time>2023-11-19T11:13:34Z</time>
      </trkpt>
      <trkpt lat="45.96785" lon="1.40778">
        <ele>372.4</ele>
        <time>2023-11-19T11:13:37Z</time>
      </trkpt>
      <trkpt lat="45.96769" lon="1.40783">
        <ele>372.8</ele>
        <time>2023-11-19T11:13:41Z</time>
      </trkpt>
      <trkpt lat="45.96742" lon="1.40785">
        <ele>372.8</ele>
        <time>2023-11-19T11:13:48Z</time>
      </trkpt>
      <trkpt lat="45.96718" lon="1.40773">
        <ele>373.2</ele>
        <time>2023-11-19T11:13:56Z</time>
      </trkpt>
      <trkpt lat="45.96707" lon="1.40763">
        <ele>373.4</ele>
        <time>2023-11-19T11:14:00Z</time>
      </trkpt>
      <trkpt lat="45.96705" lon="1.40759">
        <ele>373.4</ele>
        <time>2023-11-19T11:14:01Z</time>
      </trkpt>
      <trkpt lat="45.96692" lon="1.40741">
        <ele>373.6</ele>
        <time>2023-11-19T11:14:06Z</time>
      </trkpt>
      <trkpt lat="45.96682" lon="1.40716">
        <ele>373.6</ele>
        <time>2023-11-19T11:14:11Z</time>
      </trkpt>
      <trkpt lat="45.96667" lon="1.40678">
        <ele>374.4</ele>
        <time>2023-11-19T11:14:18Z</time>
      </trkpt>
      <trkpt lat="45.96658" lon="1.40654">
        <ele>374.4</ele>
        <time>2023-11-19T11:14:24Z</time>
      </trkpt>
      <trkpt lat="45.9665" lon="1.40633">
        <ele>374.4</ele>
        <time>2023-11-19T11:14:29Z</time>
      </trkpt>
      <trkpt lat="45.96645" lon="1.40622">
        <ele>374.6</ele>
        <time>2023-11-19T11:14:32Z</time>
      </trkpt>
      <trkpt lat="45.96636" lon="1.40604">
        <ele>375.4</ele>
        <time>2023-11-19T11:14:37Z</time>
      </trkpt>
      <trkpt lat="45.96635" lon="1.40601">
        <ele>375.8</ele>
        <time>2023-11-19T11:14:38Z</time>
      </trkpt>
      <trkpt lat="45.96628" lon="1.40597">
        <ele>376.8</ele>
        <time>2023-11-19T11:14:41Z</time>
      </trkpt>
      <trkpt lat="45.96625" lon="1.40595">
        <ele>377.2</ele>
        <time>2023-11-19T11:14:42Z</time>
      </trkpt>
      <trkpt lat="45.96614" lon="1.40592">
        <ele>377.8</ele>
        <time>2023-11-19T11:14:46Z</time>
      </trkpt>
      <trkpt lat="45.96608" lon="1.40591">
        <ele>378.2</ele>
        <time>2023-11-19T11:14:48Z</time>
      </trkpt>
      <trkpt lat="45.96596" lon="1.40587">
        <ele>379.2</ele>
        <time>2023-11-19T11:14:52Z</time>
      </trkpt>
      <trkpt lat="45.96589" lon="1.40582">
        <ele>379.6</ele>
        <time>2023-11-19T11:14:54Z</time>
      </trkpt>
      <trkpt lat="45.96575" lon="1.40572">
        <ele>380.4</ele>
        <time>2023-11-19T11:14:58Z</time>
      </trkpt>
      <trkpt lat="45.96568" lon="1.40569">
        <ele>381.8</ele>
        <time>2023-11-19T11:15:00Z</time>
      </trkpt>
      <trkpt lat="45.96556" lon="1.40562">
        <ele>383</ele>
        <time>2023-11-19T11:15:04Z</time>
      </trkpt>
      <trkpt lat="45.96549" lon="1.40559">
        <ele>384.2</ele>
        <time>2023-11-19T11:15:07Z</time>
      </trkpt>
      <trkpt lat="45.96532" lon="1.40549">
        <ele>384.8</ele>
        <time>2023-11-19T11:15:13Z</time>
      </trkpt>
      <trkpt lat="45.96508" lon="1.40537">
        <ele>384.6</ele>
        <time>2023-11-19T11:15:20Z</time>
      </trkpt>
      <trkpt lat="45.96481" lon="1.40529">
        <ele>383.6</ele>
        <time>2023-11-19T11:15:25Z</time>
      </trkpt>
      <trkpt lat="45.96458" lon="1.40525">
        <ele>382.4</ele>
        <time>2023-11-19T11:15:28Z</time>
      </trkpt>
      <trkpt lat="45.96442" lon="1.40524">
        <ele>381</ele>
        <time>2023-11-19T11:15:30Z</time>
      </trkpt>
      <trkpt lat="45.96426" lon="1.40521">
        <ele>379.4</ele>
        <time>2023-11-19T11:15:32Z</time>
      </trkpt>
      <trkpt lat="45.96408" lon="1.40515">
        <ele>378.4</ele>
        <time>2023-11-19T11:15:34Z</time>
      </trkpt>
      <trkpt lat="45.964" lon="1.40509">
        <ele>377.4</ele>
        <time>2023-11-19T11:15:35Z</time>
      </trkpt>
      <trkpt lat="45.96391" lon="1.40502">
        <ele>376</ele>
        <time>2023-11-19T11:15:36Z</time>
      </trkpt>
      <trkpt lat="45.96375" lon="1.40482">
        <ele>373.4</ele>
        <time>2023-11-19T11:15:38Z</time>
      </trkpt>
      <trkpt lat="45.96368" lon="1.40472">
        <ele>372.4</ele>
        <time>2023-11-19T11:15:39Z</time>
      </trkpt>
      <trkpt lat="45.96357" lon="1.40455">
        <ele>370.2</ele>
        <time>2023-11-19T11:15:41Z</time>
      </trkpt>
      <trkpt lat="45.96352" lon="1.40446">
        <ele>369.2</ele>
        <time>2023-11-19T11:15:42Z</time>
      </trkpt>
      <trkpt lat="45.96348" lon="1.40438">
        <ele>367.8</ele>
        <time>2023-11-19T11:15:43Z</time>
      </trkpt>
      <trkpt lat="45.96345" lon="1.4043">
        <ele>366.6</ele>
        <time>2023-11-19T11:15:44Z</time>
      </trkpt>
      <trkpt lat="45.96341" lon="1.40416">
        <ele>364.4</ele>
        <time>2023-11-19T11:15:46Z</time>
      </trkpt>
      <trkpt lat="45.96339" lon="1.40411">
        <ele>363.4</ele>
        <time>2023-11-19T11:15:47Z</time>
      </trkpt>
      <trkpt lat="45.96336" lon="1.40406">
        <ele>362.6</ele>
        <time>2023-11-19T11:15:48Z</time>
      </trkpt>
      <trkpt lat="45.9633" lon="1.40395">
        <ele>361.6</ele>
        <time>2023-11-19T11:15:50Z</time>
      </trkpt>
      <trkpt lat="45.96326" lon="1.40389">
        <ele>361.4</ele>
        <time>2023-11-19T11:15:51Z</time>
      </trkpt>
      <trkpt lat="45.96322" lon="1.40382">
        <ele>360.6</ele>
        <time>2023-11-19T11:15:52Z</time>
      </trkpt>
      <trkpt lat="45.96316" lon="1.40375">
        <ele>360.2</ele>
        <time>2023-11-19T11:15:53Z</time>
      </trkpt>
      <trkpt lat="45.96294" lon="1.40351">
        <ele>359</ele>
        <time>2023-11-19T11:15:56Z</time>
      </trkpt>
      <trkpt lat="45.96288" lon="1.40342">
        <ele>358.4</ele>
        <time>2023-11-19T11:15:57Z</time>
      </trkpt>
      <trkpt lat="45.96278" lon="1.40323">
        <ele>357.4</ele>
        <time>2023-11-19T11:15:58Z</time>
      </trkpt>
      <trkpt lat="45.96274" lon="1.40314">
        <ele>357.2</ele>
        <time>2023-11-19T11:16:00Z</time>
      </trkpt>
      <trkpt lat="45.96248" lon="1.40251">
        <ele>356.8</ele>
        <time>2023-11-19T11:16:07Z</time>
      </trkpt>
      <trkpt lat="45.96232" lon="1.40211">
        <ele>356.6</ele>
        <time>2023-11-19T11:16:11Z</time>
      </trkpt>
      <trkpt lat="45.96226" lon="1.40203">
        <ele>356.6</ele>
        <time>2023-11-19T11:16:12Z</time>
      </trkpt>
      <trkpt lat="45.9622" lon="1.40198">
        <ele>356.6</ele>
        <time>2023-11-19T11:16:13Z</time>
      </trkpt>
      <trkpt lat="45.96209" lon="1.40196">
        <ele>356.8</ele>
        <time>2023-11-19T11:16:15Z</time>
      </trkpt>
      <trkpt lat="45.96194" lon="1.40196">
        <ele>358.8</ele>
        <time>2023-11-19T11:16:18Z</time>
      </trkpt>
      <trkpt lat="45.96178" lon="1.40195">
        <ele>359.6</ele>
        <time>2023-11-19T11:16:21Z</time>
      </trkpt>
      <trkpt lat="45.96174" lon="1.40195">
        <ele>360</ele>
        <time>2023-11-19T11:16:22Z</time>
      </trkpt>
      <trkpt lat="45.96155" lon="1.40193">
        <ele>360.8</ele>
        <time>2023-11-19T11:16:26Z</time>
      </trkpt>
      <trkpt lat="45.9615" lon="1.40191">
        <ele>360.8</ele>
        <time>2023-11-19T11:16:27Z</time>
      </trkpt>
      <trkpt lat="45.96146" lon="1.4019">
        <ele>361</ele>
        <time>2023-11-19T11:16:28Z</time>
      </trkpt>
      <trkpt lat="45.96124" lon="1.4018">
        <ele>361.8</ele>
        <time>2023-11-19T11:16:33Z</time>
      </trkpt>
      <trkpt lat="45.961" lon="1.40155">
        <ele>361.6</ele>
        <time>2023-11-19T11:16:39Z</time>
      </trkpt>
      <trkpt lat="45.96081" lon="1.40132">
        <ele>362.4</ele>
        <time>2023-11-19T11:16:45Z</time>
      </trkpt>
      <trkpt lat="45.96079" lon="1.40129">
        <ele>362.4</ele>
        <time>2023-11-19T11:16:46Z</time>
      </trkpt>
      <trkpt lat="45.96065" lon="1.401">
        <ele>363</ele>
        <time>2023-11-19T11:16:52Z</time>
      </trkpt>
      <trkpt lat="45.96043" lon="1.40062">
        <ele>362</ele>
        <time>2023-11-19T11:16:59Z</time>
      </trkpt>
      <trkpt lat="45.96016" lon="1.40009">
        <ele>361.4</ele>
        <time>2023-11-19T11:17:07Z</time>
      </trkpt>
      <trkpt lat="45.96006" lon="1.39989">
        <ele>361.2</ele>
        <time>2023-11-19T11:17:10Z</time>
      </trkpt>
      <trkpt lat="45.96" lon="1.39973">
        <ele>361.2</ele>
        <time>2023-11-19T11:17:12Z</time>
      </trkpt>
      <trkpt lat="45.9599" lon="1.39951">
        <ele>361.2</ele>
        <time>2023-11-19T11:17:15Z</time>
      </trkpt>
      <trkpt lat="45.95981" lon="1.39938">
        <ele>361.4</ele>
        <time>2023-11-19T11:17:17Z</time>
      </trkpt>
      <trkpt lat="45.9597" lon="1.39928">
        <ele>361</ele>
        <time>2023-11-19T11:17:19Z</time>
      </trkpt>
      <trkpt lat="45.95957" lon="1.39925">
        <ele>360.4</ele>
        <time>2023-11-19T11:17:21Z</time>
      </trkpt>
      <trkpt lat="45.95951" lon="1.39925">
        <ele>360.2</ele>
        <time>2023-11-19T11:17:22Z</time>
      </trkpt>
      <trkpt lat="45.95922" lon="1.39926">
        <ele>359.4</ele>
        <time>2023-11-19T11:17:26Z</time>
      </trkpt>
      <trkpt lat="45.95915" lon="1.39926">
        <ele>359</ele>
        <time>2023-11-19T11:17:27Z</time>
      </trkpt>
      <trkpt lat="45.95896" lon="1.39922">
        <ele>358.8</ele>
        <time>2023-11-19T11:17:30Z</time>
      </trkpt>
      <trkpt lat="45.95891" lon="1.39918">
        <ele>358.6</ele>
        <time>2023-11-19T11:17:31Z</time>
      </trkpt>
      <trkpt lat="45.95887" lon="1.39911">
        <ele>358.6</ele>
        <time>2023-11-19T11:17:32Z</time>
      </trkpt>
      <trkpt lat="45.95884" lon="1.39898">
        <ele>358.8</ele>
        <time>2023-11-19T11:17:34Z</time>
      </trkpt>
      <trkpt lat="45.95878" lon="1.39871">
        <ele>360.4</ele>
        <time>2023-11-19T11:17:38Z</time>
      </trkpt>
      <trkpt lat="45.95877" lon="1.39858">
        <ele>361</ele>
        <time>2023-11-19T11:17:40Z</time>
      </trkpt>
      <trkpt lat="45.95877" lon="1.39851">
        <ele>361.2</ele>
        <time>2023-11-19T11:17:41Z</time>
      </trkpt>
      <trkpt lat="45.95878" lon="1.39844">
        <ele>361.4</ele>
        <time>2023-11-19T11:17:42Z</time>
      </trkpt>
      <trkpt lat="45.9588" lon="1.39825">
        <ele>362.4</ele>
        <time>2023-11-19T11:17:45Z</time>
      </trkpt>
      <trkpt lat="45.95882" lon="1.3982">
        <ele>362.8</ele>
        <time>2023-11-19T11:17:46Z</time>
      </trkpt>
      <trkpt lat="45.95888" lon="1.39802">
        <ele>363.8</ele>
        <time>2023-11-19T11:17:50Z</time>
      </trkpt>
      <trkpt lat="45.9589" lon="1.39797">
        <ele>364.2</ele>
        <time>2023-11-19T11:17:51Z</time>
      </trkpt>
      <trkpt lat="45.9589" lon="1.39789">
        <ele>364.6</ele>
        <time>2023-11-19T11:17:53Z</time>
      </trkpt>
      <trkpt lat="45.95888" lon="1.39786">
        <ele>364.8</ele>
        <time>2023-11-19T11:17:54Z</time>
      </trkpt>
      <trkpt lat="45.9588" lon="1.39776">
        <ele>365.2</ele>
        <time>2023-11-19T11:17:57Z</time>
      </trkpt>
      <trkpt lat="45.9587" lon="1.39771">
        <ele>365.6</ele>
        <time>2023-11-19T11:18:00Z</time>
      </trkpt>
      <trkpt lat="45.95851" lon="1.39765">
        <ele>366</ele>
        <time>2023-11-19T11:18:05Z</time>
      </trkpt>
      <trkpt lat="45.95845" lon="1.39751">
        <ele>366.2</ele>
        <time>2023-11-19T11:18:10Z</time>
      </trkpt>
      <trkpt lat="45.95844" lon="1.39747">
        <ele>366.2</ele>
        <time>2023-11-19T11:18:11Z</time>
      </trkpt>
      <trkpt lat="45.95841" lon="1.39729">
        <ele>366.2</ele>
        <time>2023-11-19T11:18:16Z</time>
      </trkpt>
      <trkpt lat="45.9584" lon="1.39721">
        <ele>366.2</ele>
        <time>2023-11-19T11:18:19Z</time>
      </trkpt>
      <trkpt lat="45.95838" lon="1.3972">
        <ele>366.2</ele>
        <time>2023-11-19T11:18:21Z</time>
      </trkpt>
      <trkpt lat="45.95836" lon="1.39719">
        <ele>366.2</ele>
        <time>2023-11-19T11:18:23Z</time>
      </trkpt>
      <trkpt lat="45.95834" lon="1.39719">
        <ele>366.2</ele>
        <time>2023-11-19T11:18:30Z</time>
      </trkpt>
      <trkpt lat="45.95832" lon="1.3972">
        <ele>366.6</ele>
        <time>2023-11-19T11:18:37Z</time>
      </trkpt>
      <trkpt lat="45.95834" lon="1.3972">
        <ele>366.4</ele>
        <time>2023-11-19T11:18:40Z</time>
      </trkpt>
    </trkseg>
  </trk>
</gpx>